<?xml version="1.0" encoding="UTF-8" standalone="no" ?>
<gpx xmlns="http://www.topografix.com/GPX/1/1" xmlns:xsi="http://www.w3.org/2001/XMLSchema-instance" xsi:schemaLocation="http://www.topografix.com/GPX/1/1 http://www.topografix.com/GPX/1/1/gpx.xsd" version="1.1" creator="VisuGPX - https://www.visugpx.com">
  <metadata>
    <name>La Trace du Sanglier 2011</name>
    <desc><![CDATA[Superbe tracé autour de Palaja.
Edition 2011 très chaleureuse malgré les conditions méteo.]]></desc>
  </metadata>
  <trk>
    <name><![CDATA[La Trace du Sanglier]]></name>
    <cmt><![CDATA[D+1640m

Chuttes: 0
Crevaison: 0
Physique: Physique à cause de la boue
Mécanique: Bash validé dans ses conditions difficiles - Pression Pneus: Arr; 1,9 Bars (Toro) / Av; 1,8 Bars (Cobra) =TOP
Cyclistes: Oscar



Copier Coller Biking66:

"Première participation et très grosse surprise  :
L'ambiance est géniale, Gros événement mais aucune prise de tête, accueil tout sourire, bénévoles aux ravitos super sympa. Rien que pour ça chapeau !!!
Belle surprise à l'arrivée: Une photo grand format, une bière offerte et un apéro (sans alcool de la région) ... avec une plaque format sanglier très sympa, bref de beaux souvenirs  .

Mais l'essentiel n'est pas là. C'est surtout un parcours très bien fait avec beaucoup de monotraces. Le raid porte bien son nom ... nous avons même eu la chance de suivre un sanglier sur une vingtaine de mètres (pas farouche, un amateur de VTT ?), moment très sympa.

A part la mise en route très boueuse, le reste du parcours était vraiment très varié:
Passages en sous bois, passage en prairie (type alpage d'altitude ... mais à 400m), crêtes avec vue imprenable, etc ... le tout sur monotrace D
!!!
Pour conclure, le dénivelé et la distance laissé présager un raid tranquille, il en fut tout autrement avec la boue collé aux VTT (bien plus lourds du coup), et les passages tantôt collants, tantôt glissants ...

Un super dimanche de VTT, RDV pris pour l'année prochaine ... arf non. Dans deux ans.
A conseiller ça vaut vraiment le déplacement."]]></cmt>
    <trkseg>
      <trkpt lat="43.16951" lon="2.38688">
        <ele>177.68350219727</ele>
        <time>2011-06-05T06:09:01Z</time>
      </trkpt>
      <trkpt lat="43.16944" lon="2.3869">
        <ele>177.90837097168</ele>
        <time>2011-06-05T06:09:03Z</time>
      </trkpt>
      <trkpt lat="43.1692" lon="2.38696">
        <ele>178.62133789062</ele>
        <time>2011-06-05T06:09:10Z</time>
      </trkpt>
      <trkpt lat="43.16912" lon="2.38681">
        <ele>178.58784484863</ele>
        <time>2011-06-05T06:09:15Z</time>
      </trkpt>
      <trkpt lat="43.16912" lon="2.38672">
        <ele>178.42442321777</ele>
        <time>2011-06-05T06:09:17Z</time>
      </trkpt>
      <trkpt lat="43.1691" lon="2.38634">
        <ele>177.59600830078</ele>
        <time>2011-06-05T06:09:25Z</time>
      </trkpt>
      <trkpt lat="43.16908" lon="2.38605">
        <ele>176.9768371582</ele>
        <time>2011-06-05T06:09:32Z</time>
      </trkpt>
      <trkpt lat="43.16912" lon="2.38597">
        <ele>176.54316711426</ele>
        <time>2011-06-05T06:09:36Z</time>
      </trkpt>
      <trkpt lat="43.16935" lon="2.38588">
        <ele>175.6590423584</ele>
        <time>2011-06-05T06:09:42Z</time>
      </trkpt>
      <trkpt lat="43.16946" lon="2.38582">
        <ele>175.26997375488</ele>
        <time>2011-06-05T06:09:44Z</time>
      </trkpt>
      <trkpt lat="43.1698" lon="2.38563">
        <ele>174.37008666992</ele>
        <time>2011-06-05T06:09:49Z</time>
      </trkpt>
      <trkpt lat="43.16995" lon="2.38558">
        <ele>174.08558654785</ele>
        <time>2011-06-05T06:09:51Z</time>
      </trkpt>
      <trkpt lat="43.17025" lon="2.38553">
        <ele>173.59857177734</ele>
        <time>2011-06-05T06:09:55Z</time>
      </trkpt>
      <trkpt lat="43.17065" lon="2.38561">
        <ele>173.01235961914</ele>
        <time>2011-06-05T06:10:01Z</time>
      </trkpt>
      <trkpt lat="43.17085" lon="2.38559">
        <ele>172.73936462402</ele>
        <time>2011-06-05T06:10:06Z</time>
      </trkpt>
      <trkpt lat="43.17085" lon="2.38542">
        <ele>172.55307006836</ele>
        <time>2011-06-05T06:10:10Z</time>
      </trkpt>
      <trkpt lat="43.17082" lon="2.38532">
        <ele>172.40817260742</ele>
        <time>2011-06-05T06:10:14Z</time>
      </trkpt>
      <trkpt lat="43.17078" lon="2.38506">
        <ele>172.18942260742</ele>
        <time>2011-06-05T06:10:22Z</time>
      </trkpt>
      <trkpt lat="43.17075" lon="2.38476">
        <ele>172.56134033203</ele>
        <time>2011-06-05T06:10:30Z</time>
      </trkpt>
      <trkpt lat="43.17073" lon="2.38461">
        <ele>172.81805419922</ele>
        <time>2011-06-05T06:10:34Z</time>
      </trkpt>
      <trkpt lat="43.17072" lon="2.38427">
        <ele>173.40882873535</ele>
        <time>2011-06-05T06:10:43Z</time>
      </trkpt>
      <trkpt lat="43.17068" lon="2.38405">
        <ele>174.08772277832</ele>
        <time>2011-06-05T06:10:49Z</time>
      </trkpt>
      <trkpt lat="43.17067" lon="2.38393">
        <ele>174.44494628906</ele>
        <time>2011-06-05T06:10:54Z</time>
      </trkpt>
      <trkpt lat="43.17067" lon="2.38389">
        <ele>174.54521179199</ele>
        <time>2011-06-05T06:10:56Z</time>
      </trkpt>
      <trkpt lat="43.17068" lon="2.38382">
        <ele>174.71513366699</ele>
        <time>2011-06-05T06:10:59Z</time>
      </trkpt>
      <trkpt lat="43.1707" lon="2.38362">
        <ele>175.13177490234</ele>
        <time>2011-06-05T06:11:06Z</time>
      </trkpt>
      <trkpt lat="43.17078" lon="2.38342">
        <ele>175.1222076416</ele>
        <time>2011-06-05T06:11:12Z</time>
      </trkpt>
      <trkpt lat="43.17083" lon="2.3833">
        <ele>175.08894348144</ele>
        <time>2011-06-05T06:11:15Z</time>
      </trkpt>
      <trkpt lat="43.17098" lon="2.38306">
        <ele>174.48544311523</ele>
        <time>2011-06-05T06:11:20Z</time>
      </trkpt>
      <trkpt lat="43.17117" lon="2.38286">
        <ele>173.80847167969</ele>
        <time>2011-06-05T06:11:26Z</time>
      </trkpt>
      <trkpt lat="43.1713" lon="2.38265">
        <ele>173.46894836426</ele>
        <time>2011-06-05T06:11:32Z</time>
      </trkpt>
      <trkpt lat="43.17142" lon="2.38245">
        <ele>173.35835266113</ele>
        <time>2011-06-05T06:11:39Z</time>
      </trkpt>
      <trkpt lat="43.17158" lon="2.38218">
        <ele>173.81726074219</ele>
        <time>2011-06-05T06:11:48Z</time>
      </trkpt>
      <trkpt lat="43.17174" lon="2.38186">
        <ele>174.80438232422</ele>
        <time>2011-06-05T06:11:57Z</time>
      </trkpt>
      <trkpt lat="43.17181" lon="2.38172">
        <ele>175.22941589356</ele>
        <time>2011-06-05T06:12:01Z</time>
      </trkpt>
      <trkpt lat="43.17192" lon="2.38152">
        <ele>175.49671936035</ele>
        <time>2011-06-05T06:12:08Z</time>
      </trkpt>
      <trkpt lat="43.172" lon="2.38133">
        <ele>175.76702880859</ele>
        <time>2011-06-05T06:12:15Z</time>
      </trkpt>
      <trkpt lat="43.17206" lon="2.38118">
        <ele>176.02098083496</ele>
        <time>2011-06-05T06:12:22Z</time>
      </trkpt>
      <trkpt lat="43.17213" lon="2.38118">
        <ele>175.83529663086</ele>
        <time>2011-06-05T06:12:30Z</time>
      </trkpt>
      <trkpt lat="43.17221" lon="2.38123">
        <ele>175.40771484375</ele>
        <time>2011-06-05T06:12:37Z</time>
      </trkpt>
      <trkpt lat="43.17234" lon="2.38128">
        <ele>174.85261535644</ele>
        <time>2011-06-05T06:12:42Z</time>
      </trkpt>
      <trkpt lat="43.1725" lon="2.38135">
        <ele>174.14852905273</ele>
        <time>2011-06-05T06:12:47Z</time>
      </trkpt>
      <trkpt lat="43.17282" lon="2.38143">
        <ele>172.59838867188</ele>
        <time>2011-06-05T06:12:54Z</time>
      </trkpt>
      <trkpt lat="43.17296" lon="2.38148">
        <ele>171.90431213379</ele>
        <time>2011-06-05T06:12:57Z</time>
      </trkpt>
      <trkpt lat="43.17309" lon="2.38155">
        <ele>171.18432617188</ele>
        <time>2011-06-05T06:13:00Z</time>
      </trkpt>
      <trkpt lat="43.17314" lon="2.38158">
        <ele>170.94227600098</ele>
        <time>2011-06-05T06:13:01Z</time>
      </trkpt>
      <trkpt lat="43.17323" lon="2.38161">
        <ele>170.52809143066</ele>
        <time>2011-06-05T06:13:03Z</time>
      </trkpt>
      <trkpt lat="43.17338" lon="2.38173">
        <ele>169.5510559082</ele>
        <time>2011-06-05T06:13:07Z</time>
      </trkpt>
      <trkpt lat="43.17353" lon="2.3819">
        <ele>168.30657958984</ele>
        <time>2011-06-05T06:13:13Z</time>
      </trkpt>
      <trkpt lat="43.17363" lon="2.38188">
        <ele>167.89099121094</ele>
        <time>2011-06-05T06:13:16Z</time>
      </trkpt>
      <trkpt lat="43.17384" lon="2.38167">
        <ele>167.59063720703</ele>
        <time>2011-06-05T06:13:22Z</time>
      </trkpt>
      <trkpt lat="43.17411" lon="2.38142">
        <ele>167.15116882324</ele>
        <time>2011-06-05T06:13:28Z</time>
      </trkpt>
      <trkpt lat="43.17436" lon="2.38126">
        <ele>166.18431091309</ele>
        <time>2011-06-05T06:13:33Z</time>
      </trkpt>
      <trkpt lat="43.1747" lon="2.38117">
        <ele>164.33187866211</ele>
        <time>2011-06-05T06:13:39Z</time>
      </trkpt>
      <trkpt lat="43.17481" lon="2.38101">
        <ele>164.33650207519</ele>
        <time>2011-06-05T06:13:42Z</time>
      </trkpt>
      <trkpt lat="43.175" lon="2.38079">
        <ele>164.15167236328</ele>
        <time>2011-06-05T06:13:47Z</time>
      </trkpt>
      <trkpt lat="43.17519" lon="2.38067">
        <ele>163.29428100586</ele>
        <time>2011-06-05T06:13:51Z</time>
      </trkpt>
      <trkpt lat="43.17528" lon="2.38059">
        <ele>162.88362121582</ele>
        <time>2011-06-05T06:13:53Z</time>
      </trkpt>
      <trkpt lat="43.17542" lon="2.38037">
        <ele>162.33815002441</ele>
        <time>2011-06-05T06:13:57Z</time>
      </trkpt>
      <trkpt lat="43.1755" lon="2.38011">
        <ele>162.05102539062</ele>
        <time>2011-06-05T06:14:03Z</time>
      </trkpt>
      <trkpt lat="43.17555" lon="2.37996">
        <ele>161.84524536133</ele>
        <time>2011-06-05T06:14:10Z</time>
      </trkpt>
      <trkpt lat="43.17563" lon="2.37983">
        <ele>161.69317626953</ele>
        <time>2011-06-05T06:14:15Z</time>
      </trkpt>
      <trkpt lat="43.17571" lon="2.37961">
        <ele>161.88679504394</ele>
        <time>2011-06-05T06:14:22Z</time>
      </trkpt>
      <trkpt lat="43.1758" lon="2.37933">
        <ele>162.50778198242</ele>
        <time>2011-06-05T06:14:30Z</time>
      </trkpt>
      <trkpt lat="43.1759" lon="2.37912">
        <ele>162.31437683106</ele>
        <time>2011-06-05T06:14:37Z</time>
      </trkpt>
      <trkpt lat="43.17597" lon="2.37898">
        <ele>161.52084350586</ele>
        <time>2011-06-05T06:14:44Z</time>
      </trkpt>
      <trkpt lat="43.17604" lon="2.37884">
        <ele>160.68321228027</ele>
        <time>2011-06-05T06:14:50Z</time>
      </trkpt>
      <trkpt lat="43.17617" lon="2.37867">
        <ele>159.44287109375</ele>
        <time>2011-06-05T06:14:58Z</time>
      </trkpt>
      <trkpt lat="43.17622" lon="2.37849">
        <ele>158.88679504394</ele>
        <time>2011-06-05T06:15:05Z</time>
      </trkpt>
      <trkpt lat="43.17622" lon="2.37832">
        <ele>158.77789306641</ele>
        <time>2011-06-05T06:15:11Z</time>
      </trkpt>
      <trkpt lat="43.17622" lon="2.37823">
        <ele>158.68853759766</ele>
        <time>2011-06-05T06:15:14Z</time>
      </trkpt>
      <trkpt lat="43.17624" lon="2.37813">
        <ele>158.50108337402</ele>
        <time>2011-06-05T06:15:17Z</time>
      </trkpt>
      <trkpt lat="43.17625" lon="2.37799">
        <ele>158.28852844238</ele>
        <time>2011-06-05T06:15:23Z</time>
      </trkpt>
      <trkpt lat="43.17627" lon="2.37789">
        <ele>158.11029052734</ele>
        <time>2011-06-05T06:15:29Z</time>
      </trkpt>
      <trkpt lat="43.17628" lon="2.37783">
        <ele>157.95974731445</ele>
        <time>2011-06-05T06:15:34Z</time>
      </trkpt>
      <trkpt lat="43.17626" lon="2.37781">
        <ele>158.0938873291</ele>
        <time>2011-06-05T06:16:39Z</time>
      </trkpt>
      <trkpt lat="43.17627" lon="2.37783">
        <ele>158.02113342285</ele>
        <time>2011-06-05T06:17:02Z</time>
      </trkpt>
      <trkpt lat="43.17629" lon="2.37779">
        <ele>157.87887573242</ele>
        <time>2011-06-05T06:24:25Z</time>
      </trkpt>
      <trkpt lat="43.17629" lon="2.37778">
        <ele>157.84815979004</ele>
        <time>2011-06-05T06:24:26Z</time>
      </trkpt>
      <trkpt lat="43.1763" lon="2.37778">
        <ele>157.81912231445</ele>
        <time>2011-06-05T06:24:28Z</time>
      </trkpt>
      <trkpt lat="43.1763" lon="2.37768">
        <ele>157.73257446289</ele>
        <time>2011-06-05T06:24:58Z</time>
      </trkpt>
      <trkpt lat="43.1763" lon="2.37763">
        <ele>157.68171691894</ele>
        <time>2011-06-05T06:24:59Z</time>
      </trkpt>
      <trkpt lat="43.17635" lon="2.37739">
        <ele>157.36268615723</ele>
        <time>2011-06-05T06:25:04Z</time>
      </trkpt>
      <trkpt lat="43.1764" lon="2.37703">
        <ele>157.07725524902</ele>
        <time>2011-06-05T06:25:11Z</time>
      </trkpt>
      <trkpt lat="43.17645" lon="2.37678">
        <ele>156.76232910156</ele>
        <time>2011-06-05T06:25:16Z</time>
      </trkpt>
      <trkpt lat="43.17653" lon="2.37649">
        <ele>156.08680725098</ele>
        <time>2011-06-05T06:25:23Z</time>
      </trkpt>
      <trkpt lat="43.17664" lon="2.37619">
        <ele>154.74935913086</ele>
        <time>2011-06-05T06:25:30Z</time>
      </trkpt>
      <trkpt lat="43.1767" lon="2.37594">
        <ele>153.99681091309</ele>
        <time>2011-06-05T06:25:36Z</time>
      </trkpt>
      <trkpt lat="43.17675" lon="2.37579">
        <ele>153.7483215332</ele>
        <time>2011-06-05T06:25:39Z</time>
      </trkpt>
      <trkpt lat="43.17685" lon="2.37532">
        <ele>153.80383300781</ele>
        <time>2011-06-05T06:25:48Z</time>
      </trkpt>
      <trkpt lat="43.17693" lon="2.375">
        <ele>153.73852539062</ele>
        <time>2011-06-05T06:25:55Z</time>
      </trkpt>
      <trkpt lat="43.17696" lon="2.37461">
        <ele>153.7080078125</ele>
        <time>2011-06-05T06:26:03Z</time>
      </trkpt>
      <trkpt lat="43.17698" lon="2.37426">
        <ele>153.69482421875</ele>
        <time>2011-06-05T06:26:10Z</time>
      </trkpt>
      <trkpt lat="43.17696" lon="2.37379">
        <ele>154.15454101562</ele>
        <time>2011-06-05T06:26:19Z</time>
      </trkpt>
      <trkpt lat="43.17694" lon="2.37345">
        <ele>154.60079956055</ele>
        <time>2011-06-05T06:26:26Z</time>
      </trkpt>
      <trkpt lat="43.17693" lon="2.3732">
        <ele>154.85153198242</ele>
        <time>2011-06-05T06:26:32Z</time>
      </trkpt>
      <trkpt lat="43.17693" lon="2.37309">
        <ele>154.93537902832</ele>
        <time>2011-06-05T06:26:35Z</time>
      </trkpt>
      <trkpt lat="43.17688" lon="2.37287">
        <ele>155.51933288574</ele>
        <time>2011-06-05T06:26:41Z</time>
      </trkpt>
      <trkpt lat="43.17691" lon="2.37262">
        <ele>155.26995849609</ele>
        <time>2011-06-05T06:26:47Z</time>
      </trkpt>
      <trkpt lat="43.17698" lon="2.37242">
        <ele>154.72625732422</ele>
        <time>2011-06-05T06:26:52Z</time>
      </trkpt>
      <trkpt lat="43.17702" lon="2.37206">
        <ele>154.51797485352</ele>
        <time>2011-06-05T06:26:59Z</time>
      </trkpt>
      <trkpt lat="43.17702" lon="2.37201">
        <ele>154.46356201172</ele>
        <time>2011-06-05T06:27:01Z</time>
      </trkpt>
      <trkpt lat="43.17712" lon="2.37199">
        <ele>153.42192077637</ele>
        <time>2011-06-05T06:27:06Z</time>
      </trkpt>
      <trkpt lat="43.17733" lon="2.37198">
        <ele>151.00692749023</ele>
        <time>2011-06-05T06:27:12Z</time>
      </trkpt>
      <trkpt lat="43.17754" lon="2.37195">
        <ele>148.88516235352</ele>
        <time>2011-06-05T06:27:18Z</time>
      </trkpt>
      <trkpt lat="43.17766" lon="2.37193">
        <ele>148.49082946777</ele>
        <time>2011-06-05T06:27:22Z</time>
      </trkpt>
      <trkpt lat="43.17768" lon="2.37192">
        <ele>148.4278717041</ele>
        <time>2011-06-05T06:27:23Z</time>
      </trkpt>
      <trkpt lat="43.17775" lon="2.37197">
        <ele>148.22172546387</ele>
        <time>2011-06-05T06:27:27Z</time>
      </trkpt>
      <trkpt lat="43.1778" lon="2.37204">
        <ele>148.09362792969</ele>
        <time>2011-06-05T06:27:31Z</time>
      </trkpt>
      <trkpt lat="43.17786" lon="2.37205">
        <ele>147.9140625</ele>
        <time>2011-06-05T06:27:35Z</time>
      </trkpt>
      <trkpt lat="43.17807" lon="2.37211">
        <ele>147.32386779785</ele>
        <time>2011-06-05T06:27:43Z</time>
      </trkpt>
      <trkpt lat="43.1783" lon="2.37217">
        <ele>146.68855285644</ele>
        <time>2011-06-05T06:27:50Z</time>
      </trkpt>
      <trkpt lat="43.17863" lon="2.37228">
        <ele>148.45483398438</ele>
        <time>2011-06-05T06:27:59Z</time>
      </trkpt>
      <trkpt lat="43.17886" lon="2.37235">
        <ele>149.84851074219</ele>
        <time>2011-06-05T06:28:06Z</time>
      </trkpt>
      <trkpt lat="43.17906" lon="2.37239">
        <ele>151.12829589844</ele>
        <time>2011-06-05T06:28:13Z</time>
      </trkpt>
      <trkpt lat="43.17919" lon="2.37241">
        <ele>151.72264099121</ele>
        <time>2011-06-05T06:28:18Z</time>
      </trkpt>
      <trkpt lat="43.17938" lon="2.37244">
        <ele>151.18981933594</ele>
        <time>2011-06-05T06:28:26Z</time>
      </trkpt>
      <trkpt lat="43.17952" lon="2.37244">
        <ele>150.77142333984</ele>
        <time>2011-06-05T06:28:31Z</time>
      </trkpt>
      <trkpt lat="43.17967" lon="2.37237">
        <ele>150.43203735352</ele>
        <time>2011-06-05T06:28:35Z</time>
      </trkpt>
      <trkpt lat="43.17993" lon="2.37245">
        <ele>149.4651184082</ele>
        <time>2011-06-05T06:28:40Z</time>
      </trkpt>
      <trkpt lat="43.18008" lon="2.37261">
        <ele>148.28550720215</ele>
        <time>2011-06-05T06:28:43Z</time>
      </trkpt>
      <trkpt lat="43.1802" lon="2.37271">
        <ele>147.41093444824</ele>
        <time>2011-06-05T06:28:45Z</time>
      </trkpt>
      <trkpt lat="43.18037" lon="2.37286">
        <ele>146.29676818848</ele>
        <time>2011-06-05T06:28:48Z</time>
      </trkpt>
      <trkpt lat="43.18071" lon="2.37317">
        <ele>144.50305175781</ele>
        <time>2011-06-05T06:28:55Z</time>
      </trkpt>
      <trkpt lat="43.18087" lon="2.37333">
        <ele>144.04821777344</ele>
        <time>2011-06-05T06:29:00Z</time>
      </trkpt>
      <trkpt lat="43.18095" lon="2.37341">
        <ele>144.21174621582</ele>
        <time>2011-06-05T06:29:04Z</time>
      </trkpt>
      <trkpt lat="43.18092" lon="2.37353">
        <ele>144.29594421387</ele>
        <time>2011-06-05T06:29:08Z</time>
      </trkpt>
      <trkpt lat="43.18078" lon="2.37376">
        <ele>144.60464477539</ele>
        <time>2011-06-05T06:29:15Z</time>
      </trkpt>
      <trkpt lat="43.18071" lon="2.37389">
        <ele>144.81948852539</ele>
        <time>2011-06-05T06:29:20Z</time>
      </trkpt>
      <trkpt lat="43.18067" lon="2.37394">
        <ele>144.88879394531</ele>
        <time>2011-06-05T06:29:24Z</time>
      </trkpt>
      <trkpt lat="43.18065" lon="2.37409">
        <ele>144.96995544434</ele>
        <time>2011-06-05T06:29:31Z</time>
      </trkpt>
      <trkpt lat="43.18065" lon="2.37411">
        <ele>144.97592163086</ele>
        <time>2011-06-05T06:29:32Z</time>
      </trkpt>
      <trkpt lat="43.18064" lon="2.37421">
        <ele>145.02563476562</ele>
        <time>2011-06-05T06:29:39Z</time>
      </trkpt>
      <trkpt lat="43.18065" lon="2.37438">
        <ele>145.11128234863</ele>
        <time>2011-06-05T06:29:46Z</time>
      </trkpt>
      <trkpt lat="43.18066" lon="2.3745">
        <ele>145.16819763184</ele>
        <time>2011-06-05T06:29:53Z</time>
      </trkpt>
      <trkpt lat="43.18065" lon="2.37463">
        <ele>145.24113464356</ele>
        <time>2011-06-05T06:30:00Z</time>
      </trkpt>
      <trkpt lat="43.18065" lon="2.37469">
        <ele>145.26979064941</ele>
        <time>2011-06-05T06:30:03Z</time>
      </trkpt>
      <trkpt lat="43.18063" lon="2.37481">
        <ele>145.36961364746</ele>
        <time>2011-06-05T06:30:09Z</time>
      </trkpt>
      <trkpt lat="43.18063" lon="2.37492">
        <ele>145.43339538574</ele>
        <time>2011-06-05T06:30:13Z</time>
      </trkpt>
      <trkpt lat="43.18061" lon="2.37517">
        <ele>145.73297119141</ele>
        <time>2011-06-05T06:30:19Z</time>
      </trkpt>
      <trkpt lat="43.18059" lon="2.3754">
        <ele>146.06256103516</ele>
        <time>2011-06-05T06:30:24Z</time>
      </trkpt>
      <trkpt lat="43.18061" lon="2.37558">
        <ele>146.23365783691</ele>
        <time>2011-06-05T06:30:28Z</time>
      </trkpt>
      <trkpt lat="43.18061" lon="2.37573">
        <ele>146.4207611084</ele>
        <time>2011-06-05T06:30:32Z</time>
      </trkpt>
      <trkpt lat="43.1806" lon="2.37603">
        <ele>146.57104492188</ele>
        <time>2011-06-05T06:30:39Z</time>
      </trkpt>
      <trkpt lat="43.18059" lon="2.37645">
        <ele>146.58935546875</ele>
        <time>2011-06-05T06:30:48Z</time>
      </trkpt>
      <trkpt lat="43.18059" lon="2.37674">
        <ele>146.75386047363</ele>
        <time>2011-06-05T06:30:54Z</time>
      </trkpt>
      <trkpt lat="43.1806" lon="2.37697">
        <ele>147.29229736328</ele>
        <time>2011-06-05T06:30:59Z</time>
      </trkpt>
      <trkpt lat="43.18059" lon="2.37732">
        <ele>148.15805053711</ele>
        <time>2011-06-05T06:31:06Z</time>
      </trkpt>
      <trkpt lat="43.18059" lon="2.37743">
        <ele>148.40982055664</ele>
        <time>2011-06-05T06:31:08Z</time>
      </trkpt>
      <trkpt lat="43.18061" lon="2.37796">
        <ele>149.65493774414</ele>
        <time>2011-06-05T06:31:18Z</time>
      </trkpt>
      <trkpt lat="43.18063" lon="2.37817">
        <ele>150.08752441406</ele>
        <time>2011-06-05T06:31:23Z</time>
      </trkpt>
      <trkpt lat="43.18066" lon="2.3785">
        <ele>151.05500793457</ele>
        <time>2011-06-05T06:31:30Z</time>
      </trkpt>
      <trkpt lat="43.18066" lon="2.37871">
        <ele>151.87275695801</ele>
        <time>2011-06-05T06:31:35Z</time>
      </trkpt>
      <trkpt lat="43.18064" lon="2.37906">
        <ele>153.29522705078</ele>
        <time>2011-06-05T06:31:42Z</time>
      </trkpt>
      <trkpt lat="43.18064" lon="2.37912">
        <ele>153.51274108887</ele>
        <time>2011-06-05T06:31:43Z</time>
      </trkpt>
      <trkpt lat="43.18062" lon="2.37945">
        <ele>154.03370666504</ele>
        <time>2011-06-05T06:31:49Z</time>
      </trkpt>
      <trkpt lat="43.18071" lon="2.37955">
        <ele>153.66912841797</ele>
        <time>2011-06-05T06:31:53Z</time>
      </trkpt>
      <trkpt lat="43.18074" lon="2.37956">
        <ele>153.47129821777</ele>
        <time>2011-06-05T06:31:54Z</time>
      </trkpt>
      <trkpt lat="43.181" lon="2.3796">
        <ele>153.79415893555</ele>
        <time>2011-06-05T06:32:00Z</time>
      </trkpt>
      <trkpt lat="43.18122" lon="2.37965">
        <ele>155.00996398926</ele>
        <time>2011-06-05T06:32:05Z</time>
      </trkpt>
      <trkpt lat="43.18142" lon="2.37973">
        <ele>156.30158996582</ele>
        <time>2011-06-05T06:32:10Z</time>
      </trkpt>
      <trkpt lat="43.18148" lon="2.37965">
        <ele>156.33508300781</ele>
        <time>2011-06-05T06:32:12Z</time>
      </trkpt>
      <trkpt lat="43.1816" lon="2.3794">
        <ele>155.86178588867</ele>
        <time>2011-06-05T06:32:18Z</time>
      </trkpt>
      <trkpt lat="43.18167" lon="2.37914">
        <ele>155.01171875</ele>
        <time>2011-06-05T06:32:24Z</time>
      </trkpt>
      <trkpt lat="43.18172" lon="2.37892">
        <ele>154.72064208984</ele>
        <time>2011-06-05T06:32:30Z</time>
      </trkpt>
      <trkpt lat="43.1818" lon="2.37874">
        <ele>155.07820129394</ele>
        <time>2011-06-05T06:32:35Z</time>
      </trkpt>
      <trkpt lat="43.18188" lon="2.37856">
        <ele>155.51055908203</ele>
        <time>2011-06-05T06:32:40Z</time>
      </trkpt>
      <trkpt lat="43.18196" lon="2.37824">
        <ele>155.52131652832</ele>
        <time>2011-06-05T06:32:47Z</time>
      </trkpt>
      <trkpt lat="43.18205" lon="2.37809">
        <ele>156.12945556641</ele>
        <time>2011-06-05T06:32:52Z</time>
      </trkpt>
      <trkpt lat="43.18216" lon="2.37794">
        <ele>157.24592590332</ele>
        <time>2011-06-05T06:32:57Z</time>
      </trkpt>
      <trkpt lat="43.18233" lon="2.37771">
        <ele>158.91970825195</ele>
        <time>2011-06-05T06:33:04Z</time>
      </trkpt>
      <trkpt lat="43.18233" lon="2.37752">
        <ele>158.48219299316</ele>
        <time>2011-06-05T06:33:08Z</time>
      </trkpt>
      <trkpt lat="43.18233" lon="2.37746">
        <ele>158.17170715332</ele>
        <time>2011-06-05T06:33:09Z</time>
      </trkpt>
      <trkpt lat="43.1824" lon="2.37721">
        <ele>158.5223236084</ele>
        <time>2011-06-05T06:33:13Z</time>
      </trkpt>
      <trkpt lat="43.18245" lon="2.3771">
        <ele>158.76635742188</ele>
        <time>2011-06-05T06:33:15Z</time>
      </trkpt>
      <trkpt lat="43.18259" lon="2.37693">
        <ele>160.16979980469</ele>
        <time>2011-06-05T06:33:20Z</time>
      </trkpt>
      <trkpt lat="43.18263" lon="2.37681">
        <ele>160.33142089844</ele>
        <time>2011-06-05T06:33:23Z</time>
      </trkpt>
      <trkpt lat="43.18265" lon="2.37677">
        <ele>160.46653747559</ele>
        <time>2011-06-05T06:33:24Z</time>
      </trkpt>
      <trkpt lat="43.18274" lon="2.37664">
        <ele>161.34771728516</ele>
        <time>2011-06-05T06:33:29Z</time>
      </trkpt>
      <trkpt lat="43.18282" lon="2.37656">
        <ele>162.28890991211</ele>
        <time>2011-06-05T06:33:34Z</time>
      </trkpt>
      <trkpt lat="43.18293" lon="2.37646">
        <ele>163.39103698731</ele>
        <time>2011-06-05T06:33:39Z</time>
      </trkpt>
      <trkpt lat="43.18296" lon="2.37634">
        <ele>163.42887878418</ele>
        <time>2011-06-05T06:33:42Z</time>
      </trkpt>
      <trkpt lat="43.18303" lon="2.37607">
        <ele>163.27513122559</ele>
        <time>2011-06-05T06:33:48Z</time>
      </trkpt>
      <trkpt lat="43.18314" lon="2.37588">
        <ele>163.84243774414</ele>
        <time>2011-06-05T06:33:53Z</time>
      </trkpt>
      <trkpt lat="43.18334" lon="2.37571">
        <ele>164.89027404785</ele>
        <time>2011-06-05T06:34:00Z</time>
      </trkpt>
      <trkpt lat="43.1835" lon="2.37562">
        <ele>165.10987854004</ele>
        <time>2011-06-05T06:34:05Z</time>
      </trkpt>
      <trkpt lat="43.18372" lon="2.3754">
        <ele>163.85034179688</ele>
        <time>2011-06-05T06:34:11Z</time>
      </trkpt>
      <trkpt lat="43.18387" lon="2.37526">
        <ele>162.86395263672</ele>
        <time>2011-06-05T06:34:14Z</time>
      </trkpt>
      <trkpt lat="43.18406" lon="2.3752">
        <ele>162.69294738769</ele>
        <time>2011-06-05T06:34:18Z</time>
      </trkpt>
      <trkpt lat="43.18422" lon="2.37521">
        <ele>163.00920104981</ele>
        <time>2011-06-05T06:34:23Z</time>
      </trkpt>
      <trkpt lat="43.18425" lon="2.37521">
        <ele>162.86569213867</ele>
        <time>2011-06-05T06:34:24Z</time>
      </trkpt>
      <trkpt lat="43.18435" lon="2.37528">
        <ele>163.50604248047</ele>
        <time>2011-06-05T06:34:28Z</time>
      </trkpt>
      <trkpt lat="43.18437" lon="2.37534">
        <ele>164.22126770019</ele>
        <time>2011-06-05T06:34:30Z</time>
      </trkpt>
      <trkpt lat="43.18435" lon="2.37553">
        <ele>166.99510192871</ele>
        <time>2011-06-05T06:34:34Z</time>
      </trkpt>
      <trkpt lat="43.18435" lon="2.37571">
        <ele>169.44931030273</ele>
        <time>2011-06-05T06:34:38Z</time>
      </trkpt>
      <trkpt lat="43.18446" lon="2.37586">
        <ele>170.41535949707</ele>
        <time>2011-06-05T06:34:42Z</time>
      </trkpt>
      <trkpt lat="43.18449" lon="2.37588">
        <ele>170.37287902832</ele>
        <time>2011-06-05T06:34:43Z</time>
      </trkpt>
      <trkpt lat="43.18456" lon="2.37595">
        <ele>170.31561279297</ele>
        <time>2011-06-05T06:34:47Z</time>
      </trkpt>
      <trkpt lat="43.18467" lon="2.37594">
        <ele>169.08660888672</ele>
        <time>2011-06-05T06:34:52Z</time>
      </trkpt>
      <trkpt lat="43.18476" lon="2.37588">
        <ele>167.66363525391</ele>
        <time>2011-06-05T06:34:56Z</time>
      </trkpt>
      <trkpt lat="43.18488" lon="2.3758">
        <ele>165.84555053711</ele>
        <time>2011-06-05T06:35:00Z</time>
      </trkpt>
      <trkpt lat="43.18505" lon="2.37575">
        <ele>164.11373901367</ele>
        <time>2011-06-05T06:35:04Z</time>
      </trkpt>
      <trkpt lat="43.18513" lon="2.37563">
        <ele>162.95274353027</ele>
        <time>2011-06-05T06:35:07Z</time>
      </trkpt>
      <trkpt lat="43.18521" lon="2.37551">
        <ele>161.94052124023</ele>
        <time>2011-06-05T06:35:09Z</time>
      </trkpt>
      <trkpt lat="43.18533" lon="2.37547">
        <ele>161.5841217041</ele>
        <time>2011-06-05T06:35:13Z</time>
      </trkpt>
      <trkpt lat="43.18535" lon="2.3755">
        <ele>161.70288085938</ele>
        <time>2011-06-05T06:35:14Z</time>
      </trkpt>
      <trkpt lat="43.18547" lon="2.37563">
        <ele>161.97306823731</ele>
        <time>2011-06-05T06:35:18Z</time>
      </trkpt>
      <trkpt lat="43.18571" lon="2.3759">
        <ele>161.82350158691</ele>
        <time>2011-06-05T06:35:26Z</time>
      </trkpt>
      <trkpt lat="43.18578" lon="2.37608">
        <ele>161.95095825195</ele>
        <time>2011-06-05T06:35:31Z</time>
      </trkpt>
      <trkpt lat="43.18588" lon="2.37624">
        <ele>162.34967041016</ele>
        <time>2011-06-05T06:35:36Z</time>
      </trkpt>
      <trkpt lat="43.18587" lon="2.37644">
        <ele>162.71139526367</ele>
        <time>2011-06-05T06:35:42Z</time>
      </trkpt>
      <trkpt lat="43.18583" lon="2.37674">
        <ele>163.33557128906</ele>
        <time>2011-06-05T06:35:49Z</time>
      </trkpt>
      <trkpt lat="43.18582" lon="2.37709">
        <ele>164.63676452637</ele>
        <time>2011-06-05T06:35:57Z</time>
      </trkpt>
      <trkpt lat="43.18575" lon="2.3774">
        <ele>166.50186157227</ele>
        <time>2011-06-05T06:36:05Z</time>
      </trkpt>
      <trkpt lat="43.18567" lon="2.37764">
        <ele>168.53353881836</ele>
        <time>2011-06-05T06:36:13Z</time>
      </trkpt>
      <trkpt lat="43.18555" lon="2.37786">
        <ele>170.81312561035</ele>
        <time>2011-06-05T06:36:21Z</time>
      </trkpt>
      <trkpt lat="43.1855" lon="2.37811">
        <ele>172.38612365723</ele>
        <time>2011-06-05T06:36:28Z</time>
      </trkpt>
      <trkpt lat="43.18545" lon="2.37844">
        <ele>174.23022460938</ele>
        <time>2011-06-05T06:36:37Z</time>
      </trkpt>
      <trkpt lat="43.1854" lon="2.37879">
        <ele>176.01071166992</ele>
        <time>2011-06-05T06:36:46Z</time>
      </trkpt>
      <trkpt lat="43.18536" lon="2.37909">
        <ele>177.41253662109</ele>
        <time>2011-06-05T06:36:54Z</time>
      </trkpt>
      <trkpt lat="43.18532" lon="2.37937">
        <ele>179.01184082031</ele>
        <time>2011-06-05T06:37:02Z</time>
      </trkpt>
      <trkpt lat="43.18528" lon="2.37977">
        <ele>181.37014770508</ele>
        <time>2011-06-05T06:37:13Z</time>
      </trkpt>
      <trkpt lat="43.1853" lon="2.37999">
        <ele>182.60610961914</ele>
        <time>2011-06-05T06:37:20Z</time>
      </trkpt>
      <trkpt lat="43.18528" lon="2.38025">
        <ele>183.55465698242</ele>
        <time>2011-06-05T06:37:26Z</time>
      </trkpt>
      <trkpt lat="43.18521" lon="2.38054">
        <ele>184.37846374512</ele>
        <time>2011-06-05T06:37:33Z</time>
      </trkpt>
      <trkpt lat="43.18511" lon="2.38084">
        <ele>184.66619873047</ele>
        <time>2011-06-05T06:37:40Z</time>
      </trkpt>
      <trkpt lat="43.18502" lon="2.38114">
        <ele>184.56843566894</ele>
        <time>2011-06-05T06:37:47Z</time>
      </trkpt>
      <trkpt lat="43.18505" lon="2.38137">
        <ele>185.11065673828</ele>
        <time>2011-06-05T06:37:52Z</time>
      </trkpt>
      <trkpt lat="43.18515" lon="2.38159">
        <ele>186.68185424805</ele>
        <time>2011-06-05T06:37:58Z</time>
      </trkpt>
      <trkpt lat="43.18528" lon="2.38164">
        <ele>188.24015808106</ele>
        <time>2011-06-05T06:38:03Z</time>
      </trkpt>
      <trkpt lat="43.18547" lon="2.38161">
        <ele>190.38659667969</ele>
        <time>2011-06-05T06:38:10Z</time>
      </trkpt>
      <trkpt lat="43.18562" lon="2.38149">
        <ele>191.4909362793</ele>
        <time>2011-06-05T06:38:16Z</time>
      </trkpt>
      <trkpt lat="43.18565" lon="2.38148">
        <ele>191.66026306152</ele>
        <time>2011-06-05T06:38:17Z</time>
      </trkpt>
      <trkpt lat="43.18578" lon="2.3815">
        <ele>193.16526794434</ele>
        <time>2011-06-05T06:38:23Z</time>
      </trkpt>
      <trkpt lat="43.18585" lon="2.38162">
        <ele>194.68399047852</ele>
        <time>2011-06-05T06:38:28Z</time>
      </trkpt>
      <trkpt lat="43.18588" lon="2.38166">
        <ele>195.09094238281</ele>
        <time>2011-06-05T06:38:30Z</time>
      </trkpt>
      <trkpt lat="43.18595" lon="2.38177">
        <ele>195.86508178711</ele>
        <time>2011-06-05T06:38:35Z</time>
      </trkpt>
      <trkpt lat="43.18596" lon="2.38181">
        <ele>196.14898681641</ele>
        <time>2011-06-05T06:38:37Z</time>
      </trkpt>
      <trkpt lat="43.18598" lon="2.38201">
        <ele>197.34825134277</ele>
        <time>2011-06-05T06:38:44Z</time>
      </trkpt>
      <trkpt lat="43.18602" lon="2.38226">
        <ele>198.83610534668</ele>
        <time>2011-06-05T06:38:51Z</time>
      </trkpt>
      <trkpt lat="43.18603" lon="2.3823">
        <ele>199.07202148438</ele>
        <time>2011-06-05T06:38:52Z</time>
      </trkpt>
      <trkpt lat="43.18613" lon="2.38252">
        <ele>200.39424133301</ele>
        <time>2011-06-05T06:38:59Z</time>
      </trkpt>
      <trkpt lat="43.18613" lon="2.3826">
        <ele>200.52603149414</ele>
        <time>2011-06-05T06:39:01Z</time>
      </trkpt>
      <trkpt lat="43.18622" lon="2.38278">
        <ele>201.09135437012</ele>
        <time>2011-06-05T06:39:07Z</time>
      </trkpt>
      <trkpt lat="43.18626" lon="2.38302">
        <ele>201.79724121094</ele>
        <time>2011-06-05T06:39:13Z</time>
      </trkpt>
      <trkpt lat="43.18632" lon="2.38321">
        <ele>202.56324768066</ele>
        <time>2011-06-05T06:39:18Z</time>
      </trkpt>
      <trkpt lat="43.18633" lon="2.3834">
        <ele>203.19677734375</ele>
        <time>2011-06-05T06:39:23Z</time>
      </trkpt>
      <trkpt lat="43.18639" lon="2.38358">
        <ele>204.09281921387</ele>
        <time>2011-06-05T06:39:28Z</time>
      </trkpt>
      <trkpt lat="43.18644" lon="2.38367">
        <ele>204.8390045166</ele>
        <time>2011-06-05T06:39:31Z</time>
      </trkpt>
      <trkpt lat="43.18645" lon="2.38386">
        <ele>205.53434753418</ele>
        <time>2011-06-05T06:39:36Z</time>
      </trkpt>
      <trkpt lat="43.18652" lon="2.38399">
        <ele>206.68019104004</ele>
        <time>2011-06-05T06:39:40Z</time>
      </trkpt>
      <trkpt lat="43.18654" lon="2.38407">
        <ele>207.22969055176</ele>
        <time>2011-06-05T06:39:42Z</time>
      </trkpt>
      <trkpt lat="43.18659" lon="2.3843">
        <ele>207.97846984863</ele>
        <time>2011-06-05T06:39:48Z</time>
      </trkpt>
      <trkpt lat="43.18665" lon="2.3844">
        <ele>208.48187255859</ele>
        <time>2011-06-05T06:39:52Z</time>
      </trkpt>
      <trkpt lat="43.18676" lon="2.38452">
        <ele>208.75952148438</ele>
        <time>2011-06-05T06:39:58Z</time>
      </trkpt>
      <trkpt lat="43.18684" lon="2.38469">
        <ele>208.88385009766</ele>
        <time>2011-06-05T06:40:03Z</time>
      </trkpt>
      <trkpt lat="43.18695" lon="2.38471">
        <ele>209.23553466797</ele>
        <time>2011-06-05T06:40:08Z</time>
      </trkpt>
      <trkpt lat="43.18709" lon="2.38475">
        <ele>209.71821594238</ele>
        <time>2011-06-05T06:40:13Z</time>
      </trkpt>
      <trkpt lat="43.1871" lon="2.38478">
        <ele>209.81042480469</ele>
        <time>2011-06-05T06:40:14Z</time>
      </trkpt>
      <trkpt lat="43.18711" lon="2.38493">
        <ele>210.01647949219</ele>
        <time>2011-06-05T06:40:18Z</time>
      </trkpt>
      <trkpt lat="43.18707" lon="2.38517">
        <ele>210.21601867676</ele>
        <time>2011-06-05T06:40:25Z</time>
      </trkpt>
      <trkpt lat="43.18705" lon="2.38536">
        <ele>210.43524169922</ele>
        <time>2011-06-05T06:40:30Z</time>
      </trkpt>
      <trkpt lat="43.18701" lon="2.3855">
        <ele>210.26513671875</ele>
        <time>2011-06-05T06:40:34Z</time>
      </trkpt>
      <trkpt lat="43.18699" lon="2.38552">
        <ele>210.16468811035</ele>
        <time>2011-06-05T06:40:35Z</time>
      </trkpt>
      <trkpt lat="43.18698" lon="2.38555">
        <ele>210.09535217285</ele>
        <time>2011-06-05T06:40:36Z</time>
      </trkpt>
      <trkpt lat="43.18703" lon="2.38566">
        <ele>210.68467712402</ele>
        <time>2011-06-05T06:40:41Z</time>
      </trkpt>
      <trkpt lat="43.18712" lon="2.38574">
        <ele>211.69052124023</ele>
        <time>2011-06-05T06:40:46Z</time>
      </trkpt>
      <trkpt lat="43.18711" lon="2.3859">
        <ele>211.97584533691</ele>
        <time>2011-06-05T06:40:51Z</time>
      </trkpt>
      <trkpt lat="43.187" lon="2.38631">
        <ele>211.33460998535</ele>
        <time>2011-06-05T06:40:56Z</time>
      </trkpt>
      <trkpt lat="43.18697" lon="2.38648">
        <ele>211.12271118164</ele>
        <time>2011-06-05T06:40:58Z</time>
      </trkpt>
      <trkpt lat="43.18684" lon="2.38699">
        <ele>209.51257324219</ele>
        <time>2011-06-05T06:41:04Z</time>
      </trkpt>
      <trkpt lat="43.18676" lon="2.38731">
        <ele>207.93244934082</ele>
        <time>2011-06-05T06:41:08Z</time>
      </trkpt>
      <trkpt lat="43.18663" lon="2.38775">
        <ele>205.86756896973</ele>
        <time>2011-06-05T06:41:14Z</time>
      </trkpt>
      <trkpt lat="43.18652" lon="2.38817">
        <ele>205.42414855957</ele>
        <time>2011-06-05T06:41:20Z</time>
      </trkpt>
      <trkpt lat="43.18647" lon="2.38838">
        <ele>205.58726501465</ele>
        <time>2011-06-05T06:41:24Z</time>
      </trkpt>
      <trkpt lat="43.18641" lon="2.3886">
        <ele>206.04110717773</ele>
        <time>2011-06-05T06:41:30Z</time>
      </trkpt>
      <trkpt lat="43.18636" lon="2.38888">
        <ele>206.74850463867</ele>
        <time>2011-06-05T06:41:37Z</time>
      </trkpt>
      <trkpt lat="43.18628" lon="2.38924">
        <ele>207.23895263672</ele>
        <time>2011-06-05T06:41:45Z</time>
      </trkpt>
      <trkpt lat="43.18618" lon="2.38971">
        <ele>206.43907165527</ele>
        <time>2011-06-05T06:41:55Z</time>
      </trkpt>
      <trkpt lat="43.18608" lon="2.39012">
        <ele>205.6806640625</ele>
        <time>2011-06-05T06:42:04Z</time>
      </trkpt>
      <trkpt lat="43.18602" lon="2.39039">
        <ele>205.00773620606</ele>
        <time>2011-06-05T06:42:10Z</time>
      </trkpt>
      <trkpt lat="43.186" lon="2.39053">
        <ele>204.70153808594</ele>
        <time>2011-06-05T06:42:13Z</time>
      </trkpt>
      <trkpt lat="43.18592" lon="2.39058">
        <ele>204.03251647949</ele>
        <time>2011-06-05T06:42:19Z</time>
      </trkpt>
      <trkpt lat="43.18587" lon="2.39051">
        <ele>203.71937561035</ele>
        <time>2011-06-05T06:42:22Z</time>
      </trkpt>
      <trkpt lat="43.18571" lon="2.39035">
        <ele>202.40251159668</ele>
        <time>2011-06-05T06:42:29Z</time>
      </trkpt>
      <trkpt lat="43.18562" lon="2.39015">
        <ele>201.92481994629</ele>
        <time>2011-06-05T06:42:34Z</time>
      </trkpt>
      <trkpt lat="43.18559" lon="2.39006">
        <ele>201.81312561035</ele>
        <time>2011-06-05T06:42:36Z</time>
      </trkpt>
      <trkpt lat="43.18553" lon="2.39007">
        <ele>201.24702453613</ele>
        <time>2011-06-05T06:42:40Z</time>
      </trkpt>
      <trkpt lat="43.18534" lon="2.39021">
        <ele>199.2067565918</ele>
        <time>2011-06-05T06:42:46Z</time>
      </trkpt>
      <trkpt lat="43.18528" lon="2.39017">
        <ele>198.77899169922</ele>
        <time>2011-06-05T06:42:49Z</time>
      </trkpt>
      <trkpt lat="43.18527" lon="2.39015">
        <ele>198.7013092041</ele>
        <time>2011-06-05T06:42:50Z</time>
      </trkpt>
      <trkpt lat="43.18518" lon="2.39016">
        <ele>197.83558654785</ele>
        <time>2011-06-05T06:42:54Z</time>
      </trkpt>
      <trkpt lat="43.1851" lon="2.39009">
        <ele>197.46356201172</ele>
        <time>2011-06-05T06:42:59Z</time>
      </trkpt>
      <trkpt lat="43.18494" lon="2.39003">
        <ele>196.05628967285</ele>
        <time>2011-06-05T06:43:05Z</time>
      </trkpt>
      <trkpt lat="43.18485" lon="2.39012">
        <ele>194.55862426758</ele>
        <time>2011-06-05T06:43:08Z</time>
      </trkpt>
      <trkpt lat="43.18488" lon="2.3903">
        <ele>194.34983825684</ele>
        <time>2011-06-05T06:43:11Z</time>
      </trkpt>
      <trkpt lat="43.18493" lon="2.39036">
        <ele>194.62074279785</ele>
        <time>2011-06-05T06:43:13Z</time>
      </trkpt>
      <trkpt lat="43.18496" lon="2.3904">
        <ele>194.74568176269</ele>
        <time>2011-06-05T06:43:15Z</time>
      </trkpt>
      <trkpt lat="43.18498" lon="2.39055">
        <ele>194.25444030762</ele>
        <time>2011-06-05T06:43:20Z</time>
      </trkpt>
      <trkpt lat="43.18501" lon="2.39064">
        <ele>194.00975036621</ele>
        <time>2011-06-05T06:43:24Z</time>
      </trkpt>
      <trkpt lat="43.1851" lon="2.39076">
        <ele>194.50518798828</ele>
        <time>2011-06-05T06:43:30Z</time>
      </trkpt>
      <trkpt lat="43.18523" lon="2.39082">
        <ele>195.85925292969</ele>
        <time>2011-06-05T06:43:36Z</time>
      </trkpt>
      <trkpt lat="43.18534" lon="2.39087">
        <ele>197.35966491699</ele>
        <time>2011-06-05T06:43:40Z</time>
      </trkpt>
      <trkpt lat="43.18534" lon="2.39097">
        <ele>197.82077026367</ele>
        <time>2011-06-05T06:43:45Z</time>
      </trkpt>
      <trkpt lat="43.1853" lon="2.39102">
        <ele>197.67176818848</ele>
        <time>2011-06-05T06:43:49Z</time>
      </trkpt>
      <trkpt lat="43.1852" lon="2.39103">
        <ele>196.48690795898</ele>
        <time>2011-06-05T06:43:54Z</time>
      </trkpt>
      <trkpt lat="43.18516" lon="2.39106">
        <ele>196.22912597656</ele>
        <time>2011-06-05T06:43:59Z</time>
      </trkpt>
      <trkpt lat="43.1852" lon="2.39113">
        <ele>197.16407775879</ele>
        <time>2011-06-05T06:44:07Z</time>
      </trkpt>
      <trkpt lat="43.1852" lon="2.39113">
        <ele>197.1531829834</ele>
        <time>2011-06-05T06:44:08Z</time>
      </trkpt>
      <trkpt lat="43.18524" lon="2.39114">
        <ele>197.62817382812</ele>
        <time>2011-06-05T06:44:17Z</time>
      </trkpt>
      <trkpt lat="43.18533" lon="2.39118">
        <ele>198.89050292969</ele>
        <time>2011-06-05T06:44:23Z</time>
      </trkpt>
      <trkpt lat="43.18546" lon="2.39122">
        <ele>200.55285644531</ele>
        <time>2011-06-05T06:44:28Z</time>
      </trkpt>
      <trkpt lat="43.18555" lon="2.39128">
        <ele>201.9337310791</ele>
        <time>2011-06-05T06:44:32Z</time>
      </trkpt>
      <trkpt lat="43.18558" lon="2.39129">
        <ele>202.27890014648</ele>
        <time>2011-06-05T06:44:33Z</time>
      </trkpt>
      <trkpt lat="43.18564" lon="2.39146">
        <ele>203.87252807617</ele>
        <time>2011-06-05T06:44:38Z</time>
      </trkpt>
      <trkpt lat="43.18564" lon="2.3915">
        <ele>204.03247070312</ele>
        <time>2011-06-05T06:44:39Z</time>
      </trkpt>
      <trkpt lat="43.1856" lon="2.39201">
        <ele>206.42225646973</ele>
        <time>2011-06-05T06:44:51Z</time>
      </trkpt>
      <trkpt lat="43.18553" lon="2.39247">
        <ele>208.19586181641</ele>
        <time>2011-06-05T06:45:02Z</time>
      </trkpt>
      <trkpt lat="43.18543" lon="2.39263">
        <ele>207.60406494141</ele>
        <time>2011-06-05T06:45:07Z</time>
      </trkpt>
      <trkpt lat="43.18537" lon="2.39269">
        <ele>207.15518188477</ele>
        <time>2011-06-05T06:45:09Z</time>
      </trkpt>
      <trkpt lat="43.18523" lon="2.39276">
        <ele>205.74841308594</ele>
        <time>2011-06-05T06:45:13Z</time>
      </trkpt>
      <trkpt lat="43.18512" lon="2.39286">
        <ele>204.72445678711</ele>
        <time>2011-06-05T06:45:19Z</time>
      </trkpt>
      <trkpt lat="43.18508" lon="2.39276">
        <ele>203.88273620606</ele>
        <time>2011-06-05T06:45:23Z</time>
      </trkpt>
      <trkpt lat="43.18503" lon="2.39254">
        <ele>202.51631164551</ele>
        <time>2011-06-05T06:45:29Z</time>
      </trkpt>
      <trkpt lat="43.18502" lon="2.39252">
        <ele>202.3025970459</ele>
        <time>2011-06-05T06:45:30Z</time>
      </trkpt>
      <trkpt lat="43.18493" lon="2.39254">
        <ele>201.72540283203</ele>
        <time>2011-06-05T06:45:35Z</time>
      </trkpt>
      <trkpt lat="43.18488" lon="2.39258">
        <ele>201.50675964356</ele>
        <time>2011-06-05T06:45:37Z</time>
      </trkpt>
      <trkpt lat="43.18467" lon="2.39286">
        <ele>200.82138061523</ele>
        <time>2011-06-05T06:45:44Z</time>
      </trkpt>
      <trkpt lat="43.18465" lon="2.3929">
        <ele>200.73643493652</ele>
        <time>2011-06-05T06:45:45Z</time>
      </trkpt>
      <trkpt lat="43.1846" lon="2.39304">
        <ele>200.61009216309</ele>
        <time>2011-06-05T06:45:48Z</time>
      </trkpt>
      <trkpt lat="43.18459" lon="2.39325">
        <ele>200.91331481934</ele>
        <time>2011-06-05T06:45:52Z</time>
      </trkpt>
      <trkpt lat="43.18461" lon="2.39351">
        <ele>201.80256652832</ele>
        <time>2011-06-05T06:45:58Z</time>
      </trkpt>
      <trkpt lat="43.18461" lon="2.39369">
        <ele>202.35620117188</ele>
        <time>2011-06-05T06:46:02Z</time>
      </trkpt>
      <trkpt lat="43.18446" lon="2.39379">
        <ele>200.98321533203</ele>
        <time>2011-06-05T06:46:07Z</time>
      </trkpt>
      <trkpt lat="43.18442" lon="2.39377">
        <ele>200.45372009277</ele>
        <time>2011-06-05T06:46:08Z</time>
      </trkpt>
      <trkpt lat="43.1843" lon="2.39367">
        <ele>198.82624816894</ele>
        <time>2011-06-05T06:46:11Z</time>
      </trkpt>
      <trkpt lat="43.18421" lon="2.39359">
        <ele>197.75396728516</ele>
        <time>2011-06-05T06:46:13Z</time>
      </trkpt>
      <trkpt lat="43.18404" lon="2.39346">
        <ele>196.09313964844</ele>
        <time>2011-06-05T06:46:18Z</time>
      </trkpt>
      <trkpt lat="43.18402" lon="2.39345">
        <ele>195.8592376709</ele>
        <time>2011-06-05T06:46:19Z</time>
      </trkpt>
      <trkpt lat="43.1839" lon="2.39353">
        <ele>194.87968444824</ele>
        <time>2011-06-05T06:46:23Z</time>
      </trkpt>
      <trkpt lat="43.18374" lon="2.39366">
        <ele>193.59588623047</ele>
        <time>2011-06-05T06:46:29Z</time>
      </trkpt>
      <trkpt lat="43.18368" lon="2.39368">
        <ele>193.0633392334</ele>
        <time>2011-06-05T06:46:31Z</time>
      </trkpt>
      <trkpt lat="43.18357" lon="2.39367">
        <ele>192.07716369629</ele>
        <time>2011-06-05T06:46:35Z</time>
      </trkpt>
      <trkpt lat="43.1833" lon="2.39341">
        <ele>189.75248718262</ele>
        <time>2011-06-05T06:46:41Z</time>
      </trkpt>
      <trkpt lat="43.1831" lon="2.39316">
        <ele>188.275390625</ele>
        <time>2011-06-05T06:46:45Z</time>
      </trkpt>
      <trkpt lat="43.183" lon="2.39287">
        <ele>187.3994140625</ele>
        <time>2011-06-05T06:46:49Z</time>
      </trkpt>
      <trkpt lat="43.18301" lon="2.39281">
        <ele>187.39694213867</ele>
        <time>2011-06-05T06:46:50Z</time>
      </trkpt>
      <trkpt lat="43.1829" lon="2.39259">
        <ele>186.38209533691</ele>
        <time>2011-06-05T06:46:55Z</time>
      </trkpt>
      <trkpt lat="43.18284" lon="2.39257">
        <ele>185.92091369629</ele>
        <time>2011-06-05T06:46:56Z</time>
      </trkpt>
      <trkpt lat="43.18255" lon="2.39241">
        <ele>183.54644775391</ele>
        <time>2011-06-05T06:47:01Z</time>
      </trkpt>
      <trkpt lat="43.1825" lon="2.39235">
        <ele>183.20799255371</ele>
        <time>2011-06-05T06:47:02Z</time>
      </trkpt>
      <trkpt lat="43.18241" lon="2.3922">
        <ele>182.24369812012</ele>
        <time>2011-06-05T06:47:04Z</time>
      </trkpt>
      <trkpt lat="43.18203" lon="2.39185">
        <ele>178.1824798584</ele>
        <time>2011-06-05T06:47:10Z</time>
      </trkpt>
      <trkpt lat="43.1818" lon="2.39169">
        <ele>175.62557983398</ele>
        <time>2011-06-05T06:47:13Z</time>
      </trkpt>
      <trkpt lat="43.18129" lon="2.39156">
        <ele>171.31311035156</ele>
        <time>2011-06-05T06:47:19Z</time>
      </trkpt>
      <trkpt lat="43.18113" lon="2.39154">
        <ele>170.15954589844</ele>
        <time>2011-06-05T06:47:21Z</time>
      </trkpt>
      <trkpt lat="43.18092" lon="2.39141">
        <ele>168.64892578125</ele>
        <time>2011-06-05T06:47:25Z</time>
      </trkpt>
      <trkpt lat="43.18088" lon="2.39144">
        <ele>168.34680175781</ele>
        <time>2011-06-05T06:47:28Z</time>
      </trkpt>
      <trkpt lat="43.18091" lon="2.39153">
        <ele>168.56652832031</ele>
        <time>2011-06-05T06:47:32Z</time>
      </trkpt>
      <trkpt lat="43.18092" lon="2.39156">
        <ele>168.64892578125</ele>
        <time>2011-06-05T06:47:33Z</time>
      </trkpt>
      <trkpt lat="43.18101" lon="2.39185">
        <ele>169.55216979981</ele>
        <time>2011-06-05T06:47:40Z</time>
      </trkpt>
      <trkpt lat="43.18106" lon="2.39203">
        <ele>170.17147827148</ele>
        <time>2011-06-05T06:47:46Z</time>
      </trkpt>
      <trkpt lat="43.18111" lon="2.3922">
        <ele>170.61657714844</ele>
        <time>2011-06-05T06:47:51Z</time>
      </trkpt>
      <trkpt lat="43.1812" lon="2.39258">
        <ele>171.57598876953</ele>
        <time>2011-06-05T06:48:00Z</time>
      </trkpt>
      <trkpt lat="43.18121" lon="2.39265">
        <ele>171.86434936523</ele>
        <time>2011-06-05T06:48:04Z</time>
      </trkpt>
      <trkpt lat="43.18121" lon="2.39265">
        <ele>171.8674621582</ele>
        <time>2011-06-05T06:48:05Z</time>
      </trkpt>
      <trkpt lat="43.18123" lon="2.3927">
        <ele>172.04093933106</ele>
        <time>2011-06-05T06:49:19Z</time>
      </trkpt>
      <trkpt lat="43.18124" lon="2.39271">
        <ele>172.11380004883</ele>
        <time>2011-06-05T06:49:20Z</time>
      </trkpt>
      <trkpt lat="43.18126" lon="2.39275">
        <ele>172.25686645508</ele>
        <time>2011-06-05T06:49:22Z</time>
      </trkpt>
      <trkpt lat="43.18134" lon="2.39288">
        <ele>172.71928405762</ele>
        <time>2011-06-05T06:49:28Z</time>
      </trkpt>
      <trkpt lat="43.18142" lon="2.39307">
        <ele>173.12602233887</ele>
        <time>2011-06-05T06:49:34Z</time>
      </trkpt>
      <trkpt lat="43.18152" lon="2.39336">
        <ele>173.40388488769</ele>
        <time>2011-06-05T06:49:41Z</time>
      </trkpt>
      <trkpt lat="43.18159" lon="2.3936">
        <ele>173.57652282715</ele>
        <time>2011-06-05T06:49:46Z</time>
      </trkpt>
      <trkpt lat="43.18171" lon="2.39397">
        <ele>174.24926757812</ele>
        <time>2011-06-05T06:49:54Z</time>
      </trkpt>
      <trkpt lat="43.18183" lon="2.39428">
        <ele>175.6513671875</ele>
        <time>2011-06-05T06:50:01Z</time>
      </trkpt>
      <trkpt lat="43.18195" lon="2.39461">
        <ele>177.0645904541</ele>
        <time>2011-06-05T06:50:09Z</time>
      </trkpt>
      <trkpt lat="43.18207" lon="2.39499">
        <ele>178.39788818359</ele>
        <time>2011-06-05T06:50:18Z</time>
      </trkpt>
      <trkpt lat="43.18219" lon="2.39529">
        <ele>180.06466674805</ele>
        <time>2011-06-05T06:50:25Z</time>
      </trkpt>
      <trkpt lat="43.18234" lon="2.39548">
        <ele>181.21704101562</ele>
        <time>2011-06-05T06:50:31Z</time>
      </trkpt>
      <trkpt lat="43.18245" lon="2.39573">
        <ele>181.83891296387</ele>
        <time>2011-06-05T06:50:38Z</time>
      </trkpt>
      <trkpt lat="43.18246" lon="2.39598">
        <ele>182.44343566894</ele>
        <time>2011-06-05T06:50:44Z</time>
      </trkpt>
      <trkpt lat="43.18243" lon="2.39613">
        <ele>182.96054077148</ele>
        <time>2011-06-05T06:50:48Z</time>
      </trkpt>
      <trkpt lat="43.18246" lon="2.39636">
        <ele>183.8504486084</ele>
        <time>2011-06-05T06:50:53Z</time>
      </trkpt>
      <trkpt lat="43.18249" lon="2.39665">
        <ele>184.92840576172</ele>
        <time>2011-06-05T06:51:00Z</time>
      </trkpt>
      <trkpt lat="43.18245" lon="2.39693">
        <ele>186.85359191894</ele>
        <time>2011-06-05T06:51:06Z</time>
      </trkpt>
      <trkpt lat="43.18235" lon="2.3972">
        <ele>188.61759948731</ele>
        <time>2011-06-05T06:51:13Z</time>
      </trkpt>
      <trkpt lat="43.18225" lon="2.39731">
        <ele>189.17779541016</ele>
        <time>2011-06-05T06:51:19Z</time>
      </trkpt>
      <trkpt lat="43.18222" lon="2.39738">
        <ele>189.53480529785</ele>
        <time>2011-06-05T06:51:24Z</time>
      </trkpt>
      <trkpt lat="43.1822" lon="2.3974">
        <ele>189.65626525879</ele>
        <time>2011-06-05T06:51:28Z</time>
      </trkpt>
      <trkpt lat="43.18221" lon="2.39749">
        <ele>190.23210144043</ele>
        <time>2011-06-05T06:51:34Z</time>
      </trkpt>
      <trkpt lat="43.18222" lon="2.39752">
        <ele>190.39700317383</ele>
        <time>2011-06-05T06:51:38Z</time>
      </trkpt>
      <trkpt lat="43.18225" lon="2.39758">
        <ele>190.69766235352</ele>
        <time>2011-06-05T06:51:48Z</time>
      </trkpt>
      <trkpt lat="43.18232" lon="2.39772">
        <ele>191.32960510254</ele>
        <time>2011-06-05T06:51:53Z</time>
      </trkpt>
      <trkpt lat="43.18233" lon="2.39788">
        <ele>191.88549804688</ele>
        <time>2011-06-05T06:51:57Z</time>
      </trkpt>
      <trkpt lat="43.18234" lon="2.39808">
        <ele>192.53378295898</ele>
        <time>2011-06-05T06:52:02Z</time>
      </trkpt>
      <trkpt lat="43.18238" lon="2.39834">
        <ele>193.29563903809</ele>
        <time>2011-06-05T06:52:08Z</time>
      </trkpt>
      <trkpt lat="43.18241" lon="2.39856">
        <ele>193.9022064209</ele>
        <time>2011-06-05T06:52:13Z</time>
      </trkpt>
      <trkpt lat="43.18243" lon="2.39885">
        <ele>194.65835571289</ele>
        <time>2011-06-05T06:52:19Z</time>
      </trkpt>
      <trkpt lat="43.18247" lon="2.3991">
        <ele>195.04710388184</ele>
        <time>2011-06-05T06:52:25Z</time>
      </trkpt>
      <trkpt lat="43.18254" lon="2.39924">
        <ele>195.72874450684</ele>
        <time>2011-06-05T06:52:30Z</time>
      </trkpt>
      <trkpt lat="43.18261" lon="2.39933">
        <ele>196.86883544922</ele>
        <time>2011-06-05T06:52:35Z</time>
      </trkpt>
      <trkpt lat="43.18264" lon="2.39943">
        <ele>197.32675170898</ele>
        <time>2011-06-05T06:52:41Z</time>
      </trkpt>
      <trkpt lat="43.18262" lon="2.39946">
        <ele>197.09725952148</ele>
        <time>2011-06-05T06:52:43Z</time>
      </trkpt>
      <trkpt lat="43.18256" lon="2.39951">
        <ele>196.46995544434</ele>
        <time>2011-06-05T06:52:48Z</time>
      </trkpt>
      <trkpt lat="43.18253" lon="2.39955">
        <ele>196.24644470215</ele>
        <time>2011-06-05T06:52:51Z</time>
      </trkpt>
      <trkpt lat="43.1825" lon="2.39968">
        <ele>196.2600402832</ele>
        <time>2011-06-05T06:52:56Z</time>
      </trkpt>
      <trkpt lat="43.18253" lon="2.39984">
        <ele>196.84042358398</ele>
        <time>2011-06-05T06:53:03Z</time>
      </trkpt>
      <trkpt lat="43.18254" lon="2.39998">
        <ele>197.24534606934</ele>
        <time>2011-06-05T06:53:08Z</time>
      </trkpt>
      <trkpt lat="43.18248" lon="2.40009">
        <ele>197.90658569336</ele>
        <time>2011-06-05T06:53:14Z</time>
      </trkpt>
      <trkpt lat="43.1824" lon="2.40019">
        <ele>199.12066650391</ele>
        <time>2011-06-05T06:53:20Z</time>
      </trkpt>
      <trkpt lat="43.18225" lon="2.40035">
        <ele>200.84526062012</ele>
        <time>2011-06-05T06:53:28Z</time>
      </trkpt>
      <trkpt lat="43.18203" lon="2.40051">
        <ele>202.26396179199</ele>
        <time>2011-06-05T06:53:37Z</time>
      </trkpt>
      <trkpt lat="43.18191" lon="2.40067">
        <ele>202.88319396973</ele>
        <time>2011-06-05T06:53:43Z</time>
      </trkpt>
      <trkpt lat="43.18188" lon="2.40085">
        <ele>203.34887695312</ele>
        <time>2011-06-05T06:53:48Z</time>
      </trkpt>
      <trkpt lat="43.18185" lon="2.40099">
        <ele>204.23731994629</ele>
        <time>2011-06-05T06:53:53Z</time>
      </trkpt>
      <trkpt lat="43.18182" lon="2.40109">
        <ele>204.81936645508</ele>
        <time>2011-06-05T06:53:57Z</time>
      </trkpt>
      <trkpt lat="43.18179" lon="2.40122">
        <ele>205.60571289062</ele>
        <time>2011-06-05T06:54:02Z</time>
      </trkpt>
      <trkpt lat="43.18176" lon="2.40151">
        <ele>207.35633850098</ele>
        <time>2011-06-05T06:54:12Z</time>
      </trkpt>
      <trkpt lat="43.18173" lon="2.40176">
        <ele>209.10635375977</ele>
        <time>2011-06-05T06:54:20Z</time>
      </trkpt>
      <trkpt lat="43.18168" lon="2.40207">
        <ele>211.90606689453</ele>
        <time>2011-06-05T06:54:29Z</time>
      </trkpt>
      <trkpt lat="43.18161" lon="2.4023">
        <ele>214.14405822754</ele>
        <time>2011-06-05T06:54:37Z</time>
      </trkpt>
      <trkpt lat="43.18156" lon="2.4025">
        <ele>215.96493530273</ele>
        <time>2011-06-05T06:54:46Z</time>
      </trkpt>
      <trkpt lat="43.18153" lon="2.40272">
        <ele>215.64544677734</ele>
        <time>2011-06-05T06:54:55Z</time>
      </trkpt>
      <trkpt lat="43.18149" lon="2.40294">
        <ele>215.25041198731</ele>
        <time>2011-06-05T06:55:03Z</time>
      </trkpt>
      <trkpt lat="43.1815" lon="2.40313">
        <ele>214.95585632324</ele>
        <time>2011-06-05T06:55:10Z</time>
      </trkpt>
      <trkpt lat="43.18152" lon="2.40324">
        <ele>214.8010559082</ele>
        <time>2011-06-05T06:55:15Z</time>
      </trkpt>
      <trkpt lat="43.18152" lon="2.40326">
        <ele>214.76908874512</ele>
        <time>2011-06-05T06:55:16Z</time>
      </trkpt>
      <trkpt lat="43.18159" lon="2.40332">
        <ele>214.84796142578</ele>
        <time>2011-06-05T06:55:21Z</time>
      </trkpt>
      <trkpt lat="43.18173" lon="2.4033">
        <ele>215.11444091797</ele>
        <time>2011-06-05T06:55:27Z</time>
      </trkpt>
      <trkpt lat="43.1819" lon="2.40331">
        <ele>215.2901763916</ele>
        <time>2011-06-05T06:55:32Z</time>
      </trkpt>
      <trkpt lat="43.1821" lon="2.4034">
        <ele>215.10438537598</ele>
        <time>2011-06-05T06:55:37Z</time>
      </trkpt>
      <trkpt lat="43.1823" lon="2.40353">
        <ele>214.79995727539</ele>
        <time>2011-06-05T06:55:43Z</time>
      </trkpt>
      <trkpt lat="43.18234" lon="2.40356">
        <ele>214.7321472168</ele>
        <time>2011-06-05T06:55:46Z</time>
      </trkpt>
      <trkpt lat="43.18237" lon="2.40365">
        <ele>214.40995788574</ele>
        <time>2011-06-05T06:55:50Z</time>
      </trkpt>
      <trkpt lat="43.18239" lon="2.40378">
        <ele>213.93341064453</ele>
        <time>2011-06-05T06:55:55Z</time>
      </trkpt>
      <trkpt lat="43.1824" lon="2.40378">
        <ele>213.93252563477</ele>
        <time>2011-06-05T06:55:56Z</time>
      </trkpt>
      <trkpt lat="43.18239" lon="2.40384">
        <ele>213.64019775391</ele>
        <time>2011-06-05T06:56:00Z</time>
      </trkpt>
      <trkpt lat="43.18226" lon="2.40392">
        <ele>212.57902526856</ele>
        <time>2011-06-05T06:56:05Z</time>
      </trkpt>
      <trkpt lat="43.18219" lon="2.40408">
        <ele>211.29580688477</ele>
        <time>2011-06-05T06:56:09Z</time>
      </trkpt>
      <trkpt lat="43.1821" lon="2.40445">
        <ele>209.8565826416</ele>
        <time>2011-06-05T06:56:17Z</time>
      </trkpt>
      <trkpt lat="43.18199" lon="2.40483">
        <ele>207.83308410644</ele>
        <time>2011-06-05T06:56:23Z</time>
      </trkpt>
      <trkpt lat="43.18189" lon="2.40512">
        <ele>205.87342834473</ele>
        <time>2011-06-05T06:56:27Z</time>
      </trkpt>
      <trkpt lat="43.18179" lon="2.4054">
        <ele>204.13374328613</ele>
        <time>2011-06-05T06:56:32Z</time>
      </trkpt>
      <trkpt lat="43.18176" lon="2.40545">
        <ele>203.66790771484</ele>
        <time>2011-06-05T06:56:33Z</time>
      </trkpt>
      <trkpt lat="43.18157" lon="2.40585">
        <ele>201.03160095215</ele>
        <time>2011-06-05T06:56:40Z</time>
      </trkpt>
      <trkpt lat="43.18147" lon="2.40617">
        <ele>199.35176086426</ele>
        <time>2011-06-05T06:56:46Z</time>
      </trkpt>
      <trkpt lat="43.18146" lon="2.40623">
        <ele>199.03094482422</ele>
        <time>2011-06-05T06:56:47Z</time>
      </trkpt>
      <trkpt lat="43.18145" lon="2.40649">
        <ele>198.30612182617</ele>
        <time>2011-06-05T06:56:52Z</time>
      </trkpt>
      <trkpt lat="43.18146" lon="2.40675">
        <ele>197.25640869141</ele>
        <time>2011-06-05T06:56:57Z</time>
      </trkpt>
      <trkpt lat="43.18153" lon="2.40696">
        <ele>196.04196166992</ele>
        <time>2011-06-05T06:57:01Z</time>
      </trkpt>
      <trkpt lat="43.18163" lon="2.4072">
        <ele>194.31365966797</ele>
        <time>2011-06-05T06:57:06Z</time>
      </trkpt>
      <trkpt lat="43.1817" lon="2.40753">
        <ele>191.40635681152</ele>
        <time>2011-06-05T06:57:11Z</time>
      </trkpt>
      <trkpt lat="43.18185" lon="2.4078">
        <ele>192.7731628418</ele>
        <time>2011-06-05T06:57:16Z</time>
      </trkpt>
      <trkpt lat="43.18187" lon="2.40785">
        <ele>192.92974853516</ele>
        <time>2011-06-05T06:57:17Z</time>
      </trkpt>
      <trkpt lat="43.18186" lon="2.40803">
        <ele>192.17723083496</ele>
        <time>2011-06-05T06:57:20Z</time>
      </trkpt>
      <trkpt lat="43.18182" lon="2.40817">
        <ele>191.15275573731</ele>
        <time>2011-06-05T06:57:22Z</time>
      </trkpt>
      <trkpt lat="43.18176" lon="2.40831">
        <ele>190.02278137207</ele>
        <time>2011-06-05T06:57:24Z</time>
      </trkpt>
      <trkpt lat="43.18169" lon="2.40848">
        <ele>188.90747070312</ele>
        <time>2011-06-05T06:57:26Z</time>
      </trkpt>
      <trkpt lat="43.1816" lon="2.40897">
        <ele>187.08222961426</ele>
        <time>2011-06-05T06:57:31Z</time>
      </trkpt>
      <trkpt lat="43.18158" lon="2.40904">
        <ele>186.74064636231</ele>
        <time>2011-06-05T06:57:32Z</time>
      </trkpt>
      <trkpt lat="43.18152" lon="2.40918">
        <ele>185.91676330566</ele>
        <time>2011-06-05T06:57:36Z</time>
      </trkpt>
      <trkpt lat="43.18151" lon="2.4092">
        <ele>185.76913452148</ele>
        <time>2011-06-05T06:57:38Z</time>
      </trkpt>
      <trkpt lat="43.1815" lon="2.4092">
        <ele>185.71420288086</ele>
        <time>2011-06-05T06:57:40Z</time>
      </trkpt>
      <trkpt lat="43.18151" lon="2.4093">
        <ele>185.42581176758</ele>
        <time>2011-06-05T06:59:27Z</time>
      </trkpt>
      <trkpt lat="43.18148" lon="2.40938">
        <ele>184.84902954102</ele>
        <time>2011-06-05T06:59:30Z</time>
      </trkpt>
      <trkpt lat="43.18147" lon="2.40942">
        <ele>184.63702392578</ele>
        <time>2011-06-05T06:59:31Z</time>
      </trkpt>
      <trkpt lat="43.18143" lon="2.40953">
        <ele>183.99415588379</ele>
        <time>2011-06-05T06:59:33Z</time>
      </trkpt>
      <trkpt lat="43.1814" lon="2.40985">
        <ele>182.66377258301</ele>
        <time>2011-06-05T06:59:37Z</time>
      </trkpt>
      <trkpt lat="43.1814" lon="2.41012">
        <ele>181.19232177734</ele>
        <time>2011-06-05T06:59:40Z</time>
      </trkpt>
      <trkpt lat="43.18139" lon="2.41031">
        <ele>179.80039978027</ele>
        <time>2011-06-05T06:59:42Z</time>
      </trkpt>
      <trkpt lat="43.1814" lon="2.41044">
        <ele>178.84838867188</ele>
        <time>2011-06-05T06:59:44Z</time>
      </trkpt>
      <trkpt lat="43.18143" lon="2.41055">
        <ele>178.14175415039</ele>
        <time>2011-06-05T06:59:46Z</time>
      </trkpt>
      <trkpt lat="43.18154" lon="2.41065">
        <ele>177.58792114258</ele>
        <time>2011-06-05T06:59:49Z</time>
      </trkpt>
      <trkpt lat="43.18157" lon="2.41068">
        <ele>177.32431030273</ele>
        <time>2011-06-05T06:59:50Z</time>
      </trkpt>
      <trkpt lat="43.18172" lon="2.4109">
        <ele>176.50285339356</ele>
        <time>2011-06-05T06:59:57Z</time>
      </trkpt>
      <trkpt lat="43.18178" lon="2.41102">
        <ele>176.63563537598</ele>
        <time>2011-06-05T07:00:02Z</time>
      </trkpt>
      <trkpt lat="43.18186" lon="2.41111">
        <ele>177.16966247559</ele>
        <time>2011-06-05T07:00:06Z</time>
      </trkpt>
      <trkpt lat="43.18198" lon="2.41129">
        <ele>177.56112670898</ele>
        <time>2011-06-05T07:00:11Z</time>
      </trkpt>
      <trkpt lat="43.1822" lon="2.41165">
        <ele>177.16970825195</ele>
        <time>2011-06-05T07:00:19Z</time>
      </trkpt>
      <trkpt lat="43.18237" lon="2.41196">
        <ele>175.88667297363</ele>
        <time>2011-06-05T07:00:26Z</time>
      </trkpt>
      <trkpt lat="43.18251" lon="2.41235">
        <ele>172.76921081543</ele>
        <time>2011-06-05T07:00:33Z</time>
      </trkpt>
      <trkpt lat="43.18253" lon="2.41242">
        <ele>172.08433532715</ele>
        <time>2011-06-05T07:00:34Z</time>
      </trkpt>
      <trkpt lat="43.18272" lon="2.41291">
        <ele>168.80854797363</ele>
        <time>2011-06-05T07:00:43Z</time>
      </trkpt>
      <trkpt lat="43.18289" lon="2.41318">
        <ele>167.08543395996</ele>
        <time>2011-06-05T07:00:48Z</time>
      </trkpt>
      <trkpt lat="43.18289" lon="2.4134">
        <ele>165.64279174805</ele>
        <time>2011-06-05T07:00:52Z</time>
      </trkpt>
      <trkpt lat="43.18275" lon="2.4136">
        <ele>164.51258850098</ele>
        <time>2011-06-05T07:00:56Z</time>
      </trkpt>
      <trkpt lat="43.18256" lon="2.41391">
        <ele>162.57516479492</ele>
        <time>2011-06-05T07:01:00Z</time>
      </trkpt>
      <trkpt lat="43.18257" lon="2.41423">
        <ele>160.88781738281</ele>
        <time>2011-06-05T07:01:03Z</time>
      </trkpt>
      <trkpt lat="43.18259" lon="2.41444">
        <ele>160.20646667481</ele>
        <time>2011-06-05T07:01:05Z</time>
      </trkpt>
      <trkpt lat="43.18259" lon="2.41467">
        <ele>159.49049377441</ele>
        <time>2011-06-05T07:01:07Z</time>
      </trkpt>
      <trkpt lat="43.18244" lon="2.41513">
        <ele>156.5051574707</ele>
        <time>2011-06-05T07:01:12Z</time>
      </trkpt>
      <trkpt lat="43.18222" lon="2.41537">
        <ele>152.88584899902</ele>
        <time>2011-06-05T07:01:16Z</time>
      </trkpt>
      <trkpt lat="43.18214" lon="2.41546">
        <ele>151.73683166504</ele>
        <time>2011-06-05T07:01:18Z</time>
      </trkpt>
      <trkpt lat="43.18198" lon="2.41562">
        <ele>149.45129394531</ele>
        <time>2011-06-05T07:01:23Z</time>
      </trkpt>
      <trkpt lat="43.18188" lon="2.41571">
        <ele>148.18228149414</ele>
        <time>2011-06-05T07:01:27Z</time>
      </trkpt>
      <trkpt lat="43.18179" lon="2.4157">
        <ele>147.56292724609</ele>
        <time>2011-06-05T07:01:32Z</time>
      </trkpt>
      <trkpt lat="43.18176" lon="2.41567">
        <ele>147.48086547852</ele>
        <time>2011-06-05T07:01:34Z</time>
      </trkpt>
      <trkpt lat="43.18168" lon="2.41562">
        <ele>147.17224121094</ele>
        <time>2011-06-05T07:01:36Z</time>
      </trkpt>
      <trkpt lat="43.18154" lon="2.41547">
        <ele>148.41590881348</ele>
        <time>2011-06-05T07:01:40Z</time>
      </trkpt>
      <trkpt lat="43.18141" lon="2.41549">
        <ele>149.00721740723</ele>
        <time>2011-06-05T07:01:44Z</time>
      </trkpt>
      <trkpt lat="43.18122" lon="2.41562">
        <ele>149.25936889648</ele>
        <time>2011-06-05T07:01:51Z</time>
      </trkpt>
      <trkpt lat="43.18105" lon="2.41583">
        <ele>149.00100708008</ele>
        <time>2011-06-05T07:01:59Z</time>
      </trkpt>
      <trkpt lat="43.18093" lon="2.41595">
        <ele>148.55212402344</ele>
        <time>2011-06-05T07:02:04Z</time>
      </trkpt>
      <trkpt lat="43.18087" lon="2.41597">
        <ele>148.56161499023</ele>
        <time>2011-06-05T07:02:06Z</time>
      </trkpt>
      <trkpt lat="43.18064" lon="2.41608">
        <ele>149.45948791504</ele>
        <time>2011-06-05T07:02:13Z</time>
      </trkpt>
      <trkpt lat="43.18041" lon="2.41621">
        <ele>149.87005615234</ele>
        <time>2011-06-05T07:02:20Z</time>
      </trkpt>
      <trkpt lat="43.18027" lon="2.41631">
        <ele>149.54437255859</ele>
        <time>2011-06-05T07:02:25Z</time>
      </trkpt>
      <trkpt lat="43.18023" lon="2.41634">
        <ele>149.3885345459</ele>
        <time>2011-06-05T07:02:27Z</time>
      </trkpt>
      <trkpt lat="43.18024" lon="2.41643">
        <ele>147.81973266602</ele>
        <time>2011-06-05T07:02:32Z</time>
      </trkpt>
      <trkpt lat="43.18025" lon="2.41643">
        <ele>147.75123596191</ele>
        <time>2011-06-05T07:02:35Z</time>
      </trkpt>
      <trkpt lat="43.18023" lon="2.41642">
        <ele>148.07527160644</ele>
        <time>2011-06-05T07:03:11Z</time>
      </trkpt>
      <trkpt lat="43.18021" lon="2.41643">
        <ele>148.07458496094</ele>
        <time>2011-06-05T07:03:16Z</time>
      </trkpt>
      <trkpt lat="43.18021" lon="2.41642">
        <ele>148.24917602539</ele>
        <time>2011-06-05T07:04:12Z</time>
      </trkpt>
      <trkpt lat="43.18021" lon="2.41641">
        <ele>148.37443542481</ele>
        <time>2011-06-05T07:04:13Z</time>
      </trkpt>
      <trkpt lat="43.18021" lon="2.4164">
        <ele>148.50349426269</ele>
        <time>2011-06-05T07:04:14Z</time>
      </trkpt>
      <trkpt lat="43.1802" lon="2.41638">
        <ele>148.87185668945</ele>
        <time>2011-06-05T07:04:17Z</time>
      </trkpt>
      <trkpt lat="43.18007" lon="2.41655">
        <ele>146.8196105957</ele>
        <time>2011-06-05T07:05:10Z</time>
      </trkpt>
      <trkpt lat="43.17994" lon="2.41677">
        <ele>145.73219299316</ele>
        <time>2011-06-05T07:05:16Z</time>
      </trkpt>
      <trkpt lat="43.17978" lon="2.41706">
        <ele>146.8825378418</ele>
        <time>2011-06-05T07:05:23Z</time>
      </trkpt>
      <trkpt lat="43.17962" lon="2.41742">
        <ele>146.70188903809</ele>
        <time>2011-06-05T07:05:31Z</time>
      </trkpt>
      <trkpt lat="43.17952" lon="2.41761">
        <ele>147.06599426269</ele>
        <time>2011-06-05T07:05:35Z</time>
      </trkpt>
      <trkpt lat="43.17938" lon="2.41776">
        <ele>147.70079040527</ele>
        <time>2011-06-05T07:05:39Z</time>
      </trkpt>
      <trkpt lat="43.17911" lon="2.41782">
        <ele>148.16159057617</ele>
        <time>2011-06-05T07:05:45Z</time>
      </trkpt>
      <trkpt lat="43.17902" lon="2.41778">
        <ele>148.45225524902</ele>
        <time>2011-06-05T07:05:47Z</time>
      </trkpt>
      <trkpt lat="43.17882" lon="2.41774">
        <ele>149.18727111816</ele>
        <time>2011-06-05T07:05:52Z</time>
      </trkpt>
      <trkpt lat="43.17866" lon="2.41772">
        <ele>149.78218078613</ele>
        <time>2011-06-05T07:05:55Z</time>
      </trkpt>
      <trkpt lat="43.17844" lon="2.41774">
        <ele>150.48268127441</ele>
        <time>2011-06-05T07:05:59Z</time>
      </trkpt>
      <trkpt lat="43.17821" lon="2.41791">
        <ele>150.57456970215</ele>
        <time>2011-06-05T07:06:04Z</time>
      </trkpt>
      <trkpt lat="43.17809" lon="2.41803">
        <ele>150.3942565918</ele>
        <time>2011-06-05T07:06:07Z</time>
      </trkpt>
      <trkpt lat="43.17799" lon="2.41806">
        <ele>150.51568603516</ele>
        <time>2011-06-05T07:06:09Z</time>
      </trkpt>
      <trkpt lat="43.1779" lon="2.41811">
        <ele>150.51544189453</ele>
        <time>2011-06-05T07:06:11Z</time>
      </trkpt>
      <trkpt lat="43.17766" lon="2.41819">
        <ele>150.75798034668</ele>
        <time>2011-06-05T07:06:17Z</time>
      </trkpt>
      <trkpt lat="43.17754" lon="2.41821">
        <ele>150.96015930176</ele>
        <time>2011-06-05T07:06:20Z</time>
      </trkpt>
      <trkpt lat="43.17739" lon="2.41825">
        <ele>152.25015258789</ele>
        <time>2011-06-05T07:06:24Z</time>
      </trkpt>
      <trkpt lat="43.17729" lon="2.4183">
        <ele>153.02018737793</ele>
        <time>2011-06-05T07:06:28Z</time>
      </trkpt>
      <trkpt lat="43.1772" lon="2.4184">
        <ele>153.83259582519</ele>
        <time>2011-06-05T07:06:32Z</time>
      </trkpt>
      <trkpt lat="43.17711" lon="2.41858">
        <ele>154.48738098144</ele>
        <time>2011-06-05T07:06:36Z</time>
      </trkpt>
      <trkpt lat="43.17699" lon="2.41876">
        <ele>155.00816345215</ele>
        <time>2011-06-05T07:06:41Z</time>
      </trkpt>
      <trkpt lat="43.17693" lon="2.41889">
        <ele>154.95468139648</ele>
        <time>2011-06-05T07:06:46Z</time>
      </trkpt>
      <trkpt lat="43.17692" lon="2.41891">
        <ele>155.00991821289</ele>
        <time>2011-06-05T07:06:47Z</time>
      </trkpt>
      <trkpt lat="43.17687" lon="2.41902">
        <ele>154.76858520508</ele>
        <time>2011-06-05T07:06:52Z</time>
      </trkpt>
      <trkpt lat="43.17687" lon="2.41923">
        <ele>153.95014953613</ele>
        <time>2011-06-05T07:06:57Z</time>
      </trkpt>
      <trkpt lat="43.17688" lon="2.41929">
        <ele>153.88995361328</ele>
        <time>2011-06-05T07:06:58Z</time>
      </trkpt>
      <trkpt lat="43.17686" lon="2.41963">
        <ele>153.57023620606</ele>
        <time>2011-06-05T07:07:05Z</time>
      </trkpt>
      <trkpt lat="43.17673" lon="2.41977">
        <ele>153.01373291016</ele>
        <time>2011-06-05T07:07:10Z</time>
      </trkpt>
      <trkpt lat="43.1766" lon="2.41977">
        <ele>153.73678588867</ele>
        <time>2011-06-05T07:07:14Z</time>
      </trkpt>
      <trkpt lat="43.17648" lon="2.41993">
        <ele>154.63511657715</ele>
        <time>2011-06-05T07:07:19Z</time>
      </trkpt>
      <trkpt lat="43.17642" lon="2.42005">
        <ele>154.98164367676</ele>
        <time>2011-06-05T07:07:22Z</time>
      </trkpt>
      <trkpt lat="43.17633" lon="2.42036">
        <ele>155.61552429199</ele>
        <time>2011-06-05T07:07:28Z</time>
      </trkpt>
      <trkpt lat="43.17631" lon="2.42051">
        <ele>155.48347473144</ele>
        <time>2011-06-05T07:07:31Z</time>
      </trkpt>
      <trkpt lat="43.17626" lon="2.42056">
        <ele>155.60675048828</ele>
        <time>2011-06-05T07:07:36Z</time>
      </trkpt>
      <trkpt lat="43.17624" lon="2.42052">
        <ele>155.78419494629</ele>
        <time>2011-06-05T07:07:39Z</time>
      </trkpt>
      <trkpt lat="43.17611" lon="2.42047">
        <ele>156.57456970215</ele>
        <time>2011-06-05T07:07:45Z</time>
      </trkpt>
      <trkpt lat="43.17607" lon="2.42045">
        <ele>156.90617370606</ele>
        <time>2011-06-05T07:07:46Z</time>
      </trkpt>
      <trkpt lat="43.17588" lon="2.4204">
        <ele>158.31388854981</ele>
        <time>2011-06-05T07:07:51Z</time>
      </trkpt>
      <trkpt lat="43.17581" lon="2.42045">
        <ele>158.46746826172</ele>
        <time>2011-06-05T07:07:54Z</time>
      </trkpt>
      <trkpt lat="43.17559" lon="2.42057">
        <ele>159.24252319336</ele>
        <time>2011-06-05T07:08:00Z</time>
      </trkpt>
      <trkpt lat="43.17553" lon="2.42061">
        <ele>159.43678283691</ele>
        <time>2011-06-05T07:08:02Z</time>
      </trkpt>
      <trkpt lat="43.1754" lon="2.42072">
        <ele>159.59300231934</ele>
        <time>2011-06-05T07:08:07Z</time>
      </trkpt>
      <trkpt lat="43.17538" lon="2.42074">
        <ele>159.55294799805</ele>
        <time>2011-06-05T07:08:08Z</time>
      </trkpt>
      <trkpt lat="43.17525" lon="2.42086">
        <ele>159.88110351562</ele>
        <time>2011-06-05T07:08:13Z</time>
      </trkpt>
      <trkpt lat="43.17512" lon="2.42097">
        <ele>160.47067260742</ele>
        <time>2011-06-05T07:08:18Z</time>
      </trkpt>
      <trkpt lat="43.17498" lon="2.42123">
        <ele>159.5749206543</ele>
        <time>2011-06-05T07:08:23Z</time>
      </trkpt>
      <trkpt lat="43.17492" lon="2.42135">
        <ele>158.81225585938</ele>
        <time>2011-06-05T07:08:25Z</time>
      </trkpt>
      <trkpt lat="43.17479" lon="2.42154">
        <ele>157.6280670166</ele>
        <time>2011-06-05T07:08:30Z</time>
      </trkpt>
      <trkpt lat="43.17475" lon="2.42158">
        <ele>157.41571044922</ele>
        <time>2011-06-05T07:08:33Z</time>
      </trkpt>
      <trkpt lat="43.17475" lon="2.42161">
        <ele>157.29750061035</ele>
        <time>2011-06-05T07:08:34Z</time>
      </trkpt>
      <trkpt lat="43.17468" lon="2.42175">
        <ele>157.72561645508</ele>
        <time>2011-06-05T07:08:39Z</time>
      </trkpt>
      <trkpt lat="43.1746" lon="2.42183">
        <ele>158.27604675293</ele>
        <time>2011-06-05T07:08:43Z</time>
      </trkpt>
      <trkpt lat="43.17457" lon="2.42184">
        <ele>158.31785583496</ele>
        <time>2011-06-05T07:08:44Z</time>
      </trkpt>
      <trkpt lat="43.17445" lon="2.42197">
        <ele>158.96507263184</ele>
        <time>2011-06-05T07:08:49Z</time>
      </trkpt>
      <trkpt lat="43.17437" lon="2.42204">
        <ele>159.09762573242</ele>
        <time>2011-06-05T07:08:51Z</time>
      </trkpt>
      <trkpt lat="43.17424" lon="2.42212">
        <ele>158.95043945312</ele>
        <time>2011-06-05T07:08:55Z</time>
      </trkpt>
      <trkpt lat="43.17411" lon="2.42222">
        <ele>159.32263183594</ele>
        <time>2011-06-05T07:08:59Z</time>
      </trkpt>
      <trkpt lat="43.17407" lon="2.42229">
        <ele>159.82931518555</ele>
        <time>2011-06-05T07:09:04Z</time>
      </trkpt>
      <trkpt lat="43.17405" lon="2.42232">
        <ele>160.08595275879</ele>
        <time>2011-06-05T07:09:09Z</time>
      </trkpt>
      <trkpt lat="43.17404" lon="2.42235">
        <ele>160.22528076172</ele>
        <time>2011-06-05T07:09:14Z</time>
      </trkpt>
      <trkpt lat="43.17404" lon="2.42234">
        <ele>160.21412658691</ele>
        <time>2011-06-05T07:09:15Z</time>
      </trkpt>
      <trkpt lat="43.17403" lon="2.42235">
        <ele>160.26962280273</ele>
        <time>2011-06-05T07:09:19Z</time>
      </trkpt>
      <trkpt lat="43.17403" lon="2.42233">
        <ele>160.17607116699</ele>
        <time>2011-06-05T07:10:34Z</time>
      </trkpt>
      <trkpt lat="43.17403" lon="2.42233">
        <ele>160.17607116699</ele>
        <time>2011-06-05T07:10:35Z</time>
      </trkpt>
      <trkpt lat="43.174" lon="2.42232">
        <ele>160.37091064453</ele>
        <time>2011-06-05T07:10:44Z</time>
      </trkpt>
      <trkpt lat="43.174" lon="2.42233">
        <ele>160.3786315918</ele>
        <time>2011-06-05T07:10:45Z</time>
      </trkpt>
      <trkpt lat="43.17395" lon="2.42236">
        <ele>160.75714111328</ele>
        <time>2011-06-05T07:10:50Z</time>
      </trkpt>
      <trkpt lat="43.17394" lon="2.42237">
        <ele>160.89247131348</ele>
        <time>2011-06-05T07:10:51Z</time>
      </trkpt>
      <trkpt lat="43.17381" lon="2.4224">
        <ele>161.81199645996</ele>
        <time>2011-06-05T07:10:58Z</time>
      </trkpt>
      <trkpt lat="43.1737" lon="2.42235">
        <ele>162.28721618652</ele>
        <time>2011-06-05T07:11:02Z</time>
      </trkpt>
      <trkpt lat="43.17365" lon="2.42232">
        <ele>162.45858764648</ele>
        <time>2011-06-05T07:11:04Z</time>
      </trkpt>
      <trkpt lat="43.17355" lon="2.42224">
        <ele>162.74327087402</ele>
        <time>2011-06-05T07:11:09Z</time>
      </trkpt>
      <trkpt lat="43.17353" lon="2.42221">
        <ele>162.767578125</ele>
        <time>2011-06-05T07:11:12Z</time>
      </trkpt>
      <trkpt lat="43.17348" lon="2.42212">
        <ele>162.72839355469</ele>
        <time>2011-06-05T07:11:17Z</time>
      </trkpt>
      <trkpt lat="43.17343" lon="2.42202">
        <ele>162.68003845215</ele>
        <time>2011-06-05T07:11:20Z</time>
      </trkpt>
      <trkpt lat="43.17336" lon="2.42181">
        <ele>162.37477111816</ele>
        <time>2011-06-05T07:11:25Z</time>
      </trkpt>
      <trkpt lat="43.17329" lon="2.42163">
        <ele>162.74432373047</ele>
        <time>2011-06-05T07:11:30Z</time>
      </trkpt>
      <trkpt lat="43.17326" lon="2.42157">
        <ele>162.96585083008</ele>
        <time>2011-06-05T07:11:34Z</time>
      </trkpt>
      <trkpt lat="43.17322" lon="2.42137">
        <ele>162.76547241211</ele>
        <time>2011-06-05T07:11:41Z</time>
      </trkpt>
      <trkpt lat="43.17316" lon="2.4212">
        <ele>162.72283935547</ele>
        <time>2011-06-05T07:11:46Z</time>
      </trkpt>
      <trkpt lat="43.17305" lon="2.42102">
        <ele>162.59577941894</ele>
        <time>2011-06-05T07:11:52Z</time>
      </trkpt>
      <trkpt lat="43.17297" lon="2.42099">
        <ele>163.01510620117</ele>
        <time>2011-06-05T07:11:56Z</time>
      </trkpt>
      <trkpt lat="43.17287" lon="2.42099">
        <ele>163.75436401367</ele>
        <time>2011-06-05T07:12:01Z</time>
      </trkpt>
      <trkpt lat="43.17275" lon="2.42098">
        <ele>164.56442260742</ele>
        <time>2011-06-05T07:12:05Z</time>
      </trkpt>
      <trkpt lat="43.17271" lon="2.42098">
        <ele>164.81602478027</ele>
        <time>2011-06-05T07:12:06Z</time>
      </trkpt>
      <trkpt lat="43.17252" lon="2.42098">
        <ele>166.05853271484</ele>
        <time>2011-06-05T07:12:10Z</time>
      </trkpt>
      <trkpt lat="43.17226" lon="2.42102">
        <ele>167.12986755371</ele>
        <time>2011-06-05T07:12:16Z</time>
      </trkpt>
      <trkpt lat="43.17221" lon="2.42103">
        <ele>167.29631042481</ele>
        <time>2011-06-05T07:12:17Z</time>
      </trkpt>
      <trkpt lat="43.17202" lon="2.42104">
        <ele>167.51725769043</ele>
        <time>2011-06-05T07:12:22Z</time>
      </trkpt>
      <trkpt lat="43.17184" lon="2.42099">
        <ele>167.12840270996</ele>
        <time>2011-06-05T07:12:27Z</time>
      </trkpt>
      <trkpt lat="43.17176" lon="2.42091">
        <ele>166.4797668457</ele>
        <time>2011-06-05T07:12:31Z</time>
      </trkpt>
      <trkpt lat="43.17171" lon="2.42083">
        <ele>165.90313720703</ele>
        <time>2011-06-05T07:12:35Z</time>
      </trkpt>
      <trkpt lat="43.1717" lon="2.42081">
        <ele>165.95623779297</ele>
        <time>2011-06-05T07:12:36Z</time>
      </trkpt>
      <trkpt lat="43.17167" lon="2.42078">
        <ele>166.0897064209</ele>
        <time>2011-06-05T07:12:39Z</time>
      </trkpt>
      <trkpt lat="43.17164" lon="2.42058">
        <ele>166.83125305176</ele>
        <time>2011-06-05T07:12:45Z</time>
      </trkpt>
      <trkpt lat="43.17167" lon="2.42025">
        <ele>166.72715759277</ele>
        <time>2011-06-05T07:12:52Z</time>
      </trkpt>
      <trkpt lat="43.17168" lon="2.41995">
        <ele>166.91058349609</ele>
        <time>2011-06-05T07:12:58Z</time>
      </trkpt>
      <trkpt lat="43.17162" lon="2.41984">
        <ele>167.54638671875</ele>
        <time>2011-06-05T07:13:02Z</time>
      </trkpt>
      <trkpt lat="43.17157" lon="2.41978">
        <ele>168.20243835449</ele>
        <time>2011-06-05T07:13:05Z</time>
      </trkpt>
      <trkpt lat="43.17151" lon="2.41982">
        <ele>169.10684204102</ele>
        <time>2011-06-05T07:13:10Z</time>
      </trkpt>
      <trkpt lat="43.17149" lon="2.41983">
        <ele>169.55464172363</ele>
        <time>2011-06-05T07:13:15Z</time>
      </trkpt>
      <trkpt lat="43.17146" lon="2.41982">
        <ele>169.96658325195</ele>
        <time>2011-06-05T07:13:22Z</time>
      </trkpt>
      <trkpt lat="43.17141" lon="2.41967">
        <ele>169.95191955566</ele>
        <time>2011-06-05T07:13:35Z</time>
      </trkpt>
      <trkpt lat="43.17136" lon="2.41948">
        <ele>169.38195800781</ele>
        <time>2011-06-05T07:13:39Z</time>
      </trkpt>
      <trkpt lat="43.17133" lon="2.41926">
        <ele>168.21745300293</ele>
        <time>2011-06-05T07:13:43Z</time>
      </trkpt>
      <trkpt lat="43.17131" lon="2.41904">
        <ele>168.17068481445</ele>
        <time>2011-06-05T07:13:48Z</time>
      </trkpt>
      <trkpt lat="43.17124" lon="2.41885">
        <ele>168.9543762207</ele>
        <time>2011-06-05T07:13:54Z</time>
      </trkpt>
      <trkpt lat="43.1712" lon="2.41875">
        <ele>169.29249572754</ele>
        <time>2011-06-05T07:13:58Z</time>
      </trkpt>
      <trkpt lat="43.17116" lon="2.41865">
        <ele>169.51652526856</ele>
        <time>2011-06-05T07:14:01Z</time>
      </trkpt>
      <trkpt lat="43.17108" lon="2.41838">
        <ele>169.8157043457</ele>
        <time>2011-06-05T07:14:08Z</time>
      </trkpt>
      <trkpt lat="43.17106" lon="2.41825">
        <ele>170.42601013184</ele>
        <time>2011-06-05T07:14:13Z</time>
      </trkpt>
      <trkpt lat="43.17106" lon="2.41811">
        <ele>171.43365478516</ele>
        <time>2011-06-05T07:14:20Z</time>
      </trkpt>
      <trkpt lat="43.17104" lon="2.41796">
        <ele>172.44474792481</ele>
        <time>2011-06-05T07:14:27Z</time>
      </trkpt>
      <trkpt lat="43.17102" lon="2.41779">
        <ele>173.56398010254</ele>
        <time>2011-06-05T07:14:35Z</time>
      </trkpt>
      <trkpt lat="43.17104" lon="2.41765">
        <ele>174.69007873535</ele>
        <time>2011-06-05T07:14:42Z</time>
      </trkpt>
      <trkpt lat="43.17107" lon="2.41758">
        <ele>175.29776000977</ele>
        <time>2011-06-05T07:14:45Z</time>
      </trkpt>
      <trkpt lat="43.17109" lon="2.41738">
        <ele>176.68809509277</ele>
        <time>2011-06-05T07:14:53Z</time>
      </trkpt>
      <trkpt lat="43.17109" lon="2.41714">
        <ele>178.34136962891</ele>
        <time>2011-06-05T07:15:02Z</time>
      </trkpt>
      <trkpt lat="43.17108" lon="2.417">
        <ele>179.28422546387</ele>
        <time>2011-06-05T07:15:08Z</time>
      </trkpt>
      <trkpt lat="43.17109" lon="2.41685">
        <ele>180.34112548828</ele>
        <time>2011-06-05T07:15:14Z</time>
      </trkpt>
      <trkpt lat="43.17109" lon="2.41668">
        <ele>181.42181396484</ele>
        <time>2011-06-05T07:15:20Z</time>
      </trkpt>
      <trkpt lat="43.17109" lon="2.41654">
        <ele>182.49119567871</ele>
        <time>2011-06-05T07:15:25Z</time>
      </trkpt>
      <trkpt lat="43.17108" lon="2.4164">
        <ele>183.40728759766</ele>
        <time>2011-06-05T07:15:30Z</time>
      </trkpt>
      <trkpt lat="43.17106" lon="2.41616">
        <ele>185.04437255859</ele>
        <time>2011-06-05T07:15:37Z</time>
      </trkpt>
      <trkpt lat="43.17104" lon="2.41594">
        <ele>186.46858215332</ele>
        <time>2011-06-05T07:15:44Z</time>
      </trkpt>
      <trkpt lat="43.17101" lon="2.41575">
        <ele>187.75247192383</ele>
        <time>2011-06-05T07:15:50Z</time>
      </trkpt>
      <trkpt lat="43.17094" lon="2.41549">
        <ele>189.78062438965</ele>
        <time>2011-06-05T07:15:59Z</time>
      </trkpt>
      <trkpt lat="43.17087" lon="2.41525">
        <ele>191.74203491211</ele>
        <time>2011-06-05T07:16:07Z</time>
      </trkpt>
      <trkpt lat="43.17082" lon="2.41507">
        <ele>193.17459106445</ele>
        <time>2011-06-05T07:16:13Z</time>
      </trkpt>
      <trkpt lat="43.17079" lon="2.41488">
        <ele>193.85382080078</ele>
        <time>2011-06-05T07:16:19Z</time>
      </trkpt>
      <trkpt lat="43.17074" lon="2.41463">
        <ele>194.41011047363</ele>
        <time>2011-06-05T07:16:27Z</time>
      </trkpt>
      <trkpt lat="43.17071" lon="2.41429">
        <ele>195.64669799805</ele>
        <time>2011-06-05T07:16:37Z</time>
      </trkpt>
      <trkpt lat="43.17072" lon="2.41412">
        <ele>196.53153991699</ele>
        <time>2011-06-05T07:16:42Z</time>
      </trkpt>
      <trkpt lat="43.17073" lon="2.41392">
        <ele>197.3729095459</ele>
        <time>2011-06-05T07:16:48Z</time>
      </trkpt>
      <trkpt lat="43.17072" lon="2.41371">
        <ele>198.11602783203</ele>
        <time>2011-06-05T07:16:55Z</time>
      </trkpt>
      <trkpt lat="43.17071" lon="2.41342">
        <ele>199.01414489746</ele>
        <time>2011-06-05T07:17:03Z</time>
      </trkpt>
      <trkpt lat="43.1707" lon="2.41311">
        <ele>200.3807220459</ele>
        <time>2011-06-05T07:17:11Z</time>
      </trkpt>
      <trkpt lat="43.1707" lon="2.41274">
        <ele>202.15100097656</ele>
        <time>2011-06-05T07:17:19Z</time>
      </trkpt>
      <trkpt lat="43.17067" lon="2.41242">
        <ele>203.24113464356</ele>
        <time>2011-06-05T07:17:26Z</time>
      </trkpt>
      <trkpt lat="43.17064" lon="2.41203">
        <ele>203.66116333008</ele>
        <time>2011-06-05T07:17:34Z</time>
      </trkpt>
      <trkpt lat="43.1706" lon="2.41163">
        <ele>204.1280670166</ele>
        <time>2011-06-05T07:17:42Z</time>
      </trkpt>
      <trkpt lat="43.1706" lon="2.41122">
        <ele>204.72848510742</ele>
        <time>2011-06-05T07:17:49Z</time>
      </trkpt>
      <trkpt lat="43.17059" lon="2.41102">
        <ele>204.92590332031</ele>
        <time>2011-06-05T07:17:52Z</time>
      </trkpt>
      <trkpt lat="43.17059" lon="2.4105">
        <ele>205.6907043457</ele>
        <time>2011-06-05T07:18:00Z</time>
      </trkpt>
      <trkpt lat="43.1706" lon="2.4103">
        <ele>206.02340698242</ele>
        <time>2011-06-05T07:18:04Z</time>
      </trkpt>
      <trkpt lat="43.17061" lon="2.41024">
        <ele>206.16781616211</ele>
        <time>2011-06-05T07:18:06Z</time>
      </trkpt>
      <trkpt lat="43.17057" lon="2.41016">
        <ele>206.12644958496</ele>
        <time>2011-06-05T07:18:10Z</time>
      </trkpt>
      <trkpt lat="43.1704" lon="2.41009">
        <ele>205.72929382324</ele>
        <time>2011-06-05T07:18:16Z</time>
      </trkpt>
      <trkpt lat="43.17023" lon="2.4099">
        <ele>205.77644348144</ele>
        <time>2011-06-05T07:18:22Z</time>
      </trkpt>
      <trkpt lat="43.17011" lon="2.40965">
        <ele>206.29585266113</ele>
        <time>2011-06-05T07:18:28Z</time>
      </trkpt>
      <trkpt lat="43.16992" lon="2.40936">
        <ele>207.14526367188</ele>
        <time>2011-06-05T07:18:36Z</time>
      </trkpt>
      <trkpt lat="43.16973" lon="2.40914">
        <ele>207.64862060547</ele>
        <time>2011-06-05T07:18:43Z</time>
      </trkpt>
      <trkpt lat="43.16952" lon="2.40884">
        <ele>207.31842041016</ele>
        <time>2011-06-05T07:18:52Z</time>
      </trkpt>
      <trkpt lat="43.16933" lon="2.40873">
        <ele>207.41358947754</ele>
        <time>2011-06-05T07:18:58Z</time>
      </trkpt>
      <trkpt lat="43.16911" lon="2.4087">
        <ele>207.53793334961</ele>
        <time>2011-06-05T07:19:03Z</time>
      </trkpt>
      <trkpt lat="43.16886" lon="2.40856">
        <ele>207.80885314941</ele>
        <time>2011-06-05T07:19:09Z</time>
      </trkpt>
      <trkpt lat="43.16876" lon="2.40848">
        <ele>208.04135131836</ele>
        <time>2011-06-05T07:19:13Z</time>
      </trkpt>
      <trkpt lat="43.16861" lon="2.40838">
        <ele>208.48596191406</ele>
        <time>2011-06-05T07:19:20Z</time>
      </trkpt>
      <trkpt lat="43.16851" lon="2.40832">
        <ele>208.76383972168</ele>
        <time>2011-06-05T07:19:24Z</time>
      </trkpt>
      <trkpt lat="43.16843" lon="2.40825">
        <ele>208.77592468262</ele>
        <time>2011-06-05T07:19:28Z</time>
      </trkpt>
      <trkpt lat="43.16828" lon="2.40812">
        <ele>208.5153503418</ele>
        <time>2011-06-05T07:19:34Z</time>
      </trkpt>
      <trkpt lat="43.16816" lon="2.40799">
        <ele>207.97450256348</ele>
        <time>2011-06-05T07:19:39Z</time>
      </trkpt>
      <trkpt lat="43.16805" lon="2.4078">
        <ele>207.74476623535</ele>
        <time>2011-06-05T07:19:44Z</time>
      </trkpt>
      <trkpt lat="43.16796" lon="2.40752">
        <ele>207.96365356445</ele>
        <time>2011-06-05T07:19:50Z</time>
      </trkpt>
      <trkpt lat="43.16793" lon="2.40734">
        <ele>208.18220520019</ele>
        <time>2011-06-05T07:19:54Z</time>
      </trkpt>
      <trkpt lat="43.1679" lon="2.40717">
        <ele>208.41307067871</ele>
        <time>2011-06-05T07:19:59Z</time>
      </trkpt>
      <trkpt lat="43.16786" lon="2.40691">
        <ele>208.80107116699</ele>
        <time>2011-06-05T07:20:05Z</time>
      </trkpt>
      <trkpt lat="43.1678" lon="2.40654">
        <ele>209.50509643555</ele>
        <time>2011-06-05T07:20:13Z</time>
      </trkpt>
      <trkpt lat="43.16777" lon="2.40641">
        <ele>209.85238647461</ele>
        <time>2011-06-05T07:20:17Z</time>
      </trkpt>
      <trkpt lat="43.16776" lon="2.40617">
        <ele>210.39944458008</ele>
        <time>2011-06-05T07:20:23Z</time>
      </trkpt>
      <trkpt lat="43.16771" lon="2.40592">
        <ele>211.28283691406</ele>
        <time>2011-06-05T07:20:28Z</time>
      </trkpt>
      <trkpt lat="43.16765" lon="2.4057">
        <ele>211.90451049805</ele>
        <time>2011-06-05T07:20:33Z</time>
      </trkpt>
      <trkpt lat="43.16769" lon="2.40555">
        <ele>211.58139038086</ele>
        <time>2011-06-05T07:20:37Z</time>
      </trkpt>
      <trkpt lat="43.1677" lon="2.40538">
        <ele>211.41474914551</ele>
        <time>2011-06-05T07:20:40Z</time>
      </trkpt>
      <trkpt lat="43.16764" lon="2.40529">
        <ele>211.84735107422</ele>
        <time>2011-06-05T07:20:42Z</time>
      </trkpt>
      <trkpt lat="43.16749" lon="2.40505">
        <ele>213.18412780762</ele>
        <time>2011-06-05T07:20:49Z</time>
      </trkpt>
      <trkpt lat="43.16735" lon="2.40475">
        <ele>215.92385864258</ele>
        <time>2011-06-05T07:20:57Z</time>
      </trkpt>
      <trkpt lat="43.16729" lon="2.40459">
        <ele>217.07646179199</ele>
        <time>2011-06-05T07:21:01Z</time>
      </trkpt>
      <trkpt lat="43.16724" lon="2.40439">
        <ele>218.35559082031</ele>
        <time>2011-06-05T07:21:06Z</time>
      </trkpt>
      <trkpt lat="43.16718" lon="2.40414">
        <ele>219.67329406738</ele>
        <time>2011-06-05T07:21:13Z</time>
      </trkpt>
      <trkpt lat="43.16713" lon="2.40387">
        <ele>221.37606811523</ele>
        <time>2011-06-05T07:21:20Z</time>
      </trkpt>
      <trkpt lat="43.1671" lon="2.40372">
        <ele>222.3985748291</ele>
        <time>2011-06-05T07:21:24Z</time>
      </trkpt>
      <trkpt lat="43.16702" lon="2.40349">
        <ele>224.20454406738</ele>
        <time>2011-06-05T07:21:30Z</time>
      </trkpt>
      <trkpt lat="43.16693" lon="2.40322">
        <ele>225.63848876953</ele>
        <time>2011-06-05T07:21:37Z</time>
      </trkpt>
      <trkpt lat="43.16682" lon="2.40308">
        <ele>226.47715759277</ele>
        <time>2011-06-05T07:21:42Z</time>
      </trkpt>
      <trkpt lat="43.16667" lon="2.40309">
        <ele>228.10366821289</ele>
        <time>2011-06-05T07:21:47Z</time>
      </trkpt>
      <trkpt lat="43.16653" lon="2.40312">
        <ele>229.92042541504</ele>
        <time>2011-06-05T07:21:52Z</time>
      </trkpt>
      <trkpt lat="43.1664" lon="2.4032">
        <ele>231.74755859375</ele>
        <time>2011-06-05T07:21:58Z</time>
      </trkpt>
      <trkpt lat="43.16626" lon="2.40336">
        <ele>233.80265808106</ele>
        <time>2011-06-05T07:22:06Z</time>
      </trkpt>
      <trkpt lat="43.16612" lon="2.40343">
        <ele>235.49713134766</ele>
        <time>2011-06-05T07:22:12Z</time>
      </trkpt>
      <trkpt lat="43.16599" lon="2.40348">
        <ele>237.02122497559</ele>
        <time>2011-06-05T07:22:17Z</time>
      </trkpt>
      <trkpt lat="43.1659" lon="2.40368">
        <ele>238.06785583496</ele>
        <time>2011-06-05T07:22:24Z</time>
      </trkpt>
      <trkpt lat="43.16584" lon="2.40377">
        <ele>238.85903930664</ele>
        <time>2011-06-05T07:22:29Z</time>
      </trkpt>
      <trkpt lat="43.16577" lon="2.40389">
        <ele>240.12940979004</ele>
        <time>2011-06-05T07:22:36Z</time>
      </trkpt>
      <trkpt lat="43.1657" lon="2.40406">
        <ele>241.21322631836</ele>
        <time>2011-06-05T07:22:42Z</time>
      </trkpt>
      <trkpt lat="43.16562" lon="2.40423">
        <ele>242.4508972168</ele>
        <time>2011-06-05T07:22:49Z</time>
      </trkpt>
      <trkpt lat="43.16552" lon="2.40432">
        <ele>243.59590148926</ele>
        <time>2011-06-05T07:22:55Z</time>
      </trkpt>
      <trkpt lat="43.1655" lon="2.40434">
        <ele>243.81393432617</ele>
        <time>2011-06-05T07:22:56Z</time>
      </trkpt>
      <trkpt lat="43.16533" lon="2.40452">
        <ele>245.22148132324</ele>
        <time>2011-06-05T07:23:04Z</time>
      </trkpt>
      <trkpt lat="43.16522" lon="2.40457">
        <ele>246.33491516113</ele>
        <time>2011-06-05T07:23:10Z</time>
      </trkpt>
      <trkpt lat="43.16508" lon="2.40455">
        <ele>248.26564025879</ele>
        <time>2011-06-05T07:23:18Z</time>
      </trkpt>
      <trkpt lat="43.16499" lon="2.40447">
        <ele>249.96565246582</ele>
        <time>2011-06-05T07:23:24Z</time>
      </trkpt>
      <trkpt lat="43.16498" lon="2.40444">
        <ele>250.10076904297</ele>
        <time>2011-06-05T07:23:26Z</time>
      </trkpt>
      <trkpt lat="43.16497" lon="2.40435">
        <ele>250.87278747559</ele>
        <time>2011-06-05T07:23:30Z</time>
      </trkpt>
      <trkpt lat="43.16496" lon="2.40417">
        <ele>252.43707275391</ele>
        <time>2011-06-05T07:23:38Z</time>
      </trkpt>
      <trkpt lat="43.16498" lon="2.40396">
        <ele>253.03993225098</ele>
        <time>2011-06-05T07:23:47Z</time>
      </trkpt>
      <trkpt lat="43.16499" lon="2.40379">
        <ele>253.30081176758</ele>
        <time>2011-06-05T07:23:54Z</time>
      </trkpt>
      <trkpt lat="43.16496" lon="2.40357">
        <ele>253.36657714844</ele>
        <time>2011-06-05T07:24:01Z</time>
      </trkpt>
      <trkpt lat="43.16491" lon="2.40333">
        <ele>253.25804138184</ele>
        <time>2011-06-05T07:24:10Z</time>
      </trkpt>
      <trkpt lat="43.16488" lon="2.40318">
        <ele>252.61503601074</ele>
        <time>2011-06-05T07:24:14Z</time>
      </trkpt>
      <trkpt lat="43.16481" lon="2.40292">
        <ele>251.58480834961</ele>
        <time>2011-06-05T07:24:18Z</time>
      </trkpt>
      <trkpt lat="43.16463" lon="2.40257">
        <ele>250.58583068848</ele>
        <time>2011-06-05T07:24:22Z</time>
      </trkpt>
      <trkpt lat="43.16452" lon="2.40241">
        <ele>250.60795593262</ele>
        <time>2011-06-05T07:24:24Z</time>
      </trkpt>
      <trkpt lat="43.16445" lon="2.40226">
        <ele>251.10336303711</ele>
        <time>2011-06-05T07:24:26Z</time>
      </trkpt>
      <trkpt lat="43.16437" lon="2.402">
        <ele>252.34999084473</ele>
        <time>2011-06-05T07:24:30Z</time>
      </trkpt>
      <trkpt lat="43.1643" lon="2.40183">
        <ele>253.70617675781</ele>
        <time>2011-06-05T07:24:34Z</time>
      </trkpt>
      <trkpt lat="43.16423" lon="2.40149">
        <ele>256.41934204102</ele>
        <time>2011-06-05T07:24:42Z</time>
      </trkpt>
      <trkpt lat="43.1641" lon="2.40123">
        <ele>257.98477172852</ele>
        <time>2011-06-05T07:24:49Z</time>
      </trkpt>
      <trkpt lat="43.16394" lon="2.40112">
        <ele>256.93896484375</ele>
        <time>2011-06-05T07:24:55Z</time>
      </trkpt>
      <trkpt lat="43.16379" lon="2.401">
        <ele>255.85614013672</ele>
        <time>2011-06-05T07:25:01Z</time>
      </trkpt>
      <trkpt lat="43.1636" lon="2.40084">
        <ele>254.18481445312</ele>
        <time>2011-06-05T07:25:08Z</time>
      </trkpt>
      <trkpt lat="43.16356" lon="2.40075">
        <ele>253.93481445312</ele>
        <time>2011-06-05T07:25:10Z</time>
      </trkpt>
      <trkpt lat="43.16345" lon="2.40041">
        <ele>253.46627807617</ele>
        <time>2011-06-05T07:25:15Z</time>
      </trkpt>
      <trkpt lat="43.16332" lon="2.39996">
        <ele>252.86260986328</ele>
        <time>2011-06-05T07:25:20Z</time>
      </trkpt>
      <trkpt lat="43.16327" lon="2.39972">
        <ele>252.48571777344</ele>
        <time>2011-06-05T07:25:22Z</time>
      </trkpt>
      <trkpt lat="43.16312" lon="2.39929">
        <ele>251.80242919922</ele>
        <time>2011-06-05T07:25:26Z</time>
      </trkpt>
      <trkpt lat="43.16296" lon="2.3988">
        <ele>251.86408996582</ele>
        <time>2011-06-05T07:25:31Z</time>
      </trkpt>
      <trkpt lat="43.16294" lon="2.39872">
        <ele>252.04902648926</ele>
        <time>2011-06-05T07:25:32Z</time>
      </trkpt>
      <trkpt lat="43.1629" lon="2.39857">
        <ele>252.48678588867</ele>
        <time>2011-06-05T07:25:34Z</time>
      </trkpt>
      <trkpt lat="43.16281" lon="2.39828">
        <ele>253.64431762695</ele>
        <time>2011-06-05T07:25:40Z</time>
      </trkpt>
      <trkpt lat="43.1627" lon="2.39796">
        <ele>253.94775390625</ele>
        <time>2011-06-05T07:25:47Z</time>
      </trkpt>
      <trkpt lat="43.16261" lon="2.39775">
        <ele>254.66923522949</ele>
        <time>2011-06-05T07:25:53Z</time>
      </trkpt>
      <trkpt lat="43.16249" lon="2.39757">
        <ele>256.25024414062</ele>
        <time>2011-06-05T07:26:00Z</time>
      </trkpt>
      <trkpt lat="43.16234" lon="2.39745">
        <ele>258.43695068359</ele>
        <time>2011-06-05T07:26:06Z</time>
      </trkpt>
      <trkpt lat="43.16223" lon="2.39729">
        <ele>258.81875610352</ele>
        <time>2011-06-05T07:26:11Z</time>
      </trkpt>
      <trkpt lat="43.16213" lon="2.39699">
        <ele>257.02133178711</ele>
        <time>2011-06-05T07:26:18Z</time>
      </trkpt>
      <trkpt lat="43.16205" lon="2.39673">
        <ele>255.31900024414</ele>
        <time>2011-06-05T07:26:24Z</time>
      </trkpt>
      <trkpt lat="43.16198" lon="2.39648">
        <ele>253.92663574219</ele>
        <time>2011-06-05T07:26:29Z</time>
      </trkpt>
      <trkpt lat="43.16196" lon="2.39616">
        <ele>251.27989196777</ele>
        <time>2011-06-05T07:26:34Z</time>
      </trkpt>
      <trkpt lat="43.16195" lon="2.39596">
        <ele>249.39422607422</ele>
        <time>2011-06-05T07:26:37Z</time>
      </trkpt>
      <trkpt lat="43.16188" lon="2.3957">
        <ele>248.06990051269</ele>
        <time>2011-06-05T07:26:41Z</time>
      </trkpt>
      <trkpt lat="43.16174" lon="2.39564">
        <ele>249.12646484375</ele>
        <time>2011-06-05T07:26:43Z</time>
      </trkpt>
      <trkpt lat="43.16157" lon="2.39542">
        <ele>247.54188537598</ele>
        <time>2011-06-05T07:26:46Z</time>
      </trkpt>
      <trkpt lat="43.16144" lon="2.39486">
        <ele>241.5320892334</ele>
        <time>2011-06-05T07:26:51Z</time>
      </trkpt>
      <trkpt lat="43.16143" lon="2.39478">
        <ele>240.65661621094</ele>
        <time>2011-06-05T07:26:52Z</time>
      </trkpt>
      <trkpt lat="43.16131" lon="2.3946">
        <ele>238.72285461426</ele>
        <time>2011-06-05T07:26:56Z</time>
      </trkpt>
      <trkpt lat="43.16123" lon="2.39457">
        <ele>238.34432983398</ele>
        <time>2011-06-05T07:26:58Z</time>
      </trkpt>
      <trkpt lat="43.16098" lon="2.39433">
        <ele>235.80804443359</ele>
        <time>2011-06-05T07:27:03Z</time>
      </trkpt>
      <trkpt lat="43.16076" lon="2.39414">
        <ele>234.35321044922</ele>
        <time>2011-06-05T07:27:07Z</time>
      </trkpt>
      <trkpt lat="43.16082" lon="2.39407">
        <ele>233.94714355469</ele>
        <time>2011-06-05T07:27:11Z</time>
      </trkpt>
      <trkpt lat="43.16085" lon="2.39406">
        <ele>233.85249328613</ele>
        <time>2011-06-05T07:27:12Z</time>
      </trkpt>
      <trkpt lat="43.16098" lon="2.39403">
        <ele>233.66438293457</ele>
        <time>2011-06-05T07:27:15Z</time>
      </trkpt>
      <trkpt lat="43.16107" lon="2.39398">
        <ele>233.40690612793</ele>
        <time>2011-06-05T07:27:17Z</time>
      </trkpt>
      <trkpt lat="43.16136" lon="2.39371">
        <ele>231.39556884766</ele>
        <time>2011-06-05T07:27:23Z</time>
      </trkpt>
      <trkpt lat="43.16153" lon="2.39349">
        <ele>229.08038330078</ele>
        <time>2011-06-05T07:27:27Z</time>
      </trkpt>
      <trkpt lat="43.16171" lon="2.39325">
        <ele>227.18251037598</ele>
        <time>2011-06-05T07:27:31Z</time>
      </trkpt>
      <trkpt lat="43.16183" lon="2.39305">
        <ele>227.31178283691</ele>
        <time>2011-06-05T07:27:34Z</time>
      </trkpt>
      <trkpt lat="43.16212" lon="2.39267">
        <ele>226.13711547852</ele>
        <time>2011-06-05T07:27:40Z</time>
      </trkpt>
      <trkpt lat="43.16243" lon="2.39218">
        <ele>223.51414489746</ele>
        <time>2011-06-05T07:27:46Z</time>
      </trkpt>
      <trkpt lat="43.16285" lon="2.39181">
        <ele>221.57536315918</ele>
        <time>2011-06-05T07:27:52Z</time>
      </trkpt>
      <trkpt lat="43.16319" lon="2.39156">
        <ele>220.81581115723</ele>
        <time>2011-06-05T07:27:57Z</time>
      </trkpt>
      <trkpt lat="43.16331" lon="2.39145">
        <ele>220.29272460938</ele>
        <time>2011-06-05T07:27:59Z</time>
      </trkpt>
      <trkpt lat="43.16339" lon="2.39129">
        <ele>220.07461547852</ele>
        <time>2011-06-05T07:28:02Z</time>
      </trkpt>
      <trkpt lat="43.16327" lon="2.39122">
        <ele>219.75308227539</ele>
        <time>2011-06-05T07:28:05Z</time>
      </trkpt>
      <trkpt lat="43.16307" lon="2.39114">
        <ele>220.86973571777</ele>
        <time>2011-06-05T07:28:09Z</time>
      </trkpt>
      <trkpt lat="43.16301" lon="2.39111">
        <ele>221.30529785156</ele>
        <time>2011-06-05T07:28:10Z</time>
      </trkpt>
      <trkpt lat="43.16289" lon="2.39106">
        <ele>222.31011962891</ele>
        <time>2011-06-05T07:28:12Z</time>
      </trkpt>
      <trkpt lat="43.16261" lon="2.39104">
        <ele>224.61222839356</ele>
        <time>2011-06-05T07:28:17Z</time>
      </trkpt>
      <trkpt lat="43.16257" lon="2.39098">
        <ele>225.29048156738</ele>
        <time>2011-06-05T07:28:19Z</time>
      </trkpt>
      <trkpt lat="43.16265" lon="2.39083">
        <ele>225.40571594238</ele>
        <time>2011-06-05T07:28:22Z</time>
      </trkpt>
      <trkpt lat="43.16278" lon="2.39066">
        <ele>225.00871276856</ele>
        <time>2011-06-05T07:28:25Z</time>
      </trkpt>
      <trkpt lat="43.16284" lon="2.39052">
        <ele>225.05059814453</ele>
        <time>2011-06-05T07:28:27Z</time>
      </trkpt>
      <trkpt lat="43.16309" lon="2.39011">
        <ele>223.01460266113</ele>
        <time>2011-06-05T07:28:34Z</time>
      </trkpt>
      <trkpt lat="43.16316" lon="2.39">
        <ele>222.07188415527</ele>
        <time>2011-06-05T07:28:36Z</time>
      </trkpt>
      <trkpt lat="43.16336" lon="2.38991">
        <ele>219.75289916992</ele>
        <time>2011-06-05T07:28:40Z</time>
      </trkpt>
      <trkpt lat="43.16343" lon="2.38989">
        <ele>219.33753967285</ele>
        <time>2011-06-05T07:28:41Z</time>
      </trkpt>
      <trkpt lat="43.16366" lon="2.38981">
        <ele>217.55102539062</ele>
        <time>2011-06-05T07:28:45Z</time>
      </trkpt>
      <trkpt lat="43.16368" lon="2.3898">
        <ele>217.33325195312</ele>
        <time>2011-06-05T07:28:46Z</time>
      </trkpt>
      <trkpt lat="43.1637" lon="2.38977">
        <ele>217.34271240234</ele>
        <time>2011-06-05T07:28:48Z</time>
      </trkpt>
      <trkpt lat="43.1637" lon="2.38967">
        <ele>217.98329162598</ele>
        <time>2011-06-05T07:28:53Z</time>
      </trkpt>
      <trkpt lat="43.16372" lon="2.38959">
        <ele>218.2024230957</ele>
        <time>2011-06-05T07:29:00Z</time>
      </trkpt>
      <trkpt lat="43.16374" lon="2.38955">
        <ele>218.09529113769</ele>
        <time>2011-06-05T07:29:08Z</time>
      </trkpt>
      <trkpt lat="43.16374" lon="2.38953">
        <ele>218.15217590332</ele>
        <time>2011-06-05T07:29:12Z</time>
      </trkpt>
      <trkpt lat="43.16375" lon="2.38949">
        <ele>218.20695495606</ele>
        <time>2011-06-05T07:29:16Z</time>
      </trkpt>
      <trkpt lat="43.16376" lon="2.38946">
        <ele>218.30773925781</ele>
        <time>2011-06-05T07:29:21Z</time>
      </trkpt>
      <trkpt lat="43.16376" lon="2.38941">
        <ele>218.54585266113</ele>
        <time>2011-06-05T07:29:28Z</time>
      </trkpt>
      <trkpt lat="43.16375" lon="2.3894">
        <ele>218.67204284668</ele>
        <time>2011-06-05T07:29:29Z</time>
      </trkpt>
      <trkpt lat="43.16376" lon="2.38937">
        <ele>218.62734985352</ele>
        <time>2011-06-05T07:29:33Z</time>
      </trkpt>
      <trkpt lat="43.16377" lon="2.38925">
        <ele>219.17404174805</ele>
        <time>2011-06-05T07:29:44Z</time>
      </trkpt>
      <trkpt lat="43.16376" lon="2.3891">
        <ele>220.17179870606</ele>
        <time>2011-06-05T07:29:50Z</time>
      </trkpt>
      <trkpt lat="43.16376" lon="2.3889">
        <ele>221.90179443359</ele>
        <time>2011-06-05T07:29:55Z</time>
      </trkpt>
      <trkpt lat="43.16375" lon="2.38883">
        <ele>222.73686218262</ele>
        <time>2011-06-05T07:29:57Z</time>
      </trkpt>
      <trkpt lat="43.16368" lon="2.38882">
        <ele>224.36378479004</ele>
        <time>2011-06-05T07:30:02Z</time>
      </trkpt>
      <trkpt lat="43.16367" lon="2.38888">
        <ele>224.0770111084</ele>
        <time>2011-06-05T07:30:05Z</time>
      </trkpt>
      <trkpt lat="43.16362" lon="2.389">
        <ele>224.39624023438</ele>
        <time>2011-06-05T07:30:10Z</time>
      </trkpt>
      <trkpt lat="43.16356" lon="2.38897">
        <ele>225.91094970703</ele>
        <time>2011-06-05T07:30:15Z</time>
      </trkpt>
      <trkpt lat="43.16356" lon="2.38895">
        <ele>226.18116760254</ele>
        <time>2011-06-05T07:30:17Z</time>
      </trkpt>
      <trkpt lat="43.16357" lon="2.3888">
        <ele>227.37417602539</ele>
        <time>2011-06-05T07:30:24Z</time>
      </trkpt>
      <trkpt lat="43.16356" lon="2.38857">
        <ele>229.82344055176</ele>
        <time>2011-06-05T07:30:31Z</time>
      </trkpt>
      <trkpt lat="43.16357" lon="2.38842">
        <ele>231.01731872559</ele>
        <time>2011-06-05T07:30:36Z</time>
      </trkpt>
      <trkpt lat="43.16359" lon="2.38828">
        <ele>231.44548034668</ele>
        <time>2011-06-05T07:30:41Z</time>
      </trkpt>
      <trkpt lat="43.1636" lon="2.38823">
        <ele>231.32833862305</ele>
        <time>2011-06-05T07:30:43Z</time>
      </trkpt>
      <trkpt lat="43.16359" lon="2.38812">
        <ele>231.68754577637</ele>
        <time>2011-06-05T07:30:47Z</time>
      </trkpt>
      <trkpt lat="43.16355" lon="2.38803">
        <ele>233.21907043457</ele>
        <time>2011-06-05T07:30:52Z</time>
      </trkpt>
      <trkpt lat="43.16348" lon="2.3879">
        <ele>235.31759643555</ele>
        <time>2011-06-05T07:30:59Z</time>
      </trkpt>
      <trkpt lat="43.16341" lon="2.38781">
        <ele>237.50236511231</ele>
        <time>2011-06-05T07:31:06Z</time>
      </trkpt>
      <trkpt lat="43.1634" lon="2.38778">
        <ele>237.85354614258</ele>
        <time>2011-06-05T07:31:07Z</time>
      </trkpt>
      <trkpt lat="43.16338" lon="2.38771">
        <ele>238.47988891602</ele>
        <time>2011-06-05T07:31:11Z</time>
      </trkpt>
      <trkpt lat="43.16338" lon="2.38768">
        <ele>238.41690063477</ele>
        <time>2011-06-05T07:31:13Z</time>
      </trkpt>
      <trkpt lat="43.16338" lon="2.3876">
        <ele>238.73915100098</ele>
        <time>2011-06-05T07:31:17Z</time>
      </trkpt>
      <trkpt lat="43.16336" lon="2.3874">
        <ele>239.51701354981</ele>
        <time>2011-06-05T07:31:25Z</time>
      </trkpt>
      <trkpt lat="43.16333" lon="2.38728">
        <ele>240.24656677246</ele>
        <time>2011-06-05T07:31:30Z</time>
      </trkpt>
      <trkpt lat="43.16333" lon="2.38726">
        <ele>240.27673339844</ele>
        <time>2011-06-05T07:31:31Z</time>
      </trkpt>
      <trkpt lat="43.16333" lon="2.38715">
        <ele>240.44107055664</ele>
        <time>2011-06-05T07:31:36Z</time>
      </trkpt>
      <trkpt lat="43.16332" lon="2.38696">
        <ele>240.70823669434</ele>
        <time>2011-06-05T07:31:45Z</time>
      </trkpt>
      <trkpt lat="43.16333" lon="2.38692">
        <ele>240.71180725098</ele>
        <time>2011-06-05T07:31:47Z</time>
      </trkpt>
      <trkpt lat="43.16334" lon="2.38678">
        <ele>240.77452087402</ele>
        <time>2011-06-05T07:31:54Z</time>
      </trkpt>
      <trkpt lat="43.16334" lon="2.38677">
        <ele>240.79046630859</ele>
        <time>2011-06-05T07:31:56Z</time>
      </trkpt>
      <trkpt lat="43.16333" lon="2.38662">
        <ele>240.9895324707</ele>
        <time>2011-06-05T07:32:10Z</time>
      </trkpt>
      <trkpt lat="43.16335" lon="2.38654">
        <ele>240.71881103516</ele>
        <time>2011-06-05T07:32:12Z</time>
      </trkpt>
      <trkpt lat="43.16334" lon="2.38636">
        <ele>240.93151855469</ele>
        <time>2011-06-05T07:32:16Z</time>
      </trkpt>
      <trkpt lat="43.16338" lon="2.38619">
        <ele>240.41804504394</ele>
        <time>2011-06-05T07:32:21Z</time>
      </trkpt>
      <trkpt lat="43.16345" lon="2.38605">
        <ele>239.56022644043</ele>
        <time>2011-06-05T07:32:27Z</time>
      </trkpt>
      <trkpt lat="43.16351" lon="2.38593">
        <ele>239.06463623047</ele>
        <time>2011-06-05T07:32:31Z</time>
      </trkpt>
      <trkpt lat="43.16355" lon="2.38578">
        <ele>238.77291870117</ele>
        <time>2011-06-05T07:32:36Z</time>
      </trkpt>
      <trkpt lat="43.16354" lon="2.38557">
        <ele>238.36135864258</ele>
        <time>2011-06-05T07:32:41Z</time>
      </trkpt>
      <trkpt lat="43.16355" lon="2.38549">
        <ele>238.10722351074</ele>
        <time>2011-06-05T07:32:45Z</time>
      </trkpt>
      <trkpt lat="43.16357" lon="2.38532">
        <ele>237.59800720215</ele>
        <time>2011-06-05T07:33:16Z</time>
      </trkpt>
      <trkpt lat="43.16357" lon="2.38526">
        <ele>237.47589111328</ele>
        <time>2011-06-05T07:33:17Z</time>
      </trkpt>
      <trkpt lat="43.16361" lon="2.38495">
        <ele>236.64265441894</ele>
        <time>2011-06-05T07:33:21Z</time>
      </trkpt>
      <trkpt lat="43.16374" lon="2.38482">
        <ele>236.14868164062</ele>
        <time>2011-06-05T07:33:25Z</time>
      </trkpt>
      <trkpt lat="43.16386" lon="2.38478">
        <ele>235.76063537598</ele>
        <time>2011-06-05T07:33:29Z</time>
      </trkpt>
      <trkpt lat="43.16389" lon="2.38475">
        <ele>235.72419738769</ele>
        <time>2011-06-05T07:33:30Z</time>
      </trkpt>
      <trkpt lat="43.16407" lon="2.38456">
        <ele>235.74746704102</ele>
        <time>2011-06-05T07:33:36Z</time>
      </trkpt>
      <trkpt lat="43.16411" lon="2.38428">
        <ele>236.55815124512</ele>
        <time>2011-06-05T07:33:42Z</time>
      </trkpt>
      <trkpt lat="43.1641" lon="2.38423">
        <ele>236.71351623535</ele>
        <time>2011-06-05T07:33:43Z</time>
      </trkpt>
      <trkpt lat="43.16421" lon="2.3841">
        <ele>235.99230957031</ele>
        <time>2011-06-05T07:33:47Z</time>
      </trkpt>
      <trkpt lat="43.1643" lon="2.38409">
        <ele>234.64428710938</ele>
        <time>2011-06-05T07:33:50Z</time>
      </trkpt>
      <trkpt lat="43.16446" lon="2.38393">
        <ele>231.65165710449</ele>
        <time>2011-06-05T07:33:54Z</time>
      </trkpt>
      <trkpt lat="43.16462" lon="2.38383">
        <ele>229.29034423828</ele>
        <time>2011-06-05T07:33:58Z</time>
      </trkpt>
      <trkpt lat="43.16467" lon="2.38377">
        <ele>228.54431152344</ele>
        <time>2011-06-05T07:34:01Z</time>
      </trkpt>
      <trkpt lat="43.16468" lon="2.38362">
        <ele>228.08224487305</ele>
        <time>2011-06-05T07:34:06Z</time>
      </trkpt>
      <trkpt lat="43.16467" lon="2.38356">
        <ele>228.15139770508</ele>
        <time>2011-06-05T07:34:08Z</time>
      </trkpt>
      <trkpt lat="43.16466" lon="2.38333">
        <ele>227.87725830078</ele>
        <time>2011-06-05T07:34:13Z</time>
      </trkpt>
      <trkpt lat="43.16468" lon="2.38328">
        <ele>227.38032531738</ele>
        <time>2011-06-05T07:34:14Z</time>
      </trkpt>
      <trkpt lat="43.16476" lon="2.38316">
        <ele>226.21395874023</ele>
        <time>2011-06-05T07:34:18Z</time>
      </trkpt>
      <trkpt lat="43.16481" lon="2.38299">
        <ele>225.2360534668</ele>
        <time>2011-06-05T07:34:22Z</time>
      </trkpt>
      <trkpt lat="43.16482" lon="2.38271">
        <ele>224.14558410644</ele>
        <time>2011-06-05T07:34:26Z</time>
      </trkpt>
      <trkpt lat="43.16494" lon="2.38256">
        <ele>223.90570068359</ele>
        <time>2011-06-05T07:34:30Z</time>
      </trkpt>
      <trkpt lat="43.16505" lon="2.38264">
        <ele>223.32078552246</ele>
        <time>2011-06-05T07:34:33Z</time>
      </trkpt>
      <trkpt lat="43.16509" lon="2.38282">
        <ele>222.8341217041</ele>
        <time>2011-06-05T07:34:36Z</time>
      </trkpt>
      <trkpt lat="43.1651" lon="2.38301">
        <ele>222.93626403809</ele>
        <time>2011-06-05T07:34:39Z</time>
      </trkpt>
      <trkpt lat="43.16517" lon="2.38308">
        <ele>221.79556274414</ele>
        <time>2011-06-05T07:34:42Z</time>
      </trkpt>
      <trkpt lat="43.16529" lon="2.38301">
        <ele>219.65838623047</ele>
        <time>2011-06-05T07:34:45Z</time>
      </trkpt>
      <trkpt lat="43.16541" lon="2.38296">
        <ele>217.6794128418</ele>
        <time>2011-06-05T07:34:48Z</time>
      </trkpt>
      <trkpt lat="43.16546" lon="2.38292">
        <ele>216.73756408691</ele>
        <time>2011-06-05T07:34:50Z</time>
      </trkpt>
      <trkpt lat="43.16556" lon="2.38272">
        <ele>214.83270263672</ele>
        <time>2011-06-05T07:34:54Z</time>
      </trkpt>
      <trkpt lat="43.16569" lon="2.3826">
        <ele>212.56533813477</ele>
        <time>2011-06-05T07:34:57Z</time>
      </trkpt>
      <trkpt lat="43.16574" lon="2.38256">
        <ele>211.69157409668</ele>
        <time>2011-06-05T07:34:58Z</time>
      </trkpt>
      <trkpt lat="43.16585" lon="2.38251">
        <ele>209.83670043945</ele>
        <time>2011-06-05T07:35:00Z</time>
      </trkpt>
      <trkpt lat="43.16613" lon="2.38235">
        <ele>206.54696655273</ele>
        <time>2011-06-05T07:35:05Z</time>
      </trkpt>
      <trkpt lat="43.16635" lon="2.38233">
        <ele>203.95286560059</ele>
        <time>2011-06-05T07:35:09Z</time>
      </trkpt>
      <trkpt lat="43.16645" lon="2.38254">
        <ele>202.54426574707</ele>
        <time>2011-06-05T07:35:14Z</time>
      </trkpt>
      <trkpt lat="43.16643" lon="2.38269">
        <ele>202.3985748291</ele>
        <time>2011-06-05T07:35:17Z</time>
      </trkpt>
      <trkpt lat="43.16643" lon="2.38282">
        <ele>202.10203552246</ele>
        <time>2011-06-05T07:35:19Z</time>
      </trkpt>
      <trkpt lat="43.16641" lon="2.38307">
        <ele>201.89303588867</ele>
        <time>2011-06-05T07:35:22Z</time>
      </trkpt>
      <trkpt lat="43.16639" lon="2.38336">
        <ele>201.62882995606</ele>
        <time>2011-06-05T07:35:26Z</time>
      </trkpt>
      <trkpt lat="43.16651" lon="2.38345">
        <ele>199.17921447754</ele>
        <time>2011-06-05T07:35:29Z</time>
      </trkpt>
      <trkpt lat="43.16657" lon="2.38336">
        <ele>198.56295776367</ele>
        <time>2011-06-05T07:35:31Z</time>
      </trkpt>
      <trkpt lat="43.16657" lon="2.38329">
        <ele>198.71607971191</ele>
        <time>2011-06-05T07:35:32Z</time>
      </trkpt>
      <trkpt lat="43.16665" lon="2.38287">
        <ele>198.85488891602</ele>
        <time>2011-06-05T07:35:38Z</time>
      </trkpt>
      <trkpt lat="43.16674" lon="2.38264">
        <ele>198.33753967285</ele>
        <time>2011-06-05T07:35:41Z</time>
      </trkpt>
      <trkpt lat="43.167" lon="2.38233">
        <ele>194.60600280762</ele>
        <time>2011-06-05T07:35:46Z</time>
      </trkpt>
      <trkpt lat="43.16705" lon="2.38227">
        <ele>193.77716064453</ele>
        <time>2011-06-05T07:35:47Z</time>
      </trkpt>
      <trkpt lat="43.16723" lon="2.38196">
        <ele>191.1418762207</ele>
        <time>2011-06-05T07:35:51Z</time>
      </trkpt>
      <trkpt lat="43.1674" lon="2.38172">
        <ele>188.60501098633</ele>
        <time>2011-06-05T07:35:54Z</time>
      </trkpt>
      <trkpt lat="43.1675" lon="2.38162">
        <ele>187.00747680664</ele>
        <time>2011-06-05T07:35:58Z</time>
      </trkpt>
      <trkpt lat="43.16755" lon="2.38158">
        <ele>186.96821594238</ele>
        <time>2011-06-05T07:36:01Z</time>
      </trkpt>
      <trkpt lat="43.16759" lon="2.38154">
        <ele>186.95532226562</ele>
        <time>2011-06-05T07:36:05Z</time>
      </trkpt>
      <trkpt lat="43.16761" lon="2.38152">
        <ele>186.95903015137</ele>
        <time>2011-06-05T07:36:08Z</time>
      </trkpt>
      <trkpt lat="43.16759" lon="2.38149">
        <ele>186.98239135742</ele>
        <time>2011-06-05T07:36:14Z</time>
      </trkpt>
      <trkpt lat="43.16759" lon="2.3815">
        <ele>186.97891235352</ele>
        <time>2011-06-05T07:41:25Z</time>
      </trkpt>
      <trkpt lat="43.1676" lon="2.3815">
        <ele>186.97630310059</ele>
        <time>2011-06-05T07:41:26Z</time>
      </trkpt>
      <trkpt lat="43.1676" lon="2.3815">
        <ele>186.97453308106</ele>
        <time>2011-06-05T07:41:27Z</time>
      </trkpt>
      <trkpt lat="43.16764" lon="2.38154">
        <ele>186.93876647949</ele>
        <time>2011-06-05T07:41:36Z</time>
      </trkpt>
      <trkpt lat="43.16768" lon="2.3815">
        <ele>186.95188903809</ele>
        <time>2011-06-05T07:41:40Z</time>
      </trkpt>
      <trkpt lat="43.1677" lon="2.38148">
        <ele>186.97314453125</ele>
        <time>2011-06-05T07:41:44Z</time>
      </trkpt>
      <trkpt lat="43.16765" lon="2.3813">
        <ele>187.14231872559</ele>
        <time>2011-06-05T07:41:56Z</time>
      </trkpt>
      <trkpt lat="43.1676" lon="2.38107">
        <ele>187.22250366211</ele>
        <time>2011-06-05T07:42:02Z</time>
      </trkpt>
      <trkpt lat="43.16756" lon="2.38086">
        <ele>187.20808410644</ele>
        <time>2011-06-05T07:42:07Z</time>
      </trkpt>
      <trkpt lat="43.16754" lon="2.38074">
        <ele>187.58860778809</ele>
        <time>2011-06-05T07:42:10Z</time>
      </trkpt>
      <trkpt lat="43.16748" lon="2.38045">
        <ele>188.93830871582</ele>
        <time>2011-06-05T07:42:17Z</time>
      </trkpt>
      <trkpt lat="43.16742" lon="2.3802">
        <ele>190.06596374512</ele>
        <time>2011-06-05T07:42:23Z</time>
      </trkpt>
      <trkpt lat="43.16733" lon="2.37988">
        <ele>191.25843811035</ele>
        <time>2011-06-05T07:42:30Z</time>
      </trkpt>
      <trkpt lat="43.16728" lon="2.37974">
        <ele>191.96249389648</ele>
        <time>2011-06-05T07:42:34Z</time>
      </trkpt>
      <trkpt lat="43.1672" lon="2.37943">
        <ele>193.44393920898</ele>
        <time>2011-06-05T07:42:42Z</time>
      </trkpt>
      <trkpt lat="43.1672" lon="2.37937">
        <ele>193.80451965332</ele>
        <time>2011-06-05T07:42:44Z</time>
      </trkpt>
      <trkpt lat="43.16726" lon="2.3793">
        <ele>194.37248229981</ele>
        <time>2011-06-05T07:42:48Z</time>
      </trkpt>
      <trkpt lat="43.1674" lon="2.37929">
        <ele>194.92584228516</ele>
        <time>2011-06-05T07:42:54Z</time>
      </trkpt>
      <trkpt lat="43.16761" lon="2.3793">
        <ele>195.17178344727</ele>
        <time>2011-06-05T07:43:02Z</time>
      </trkpt>
      <trkpt lat="43.16775" lon="2.37928">
        <ele>195.18960571289</ele>
        <time>2011-06-05T07:43:07Z</time>
      </trkpt>
      <trkpt lat="43.16796" lon="2.37922">
        <ele>195.26847839356</ele>
        <time>2011-06-05T07:43:13Z</time>
      </trkpt>
      <trkpt lat="43.1683" lon="2.37911">
        <ele>195.05638122559</ele>
        <time>2011-06-05T07:43:19Z</time>
      </trkpt>
      <trkpt lat="43.16869" lon="2.379">
        <ele>192.75387573242</ele>
        <time>2011-06-05T07:43:25Z</time>
      </trkpt>
      <trkpt lat="43.16894" lon="2.37895">
        <ele>191.1827545166</ele>
        <time>2011-06-05T07:43:29Z</time>
      </trkpt>
      <trkpt lat="43.1691" lon="2.3789">
        <ele>190.09022521973</ele>
        <time>2011-06-05T07:43:32Z</time>
      </trkpt>
      <trkpt lat="43.16924" lon="2.37884">
        <ele>189.28968811035</ele>
        <time>2011-06-05T07:43:35Z</time>
      </trkpt>
      <trkpt lat="43.16929" lon="2.3787">
        <ele>188.95280456543</ele>
        <time>2011-06-05T07:43:39Z</time>
      </trkpt>
      <trkpt lat="43.16933" lon="2.37832">
        <ele>188.56703186035</ele>
        <time>2011-06-05T07:43:47Z</time>
      </trkpt>
      <trkpt lat="43.16934" lon="2.37821">
        <ele>188.12930297852</ele>
        <time>2011-06-05T07:43:49Z</time>
      </trkpt>
      <trkpt lat="43.16936" lon="2.37808">
        <ele>187.61538696289</ele>
        <time>2011-06-05T07:43:51Z</time>
      </trkpt>
      <trkpt lat="43.16943" lon="2.3777">
        <ele>186.29652404785</ele>
        <time>2011-06-05T07:43:56Z</time>
      </trkpt>
      <trkpt lat="43.1695" lon="2.37754">
        <ele>185.90319824219</ele>
        <time>2011-06-05T07:43:58Z</time>
      </trkpt>
      <trkpt lat="43.16954" lon="2.37735">
        <ele>185.10899353027</ele>
        <time>2011-06-05T07:44:00Z</time>
      </trkpt>
      <trkpt lat="43.16973" lon="2.37714">
        <ele>184.46531677246</ele>
        <time>2011-06-05T07:44:04Z</time>
      </trkpt>
      <trkpt lat="43.16992" lon="2.37719">
        <ele>185.29954528809</ele>
        <time>2011-06-05T07:44:08Z</time>
      </trkpt>
      <trkpt lat="43.16997" lon="2.37719">
        <ele>185.43434143066</ele>
        <time>2011-06-05T07:44:09Z</time>
      </trkpt>
      <trkpt lat="43.17027" lon="2.37725">
        <ele>184.4797668457</ele>
        <time>2011-06-05T07:44:15Z</time>
      </trkpt>
      <trkpt lat="43.1705" lon="2.37734">
        <ele>183.57124328613</ele>
        <time>2011-06-05T07:44:19Z</time>
      </trkpt>
      <trkpt lat="43.17056" lon="2.37737">
        <ele>183.33375549316</ele>
        <time>2011-06-05T07:44:20Z</time>
      </trkpt>
      <trkpt lat="43.1706" lon="2.37739">
        <ele>183.12673950195</ele>
        <time>2011-06-05T07:44:21Z</time>
      </trkpt>
      <trkpt lat="43.1707" lon="2.37725">
        <ele>182.37091064453</ele>
        <time>2011-06-05T07:44:25Z</time>
      </trkpt>
      <trkpt lat="43.17079" lon="2.37702">
        <ele>181.58628845215</ele>
        <time>2011-06-05T07:44:28Z</time>
      </trkpt>
      <trkpt lat="43.1708" lon="2.37685">
        <ele>181.32185363769</ele>
        <time>2011-06-05T07:44:31Z</time>
      </trkpt>
      <trkpt lat="43.1708" lon="2.37681">
        <ele>181.29040527344</ele>
        <time>2011-06-05T07:44:32Z</time>
      </trkpt>
      <trkpt lat="43.17076" lon="2.3767">
        <ele>181.22895812988</ele>
        <time>2011-06-05T07:44:34Z</time>
      </trkpt>
      <trkpt lat="43.1707" lon="2.37657">
        <ele>180.53224182129</ele>
        <time>2011-06-05T07:44:36Z</time>
      </trkpt>
      <trkpt lat="43.17061" lon="2.37641">
        <ele>179.45129394531</ele>
        <time>2011-06-05T07:44:39Z</time>
      </trkpt>
      <trkpt lat="43.17057" lon="2.3762">
        <ele>177.93170166016</ele>
        <time>2011-06-05T07:44:42Z</time>
      </trkpt>
      <trkpt lat="43.17057" lon="2.37599">
        <ele>176.21984863281</ele>
        <time>2011-06-05T07:44:44Z</time>
      </trkpt>
      <trkpt lat="43.17061" lon="2.37582">
        <ele>174.68241882324</ele>
        <time>2011-06-05T07:44:46Z</time>
      </trkpt>
      <trkpt lat="43.17073" lon="2.37552">
        <ele>172.37162780762</ele>
        <time>2011-06-05T07:44:51Z</time>
      </trkpt>
      <trkpt lat="43.17088" lon="2.37526">
        <ele>170.57060241699</ele>
        <time>2011-06-05T07:44:56Z</time>
      </trkpt>
      <trkpt lat="43.17091" lon="2.37506">
        <ele>169.43518066406</ele>
        <time>2011-06-05T07:44:58Z</time>
      </trkpt>
      <trkpt lat="43.171" lon="2.37444">
        <ele>167.18212890625</ele>
        <time>2011-06-05T07:45:03Z</time>
      </trkpt>
      <trkpt lat="43.17101" lon="2.37415">
        <ele>166.18360900879</ele>
        <time>2011-06-05T07:45:05Z</time>
      </trkpt>
      <trkpt lat="43.17092" lon="2.37398">
        <ele>165.86180114746</ele>
        <time>2011-06-05T07:45:07Z</time>
      </trkpt>
      <trkpt lat="43.17087" lon="2.37395">
        <ele>165.76565551758</ele>
        <time>2011-06-05T07:45:08Z</time>
      </trkpt>
      <trkpt lat="43.17066" lon="2.37378">
        <ele>166.65467834473</ele>
        <time>2011-06-05T07:45:13Z</time>
      </trkpt>
      <trkpt lat="43.17042" lon="2.37356">
        <ele>168.5439453125</ele>
        <time>2011-06-05T07:45:19Z</time>
      </trkpt>
      <trkpt lat="43.1703" lon="2.37333">
        <ele>170.12292480469</ele>
        <time>2011-06-05T07:45:24Z</time>
      </trkpt>
      <trkpt lat="43.17023" lon="2.37302">
        <ele>171.80773925781</ele>
        <time>2011-06-05T07:45:30Z</time>
      </trkpt>
      <trkpt lat="43.17015" lon="2.3729">
        <ele>173.00814819336</ele>
        <time>2011-06-05T07:45:33Z</time>
      </trkpt>
      <trkpt lat="43.17012" lon="2.37288">
        <ele>173.35690307617</ele>
        <time>2011-06-05T07:45:34Z</time>
      </trkpt>
      <trkpt lat="43.17004" lon="2.3728">
        <ele>174.53970336914</ele>
        <time>2011-06-05T07:45:38Z</time>
      </trkpt>
      <trkpt lat="43.16991" lon="2.37265">
        <ele>175.81666564941</ele>
        <time>2011-06-05T07:45:44Z</time>
      </trkpt>
      <trkpt lat="43.16977" lon="2.3725">
        <ele>176.84463500977</ele>
        <time>2011-06-05T07:45:50Z</time>
      </trkpt>
      <trkpt lat="43.16966" lon="2.37241">
        <ele>177.25926208496</ele>
        <time>2011-06-05T07:45:55Z</time>
      </trkpt>
      <trkpt lat="43.16954" lon="2.37229">
        <ele>177.80641174316</ele>
        <time>2011-06-05T07:46:00Z</time>
      </trkpt>
      <trkpt lat="43.16933" lon="2.37207">
        <ele>178.83760070801</ele>
        <time>2011-06-05T07:46:08Z</time>
      </trkpt>
      <trkpt lat="43.16911" lon="2.37185">
        <ele>180.00971984863</ele>
        <time>2011-06-05T07:46:16Z</time>
      </trkpt>
      <trkpt lat="43.16896" lon="2.3717">
        <ele>180.8957824707</ele>
        <time>2011-06-05T07:46:21Z</time>
      </trkpt>
      <trkpt lat="43.16882" lon="2.37154">
        <ele>181.74308776856</ele>
        <time>2011-06-05T07:46:27Z</time>
      </trkpt>
      <trkpt lat="43.1687" lon="2.37139">
        <ele>182.75444030762</ele>
        <time>2011-06-05T07:46:33Z</time>
      </trkpt>
      <trkpt lat="43.16854" lon="2.37123">
        <ele>184.60559082031</ele>
        <time>2011-06-05T07:46:40Z</time>
      </trkpt>
      <trkpt lat="43.16849" lon="2.3711">
        <ele>185.60606384277</ele>
        <time>2011-06-05T07:46:45Z</time>
      </trkpt>
      <trkpt lat="43.16845" lon="2.37099">
        <ele>186.58457946777</ele>
        <time>2011-06-05T07:46:50Z</time>
      </trkpt>
      <trkpt lat="43.1684" lon="2.37091">
        <ele>187.61004638672</ele>
        <time>2011-06-05T07:46:54Z</time>
      </trkpt>
      <trkpt lat="43.16839" lon="2.37085">
        <ele>188.14448547363</ele>
        <time>2011-06-05T07:46:57Z</time>
      </trkpt>
      <trkpt lat="43.16838" lon="2.37082">
        <ele>188.35420227051</ele>
        <time>2011-06-05T07:46:58Z</time>
      </trkpt>
      <trkpt lat="43.16833" lon="2.37065">
        <ele>190.30989074707</ele>
        <time>2011-06-05T07:47:05Z</time>
      </trkpt>
      <trkpt lat="43.16829" lon="2.37048">
        <ele>192.05767822266</ele>
        <time>2011-06-05T07:47:11Z</time>
      </trkpt>
      <trkpt lat="43.16822" lon="2.37021">
        <ele>194.83573913574</ele>
        <time>2011-06-05T07:47:20Z</time>
      </trkpt>
      <trkpt lat="43.16818" lon="2.37">
        <ele>197.03454589844</ele>
        <time>2011-06-05T07:47:27Z</time>
      </trkpt>
      <trkpt lat="43.16814" lon="2.36981">
        <ele>197.82958984375</ele>
        <time>2011-06-05T07:47:33Z</time>
      </trkpt>
      <trkpt lat="43.16811" lon="2.36962">
        <ele>198.71182250977</ele>
        <time>2011-06-05T07:47:38Z</time>
      </trkpt>
      <trkpt lat="43.16806" lon="2.36942">
        <ele>199.70726013184</ele>
        <time>2011-06-05T07:47:44Z</time>
      </trkpt>
      <trkpt lat="43.16799" lon="2.36922">
        <ele>201.27075195312</ele>
        <time>2011-06-05T07:47:50Z</time>
      </trkpt>
      <trkpt lat="43.16793" lon="2.369">
        <ele>202.12074279785</ele>
        <time>2011-06-05T07:47:57Z</time>
      </trkpt>
      <trkpt lat="43.16791" lon="2.36887">
        <ele>202.46253967285</ele>
        <time>2011-06-05T07:48:02Z</time>
      </trkpt>
      <trkpt lat="43.16782" lon="2.36877">
        <ele>203.76295471191</ele>
        <time>2011-06-05T07:48:07Z</time>
      </trkpt>
      <trkpt lat="43.16768" lon="2.36873">
        <ele>206.09648132324</ele>
        <time>2011-06-05T07:48:12Z</time>
      </trkpt>
      <trkpt lat="43.16748" lon="2.36872">
        <ele>209.02488708496</ele>
        <time>2011-06-05T07:48:18Z</time>
      </trkpt>
      <trkpt lat="43.16735" lon="2.36872">
        <ele>209.1964263916</ele>
        <time>2011-06-05T07:48:22Z</time>
      </trkpt>
      <trkpt lat="43.16729" lon="2.3686">
        <ele>209.33457946777</ele>
        <time>2011-06-05T07:48:26Z</time>
      </trkpt>
      <trkpt lat="43.16724" lon="2.36844">
        <ele>209.54808044434</ele>
        <time>2011-06-05T07:48:31Z</time>
      </trkpt>
      <trkpt lat="43.16719" lon="2.36837">
        <ele>209.71612548828</ele>
        <time>2011-06-05T07:48:34Z</time>
      </trkpt>
      <trkpt lat="43.16709" lon="2.36813">
        <ele>209.73971557617</ele>
        <time>2011-06-05T07:48:41Z</time>
      </trkpt>
      <trkpt lat="43.16704" lon="2.36796">
        <ele>209.74588012695</ele>
        <time>2011-06-05T07:48:47Z</time>
      </trkpt>
      <trkpt lat="43.16697" lon="2.36779">
        <ele>209.97958374023</ele>
        <time>2011-06-05T07:48:53Z</time>
      </trkpt>
      <trkpt lat="43.16692" lon="2.36763">
        <ele>210.21237182617</ele>
        <time>2011-06-05T07:48:58Z</time>
      </trkpt>
      <trkpt lat="43.16688" lon="2.36737">
        <ele>210.12628173828</ele>
        <time>2011-06-05T07:49:05Z</time>
      </trkpt>
      <trkpt lat="43.16684" lon="2.36708">
        <ele>209.86708068848</ele>
        <time>2011-06-05T07:49:11Z</time>
      </trkpt>
      <trkpt lat="43.16681" lon="2.36684">
        <ele>209.68913269043</ele>
        <time>2011-06-05T07:49:14Z</time>
      </trkpt>
      <trkpt lat="43.1667" lon="2.36667">
        <ele>210.62596130371</ele>
        <time>2011-06-05T07:49:18Z</time>
      </trkpt>
      <trkpt lat="43.16663" lon="2.36667">
        <ele>211.24606323242</ele>
        <time>2011-06-05T07:49:20Z</time>
      </trkpt>
      <trkpt lat="43.16645" lon="2.36671">
        <ele>212.27000427246</ele>
        <time>2011-06-05T07:49:26Z</time>
      </trkpt>
      <trkpt lat="43.16637" lon="2.36676">
        <ele>212.66918945312</ele>
        <time>2011-06-05T07:49:32Z</time>
      </trkpt>
      <trkpt lat="43.16635" lon="2.36676">
        <ele>212.76327514648</ele>
        <time>2011-06-05T07:49:35Z</time>
      </trkpt>
      <trkpt lat="43.16631" lon="2.36677">
        <ele>212.95645141602</ele>
        <time>2011-06-05T07:49:39Z</time>
      </trkpt>
      <trkpt lat="43.16624" lon="2.36685">
        <ele>213.10562133789</ele>
        <time>2011-06-05T07:49:43Z</time>
      </trkpt>
      <trkpt lat="43.16602" lon="2.36704">
        <ele>213.23460388184</ele>
        <time>2011-06-05T07:49:51Z</time>
      </trkpt>
      <trkpt lat="43.16576" lon="2.36715">
        <ele>213.38098144531</ele>
        <time>2011-06-05T07:49:59Z</time>
      </trkpt>
      <trkpt lat="43.1654" lon="2.36731">
        <ele>214.01190185547</ele>
        <time>2011-06-05T07:50:09Z</time>
      </trkpt>
      <trkpt lat="43.16509" lon="2.36747">
        <ele>214.70564270019</ele>
        <time>2011-06-05T07:50:17Z</time>
      </trkpt>
      <trkpt lat="43.16493" lon="2.36755">
        <ele>215.26460266113</ele>
        <time>2011-06-05T07:50:21Z</time>
      </trkpt>
      <trkpt lat="43.1648" lon="2.36761">
        <ele>215.84259033203</ele>
        <time>2011-06-05T07:50:24Z</time>
      </trkpt>
      <trkpt lat="43.16468" lon="2.36769">
        <ele>216.21330261231</ele>
        <time>2011-06-05T07:50:27Z</time>
      </trkpt>
      <trkpt lat="43.1646" lon="2.36774">
        <ele>216.49032592773</ele>
        <time>2011-06-05T07:50:29Z</time>
      </trkpt>
      <trkpt lat="43.16427" lon="2.368">
        <ele>217.05116271973</ele>
        <time>2011-06-05T07:50:38Z</time>
      </trkpt>
      <trkpt lat="43.16399" lon="2.36821">
        <ele>218.26493835449</ele>
        <time>2011-06-05T07:50:46Z</time>
      </trkpt>
      <trkpt lat="43.16379" lon="2.36835">
        <ele>219.39656066894</ele>
        <time>2011-06-05T07:50:52Z</time>
      </trkpt>
      <trkpt lat="43.16354" lon="2.36852">
        <ele>220.90403747559</ele>
        <time>2011-06-05T07:50:59Z</time>
      </trkpt>
      <trkpt lat="43.16334" lon="2.3686">
        <ele>222.361328125</ele>
        <time>2011-06-05T07:51:04Z</time>
      </trkpt>
      <trkpt lat="43.16299" lon="2.36877">
        <ele>221.29113769531</ele>
        <time>2011-06-05T07:51:13Z</time>
      </trkpt>
      <trkpt lat="43.16271" lon="2.36888">
        <ele>220.99993896484</ele>
        <time>2011-06-05T07:51:20Z</time>
      </trkpt>
      <trkpt lat="43.16267" lon="2.36888">
        <ele>221.02835083008</ele>
        <time>2011-06-05T07:51:21Z</time>
      </trkpt>
      <trkpt lat="43.16234" lon="2.36901">
        <ele>221.31037902832</ele>
        <time>2011-06-05T07:51:28Z</time>
      </trkpt>
      <trkpt lat="43.16193" lon="2.36918">
        <ele>221.97924804688</ele>
        <time>2011-06-05T07:51:36Z</time>
      </trkpt>
      <trkpt lat="43.16179" lon="2.36924">
        <ele>222.20178222656</ele>
        <time>2011-06-05T07:51:39Z</time>
      </trkpt>
      <trkpt lat="43.16161" lon="2.3693">
        <ele>222.84448242188</ele>
        <time>2011-06-05T07:51:43Z</time>
      </trkpt>
      <trkpt lat="43.16152" lon="2.36932">
        <ele>223.36911010742</ele>
        <time>2011-06-05T07:51:45Z</time>
      </trkpt>
      <trkpt lat="43.16119" lon="2.36936">
        <ele>225.58018493652</ele>
        <time>2011-06-05T07:51:53Z</time>
      </trkpt>
      <trkpt lat="43.16085" lon="2.36934">
        <ele>228.24661254883</ele>
        <time>2011-06-05T07:52:02Z</time>
      </trkpt>
      <trkpt lat="43.16065" lon="2.36927">
        <ele>229.12126159668</ele>
        <time>2011-06-05T07:52:07Z</time>
      </trkpt>
      <trkpt lat="43.16043" lon="2.36909">
        <ele>230.576171875</ele>
        <time>2011-06-05T07:52:13Z</time>
      </trkpt>
      <trkpt lat="43.16026" lon="2.3688">
        <ele>232.78987121582</ele>
        <time>2011-06-05T07:52:19Z</time>
      </trkpt>
      <trkpt lat="43.15999" lon="2.36843">
        <ele>235.31364440918</ele>
        <time>2011-06-05T07:52:27Z</time>
      </trkpt>
      <trkpt lat="43.15987" lon="2.36831">
        <ele>235.9893951416</ele>
        <time>2011-06-05T07:52:30Z</time>
      </trkpt>
      <trkpt lat="43.15951" lon="2.36814">
        <ele>237.46553039551</ele>
        <time>2011-06-05T07:52:37Z</time>
      </trkpt>
      <trkpt lat="43.15936" lon="2.36803">
        <ele>238.80265808106</ele>
        <time>2011-06-05T07:52:40Z</time>
      </trkpt>
      <trkpt lat="43.15919" lon="2.3679">
        <ele>240.6143951416</ele>
        <time>2011-06-05T07:52:44Z</time>
      </trkpt>
      <trkpt lat="43.15918" lon="2.3678">
        <ele>242.05644226074</ele>
        <time>2011-06-05T07:52:47Z</time>
      </trkpt>
      <trkpt lat="43.15926" lon="2.36774">
        <ele>242.53202819824</ele>
        <time>2011-06-05T07:52:51Z</time>
      </trkpt>
      <trkpt lat="43.15935" lon="2.36764">
        <ele>243.41770935059</ele>
        <time>2011-06-05T07:52:57Z</time>
      </trkpt>
      <trkpt lat="43.15945" lon="2.36754">
        <ele>244.20315551758</ele>
        <time>2011-06-05T07:53:02Z</time>
      </trkpt>
      <trkpt lat="43.15956" lon="2.36745">
        <ele>244.71173095703</ele>
        <time>2011-06-05T07:53:07Z</time>
      </trkpt>
      <trkpt lat="43.15961" lon="2.36735">
        <ele>245.50032043457</ele>
        <time>2011-06-05T07:53:12Z</time>
      </trkpt>
      <trkpt lat="43.15965" lon="2.36728">
        <ele>245.96701049805</ele>
        <time>2011-06-05T07:53:16Z</time>
      </trkpt>
      <trkpt lat="43.15967" lon="2.3671">
        <ele>247.46382141113</ele>
        <time>2011-06-05T07:53:22Z</time>
      </trkpt>
      <trkpt lat="43.15968" lon="2.3668">
        <ele>250.1999206543</ele>
        <time>2011-06-05T07:53:31Z</time>
      </trkpt>
      <trkpt lat="43.15975" lon="2.36656">
        <ele>250.56198120117</ele>
        <time>2011-06-05T07:53:37Z</time>
      </trkpt>
      <trkpt lat="43.15991" lon="2.36633">
        <ele>248.03991699219</ele>
        <time>2011-06-05T07:53:43Z</time>
      </trkpt>
      <trkpt lat="43.16009" lon="2.36612">
        <ele>245.62438964844</ele>
        <time>2011-06-05T07:53:48Z</time>
      </trkpt>
      <trkpt lat="43.16018" lon="2.36593">
        <ele>244.69618225098</ele>
        <time>2011-06-05T07:53:51Z</time>
      </trkpt>
      <trkpt lat="43.16021" lon="2.36565">
        <ele>243.85241699219</ele>
        <time>2011-06-05T07:53:56Z</time>
      </trkpt>
      <trkpt lat="43.16022" lon="2.36547">
        <ele>243.21441650391</ele>
        <time>2011-06-05T07:54:00Z</time>
      </trkpt>
      <trkpt lat="43.16021" lon="2.36522">
        <ele>242.82760620117</ele>
        <time>2011-06-05T07:54:05Z</time>
      </trkpt>
      <trkpt lat="43.16019" lon="2.36492">
        <ele>242.33952331543</ele>
        <time>2011-06-05T07:54:11Z</time>
      </trkpt>
      <trkpt lat="43.16014" lon="2.36466">
        <ele>242.24168395996</ele>
        <time>2011-06-05T07:54:15Z</time>
      </trkpt>
      <trkpt lat="43.16008" lon="2.3643">
        <ele>242.04083251953</ele>
        <time>2011-06-05T07:54:20Z</time>
      </trkpt>
      <trkpt lat="43.15999" lon="2.36406">
        <ele>242.70909118652</ele>
        <time>2011-06-05T07:54:25Z</time>
      </trkpt>
      <trkpt lat="43.15993" lon="2.36388">
        <ele>243.27005004883</ele>
        <time>2011-06-05T07:54:29Z</time>
      </trkpt>
      <trkpt lat="43.15985" lon="2.36367">
        <ele>244.32122802734</ele>
        <time>2011-06-05T07:54:34Z</time>
      </trkpt>
      <trkpt lat="43.15982" lon="2.36359">
        <ele>244.44831848144</ele>
        <time>2011-06-05T07:54:36Z</time>
      </trkpt>
      <trkpt lat="43.15974" lon="2.3634">
        <ele>245.39483642578</ele>
        <time>2011-06-05T07:54:41Z</time>
      </trkpt>
      <trkpt lat="43.15968" lon="2.36332">
        <ele>246.24574279785</ele>
        <time>2011-06-05T07:54:43Z</time>
      </trkpt>
      <trkpt lat="43.15948" lon="2.36307">
        <ele>248.02984619141</ele>
        <time>2011-06-05T07:54:50Z</time>
      </trkpt>
      <trkpt lat="43.15943" lon="2.36292">
        <ele>247.58734130859</ele>
        <time>2011-06-05T07:54:54Z</time>
      </trkpt>
      <trkpt lat="43.15941" lon="2.36271">
        <ele>245.66645812988</ele>
        <time>2011-06-05T07:54:59Z</time>
      </trkpt>
      <trkpt lat="43.15935" lon="2.36254">
        <ele>244.92362976074</ele>
        <time>2011-06-05T07:55:03Z</time>
      </trkpt>
      <trkpt lat="43.15934" lon="2.36245">
        <ele>244.02954101562</ele>
        <time>2011-06-05T07:55:05Z</time>
      </trkpt>
      <trkpt lat="43.15929" lon="2.36228">
        <ele>242.66566467285</ele>
        <time>2011-06-05T07:55:11Z</time>
      </trkpt>
      <trkpt lat="43.15929" lon="2.36211">
        <ele>240.3835144043</ele>
        <time>2011-06-05T07:55:14Z</time>
      </trkpt>
      <trkpt lat="43.15929" lon="2.36179">
        <ele>236.03871154785</ele>
        <time>2011-06-05T07:55:19Z</time>
      </trkpt>
      <trkpt lat="43.15928" lon="2.36173">
        <ele>235.24313354492</ele>
        <time>2011-06-05T07:55:20Z</time>
      </trkpt>
      <trkpt lat="43.15934" lon="2.36151">
        <ele>232.7532043457</ele>
        <time>2011-06-05T07:55:24Z</time>
      </trkpt>
      <trkpt lat="43.15935" lon="2.36143">
        <ele>232.15867614746</ele>
        <time>2011-06-05T07:55:26Z</time>
      </trkpt>
      <trkpt lat="43.1594" lon="2.36136">
        <ele>231.45314025879</ele>
        <time>2011-06-05T07:55:28Z</time>
      </trkpt>
      <trkpt lat="43.15955" lon="2.36117">
        <ele>230.12069702148</ele>
        <time>2011-06-05T07:55:33Z</time>
      </trkpt>
      <trkpt lat="43.15957" lon="2.36094">
        <ele>228.9774017334</ele>
        <time>2011-06-05T07:55:37Z</time>
      </trkpt>
      <trkpt lat="43.15961" lon="2.36087">
        <ele>228.77314758301</ele>
        <time>2011-06-05T07:55:40Z</time>
      </trkpt>
      <trkpt lat="43.15968" lon="2.36073">
        <ele>228.24594116211</ele>
        <time>2011-06-05T07:55:45Z</time>
      </trkpt>
      <trkpt lat="43.15971" lon="2.36067">
        <ele>228.00408935547</ele>
        <time>2011-06-05T07:55:49Z</time>
      </trkpt>
      <trkpt lat="43.15968" lon="2.36055">
        <ele>227.21681213379</ele>
        <time>2011-06-05T07:55:56Z</time>
      </trkpt>
      <trkpt lat="43.15968" lon="2.36054">
        <ele>227.11164855957</ele>
        <time>2011-06-05T07:55:57Z</time>
      </trkpt>
      <trkpt lat="43.15966" lon="2.36037">
        <ele>225.96220397949</ele>
        <time>2011-06-05T07:56:01Z</time>
      </trkpt>
      <trkpt lat="43.15965" lon="2.36014">
        <ele>224.54386901856</ele>
        <time>2011-06-05T07:56:05Z</time>
      </trkpt>
      <trkpt lat="43.15965" lon="2.35995">
        <ele>223.1591796875</ele>
        <time>2011-06-05T07:56:08Z</time>
      </trkpt>
      <trkpt lat="43.15964" lon="2.35983">
        <ele>221.91635131836</ele>
        <time>2011-06-05T07:56:10Z</time>
      </trkpt>
      <trkpt lat="43.1596" lon="2.35964">
        <ele>219.67788696289</ele>
        <time>2011-06-05T07:56:13Z</time>
      </trkpt>
      <trkpt lat="43.15959" lon="2.35938">
        <ele>217.05261230469</ele>
        <time>2011-06-05T07:56:17Z</time>
      </trkpt>
      <trkpt lat="43.15965" lon="2.35911">
        <ele>214.99006652832</ele>
        <time>2011-06-05T07:56:21Z</time>
      </trkpt>
      <trkpt lat="43.15965" lon="2.35895">
        <ele>213.20297241211</ele>
        <time>2011-06-05T07:56:23Z</time>
      </trkpt>
      <trkpt lat="43.15961" lon="2.35846">
        <ele>207.2020111084</ele>
        <time>2011-06-05T07:56:29Z</time>
      </trkpt>
      <trkpt lat="43.15956" lon="2.35814">
        <ele>203.12074279785</ele>
        <time>2011-06-05T07:56:33Z</time>
      </trkpt>
      <trkpt lat="43.15958" lon="2.358">
        <ele>201.66090393066</ele>
        <time>2011-06-05T07:56:35Z</time>
      </trkpt>
      <trkpt lat="43.15969" lon="2.35767">
        <ele>198.75517272949</ele>
        <time>2011-06-05T07:56:40Z</time>
      </trkpt>
      <trkpt lat="43.15974" lon="2.35756">
        <ele>197.83729553223</ele>
        <time>2011-06-05T07:56:42Z</time>
      </trkpt>
      <trkpt lat="43.15997" lon="2.35744">
        <ele>198.38008117676</ele>
        <time>2011-06-05T07:56:47Z</time>
      </trkpt>
      <trkpt lat="43.16014" lon="2.35734">
        <ele>199.22970581055</ele>
        <time>2011-06-05T07:56:53Z</time>
      </trkpt>
      <trkpt lat="43.16014" lon="2.35733">
        <ele>199.22184753418</ele>
        <time>2011-06-05T07:56:54Z</time>
      </trkpt>
      <trkpt lat="43.16018" lon="2.35742">
        <ele>200.16967773438</ele>
        <time>2011-06-05T07:59:39Z</time>
      </trkpt>
      <trkpt lat="43.16031" lon="2.35748">
        <ele>201.83203125</ele>
        <time>2011-06-05T07:59:44Z</time>
      </trkpt>
      <trkpt lat="43.16049" lon="2.35756">
        <ele>204.1999206543</ele>
        <time>2011-06-05T07:59:50Z</time>
      </trkpt>
      <trkpt lat="43.16067" lon="2.35759">
        <ele>206.03645324707</ele>
        <time>2011-06-05T07:59:55Z</time>
      </trkpt>
      <trkpt lat="43.16084" lon="2.35755">
        <ele>207.26234436035</ele>
        <time>2011-06-05T08:00:00Z</time>
      </trkpt>
      <trkpt lat="43.16097" lon="2.3574">
        <ele>206.50529479981</ele>
        <time>2011-06-05T08:00:05Z</time>
      </trkpt>
      <trkpt lat="43.16104" lon="2.35718">
        <ele>205.19190979004</ele>
        <time>2011-06-05T08:00:10Z</time>
      </trkpt>
      <trkpt lat="43.16113" lon="2.35698">
        <ele>204.49635314941</ele>
        <time>2011-06-05T08:00:15Z</time>
      </trkpt>
      <trkpt lat="43.16116" lon="2.35696">
        <ele>204.66117858887</ele>
        <time>2011-06-05T08:00:16Z</time>
      </trkpt>
      <trkpt lat="43.16128" lon="2.35699">
        <ele>205.75982666016</ele>
        <time>2011-06-05T08:00:20Z</time>
      </trkpt>
      <trkpt lat="43.16129" lon="2.35689">
        <ele>205.42755126953</ele>
        <time>2011-06-05T08:00:24Z</time>
      </trkpt>
      <trkpt lat="43.16126" lon="2.35681">
        <ele>204.8123626709</ele>
        <time>2011-06-05T08:00:26Z</time>
      </trkpt>
      <trkpt lat="43.16124" lon="2.35641">
        <ele>202.95429992676</ele>
        <time>2011-06-05T08:00:31Z</time>
      </trkpt>
      <trkpt lat="43.16116" lon="2.35588">
        <ele>199.80346679688</ele>
        <time>2011-06-05T08:00:37Z</time>
      </trkpt>
      <trkpt lat="43.16111" lon="2.35563">
        <ele>198.48381042481</ele>
        <time>2011-06-05T08:00:41Z</time>
      </trkpt>
      <trkpt lat="43.16111" lon="2.3553">
        <ele>197.50164794922</ele>
        <time>2011-06-05T08:00:48Z</time>
      </trkpt>
      <trkpt lat="43.16108" lon="2.35494">
        <ele>195.89747619629</ele>
        <time>2011-06-05T08:00:56Z</time>
      </trkpt>
      <trkpt lat="43.16105" lon="2.35476">
        <ele>194.81727600098</ele>
        <time>2011-06-05T08:01:00Z</time>
      </trkpt>
      <trkpt lat="43.16107" lon="2.35428">
        <ele>193.28176879883</ele>
        <time>2011-06-05T08:01:09Z</time>
      </trkpt>
      <trkpt lat="43.16109" lon="2.35387">
        <ele>193.38471984863</ele>
        <time>2011-06-05T08:01:16Z</time>
      </trkpt>
      <trkpt lat="43.16111" lon="2.3537">
        <ele>193.67678833008</ele>
        <time>2011-06-05T08:01:19Z</time>
      </trkpt>
      <trkpt lat="43.16107" lon="2.35348">
        <ele>193.79684448242</ele>
        <time>2011-06-05T08:01:24Z</time>
      </trkpt>
      <trkpt lat="43.16101" lon="2.35339">
        <ele>193.86157226562</ele>
        <time>2011-06-05T08:01:28Z</time>
      </trkpt>
      <trkpt lat="43.16101" lon="2.35336">
        <ele>193.9338684082</ele>
        <time>2011-06-05T08:01:29Z</time>
      </trkpt>
      <trkpt lat="43.16095" lon="2.35314">
        <ele>194.208984375</ele>
        <time>2011-06-05T08:01:35Z</time>
      </trkpt>
      <trkpt lat="43.16085" lon="2.35295">
        <ele>194.83166503906</ele>
        <time>2011-06-05T08:01:40Z</time>
      </trkpt>
      <trkpt lat="43.16085" lon="2.3529">
        <ele>194.96887207031</ele>
        <time>2011-06-05T08:01:41Z</time>
      </trkpt>
      <trkpt lat="43.16082" lon="2.35273">
        <ele>195.275390625</ele>
        <time>2011-06-05T08:01:46Z</time>
      </trkpt>
      <trkpt lat="43.16083" lon="2.35261">
        <ele>195.66160583496</ele>
        <time>2011-06-05T08:01:50Z</time>
      </trkpt>
      <trkpt lat="43.16087" lon="2.35248">
        <ele>195.66030883789</ele>
        <time>2011-06-05T08:01:56Z</time>
      </trkpt>
      <trkpt lat="43.16087" lon="2.35248">
        <ele>195.66285705566</ele>
        <time>2011-06-05T08:01:57Z</time>
      </trkpt>
      <trkpt lat="43.16082" lon="2.35228">
        <ele>195.51719665527</ele>
        <time>2011-06-05T08:02:11Z</time>
      </trkpt>
      <trkpt lat="43.16079" lon="2.35202">
        <ele>194.94995117188</ele>
        <time>2011-06-05T08:02:16Z</time>
      </trkpt>
      <trkpt lat="43.16071" lon="2.35178">
        <ele>193.8018951416</ele>
        <time>2011-06-05T08:02:21Z</time>
      </trkpt>
      <trkpt lat="43.16069" lon="2.35172">
        <ele>193.53921508789</ele>
        <time>2011-06-05T08:02:22Z</time>
      </trkpt>
      <trkpt lat="43.16055" lon="2.35136">
        <ele>190.99565124512</ele>
        <time>2011-06-05T08:02:29Z</time>
      </trkpt>
      <trkpt lat="43.1604" lon="2.35097">
        <ele>188.69171142578</ele>
        <time>2011-06-05T08:02:36Z</time>
      </trkpt>
      <trkpt lat="43.16032" lon="2.35082">
        <ele>187.82781982422</ele>
        <time>2011-06-05T08:02:39Z</time>
      </trkpt>
      <trkpt lat="43.16029" lon="2.35078">
        <ele>187.37138366699</ele>
        <time>2011-06-05T08:02:40Z</time>
      </trkpt>
      <trkpt lat="43.16009" lon="2.35051">
        <ele>184.75862121582</ele>
        <time>2011-06-05T08:02:47Z</time>
      </trkpt>
      <trkpt lat="43.16005" lon="2.3504">
        <ele>184.03657531738</ele>
        <time>2011-06-05T08:02:51Z</time>
      </trkpt>
      <trkpt lat="43.16002" lon="2.35025">
        <ele>183.22938537598</ele>
        <time>2011-06-05T08:02:55Z</time>
      </trkpt>
      <trkpt lat="43.15999" lon="2.35008">
        <ele>182.23899841309</ele>
        <time>2011-06-05T08:03:00Z</time>
      </trkpt>
      <trkpt lat="43.16" lon="2.35003">
        <ele>182.11082458496</ele>
        <time>2011-06-05T08:03:01Z</time>
      </trkpt>
      <trkpt lat="43.15996" lon="2.34973">
        <ele>181.22666931152</ele>
        <time>2011-06-05T08:03:06Z</time>
      </trkpt>
      <trkpt lat="43.15993" lon="2.34961">
        <ele>180.7013092041</ele>
        <time>2011-06-05T08:03:08Z</time>
      </trkpt>
      <trkpt lat="43.15992" lon="2.34929">
        <ele>180.26370239258</ele>
        <time>2011-06-05T08:03:13Z</time>
      </trkpt>
      <trkpt lat="43.15992" lon="2.34924">
        <ele>180.21044921875</ele>
        <time>2011-06-05T08:03:14Z</time>
      </trkpt>
      <trkpt lat="43.15986" lon="2.34898">
        <ele>178.63618469238</ele>
        <time>2011-06-05T08:03:19Z</time>
      </trkpt>
      <trkpt lat="43.15985" lon="2.34876">
        <ele>177.49761962891</ele>
        <time>2011-06-05T08:03:23Z</time>
      </trkpt>
      <trkpt lat="43.15986" lon="2.34873">
        <ele>177.37268066406</ele>
        <time>2011-06-05T08:03:24Z</time>
      </trkpt>
      <trkpt lat="43.15988" lon="2.34866">
        <ele>177.1844329834</ele>
        <time>2011-06-05T08:03:26Z</time>
      </trkpt>
      <trkpt lat="43.15984" lon="2.34851">
        <ele>176.2431640625</ele>
        <time>2011-06-05T08:03:30Z</time>
      </trkpt>
      <trkpt lat="43.15985" lon="2.34833">
        <ele>175.42820739746</ele>
        <time>2011-06-05T08:03:36Z</time>
      </trkpt>
      <trkpt lat="43.15988" lon="2.34814">
        <ele>174.56085205078</ele>
        <time>2011-06-05T08:03:42Z</time>
      </trkpt>
      <trkpt lat="43.15991" lon="2.34801">
        <ele>173.80610656738</ele>
        <time>2011-06-05T08:03:47Z</time>
      </trkpt>
      <trkpt lat="43.15993" lon="2.34788">
        <ele>173.02568054199</ele>
        <time>2011-06-05T08:03:49Z</time>
      </trkpt>
      <trkpt lat="43.16" lon="2.34758">
        <ele>170.59957885742</ele>
        <time>2011-06-05T08:03:53Z</time>
      </trkpt>
      <trkpt lat="43.16015" lon="2.34734">
        <ele>169.07049560547</ele>
        <time>2011-06-05T08:03:58Z</time>
      </trkpt>
      <trkpt lat="43.1602" lon="2.34732">
        <ele>168.94091796875</ele>
        <time>2011-06-05T08:03:59Z</time>
      </trkpt>
      <trkpt lat="43.16031" lon="2.34729">
        <ele>168.69390869141</ele>
        <time>2011-06-05T08:04:01Z</time>
      </trkpt>
      <trkpt lat="43.16043" lon="2.34723">
        <ele>168.34938049316</ele>
        <time>2011-06-05T08:04:03Z</time>
      </trkpt>
      <trkpt lat="43.16061" lon="2.34696">
        <ele>167.13836669922</ele>
        <time>2011-06-05T08:04:08Z</time>
      </trkpt>
      <trkpt lat="43.16064" lon="2.34674">
        <ele>166.28396606445</ele>
        <time>2011-06-05T08:04:11Z</time>
      </trkpt>
      <trkpt lat="43.16066" lon="2.3465">
        <ele>165.52206420898</ele>
        <time>2011-06-05T08:04:14Z</time>
      </trkpt>
      <trkpt lat="43.16075" lon="2.34618">
        <ele>164.42211914062</ele>
        <time>2011-06-05T08:04:18Z</time>
      </trkpt>
      <trkpt lat="43.1608" lon="2.34605">
        <ele>163.87327575684</ele>
        <time>2011-06-05T08:04:20Z</time>
      </trkpt>
      <trkpt lat="43.16071" lon="2.34595">
        <ele>163.80409240723</ele>
        <time>2011-06-05T08:04:24Z</time>
      </trkpt>
      <trkpt lat="43.16067" lon="2.34596">
        <ele>163.95121765137</ele>
        <time>2011-06-05T08:04:25Z</time>
      </trkpt>
      <trkpt lat="43.16032" lon="2.34597">
        <ele>165.04483032227</ele>
        <time>2011-06-05T08:04:31Z</time>
      </trkpt>
      <trkpt lat="43.16007" lon="2.34595">
        <ele>165.77700805664</ele>
        <time>2011-06-05T08:04:35Z</time>
      </trkpt>
      <trkpt lat="43.15998" lon="2.34585">
        <ele>166.2061920166</ele>
        <time>2011-06-05T08:04:37Z</time>
      </trkpt>
      <trkpt lat="43.1597" lon="2.34548">
        <ele>166.51608276367</ele>
        <time>2011-06-05T08:04:44Z</time>
      </trkpt>
      <trkpt lat="43.15951" lon="2.34539">
        <ele>167.36375427246</ele>
        <time>2011-06-05T08:04:48Z</time>
      </trkpt>
      <trkpt lat="43.15937" lon="2.34537">
        <ele>168.45478820801</ele>
        <time>2011-06-05T08:04:51Z</time>
      </trkpt>
      <trkpt lat="43.15924" lon="2.34535">
        <ele>169.36376953125</ele>
        <time>2011-06-05T08:04:54Z</time>
      </trkpt>
      <trkpt lat="43.15902" lon="2.3453">
        <ele>170.220703125</ele>
        <time>2011-06-05T08:05:00Z</time>
      </trkpt>
      <trkpt lat="43.15886" lon="2.34532">
        <ele>171.43592834473</ele>
        <time>2011-06-05T08:05:05Z</time>
      </trkpt>
      <trkpt lat="43.15858" lon="2.34532">
        <ele>172.9319152832</ele>
        <time>2011-06-05T08:05:13Z</time>
      </trkpt>
      <trkpt lat="43.15825" lon="2.34524">
        <ele>173.7805480957</ele>
        <time>2011-06-05T08:05:22Z</time>
      </trkpt>
      <trkpt lat="43.15815" lon="2.34513">
        <ele>172.49099731445</ele>
        <time>2011-06-05T08:05:26Z</time>
      </trkpt>
      <trkpt lat="43.158" lon="2.34504">
        <ele>171.97160339356</ele>
        <time>2011-06-05T08:05:31Z</time>
      </trkpt>
      <trkpt lat="43.15774" lon="2.34498">
        <ele>173.13655090332</ele>
        <time>2011-06-05T08:05:37Z</time>
      </trkpt>
      <trkpt lat="43.15749" lon="2.34499">
        <ele>174.93222045898</ele>
        <time>2011-06-05T08:05:41Z</time>
      </trkpt>
      <trkpt lat="43.15704" lon="2.34495">
        <ele>174.65133666992</ele>
        <time>2011-06-05T08:05:48Z</time>
      </trkpt>
      <trkpt lat="43.15662" lon="2.34494">
        <ele>174.49890136719</ele>
        <time>2011-06-05T08:05:54Z</time>
      </trkpt>
      <trkpt lat="43.15614" lon="2.34491">
        <ele>173.91134643555</ele>
        <time>2011-06-05T08:06:01Z</time>
      </trkpt>
      <trkpt lat="43.15589" lon="2.3449">
        <ele>173.68583679199</ele>
        <time>2011-06-05T08:06:05Z</time>
      </trkpt>
      <trkpt lat="43.15573" lon="2.3448">
        <ele>174.03326416016</ele>
        <time>2011-06-05T08:06:09Z</time>
      </trkpt>
      <trkpt lat="43.15569" lon="2.3447">
        <ele>173.91696166992</ele>
        <time>2011-06-05T08:06:11Z</time>
      </trkpt>
      <trkpt lat="43.15555" lon="2.34451">
        <ele>173.98509216309</ele>
        <time>2011-06-05T08:06:16Z</time>
      </trkpt>
      <trkpt lat="43.15528" lon="2.34441">
        <ele>175.0733795166</ele>
        <time>2011-06-05T08:06:22Z</time>
      </trkpt>
      <trkpt lat="43.15492" lon="2.34445">
        <ele>177.27449035644</ele>
        <time>2011-06-05T08:06:30Z</time>
      </trkpt>
      <trkpt lat="43.15487" lon="2.34446">
        <ele>177.48381042481</ele>
        <time>2011-06-05T08:06:31Z</time>
      </trkpt>
      <trkpt lat="43.15467" lon="2.3446">
        <ele>178.21923828125</ele>
        <time>2011-06-05T08:06:35Z</time>
      </trkpt>
      <trkpt lat="43.15441" lon="2.34495">
        <ele>176.90925598144</ele>
        <time>2011-06-05T08:06:43Z</time>
      </trkpt>
      <trkpt lat="43.15421" lon="2.34502">
        <ele>175.51325988769</ele>
        <time>2011-06-05T08:06:48Z</time>
      </trkpt>
      <trkpt lat="43.15408" lon="2.34505">
        <ele>175.74655151367</ele>
        <time>2011-06-05T08:06:52Z</time>
      </trkpt>
      <trkpt lat="43.15401" lon="2.34523">
        <ele>177.37211608887</ele>
        <time>2011-06-05T08:06:57Z</time>
      </trkpt>
      <trkpt lat="43.15393" lon="2.34538">
        <ele>178.30093383789</ele>
        <time>2011-06-05T08:07:01Z</time>
      </trkpt>
      <trkpt lat="43.15373" lon="2.34559">
        <ele>178.11012268066</ele>
        <time>2011-06-05T08:07:08Z</time>
      </trkpt>
      <trkpt lat="43.15346" lon="2.34561">
        <ele>176.06889343262</ele>
        <time>2011-06-05T08:07:15Z</time>
      </trkpt>
      <trkpt lat="43.15321" lon="2.34568">
        <ele>175.32307434082</ele>
        <time>2011-06-05T08:07:22Z</time>
      </trkpt>
      <trkpt lat="43.1529" lon="2.34575">
        <ele>176.17022705078</ele>
        <time>2011-06-05T08:07:30Z</time>
      </trkpt>
      <trkpt lat="43.15271" lon="2.34575">
        <ele>177.05329895019</ele>
        <time>2011-06-05T08:07:36Z</time>
      </trkpt>
      <trkpt lat="43.1525" lon="2.34576">
        <ele>177.81266784668</ele>
        <time>2011-06-05T08:07:42Z</time>
      </trkpt>
      <trkpt lat="43.15239" lon="2.34577">
        <ele>178.26571655273</ele>
        <time>2011-06-05T08:07:46Z</time>
      </trkpt>
      <trkpt lat="43.15235" lon="2.34563">
        <ele>180.42660522461</ele>
        <time>2011-06-05T08:07:50Z</time>
      </trkpt>
      <trkpt lat="43.15235" lon="2.34549">
        <ele>182.21540832519</ele>
        <time>2011-06-05T08:07:52Z</time>
      </trkpt>
      <trkpt lat="43.15234" lon="2.34544">
        <ele>182.95686340332</ele>
        <time>2011-06-05T08:07:53Z</time>
      </trkpt>
      <trkpt lat="43.15234" lon="2.34536">
        <ele>184.15551757812</ele>
        <time>2011-06-05T08:07:55Z</time>
      </trkpt>
      <trkpt lat="43.15245" lon="2.34524">
        <ele>184.06442260742</ele>
        <time>2011-06-05T08:08:01Z</time>
      </trkpt>
      <trkpt lat="43.15263" lon="2.34522">
        <ele>182.63403320312</ele>
        <time>2011-06-05T08:08:07Z</time>
      </trkpt>
      <trkpt lat="43.15268" lon="2.34524">
        <ele>181.97888183594</ele>
        <time>2011-06-05T08:08:09Z</time>
      </trkpt>
      <trkpt lat="43.15281" lon="2.34534">
        <ele>180.09776306152</ele>
        <time>2011-06-05T08:08:14Z</time>
      </trkpt>
      <trkpt lat="43.15298" lon="2.34528">
        <ele>179.33708190918</ele>
        <time>2011-06-05T08:08:20Z</time>
      </trkpt>
      <trkpt lat="43.15303" lon="2.34522">
        <ele>179.41734313965</ele>
        <time>2011-06-05T08:08:22Z</time>
      </trkpt>
      <trkpt lat="43.15318" lon="2.34504">
        <ele>179.22055053711</ele>
        <time>2011-06-05T08:08:28Z</time>
      </trkpt>
      <trkpt lat="43.15326" lon="2.34492">
        <ele>180.05206298828</ele>
        <time>2011-06-05T08:08:33Z</time>
      </trkpt>
      <trkpt lat="43.15335" lon="2.34467">
        <ele>183.47338867188</ele>
        <time>2011-06-05T08:08:39Z</time>
      </trkpt>
      <trkpt lat="43.15338" lon="2.34457">
        <ele>184.87544250488</ele>
        <time>2011-06-05T08:08:41Z</time>
      </trkpt>
      <trkpt lat="43.1535" lon="2.34442">
        <ele>186.27149963379</ele>
        <time>2011-06-05T08:08:45Z</time>
      </trkpt>
      <trkpt lat="43.15354" lon="2.34441">
        <ele>185.96124267578</ele>
        <time>2011-06-05T08:08:46Z</time>
      </trkpt>
      <trkpt lat="43.15375" lon="2.34441">
        <ele>183.85859680176</ele>
        <time>2011-06-05T08:08:51Z</time>
      </trkpt>
      <trkpt lat="43.15393" lon="2.3443">
        <ele>183.3436126709</ele>
        <time>2011-06-05T08:08:56Z</time>
      </trkpt>
      <trkpt lat="43.15401" lon="2.34419">
        <ele>183.65309143066</ele>
        <time>2011-06-05T08:08:59Z</time>
      </trkpt>
      <trkpt lat="43.15417" lon="2.34399">
        <ele>184.23081970215</ele>
        <time>2011-06-05T08:09:06Z</time>
      </trkpt>
      <trkpt lat="43.15424" lon="2.34377">
        <ele>186.78948974609</ele>
        <time>2011-06-05T08:09:13Z</time>
      </trkpt>
      <trkpt lat="43.15427" lon="2.34354">
        <ele>189.62808227539</ele>
        <time>2011-06-05T08:09:19Z</time>
      </trkpt>
      <trkpt lat="43.15435" lon="2.34337">
        <ele>191.64614868164</ele>
        <time>2011-06-05T08:09:26Z</time>
      </trkpt>
      <trkpt lat="43.1545" lon="2.34328">
        <ele>192.05030822754</ele>
        <time>2011-06-05T08:09:33Z</time>
      </trkpt>
      <trkpt lat="43.1547" lon="2.34327">
        <ele>191.32135009766</ele>
        <time>2011-06-05T08:09:40Z</time>
      </trkpt>
      <trkpt lat="43.15486" lon="2.3432">
        <ele>191.56121826172</ele>
        <time>2011-06-05T08:09:47Z</time>
      </trkpt>
      <trkpt lat="43.15503" lon="2.34309">
        <ele>192.37358093262</ele>
        <time>2011-06-05T08:09:54Z</time>
      </trkpt>
      <trkpt lat="43.15519" lon="2.34297">
        <ele>192.61450195312</ele>
        <time>2011-06-05T08:10:00Z</time>
      </trkpt>
      <trkpt lat="43.15545" lon="2.3427">
        <ele>194.07835388184</ele>
        <time>2011-06-05T08:10:09Z</time>
      </trkpt>
      <trkpt lat="43.1557" lon="2.34247">
        <ele>194.44555664062</ele>
        <time>2011-06-05T08:10:16Z</time>
      </trkpt>
      <trkpt lat="43.15595" lon="2.34217">
        <ele>194.24667358398</ele>
        <time>2011-06-05T08:10:22Z</time>
      </trkpt>
      <trkpt lat="43.15607" lon="2.34192">
        <ele>195.0792388916</ele>
        <time>2011-06-05T08:10:26Z</time>
      </trkpt>
      <trkpt lat="43.15612" lon="2.34153">
        <ele>197.08010864258</ele>
        <time>2011-06-05T08:10:32Z</time>
      </trkpt>
      <trkpt lat="43.15618" lon="2.34121">
        <ele>198.58572387695</ele>
        <time>2011-06-05T08:10:38Z</time>
      </trkpt>
      <trkpt lat="43.15628" lon="2.34092">
        <ele>199.81747436523</ele>
        <time>2011-06-05T08:10:45Z</time>
      </trkpt>
      <trkpt lat="43.15643" lon="2.34064">
        <ele>200.66609191894</ele>
        <time>2011-06-05T08:10:53Z</time>
      </trkpt>
      <trkpt lat="43.15663" lon="2.34027">
        <ele>201.2301940918</ele>
        <time>2011-06-05T08:11:02Z</time>
      </trkpt>
      <trkpt lat="43.15673" lon="2.34008">
        <ele>201.09323120117</ele>
        <time>2011-06-05T08:11:07Z</time>
      </trkpt>
      <trkpt lat="43.1568" lon="2.33997">
        <ele>200.72410583496</ele>
        <time>2011-06-05T08:11:12Z</time>
      </trkpt>
      <trkpt lat="43.15679" lon="2.33996">
        <ele>200.87202453613</ele>
        <time>2011-06-05T08:11:14Z</time>
      </trkpt>
      <trkpt lat="43.1567" lon="2.34009">
        <ele>201.33815002441</ele>
        <time>2011-06-05T08:11:41Z</time>
      </trkpt>
      <trkpt lat="43.1567" lon="2.34009">
        <ele>201.34474182129</ele>
        <time>2011-06-05T08:11:43Z</time>
      </trkpt>
      <trkpt lat="43.15672" lon="2.33997">
        <ele>201.67167663574</ele>
        <time>2011-06-05T08:14:15Z</time>
      </trkpt>
      <trkpt lat="43.1567" lon="2.33995">
        <ele>201.96206665039</ele>
        <time>2011-06-05T08:14:16Z</time>
      </trkpt>
      <trkpt lat="43.15668" lon="2.33994">
        <ele>202.25819396973</ele>
        <time>2011-06-05T08:14:17Z</time>
      </trkpt>
      <trkpt lat="43.15647" lon="2.33972">
        <ele>204.48239135742</ele>
        <time>2011-06-05T08:14:27Z</time>
      </trkpt>
      <trkpt lat="43.1563" lon="2.3395">
        <ele>205.86875915527</ele>
        <time>2011-06-05T08:14:35Z</time>
      </trkpt>
      <trkpt lat="43.15616" lon="2.33924">
        <ele>206.82164001465</ele>
        <time>2011-06-05T08:14:43Z</time>
      </trkpt>
      <trkpt lat="43.15602" lon="2.33893">
        <ele>206.93467712402</ele>
        <time>2011-06-05T08:14:50Z</time>
      </trkpt>
      <trkpt lat="43.15586" lon="2.33857">
        <ele>205.77374267578</ele>
        <time>2011-06-05T08:14:57Z</time>
      </trkpt>
      <trkpt lat="43.1557" lon="2.33828">
        <ele>204.41973876953</ele>
        <time>2011-06-05T08:15:02Z</time>
      </trkpt>
      <trkpt lat="43.15553" lon="2.33803">
        <ele>202.53077697754</ele>
        <time>2011-06-05T08:15:06Z</time>
      </trkpt>
      <trkpt lat="43.15525" lon="2.33751">
        <ele>198.27244567871</ele>
        <time>2011-06-05T08:15:12Z</time>
      </trkpt>
      <trkpt lat="43.15507" lon="2.33711">
        <ele>195.2890625</ele>
        <time>2011-06-05T08:15:16Z</time>
      </trkpt>
      <trkpt lat="43.15497" lon="2.33665">
        <ele>193.46797180176</ele>
        <time>2011-06-05T08:15:20Z</time>
      </trkpt>
      <trkpt lat="43.15496" lon="2.33635">
        <ele>193.21067810059</ele>
        <time>2011-06-05T08:15:23Z</time>
      </trkpt>
      <trkpt lat="43.15498" lon="2.33599">
        <ele>192.42291259766</ele>
        <time>2011-06-05T08:15:28Z</time>
      </trkpt>
      <trkpt lat="43.15498" lon="2.33579">
        <ele>192.17503356934</ele>
        <time>2011-06-05T08:15:32Z</time>
      </trkpt>
      <trkpt lat="43.15486" lon="2.33554">
        <ele>193.35893249512</ele>
        <time>2011-06-05T08:15:38Z</time>
      </trkpt>
      <trkpt lat="43.15471" lon="2.33527">
        <ele>194.43838500977</ele>
        <time>2011-06-05T08:15:45Z</time>
      </trkpt>
      <trkpt lat="43.1546" lon="2.33509">
        <ele>195.01818847656</ele>
        <time>2011-06-05T08:15:49Z</time>
      </trkpt>
      <trkpt lat="43.1545" lon="2.33473">
        <ele>194.14152526856</ele>
        <time>2011-06-05T08:15:55Z</time>
      </trkpt>
      <trkpt lat="43.15435" lon="2.33447">
        <ele>193.65054321289</ele>
        <time>2011-06-05T08:16:00Z</time>
      </trkpt>
      <trkpt lat="43.15423" lon="2.33438">
        <ele>193.85035705566</ele>
        <time>2011-06-05T08:16:03Z</time>
      </trkpt>
      <trkpt lat="43.15414" lon="2.33433">
        <ele>194.07914733887</ele>
        <time>2011-06-05T08:16:07Z</time>
      </trkpt>
      <trkpt lat="43.15392" lon="2.33428">
        <ele>194.63876342773</ele>
        <time>2011-06-05T08:16:11Z</time>
      </trkpt>
      <trkpt lat="43.15364" lon="2.33407">
        <ele>193.27574157715</ele>
        <time>2011-06-05T08:16:15Z</time>
      </trkpt>
      <trkpt lat="43.15341" lon="2.33379">
        <ele>190.47366333008</ele>
        <time>2011-06-05T08:16:19Z</time>
      </trkpt>
      <trkpt lat="43.15298" lon="2.33338">
        <ele>188.51104736328</ele>
        <time>2011-06-05T08:16:26Z</time>
      </trkpt>
      <trkpt lat="43.15271" lon="2.33306">
        <ele>187.93254089356</ele>
        <time>2011-06-05T08:16:32Z</time>
      </trkpt>
      <trkpt lat="43.15249" lon="2.33274">
        <ele>187.07647705078</ele>
        <time>2011-06-05T08:16:37Z</time>
      </trkpt>
      <trkpt lat="43.15221" lon="2.33224">
        <ele>186.66609191894</ele>
        <time>2011-06-05T08:16:45Z</time>
      </trkpt>
      <trkpt lat="43.15197" lon="2.3319">
        <ele>187.01655578613</ele>
        <time>2011-06-05T08:16:52Z</time>
      </trkpt>
      <trkpt lat="43.15168" lon="2.33157">
        <ele>188.37911987305</ele>
        <time>2011-06-05T08:17:00Z</time>
      </trkpt>
      <trkpt lat="43.15162" lon="2.33151">
        <ele>188.02424621582</ele>
        <time>2011-06-05T08:17:02Z</time>
      </trkpt>
      <trkpt lat="43.1515" lon="2.33135">
        <ele>186.81101989746</ele>
        <time>2011-06-05T08:17:06Z</time>
      </trkpt>
      <trkpt lat="43.15152" lon="2.33105">
        <ele>185.58390808106</ele>
        <time>2011-06-05T08:17:12Z</time>
      </trkpt>
      <trkpt lat="43.15153" lon="2.33076">
        <ele>184.62013244629</ele>
        <time>2011-06-05T08:17:16Z</time>
      </trkpt>
      <trkpt lat="43.15151" lon="2.33043">
        <ele>184.2727355957</ele>
        <time>2011-06-05T08:17:22Z</time>
      </trkpt>
      <trkpt lat="43.15152" lon="2.33023">
        <ele>184.11456298828</ele>
        <time>2011-06-05T08:17:25Z</time>
      </trkpt>
      <trkpt lat="43.1515" lon="2.32997">
        <ele>183.74000549316</ele>
        <time>2011-06-05T08:17:29Z</time>
      </trkpt>
      <trkpt lat="43.15139" lon="2.32995">
        <ele>182.85556030273</ele>
        <time>2011-06-05T08:17:32Z</time>
      </trkpt>
      <trkpt lat="43.1513" lon="2.33">
        <ele>182.35577392578</ele>
        <time>2011-06-05T08:17:34Z</time>
      </trkpt>
      <trkpt lat="43.15094" lon="2.33014">
        <ele>180.39833068848</ele>
        <time>2011-06-05T08:17:40Z</time>
      </trkpt>
      <trkpt lat="43.15081" lon="2.33031">
        <ele>180.12251281738</ele>
        <time>2011-06-05T08:17:43Z</time>
      </trkpt>
      <trkpt lat="43.15065" lon="2.33061">
        <ele>178.8263092041</ele>
        <time>2011-06-05T08:17:47Z</time>
      </trkpt>
      <trkpt lat="43.15046" lon="2.33068">
        <ele>176.00402832031</ele>
        <time>2011-06-05T08:17:51Z</time>
      </trkpt>
      <trkpt lat="43.15042" lon="2.33061">
        <ele>175.08106994629</ele>
        <time>2011-06-05T08:17:52Z</time>
      </trkpt>
      <trkpt lat="43.15014" lon="2.3302">
        <ele>168.94499206543</ele>
        <time>2011-06-05T08:17:57Z</time>
      </trkpt>
      <trkpt lat="43.14965" lon="2.32976">
        <ele>160.86668395996</ele>
        <time>2011-06-05T08:18:03Z</time>
      </trkpt>
      <trkpt lat="43.14957" lon="2.32971">
        <ele>159.6364440918</ele>
        <time>2011-06-05T08:18:04Z</time>
      </trkpt>
      <trkpt lat="43.14904" lon="2.32952">
        <ele>152.30476379394</ele>
        <time>2011-06-05T08:18:11Z</time>
      </trkpt>
      <trkpt lat="43.14897" lon="2.32949">
        <ele>151.44621276856</ele>
        <time>2011-06-05T08:18:12Z</time>
      </trkpt>
      <trkpt lat="43.14885" lon="2.32946">
        <ele>150.0594329834</ele>
        <time>2011-06-05T08:18:14Z</time>
      </trkpt>
      <trkpt lat="43.14873" lon="2.3294">
        <ele>148.56120300293</ele>
        <time>2011-06-05T08:18:17Z</time>
      </trkpt>
      <trkpt lat="43.14866" lon="2.32922">
        <ele>147.5672454834</ele>
        <time>2011-06-05T08:18:20Z</time>
      </trkpt>
      <trkpt lat="43.14854" lon="2.32892">
        <ele>145.86940002441</ele>
        <time>2011-06-05T08:18:24Z</time>
      </trkpt>
      <trkpt lat="43.14838" lon="2.32857">
        <ele>143.75688171387</ele>
        <time>2011-06-05T08:18:28Z</time>
      </trkpt>
      <trkpt lat="43.14833" lon="2.3285">
        <ele>143.21041870117</ele>
        <time>2011-06-05T08:18:29Z</time>
      </trkpt>
      <trkpt lat="43.14801" lon="2.32808">
        <ele>144.72662353516</ele>
        <time>2011-06-05T08:18:35Z</time>
      </trkpt>
      <trkpt lat="43.14786" lon="2.3277">
        <ele>144.99049377441</ele>
        <time>2011-06-05T08:18:40Z</time>
      </trkpt>
      <trkpt lat="43.14785" lon="2.32762">
        <ele>144.92198181152</ele>
        <time>2011-06-05T08:18:41Z</time>
      </trkpt>
      <trkpt lat="43.14783" lon="2.32746">
        <ele>144.72604370117</ele>
        <time>2011-06-05T08:18:43Z</time>
      </trkpt>
      <trkpt lat="43.14776" lon="2.32672">
        <ele>143.13627624512</ele>
        <time>2011-06-05T08:18:52Z</time>
      </trkpt>
      <trkpt lat="43.14768" lon="2.32621">
        <ele>141.50177001953</ele>
        <time>2011-06-05T08:18:58Z</time>
      </trkpt>
      <trkpt lat="43.14763" lon="2.32565">
        <ele>139.95471191406</ele>
        <time>2011-06-05T08:19:04Z</time>
      </trkpt>
      <trkpt lat="43.14757" lon="2.32539">
        <ele>139.51525878906</ele>
        <time>2011-06-05T08:19:07Z</time>
      </trkpt>
      <trkpt lat="43.14757" lon="2.32503">
        <ele>139.51525878906</ele>
        <time>2011-06-05T08:19:11Z</time>
      </trkpt>
      <trkpt lat="43.14758" lon="2.32495">
        <ele>139.51147460938</ele>
        <time>2011-06-05T08:19:12Z</time>
      </trkpt>
      <trkpt lat="43.14762" lon="2.32425">
        <ele>139.09898376465</ele>
        <time>2011-06-05T08:19:20Z</time>
      </trkpt>
      <trkpt lat="43.14773" lon="2.3238">
        <ele>139.42948913574</ele>
        <time>2011-06-05T08:19:25Z</time>
      </trkpt>
      <trkpt lat="43.14767" lon="2.32357">
        <ele>138.86231994629</ele>
        <time>2011-06-05T08:19:28Z</time>
      </trkpt>
      <trkpt lat="43.14762" lon="2.32356">
        <ele>138.59150695801</ele>
        <time>2011-06-05T08:19:29Z</time>
      </trkpt>
      <trkpt lat="43.14743" lon="2.32356">
        <ele>138.1727142334</ele>
        <time>2011-06-05T08:19:32Z</time>
      </trkpt>
      <trkpt lat="43.14713" lon="2.32357">
        <ele>138.94508361816</ele>
        <time>2011-06-05T08:19:37Z</time>
      </trkpt>
      <trkpt lat="43.14708" lon="2.32355">
        <ele>139.02711486816</ele>
        <time>2011-06-05T08:19:38Z</time>
      </trkpt>
      <trkpt lat="43.147" lon="2.32351">
        <ele>139.13026428223</ele>
        <time>2011-06-05T08:19:40Z</time>
      </trkpt>
      <trkpt lat="43.14696" lon="2.32353">
        <ele>139.26268005371</ele>
        <time>2011-06-05T08:19:42Z</time>
      </trkpt>
      <trkpt lat="43.14693" lon="2.32364">
        <ele>139.68403625488</ele>
        <time>2011-06-05T08:19:48Z</time>
      </trkpt>
      <trkpt lat="43.14693" lon="2.32367">
        <ele>139.80328369141</ele>
        <time>2011-06-05T08:19:49Z</time>
      </trkpt>
      <trkpt lat="43.14692" lon="2.32371">
        <ele>139.95039367676</ele>
        <time>2011-06-05T08:19:50Z</time>
      </trkpt>
      <trkpt lat="43.14687" lon="2.32386">
        <ele>140.67961120606</ele>
        <time>2011-06-05T08:19:54Z</time>
      </trkpt>
      <trkpt lat="43.14675" lon="2.32391">
        <ele>141.37147521973</ele>
        <time>2011-06-05T08:19:58Z</time>
      </trkpt>
      <trkpt lat="43.14656" lon="2.3239">
        <ele>141.59780883789</ele>
        <time>2011-06-05T08:20:03Z</time>
      </trkpt>
      <trkpt lat="43.14642" lon="2.32403">
        <ele>142.18977355957</ele>
        <time>2011-06-05T08:20:07Z</time>
      </trkpt>
      <trkpt lat="43.14629" lon="2.32421">
        <ele>143.15362548828</ele>
        <time>2011-06-05T08:20:11Z</time>
      </trkpt>
      <trkpt lat="43.14613" lon="2.32429">
        <ele>143.46585083008</ele>
        <time>2011-06-05T08:20:15Z</time>
      </trkpt>
      <trkpt lat="43.14608" lon="2.32425">
        <ele>143.3543548584</ele>
        <time>2011-06-05T08:20:16Z</time>
      </trkpt>
      <trkpt lat="43.14561" lon="2.32405">
        <ele>140.51838684082</ele>
        <time>2011-06-05T08:20:22Z</time>
      </trkpt>
      <trkpt lat="43.14554" lon="2.32402">
        <ele>139.83160400391</ele>
        <time>2011-06-05T08:20:23Z</time>
      </trkpt>
      <trkpt lat="43.14539" lon="2.3241">
        <ele>139.38578796387</ele>
        <time>2011-06-05T08:20:26Z</time>
      </trkpt>
      <trkpt lat="43.14531" lon="2.32427">
        <ele>139.55795288086</ele>
        <time>2011-06-05T08:20:29Z</time>
      </trkpt>
      <trkpt lat="43.14518" lon="2.32475">
        <ele>139.98419189453</ele>
        <time>2011-06-05T08:20:37Z</time>
      </trkpt>
      <trkpt lat="43.14502" lon="2.3253">
        <ele>140.67889404297</ele>
        <time>2011-06-05T08:20:46Z</time>
      </trkpt>
      <trkpt lat="43.14486" lon="2.32566">
        <ele>141.72752380371</ele>
        <time>2011-06-05T08:20:52Z</time>
      </trkpt>
      <trkpt lat="43.1448" lon="2.3258">
        <ele>142.12890625</ele>
        <time>2011-06-05T08:20:54Z</time>
      </trkpt>
      <trkpt lat="43.14457" lon="2.3261">
        <ele>142.72006225586</ele>
        <time>2011-06-05T08:20:59Z</time>
      </trkpt>
      <trkpt lat="43.14418" lon="2.3263">
        <ele>142.27488708496</ele>
        <time>2011-06-05T08:21:06Z</time>
      </trkpt>
      <trkpt lat="43.14367" lon="2.3265">
        <ele>142.2303314209</ele>
        <time>2011-06-05T08:21:15Z</time>
      </trkpt>
      <trkpt lat="43.14339" lon="2.32663">
        <ele>142.74554443359</ele>
        <time>2011-06-05T08:21:20Z</time>
      </trkpt>
      <trkpt lat="43.14314" lon="2.3268">
        <ele>143.25971984863</ele>
        <time>2011-06-05T08:21:25Z</time>
      </trkpt>
      <trkpt lat="43.14298" lon="2.32689">
        <ele>143.50334167481</ele>
        <time>2011-06-05T08:21:28Z</time>
      </trkpt>
      <trkpt lat="43.14282" lon="2.32693">
        <ele>143.52429199219</ele>
        <time>2011-06-05T08:21:31Z</time>
      </trkpt>
      <trkpt lat="43.14272" lon="2.32693">
        <ele>143.31031799316</ele>
        <time>2011-06-05T08:21:33Z</time>
      </trkpt>
      <trkpt lat="43.14256" lon="2.32686">
        <ele>142.27615356445</ele>
        <time>2011-06-05T08:21:36Z</time>
      </trkpt>
      <trkpt lat="43.14241" lon="2.32679">
        <ele>141.17109680176</ele>
        <time>2011-06-05T08:21:39Z</time>
      </trkpt>
      <trkpt lat="43.14218" lon="2.3268">
        <ele>140.98529052734</ele>
        <time>2011-06-05T08:21:43Z</time>
      </trkpt>
      <trkpt lat="43.14207" lon="2.32687">
        <ele>141.55085754394</ele>
        <time>2011-06-05T08:21:45Z</time>
      </trkpt>
      <trkpt lat="43.14188" lon="2.32702">
        <ele>142.7624206543</ele>
        <time>2011-06-05T08:21:49Z</time>
      </trkpt>
      <trkpt lat="43.14152" lon="2.32726">
        <ele>144.11332702637</ele>
        <time>2011-06-05T08:21:57Z</time>
      </trkpt>
      <trkpt lat="43.14127" lon="2.32741">
        <ele>144.40913391113</ele>
        <time>2011-06-05T08:22:02Z</time>
      </trkpt>
      <trkpt lat="43.14104" lon="2.32768">
        <ele>144.97152709961</ele>
        <time>2011-06-05T08:22:07Z</time>
      </trkpt>
      <trkpt lat="43.14079" lon="2.3281">
        <ele>146.3583984375</ele>
        <time>2011-06-05T08:22:14Z</time>
      </trkpt>
      <trkpt lat="43.14069" lon="2.32841">
        <ele>148.98937988281</ele>
        <time>2011-06-05T08:22:19Z</time>
      </trkpt>
      <trkpt lat="43.14056" lon="2.32847">
        <ele>150.79100036621</ele>
        <time>2011-06-05T08:22:22Z</time>
      </trkpt>
      <trkpt lat="43.14042" lon="2.32856">
        <ele>152.68446350098</ele>
        <time>2011-06-05T08:22:25Z</time>
      </trkpt>
      <trkpt lat="43.14039" lon="2.32861">
        <ele>153.13429260254</ele>
        <time>2011-06-05T08:22:26Z</time>
      </trkpt>
      <trkpt lat="43.14037" lon="2.32867">
        <ele>153.49969482422</ele>
        <time>2011-06-05T08:22:27Z</time>
      </trkpt>
      <trkpt lat="43.1403" lon="2.329">
        <ele>155.01455688477</ele>
        <time>2011-06-05T08:22:34Z</time>
      </trkpt>
      <trkpt lat="43.14022" lon="2.32939">
        <ele>156.72163391113</ele>
        <time>2011-06-05T08:22:43Z</time>
      </trkpt>
      <trkpt lat="43.14013" lon="2.32981">
        <ele>158.49661254883</ele>
        <time>2011-06-05T08:22:54Z</time>
      </trkpt>
      <trkpt lat="43.14002" lon="2.33012">
        <ele>159.99270629883</ele>
        <time>2011-06-05T08:23:03Z</time>
      </trkpt>
      <trkpt lat="43.13995" lon="2.33046">
        <ele>161.16606140137</ele>
        <time>2011-06-05T08:23:12Z</time>
      </trkpt>
      <trkpt lat="43.13989" lon="2.33087">
        <ele>162.64712524414</ele>
        <time>2011-06-05T08:23:22Z</time>
      </trkpt>
      <trkpt lat="43.1398" lon="2.33118">
        <ele>164.28134155273</ele>
        <time>2011-06-05T08:23:29Z</time>
      </trkpt>
      <trkpt lat="43.13979" lon="2.33123">
        <ele>164.50364685059</ele>
        <time>2011-06-05T08:23:30Z</time>
      </trkpt>
      <trkpt lat="43.13969" lon="2.33158">
        <ele>166.30294799805</ele>
        <time>2011-06-05T08:23:37Z</time>
      </trkpt>
      <trkpt lat="43.13967" lon="2.33168">
        <ele>166.77191162109</ele>
        <time>2011-06-05T08:23:39Z</time>
      </trkpt>
      <trkpt lat="43.13956" lon="2.33212">
        <ele>169.36114501953</ele>
        <time>2011-06-05T08:23:47Z</time>
      </trkpt>
      <trkpt lat="43.13944" lon="2.33264">
        <ele>172.43421936035</ele>
        <time>2011-06-05T08:23:57Z</time>
      </trkpt>
      <trkpt lat="43.13938" lon="2.33295">
        <ele>174.11361694336</ele>
        <time>2011-06-05T08:24:04Z</time>
      </trkpt>
      <trkpt lat="43.13933" lon="2.33328">
        <ele>175.72706604004</ele>
        <time>2011-06-05T08:24:11Z</time>
      </trkpt>
      <trkpt lat="43.13924" lon="2.33377">
        <ele>176.26426696777</ele>
        <time>2011-06-05T08:24:21Z</time>
      </trkpt>
      <trkpt lat="43.13914" lon="2.33414">
        <ele>176.2928314209</ele>
        <time>2011-06-05T08:24:29Z</time>
      </trkpt>
      <trkpt lat="43.13904" lon="2.33449">
        <ele>177.01336669922</ele>
        <time>2011-06-05T08:24:37Z</time>
      </trkpt>
      <trkpt lat="43.1389" lon="2.33482">
        <ele>178.29161071777</ele>
        <time>2011-06-05T08:24:45Z</time>
      </trkpt>
      <trkpt lat="43.13875" lon="2.3351">
        <ele>179.72137451172</ele>
        <time>2011-06-05T08:24:53Z</time>
      </trkpt>
      <trkpt lat="43.13854" lon="2.33541">
        <ele>180.93061828613</ele>
        <time>2011-06-05T08:25:02Z</time>
      </trkpt>
      <trkpt lat="43.13833" lon="2.33563">
        <ele>181.97859191894</ele>
        <time>2011-06-05T08:25:09Z</time>
      </trkpt>
      <trkpt lat="43.13818" lon="2.33572">
        <ele>181.36077880859</ele>
        <time>2011-06-05T08:25:13Z</time>
      </trkpt>
      <trkpt lat="43.13791" lon="2.33595">
        <ele>181.13888549805</ele>
        <time>2011-06-05T08:25:21Z</time>
      </trkpt>
      <trkpt lat="43.13773" lon="2.33616">
        <ele>181.56262207031</ele>
        <time>2011-06-05T08:25:27Z</time>
      </trkpt>
      <trkpt lat="43.13758" lon="2.33644">
        <ele>182.32109069824</ele>
        <time>2011-06-05T08:25:32Z</time>
      </trkpt>
      <trkpt lat="43.13746" lon="2.33688">
        <ele>183.90551757812</ele>
        <time>2011-06-05T08:25:38Z</time>
      </trkpt>
      <trkpt lat="43.13733" lon="2.33738">
        <ele>186.00436401367</ele>
        <time>2011-06-05T08:25:45Z</time>
      </trkpt>
      <trkpt lat="43.13725" lon="2.33773">
        <ele>187.58139038086</ele>
        <time>2011-06-05T08:25:50Z</time>
      </trkpt>
      <trkpt lat="43.13709" lon="2.338">
        <ele>188.73770141602</ele>
        <time>2011-06-05T08:25:55Z</time>
      </trkpt>
      <trkpt lat="43.13701" lon="2.33808">
        <ele>188.9990234375</ele>
        <time>2011-06-05T08:25:57Z</time>
      </trkpt>
      <trkpt lat="43.13669" lon="2.3384">
        <ele>190.50038146973</ele>
        <time>2011-06-05T08:26:06Z</time>
      </trkpt>
      <trkpt lat="43.13644" lon="2.33867">
        <ele>193.22366333008</ele>
        <time>2011-06-05T08:26:14Z</time>
      </trkpt>
      <trkpt lat="43.13612" lon="2.33886">
        <ele>195.79515075684</ele>
        <time>2011-06-05T08:26:23Z</time>
      </trkpt>
      <trkpt lat="43.13589" lon="2.33889">
        <ele>196.75131225586</ele>
        <time>2011-06-05T08:26:29Z</time>
      </trkpt>
      <trkpt lat="43.13575" lon="2.33893">
        <ele>197.83139038086</ele>
        <time>2011-06-05T08:26:34Z</time>
      </trkpt>
      <trkpt lat="43.13556" lon="2.33908">
        <ele>199.79565429688</ele>
        <time>2011-06-05T08:26:41Z</time>
      </trkpt>
      <trkpt lat="43.1354" lon="2.33922">
        <ele>201.53489685059</ele>
        <time>2011-06-05T08:26:48Z</time>
      </trkpt>
      <trkpt lat="43.13517" lon="2.33937">
        <ele>203.85601806641</ele>
        <time>2011-06-05T08:26:57Z</time>
      </trkpt>
      <trkpt lat="43.13507" lon="2.33958">
        <ele>206.13484191894</ele>
        <time>2011-06-05T08:27:03Z</time>
      </trkpt>
      <trkpt lat="43.13493" lon="2.33992">
        <ele>209.67362976074</ele>
        <time>2011-06-05T08:27:12Z</time>
      </trkpt>
      <trkpt lat="43.13477" lon="2.34021">
        <ele>213.31045532227</ele>
        <time>2011-06-05T08:27:21Z</time>
      </trkpt>
      <trkpt lat="43.13462" lon="2.34054">
        <ele>216.58540344238</ele>
        <time>2011-06-05T08:27:31Z</time>
      </trkpt>
      <trkpt lat="43.13454" lon="2.34079">
        <ele>218.4440612793</ele>
        <time>2011-06-05T08:27:38Z</time>
      </trkpt>
      <trkpt lat="43.13447" lon="2.34103">
        <ele>220.3985748291</ele>
        <time>2011-06-05T08:27:45Z</time>
      </trkpt>
      <trkpt lat="43.13439" lon="2.34134">
        <ele>222.69500732422</ele>
        <time>2011-06-05T08:27:54Z</time>
      </trkpt>
      <trkpt lat="43.13429" lon="2.34166">
        <ele>224.48976135254</ele>
        <time>2011-06-05T08:28:04Z</time>
      </trkpt>
      <trkpt lat="43.1342" lon="2.34195">
        <ele>226.70707702637</ele>
        <time>2011-06-05T08:28:13Z</time>
      </trkpt>
      <trkpt lat="43.13411" lon="2.34213">
        <ele>228.39639282227</ele>
        <time>2011-06-05T08:28:21Z</time>
      </trkpt>
      <trkpt lat="43.13403" lon="2.34228">
        <ele>229.72711181641</ele>
        <time>2011-06-05T08:28:27Z</time>
      </trkpt>
      <trkpt lat="43.1339" lon="2.34252">
        <ele>231.27600097656</ele>
        <time>2011-06-05T08:28:36Z</time>
      </trkpt>
      <trkpt lat="43.13384" lon="2.34272">
        <ele>232.82020568848</ele>
        <time>2011-06-05T08:28:43Z</time>
      </trkpt>
      <trkpt lat="43.1338" lon="2.34291">
        <ele>234.16448974609</ele>
        <time>2011-06-05T08:28:49Z</time>
      </trkpt>
      <trkpt lat="43.13377" lon="2.34315">
        <ele>236.12362670898</ele>
        <time>2011-06-05T08:28:56Z</time>
      </trkpt>
      <trkpt lat="43.13375" lon="2.34346">
        <ele>237.81245422363</ele>
        <time>2011-06-05T08:29:05Z</time>
      </trkpt>
      <trkpt lat="43.13369" lon="2.3437">
        <ele>237.32585144043</ele>
        <time>2011-06-05T08:29:13Z</time>
      </trkpt>
      <trkpt lat="43.13363" lon="2.34386">
        <ele>236.50634765625</ele>
        <time>2011-06-05T08:29:18Z</time>
      </trkpt>
      <trkpt lat="43.13351" lon="2.34417">
        <ele>233.98379516602</ele>
        <time>2011-06-05T08:29:24Z</time>
      </trkpt>
      <trkpt lat="43.13339" lon="2.34448">
        <ele>232.67791748047</ele>
        <time>2011-06-05T08:29:29Z</time>
      </trkpt>
      <trkpt lat="43.13329" lon="2.34479">
        <ele>231.90180969238</ele>
        <time>2011-06-05T08:29:35Z</time>
      </trkpt>
      <trkpt lat="43.13317" lon="2.34517">
        <ele>230.076171875</ele>
        <time>2011-06-05T08:29:42Z</time>
      </trkpt>
      <trkpt lat="43.13314" lon="2.3453">
        <ele>229.30172729492</ele>
        <time>2011-06-05T08:29:44Z</time>
      </trkpt>
      <trkpt lat="43.13307" lon="2.34555">
        <ele>227.4744720459</ele>
        <time>2011-06-05T08:29:49Z</time>
      </trkpt>
      <trkpt lat="43.13308" lon="2.34589">
        <ele>228.05659484863</ele>
        <time>2011-06-05T08:29:54Z</time>
      </trkpt>
      <trkpt lat="43.13309" lon="2.34596">
        <ele>228.25473022461</ele>
        <time>2011-06-05T08:29:55Z</time>
      </trkpt>
      <trkpt lat="43.1331" lon="2.34639">
        <ele>228.38420104981</ele>
        <time>2011-06-05T08:30:00Z</time>
      </trkpt>
      <trkpt lat="43.13308" lon="2.34653">
        <ele>227.6408996582</ele>
        <time>2011-06-05T08:30:02Z</time>
      </trkpt>
      <trkpt lat="43.13298" lon="2.34666">
        <ele>224.72442626953</ele>
        <time>2011-06-05T08:30:05Z</time>
      </trkpt>
      <trkpt lat="43.13285" lon="2.3468">
        <ele>221.27952575684</ele>
        <time>2011-06-05T08:30:08Z</time>
      </trkpt>
      <trkpt lat="43.13278" lon="2.34694">
        <ele>219.56639099121</ele>
        <time>2011-06-05T08:30:10Z</time>
      </trkpt>
      <trkpt lat="43.13271" lon="2.34716">
        <ele>217.91622924805</ele>
        <time>2011-06-05T08:30:13Z</time>
      </trkpt>
      <trkpt lat="43.1326" lon="2.34749">
        <ele>215.07164001465</ele>
        <time>2011-06-05T08:30:19Z</time>
      </trkpt>
      <trkpt lat="43.13262" lon="2.34773">
        <ele>216.14495849609</ele>
        <time>2011-06-05T08:30:23Z</time>
      </trkpt>
      <trkpt lat="43.13262" lon="2.34779">
        <ele>216.24082946777</ele>
        <time>2011-06-05T08:30:24Z</time>
      </trkpt>
      <trkpt lat="43.13268" lon="2.34806">
        <ele>218.10536193848</ele>
        <time>2011-06-05T08:30:29Z</time>
      </trkpt>
      <trkpt lat="43.13266" lon="2.34819">
        <ele>217.75326538086</ele>
        <time>2011-06-05T08:30:33Z</time>
      </trkpt>
      <trkpt lat="43.1326" lon="2.34835">
        <ele>216.54930114746</ele>
        <time>2011-06-05T08:30:36Z</time>
      </trkpt>
      <trkpt lat="43.13265" lon="2.34849">
        <ele>218.37164306641</ele>
        <time>2011-06-05T08:30:39Z</time>
      </trkpt>
      <trkpt lat="43.13265" lon="2.34861">
        <ele>218.93096923828</ele>
        <time>2011-06-05T08:30:41Z</time>
      </trkpt>
      <trkpt lat="43.13253" lon="2.34899">
        <ele>217.87182617188</ele>
        <time>2011-06-05T08:30:47Z</time>
      </trkpt>
      <trkpt lat="43.1325" lon="2.34925">
        <ele>218.65628051758</ele>
        <time>2011-06-05T08:30:51Z</time>
      </trkpt>
      <trkpt lat="43.1325" lon="2.34931">
        <ele>219.17098999023</ele>
        <time>2011-06-05T08:30:52Z</time>
      </trkpt>
      <trkpt lat="43.1325" lon="2.34942">
        <ele>220.16613769531</ele>
        <time>2011-06-05T08:30:54Z</time>
      </trkpt>
      <trkpt lat="43.13246" lon="2.34954">
        <ele>221.03779602051</ele>
        <time>2011-06-05T08:30:59Z</time>
      </trkpt>
      <trkpt lat="43.13236" lon="2.34978">
        <ele>222.57308959961</ele>
        <time>2011-06-05T08:31:05Z</time>
      </trkpt>
      <trkpt lat="43.13232" lon="2.34998">
        <ele>223.82386779785</ele>
        <time>2011-06-05T08:31:10Z</time>
      </trkpt>
      <trkpt lat="43.13237" lon="2.35013">
        <ele>225.03915405273</ele>
        <time>2011-06-05T08:31:14Z</time>
      </trkpt>
      <trkpt lat="43.13238" lon="2.35026">
        <ele>225.92208862305</ele>
        <time>2011-06-05T08:31:18Z</time>
      </trkpt>
      <trkpt lat="43.13232" lon="2.35053">
        <ele>227.20051574707</ele>
        <time>2011-06-05T08:31:24Z</time>
      </trkpt>
      <trkpt lat="43.13223" lon="2.35063">
        <ele>226.9308013916</ele>
        <time>2011-06-05T08:31:28Z</time>
      </trkpt>
      <trkpt lat="43.13226" lon="2.35073">
        <ele>227.75009155273</ele>
        <time>2011-06-05T08:31:32Z</time>
      </trkpt>
      <trkpt lat="43.13226" lon="2.35075">
        <ele>227.91650390625</ele>
        <time>2011-06-05T08:31:33Z</time>
      </trkpt>
      <trkpt lat="43.13229" lon="2.35094">
        <ele>229.19505310059</ele>
        <time>2011-06-05T08:31:40Z</time>
      </trkpt>
      <trkpt lat="43.1323" lon="2.35116">
        <ele>230.09204101562</ele>
        <time>2011-06-05T08:31:46Z</time>
      </trkpt>
      <trkpt lat="43.13229" lon="2.35131">
        <ele>230.55619812012</ele>
        <time>2011-06-05T08:31:51Z</time>
      </trkpt>
      <trkpt lat="43.1323" lon="2.3515">
        <ele>231.42576599121</ele>
        <time>2011-06-05T08:31:58Z</time>
      </trkpt>
      <trkpt lat="43.13234" lon="2.3517">
        <ele>232.5701751709</ele>
        <time>2011-06-05T08:32:05Z</time>
      </trkpt>
      <trkpt lat="43.13232" lon="2.35188">
        <ele>233.31393432617</ele>
        <time>2011-06-05T08:32:11Z</time>
      </trkpt>
      <trkpt lat="43.1323" lon="2.35206">
        <ele>234.05924987793</ele>
        <time>2011-06-05T08:32:17Z</time>
      </trkpt>
      <trkpt lat="43.13228" lon="2.35224">
        <ele>234.80230712891</ele>
        <time>2011-06-05T08:32:21Z</time>
      </trkpt>
      <trkpt lat="43.13225" lon="2.35236">
        <ele>235.13887023926</ele>
        <time>2011-06-05T08:32:25Z</time>
      </trkpt>
      <trkpt lat="43.13223" lon="2.35237">
        <ele>235.02983093262</ele>
        <time>2011-06-05T08:32:30Z</time>
      </trkpt>
      <trkpt lat="43.13221" lon="2.35241">
        <ele>235.04420471191</ele>
        <time>2011-06-05T08:32:39Z</time>
      </trkpt>
      <trkpt lat="43.13217" lon="2.35247">
        <ele>235.03074645996</ele>
        <time>2011-06-05T08:32:42Z</time>
      </trkpt>
      <trkpt lat="43.1322" lon="2.35252">
        <ele>235.6219329834</ele>
        <time>2011-06-05T08:32:46Z</time>
      </trkpt>
      <trkpt lat="43.13229" lon="2.35259">
        <ele>236.75302124023</ele>
        <time>2011-06-05T08:32:52Z</time>
      </trkpt>
      <trkpt lat="43.13236" lon="2.35275">
        <ele>238.08792114258</ele>
        <time>2011-06-05T08:33:01Z</time>
      </trkpt>
      <trkpt lat="43.13236" lon="2.35275">
        <ele>238.16435241699</ele>
        <time>2011-06-05T08:33:03Z</time>
      </trkpt>
      <trkpt lat="43.13239" lon="2.35289">
        <ele>239.09260559082</ele>
        <time>2011-06-05T08:33:15Z</time>
      </trkpt>
      <trkpt lat="43.13239" lon="2.35301">
        <ele>239.69549560547</ele>
        <time>2011-06-05T08:33:24Z</time>
      </trkpt>
      <trkpt lat="43.13239" lon="2.35304">
        <ele>239.82771301269</ele>
        <time>2011-06-05T08:33:30Z</time>
      </trkpt>
      <trkpt lat="43.13239" lon="2.35305">
        <ele>239.88386535644</ele>
        <time>2011-06-05T08:33:33Z</time>
      </trkpt>
      <trkpt lat="43.1324" lon="2.35303">
        <ele>239.84544372559</ele>
        <time>2011-06-05T08:33:48Z</time>
      </trkpt>
      <trkpt lat="43.13237" lon="2.35303">
        <ele>239.66166687012</ele>
        <time>2011-06-05T08:33:54Z</time>
      </trkpt>
      <trkpt lat="43.13237" lon="2.35304">
        <ele>239.72795104981</ele>
        <time>2011-06-05T08:33:59Z</time>
      </trkpt>
      <trkpt lat="43.13237" lon="2.35305">
        <ele>239.7589263916</ele>
        <time>2011-06-05T08:34:16Z</time>
      </trkpt>
      <trkpt lat="43.13241" lon="2.35301">
        <ele>239.82670593262</ele>
        <time>2011-06-05T08:34:31Z</time>
      </trkpt>
      <trkpt lat="43.13241" lon="2.35298">
        <ele>239.67456054688</ele>
        <time>2011-06-05T08:34:44Z</time>
      </trkpt>
      <trkpt lat="43.1324" lon="2.35301">
        <ele>239.78358459473</ele>
        <time>2011-06-05T08:35:29Z</time>
      </trkpt>
      <trkpt lat="43.13241" lon="2.35304">
        <ele>239.95831298828</ele>
        <time>2011-06-05T08:35:44Z</time>
      </trkpt>
      <trkpt lat="43.13242" lon="2.35305">
        <ele>240.12265014648</ele>
        <time>2011-06-05T08:35:48Z</time>
      </trkpt>
      <trkpt lat="43.13248" lon="2.35316">
        <ele>241.01216125488</ele>
        <time>2011-06-05T08:36:05Z</time>
      </trkpt>
      <trkpt lat="43.13257" lon="2.35337">
        <ele>242.69473266602</ele>
        <time>2011-06-05T08:36:14Z</time>
      </trkpt>
      <trkpt lat="43.13269" lon="2.35361">
        <ele>245.02874755859</ele>
        <time>2011-06-05T08:36:23Z</time>
      </trkpt>
      <trkpt lat="43.13278" lon="2.35385">
        <ele>247.0964050293</ele>
        <time>2011-06-05T08:36:31Z</time>
      </trkpt>
      <trkpt lat="43.1328" lon="2.35413">
        <ele>248.91459655762</ele>
        <time>2011-06-05T08:36:39Z</time>
      </trkpt>
      <trkpt lat="43.13285" lon="2.35445">
        <ele>250.51371765137</ele>
        <time>2011-06-05T08:36:48Z</time>
      </trkpt>
      <trkpt lat="43.13301" lon="2.35459">
        <ele>252.2131652832</ele>
        <time>2011-06-05T08:36:55Z</time>
      </trkpt>
      <trkpt lat="43.13321" lon="2.35476">
        <ele>254.24992370606</ele>
        <time>2011-06-05T08:37:04Z</time>
      </trkpt>
      <trkpt lat="43.13331" lon="2.35485">
        <ele>255.31851196289</ele>
        <time>2011-06-05T08:37:11Z</time>
      </trkpt>
      <trkpt lat="43.13339" lon="2.35492">
        <ele>254.73439025879</ele>
        <time>2011-06-05T08:37:19Z</time>
      </trkpt>
      <trkpt lat="43.13342" lon="2.35495">
        <ele>254.35986328125</ele>
        <time>2011-06-05T08:37:49Z</time>
      </trkpt>
      <trkpt lat="43.13343" lon="2.35496">
        <ele>254.17854309082</ele>
        <time>2011-06-05T08:37:50Z</time>
      </trkpt>
      <trkpt lat="43.13343" lon="2.35507">
        <ele>254.24743652344</ele>
        <time>2011-06-05T08:37:54Z</time>
      </trkpt>
      <trkpt lat="43.13338" lon="2.35516">
        <ele>255.15977478027</ele>
        <time>2011-06-05T08:37:57Z</time>
      </trkpt>
      <trkpt lat="43.13335" lon="2.35526">
        <ele>255.9489440918</ele>
        <time>2011-06-05T08:38:00Z</time>
      </trkpt>
      <trkpt lat="43.13325" lon="2.35556">
        <ele>256.1506652832</ele>
        <time>2011-06-05T08:38:08Z</time>
      </trkpt>
      <trkpt lat="43.13318" lon="2.35581">
        <ele>256.05926513672</ele>
        <time>2011-06-05T08:38:14Z</time>
      </trkpt>
      <trkpt lat="43.13306" lon="2.35607">
        <ele>254.87762451172</ele>
        <time>2011-06-05T08:38:21Z</time>
      </trkpt>
      <trkpt lat="43.13292" lon="2.35635">
        <ele>254.19273376465</ele>
        <time>2011-06-05T08:38:28Z</time>
      </trkpt>
      <trkpt lat="43.13287" lon="2.35649">
        <ele>254.13725280762</ele>
        <time>2011-06-05T08:38:31Z</time>
      </trkpt>
      <trkpt lat="43.13269" lon="2.35677">
        <ele>254.2473449707</ele>
        <time>2011-06-05T08:38:37Z</time>
      </trkpt>
      <trkpt lat="43.13251" lon="2.35715">
        <ele>254.93113708496</ele>
        <time>2011-06-05T08:38:44Z</time>
      </trkpt>
      <trkpt lat="43.13244" lon="2.35734">
        <ele>255.40074157715</ele>
        <time>2011-06-05T08:38:47Z</time>
      </trkpt>
      <trkpt lat="43.13237" lon="2.35761">
        <ele>256.54183959961</ele>
        <time>2011-06-05T08:38:51Z</time>
      </trkpt>
      <trkpt lat="43.13226" lon="2.3578">
        <ele>258.42758178711</ele>
        <time>2011-06-05T08:38:55Z</time>
      </trkpt>
      <trkpt lat="43.13219" lon="2.35794">
        <ele>259.81381225586</ele>
        <time>2011-06-05T08:38:58Z</time>
      </trkpt>
      <trkpt lat="43.13212" lon="2.35812">
        <ele>261.48754882812</ele>
        <time>2011-06-05T08:39:02Z</time>
      </trkpt>
      <trkpt lat="43.1321" lon="2.35817">
        <ele>261.90148925781</ele>
        <time>2011-06-05T08:39:03Z</time>
      </trkpt>
      <trkpt lat="43.13207" lon="2.35831">
        <ele>263.00341796875</ele>
        <time>2011-06-05T08:39:06Z</time>
      </trkpt>
      <trkpt lat="43.13207" lon="2.35835">
        <ele>263.10342407227</ele>
        <time>2011-06-05T08:39:07Z</time>
      </trkpt>
      <trkpt lat="43.13208" lon="2.35844">
        <ele>262.71563720703</ele>
        <time>2011-06-05T08:39:09Z</time>
      </trkpt>
      <trkpt lat="43.13208" lon="2.3586">
        <ele>262.08013916016</ele>
        <time>2011-06-05T08:39:13Z</time>
      </trkpt>
      <trkpt lat="43.13207" lon="2.35864">
        <ele>262.052734375</ele>
        <time>2011-06-05T08:39:14Z</time>
      </trkpt>
      <trkpt lat="43.13203" lon="2.35896">
        <ele>261.56213378906</ele>
        <time>2011-06-05T08:39:22Z</time>
      </trkpt>
      <trkpt lat="43.1319" lon="2.35923">
        <ele>262.04333496094</ele>
        <time>2011-06-05T08:39:29Z</time>
      </trkpt>
      <trkpt lat="43.13173" lon="2.35947">
        <ele>261.92315673828</ele>
        <time>2011-06-05T08:39:36Z</time>
      </trkpt>
      <trkpt lat="43.13169" lon="2.35951">
        <ele>261.98098754883</ele>
        <time>2011-06-05T08:39:37Z</time>
      </trkpt>
      <trkpt lat="43.13154" lon="2.35956">
        <ele>263.90603637695</ele>
        <time>2011-06-05T08:39:41Z</time>
      </trkpt>
      <trkpt lat="43.13151" lon="2.35953">
        <ele>264.65557861328</ele>
        <time>2011-06-05T08:39:42Z</time>
      </trkpt>
      <trkpt lat="43.1314" lon="2.3595">
        <ele>266.77658081055</ele>
        <time>2011-06-05T08:39:48Z</time>
      </trkpt>
      <trkpt lat="43.13134" lon="2.35951">
        <ele>267.69396972656</ele>
        <time>2011-06-05T08:39:52Z</time>
      </trkpt>
      <trkpt lat="43.13121" lon="2.3595">
        <ele>269.91952514648</ele>
        <time>2011-06-05T08:39:59Z</time>
      </trkpt>
      <trkpt lat="43.1312" lon="2.3595">
        <ele>270.09286499023</ele>
        <time>2011-06-05T08:40:00Z</time>
      </trkpt>
      <trkpt lat="43.13117" lon="2.35947">
        <ele>270.63534545898</ele>
        <time>2011-06-05T08:40:04Z</time>
      </trkpt>
      <trkpt lat="43.13116" lon="2.35946">
        <ele>270.89389038086</ele>
        <time>2011-06-05T08:40:07Z</time>
      </trkpt>
      <trkpt lat="43.13112" lon="2.35944">
        <ele>271.6650390625</ele>
        <time>2011-06-05T08:40:14Z</time>
      </trkpt>
      <trkpt lat="43.13106" lon="2.35941">
        <ele>272.76461791992</ele>
        <time>2011-06-05T08:40:22Z</time>
      </trkpt>
      <trkpt lat="43.13103" lon="2.35935">
        <ele>273.4836730957</ele>
        <time>2011-06-05T08:40:28Z</time>
      </trkpt>
      <trkpt lat="43.13099" lon="2.35924">
        <ele>274.80590820312</ele>
        <time>2011-06-05T08:40:37Z</time>
      </trkpt>
      <trkpt lat="43.1309" lon="2.35921">
        <ele>275.99813842773</ele>
        <time>2011-06-05T08:40:46Z</time>
      </trkpt>
      <trkpt lat="43.13084" lon="2.35925">
        <ele>276.64501953125</ele>
        <time>2011-06-05T08:40:54Z</time>
      </trkpt>
      <trkpt lat="43.13079" lon="2.3593">
        <ele>276.55627441406</ele>
        <time>2011-06-05T08:41:00Z</time>
      </trkpt>
      <trkpt lat="43.13076" lon="2.35931">
        <ele>276.52917480469</ele>
        <time>2011-06-05T08:41:05Z</time>
      </trkpt>
      <trkpt lat="43.13076" lon="2.35932">
        <ele>276.49572753906</ele>
        <time>2011-06-05T08:41:44Z</time>
      </trkpt>
      <trkpt lat="43.13075" lon="2.35933">
        <ele>276.48071289062</ele>
        <time>2011-06-05T08:41:45Z</time>
      </trkpt>
      <trkpt lat="43.13073" lon="2.35936">
        <ele>276.44436645508</ele>
        <time>2011-06-05T08:41:49Z</time>
      </trkpt>
      <trkpt lat="43.13064" lon="2.3595">
        <ele>276.40478515625</ele>
        <time>2011-06-05T08:41:57Z</time>
      </trkpt>
      <trkpt lat="43.13052" lon="2.35965">
        <ele>276.84878540039</ele>
        <time>2011-06-05T08:42:04Z</time>
      </trkpt>
      <trkpt lat="43.13044" lon="2.35979">
        <ele>277.43533325195</ele>
        <time>2011-06-05T08:42:09Z</time>
      </trkpt>
      <trkpt lat="43.1304" lon="2.35994">
        <ele>278.06686401367</ele>
        <time>2011-06-05T08:42:15Z</time>
      </trkpt>
      <trkpt lat="43.1303" lon="2.36008">
        <ele>278.78106689453</ele>
        <time>2011-06-05T08:42:20Z</time>
      </trkpt>
      <trkpt lat="43.13023" lon="2.36026">
        <ele>278.92834472656</ele>
        <time>2011-06-05T08:42:25Z</time>
      </trkpt>
      <trkpt lat="43.13015" lon="2.36038">
        <ele>279.78869628906</ele>
        <time>2011-06-05T08:42:29Z</time>
      </trkpt>
      <trkpt lat="43.13005" lon="2.36053">
        <ele>281.12414550781</ele>
        <time>2011-06-05T08:42:34Z</time>
      </trkpt>
      <trkpt lat="43.13001" lon="2.36066">
        <ele>281.76043701172</ele>
        <time>2011-06-05T08:42:37Z</time>
      </trkpt>
      <trkpt lat="43.12987" lon="2.36075">
        <ele>282.38494873047</ele>
        <time>2011-06-05T08:42:41Z</time>
      </trkpt>
      <trkpt lat="43.12982" lon="2.36076">
        <ele>282.52862548828</ele>
        <time>2011-06-05T08:42:42Z</time>
      </trkpt>
      <trkpt lat="43.1296" lon="2.36085">
        <ele>283.34951782227</ele>
        <time>2011-06-05T08:42:48Z</time>
      </trkpt>
      <trkpt lat="43.12939" lon="2.3609">
        <ele>283.90512084961</ele>
        <time>2011-06-05T08:42:55Z</time>
      </trkpt>
      <trkpt lat="43.12923" lon="2.36095">
        <ele>284.60995483398</ele>
        <time>2011-06-05T08:43:01Z</time>
      </trkpt>
      <trkpt lat="43.12917" lon="2.36108">
        <ele>284.94555664062</ele>
        <time>2011-06-05T08:43:06Z</time>
      </trkpt>
      <trkpt lat="43.12912" lon="2.36127">
        <ele>284.70864868164</ele>
        <time>2011-06-05T08:43:11Z</time>
      </trkpt>
      <trkpt lat="43.12905" lon="2.36142">
        <ele>284.60522460938</ele>
        <time>2011-06-05T08:43:15Z</time>
      </trkpt>
      <trkpt lat="43.12886" lon="2.36178">
        <ele>285.19381713867</ele>
        <time>2011-06-05T08:43:25Z</time>
      </trkpt>
      <trkpt lat="43.12869" lon="2.36208">
        <ele>286.29837036133</ele>
        <time>2011-06-05T08:43:33Z</time>
      </trkpt>
      <trkpt lat="43.12851" lon="2.36237">
        <ele>289.37200927734</ele>
        <time>2011-06-05T08:43:41Z</time>
      </trkpt>
      <trkpt lat="43.12843" lon="2.36245">
        <ele>291.06918334961</ele>
        <time>2011-06-05T08:43:44Z</time>
      </trkpt>
      <trkpt lat="43.12824" lon="2.36244">
        <ele>292.65518188477</ele>
        <time>2011-06-05T08:43:50Z</time>
      </trkpt>
      <trkpt lat="43.12805" lon="2.36248">
        <ele>293.53359985352</ele>
        <time>2011-06-05T08:43:55Z</time>
      </trkpt>
      <trkpt lat="43.12764" lon="2.36247">
        <ele>294.27130126953</ele>
        <time>2011-06-05T08:44:02Z</time>
      </trkpt>
      <trkpt lat="43.12748" lon="2.36244">
        <ele>294.20590209961</ele>
        <time>2011-06-05T08:44:06Z</time>
      </trkpt>
      <trkpt lat="43.12737" lon="2.36237">
        <ele>293.23510742188</ele>
        <time>2011-06-05T08:44:09Z</time>
      </trkpt>
      <trkpt lat="43.1271" lon="2.36206">
        <ele>288.68368530273</ele>
        <time>2011-06-05T08:44:16Z</time>
      </trkpt>
      <trkpt lat="43.12691" lon="2.36194">
        <ele>286.6969909668</ele>
        <time>2011-06-05T08:44:21Z</time>
      </trkpt>
      <trkpt lat="43.12656" lon="2.36194">
        <ele>285.12069702148</ele>
        <time>2011-06-05T08:44:26Z</time>
      </trkpt>
      <trkpt lat="43.12617" lon="2.36189">
        <ele>279.85491943359</ele>
        <time>2011-06-05T08:44:30Z</time>
      </trkpt>
      <trkpt lat="43.12584" lon="2.3618">
        <ele>274.89157104492</ele>
        <time>2011-06-05T08:44:34Z</time>
      </trkpt>
      <trkpt lat="43.12566" lon="2.36187">
        <ele>274.23342895508</ele>
        <time>2011-06-05T08:44:38Z</time>
      </trkpt>
      <trkpt lat="43.12563" lon="2.36189">
        <ele>274.3193359375</ele>
        <time>2011-06-05T08:44:39Z</time>
      </trkpt>
      <trkpt lat="43.12542" lon="2.36205">
        <ele>274.33963012695</ele>
        <time>2011-06-05T08:44:46Z</time>
      </trkpt>
      <trkpt lat="43.12518" lon="2.36213">
        <ele>273.13903808594</ele>
        <time>2011-06-05T08:44:52Z</time>
      </trkpt>
      <trkpt lat="43.12513" lon="2.36215">
        <ele>272.84417724609</ele>
        <time>2011-06-05T08:44:53Z</time>
      </trkpt>
      <trkpt lat="43.12488" lon="2.36222">
        <ele>271.00390625</ele>
        <time>2011-06-05T08:44:58Z</time>
      </trkpt>
      <trkpt lat="43.12472" lon="2.36214">
        <ele>268.61303710938</ele>
        <time>2011-06-05T08:45:01Z</time>
      </trkpt>
      <trkpt lat="43.12467" lon="2.36206">
        <ele>267.44583129883</ele>
        <time>2011-06-05T08:45:02Z</time>
      </trkpt>
      <trkpt lat="43.12458" lon="2.36187">
        <ele>265.01620483398</ele>
        <time>2011-06-05T08:45:04Z</time>
      </trkpt>
      <trkpt lat="43.1244" lon="2.3616">
        <ele>261.80212402344</ele>
        <time>2011-06-05T08:45:07Z</time>
      </trkpt>
      <trkpt lat="43.12424" lon="2.36117">
        <ele>259.3874206543</ele>
        <time>2011-06-05T08:45:11Z</time>
      </trkpt>
      <trkpt lat="43.12396" lon="2.36082">
        <ele>256.25582885742</ele>
        <time>2011-06-05T08:45:15Z</time>
      </trkpt>
      <trkpt lat="43.12388" lon="2.36074">
        <ele>255.61708068848</ele>
        <time>2011-06-05T08:45:16Z</time>
      </trkpt>
      <trkpt lat="43.12354" lon="2.36054">
        <ele>252.98805236816</ele>
        <time>2011-06-05T08:45:20Z</time>
      </trkpt>
      <trkpt lat="43.12346" lon="2.3605">
        <ele>252.42140197754</ele>
        <time>2011-06-05T08:45:21Z</time>
      </trkpt>
      <trkpt lat="43.12324" lon="2.36027">
        <ele>250.85986328125</ele>
        <time>2011-06-05T08:45:25Z</time>
      </trkpt>
      <trkpt lat="43.12315" lon="2.35994">
        <ele>250.12593078613</ele>
        <time>2011-06-05T08:45:29Z</time>
      </trkpt>
      <trkpt lat="43.12316" lon="2.35951">
        <ele>250.97993469238</ele>
        <time>2011-06-05T08:45:34Z</time>
      </trkpt>
      <trkpt lat="43.12311" lon="2.35926">
        <ele>250.96325683594</ele>
        <time>2011-06-05T08:45:37Z</time>
      </trkpt>
      <trkpt lat="43.12297" lon="2.35924">
        <ele>249.82579040527</ele>
        <time>2011-06-05T08:45:39Z</time>
      </trkpt>
      <trkpt lat="43.1229" lon="2.35927">
        <ele>249.08795166016</ele>
        <time>2011-06-05T08:45:40Z</time>
      </trkpt>
      <trkpt lat="43.12274" lon="2.35935">
        <ele>247.48622131348</ele>
        <time>2011-06-05T08:45:42Z</time>
      </trkpt>
      <trkpt lat="43.12235" lon="2.3594">
        <ele>243.40724182129</ele>
        <time>2011-06-05T08:45:46Z</time>
      </trkpt>
      <trkpt lat="43.12215" lon="2.35939">
        <ele>241.11833190918</ele>
        <time>2011-06-05T08:45:48Z</time>
      </trkpt>
      <trkpt lat="43.12183" lon="2.35952">
        <ele>236.53497314453</ele>
        <time>2011-06-05T08:45:52Z</time>
      </trkpt>
      <trkpt lat="43.1217" lon="2.35947">
        <ele>235.20471191406</ele>
        <time>2011-06-05T08:45:54Z</time>
      </trkpt>
      <trkpt lat="43.12165" lon="2.35941">
        <ele>234.98701477051</ele>
        <time>2011-06-05T08:45:55Z</time>
      </trkpt>
      <trkpt lat="43.12156" lon="2.35925">
        <ele>234.77992248535</ele>
        <time>2011-06-05T08:45:58Z</time>
      </trkpt>
      <trkpt lat="43.12138" lon="2.35897">
        <ele>235.04113769531</ele>
        <time>2011-06-05T08:46:05Z</time>
      </trkpt>
      <trkpt lat="43.12131" lon="2.35883">
        <ele>235.61976623535</ele>
        <time>2011-06-05T08:46:09Z</time>
      </trkpt>
      <trkpt lat="43.12123" lon="2.35866">
        <ele>236.49861145019</ele>
        <time>2011-06-05T08:46:14Z</time>
      </trkpt>
      <trkpt lat="43.12119" lon="2.35848">
        <ele>238.15440368652</ele>
        <time>2011-06-05T08:46:19Z</time>
      </trkpt>
      <trkpt lat="43.12115" lon="2.35835">
        <ele>239.26310729981</ele>
        <time>2011-06-05T08:46:24Z</time>
      </trkpt>
      <trkpt lat="43.12115" lon="2.35824">
        <ele>239.57318115234</ele>
        <time>2011-06-05T08:46:31Z</time>
      </trkpt>
      <trkpt lat="43.12114" lon="2.35817">
        <ele>239.65919494629</ele>
        <time>2011-06-05T08:46:36Z</time>
      </trkpt>
      <trkpt lat="43.12115" lon="2.35805">
        <ele>239.943359375</ele>
        <time>2011-06-05T08:46:44Z</time>
      </trkpt>
      <trkpt lat="43.12117" lon="2.3579">
        <ele>240.42544555664</ele>
        <time>2011-06-05T08:46:50Z</time>
      </trkpt>
      <trkpt lat="43.1212" lon="2.35771">
        <ele>241.17221069336</ele>
        <time>2011-06-05T08:46:57Z</time>
      </trkpt>
      <trkpt lat="43.12123" lon="2.35748">
        <ele>241.88737487793</ele>
        <time>2011-06-05T08:47:04Z</time>
      </trkpt>
      <trkpt lat="43.12122" lon="2.35724">
        <ele>242.85530090332</ele>
        <time>2011-06-05T08:47:10Z</time>
      </trkpt>
      <trkpt lat="43.12119" lon="2.35701">
        <ele>243.53332519531</ele>
        <time>2011-06-05T08:47:16Z</time>
      </trkpt>
      <trkpt lat="43.12115" lon="2.35673">
        <ele>244.37841796875</ele>
        <time>2011-06-05T08:47:22Z</time>
      </trkpt>
      <trkpt lat="43.12111" lon="2.35641">
        <ele>245.31181335449</ele>
        <time>2011-06-05T08:47:29Z</time>
      </trkpt>
      <trkpt lat="43.12108" lon="2.35617">
        <ele>246.02667236328</ele>
        <time>2011-06-05T08:47:35Z</time>
      </trkpt>
      <trkpt lat="43.12106" lon="2.35603">
        <ele>246.39468383789</ele>
        <time>2011-06-05T08:47:39Z</time>
      </trkpt>
      <trkpt lat="43.12103" lon="2.35581">
        <ele>246.9587097168</ele>
        <time>2011-06-05T08:47:46Z</time>
      </trkpt>
      <trkpt lat="43.12102" lon="2.35557">
        <ele>247.25616455078</ele>
        <time>2011-06-05T08:47:52Z</time>
      </trkpt>
      <trkpt lat="43.121" lon="2.35548">
        <ele>247.2209777832</ele>
        <time>2011-06-05T08:47:56Z</time>
      </trkpt>
      <trkpt lat="43.121" lon="2.35539">
        <ele>247.32034301758</ele>
        <time>2011-06-05T08:48:00Z</time>
      </trkpt>
      <trkpt lat="43.12098" lon="2.35515">
        <ele>247.46688842773</ele>
        <time>2011-06-05T08:48:07Z</time>
      </trkpt>
      <trkpt lat="43.12096" lon="2.3549">
        <ele>247.7502746582</ele>
        <time>2011-06-05T08:48:13Z</time>
      </trkpt>
      <trkpt lat="43.12095" lon="2.35472">
        <ele>248.25845336914</ele>
        <time>2011-06-05T08:48:18Z</time>
      </trkpt>
      <trkpt lat="43.12095" lon="2.3544">
        <ele>249.49600219727</ele>
        <time>2011-06-05T08:48:24Z</time>
      </trkpt>
      <trkpt lat="43.12098" lon="2.35404">
        <ele>251.30509948731</ele>
        <time>2011-06-05T08:48:31Z</time>
      </trkpt>
      <trkpt lat="43.12104" lon="2.35366">
        <ele>253.62651062012</ele>
        <time>2011-06-05T08:48:39Z</time>
      </trkpt>
      <trkpt lat="43.12112" lon="2.35342">
        <ele>255.06974792481</ele>
        <time>2011-06-05T08:48:45Z</time>
      </trkpt>
      <trkpt lat="43.12119" lon="2.35321">
        <ele>256.56784057617</ele>
        <time>2011-06-05T08:48:50Z</time>
      </trkpt>
      <trkpt lat="43.12125" lon="2.35294">
        <ele>258.60360717773</ele>
        <time>2011-06-05T08:48:57Z</time>
      </trkpt>
      <trkpt lat="43.12129" lon="2.3527">
        <ele>260.18414306641</ele>
        <time>2011-06-05T08:49:04Z</time>
      </trkpt>
      <trkpt lat="43.12133" lon="2.35248">
        <ele>261.44616699219</ele>
        <time>2011-06-05T08:49:10Z</time>
      </trkpt>
      <trkpt lat="43.12137" lon="2.35225">
        <ele>261.97402954102</ele>
        <time>2011-06-05T08:49:16Z</time>
      </trkpt>
      <trkpt lat="43.12139" lon="2.35214">
        <ele>262.19537353516</ele>
        <time>2011-06-05T08:49:19Z</time>
      </trkpt>
      <trkpt lat="43.12141" lon="2.35194">
        <ele>262.59033203125</ele>
        <time>2011-06-05T08:49:24Z</time>
      </trkpt>
      <trkpt lat="43.12144" lon="2.35156">
        <ele>262.55908203125</ele>
        <time>2011-06-05T08:49:33Z</time>
      </trkpt>
      <trkpt lat="43.12138" lon="2.35132">
        <ele>261.84210205078</ele>
        <time>2011-06-05T08:49:39Z</time>
      </trkpt>
      <trkpt lat="43.12128" lon="2.35103">
        <ele>261.7360534668</ele>
        <time>2011-06-05T08:49:45Z</time>
      </trkpt>
      <trkpt lat="43.12126" lon="2.35081">
        <ele>261.36071777344</ele>
        <time>2011-06-05T08:49:50Z</time>
      </trkpt>
      <trkpt lat="43.1213" lon="2.35056">
        <ele>261.18002319336</ele>
        <time>2011-06-05T08:49:57Z</time>
      </trkpt>
      <trkpt lat="43.12132" lon="2.35045">
        <ele>261.11801147461</ele>
        <time>2011-06-05T08:50:00Z</time>
      </trkpt>
      <trkpt lat="43.12124" lon="2.35039">
        <ele>261.83181762695</ele>
        <time>2011-06-05T08:50:04Z</time>
      </trkpt>
      <trkpt lat="43.1211" lon="2.35042">
        <ele>263.1279296875</ele>
        <time>2011-06-05T08:50:11Z</time>
      </trkpt>
      <trkpt lat="43.12101" lon="2.35055">
        <ele>264.19946289062</ele>
        <time>2011-06-05T08:50:16Z</time>
      </trkpt>
      <trkpt lat="43.12088" lon="2.35069">
        <ele>265.96633911133</ele>
        <time>2011-06-05T08:50:22Z</time>
      </trkpt>
      <trkpt lat="43.12078" lon="2.3507">
        <ele>266.51779174805</ele>
        <time>2011-06-05T08:50:25Z</time>
      </trkpt>
      <trkpt lat="43.12061" lon="2.35064">
        <ele>266.46899414062</ele>
        <time>2011-06-05T08:50:30Z</time>
      </trkpt>
      <trkpt lat="43.12035" lon="2.35057">
        <ele>266.75881958008</ele>
        <time>2011-06-05T08:50:37Z</time>
      </trkpt>
      <trkpt lat="43.12017" lon="2.35054">
        <ele>267.08950805664</ele>
        <time>2011-06-05T08:50:42Z</time>
      </trkpt>
      <trkpt lat="43.12008" lon="2.35048">
        <ele>267.51986694336</ele>
        <time>2011-06-05T08:50:46Z</time>
      </trkpt>
      <trkpt lat="43.11992" lon="2.35019">
        <ele>269.54946899414</ele>
        <time>2011-06-05T08:50:53Z</time>
      </trkpt>
      <trkpt lat="43.11974" lon="2.34985">
        <ele>272.42330932617</ele>
        <time>2011-06-05T08:51:02Z</time>
      </trkpt>
      <trkpt lat="43.11959" lon="2.34957">
        <ele>274.72171020508</ele>
        <time>2011-06-05T08:51:10Z</time>
      </trkpt>
      <trkpt lat="43.11949" lon="2.34941">
        <ele>276.42373657227</ele>
        <time>2011-06-05T08:51:15Z</time>
      </trkpt>
      <trkpt lat="43.11939" lon="2.3493">
        <ele>277.88662719727</ele>
        <time>2011-06-05T08:51:19Z</time>
      </trkpt>
      <trkpt lat="43.11926" lon="2.34922">
        <ele>279.72247314453</ele>
        <time>2011-06-05T08:51:24Z</time>
      </trkpt>
      <trkpt lat="43.11909" lon="2.34915">
        <ele>281.08294677734</ele>
        <time>2011-06-05T08:51:30Z</time>
      </trkpt>
      <trkpt lat="43.11893" lon="2.3491">
        <ele>281.32202148438</ele>
        <time>2011-06-05T08:51:36Z</time>
      </trkpt>
      <trkpt lat="43.11874" lon="2.34904">
        <ele>281.51644897461</ele>
        <time>2011-06-05T08:51:43Z</time>
      </trkpt>
      <trkpt lat="43.11865" lon="2.34904">
        <ele>281.47634887695</ele>
        <time>2011-06-05T08:51:47Z</time>
      </trkpt>
      <trkpt lat="43.11857" lon="2.34901">
        <ele>281.53839111328</ele>
        <time>2011-06-05T08:51:54Z</time>
      </trkpt>
      <trkpt lat="43.11857" lon="2.34905">
        <ele>281.41088867188</ele>
        <time>2011-06-05T09:01:37Z</time>
      </trkpt>
      <trkpt lat="43.11857" lon="2.34905">
        <ele>281.41088867188</ele>
        <time>2011-06-05T09:01:38Z</time>
      </trkpt>
      <trkpt lat="43.1186" lon="2.34905">
        <ele>281.41937255859</ele>
        <time>2011-06-05T09:02:11Z</time>
      </trkpt>
      <trkpt lat="43.1186" lon="2.34905">
        <ele>281.41516113281</ele>
        <time>2011-06-05T09:02:12Z</time>
      </trkpt>
      <trkpt lat="43.11872" lon="2.34907">
        <ele>281.38040161133</ele>
        <time>2011-06-05T09:03:18Z</time>
      </trkpt>
      <trkpt lat="43.11871" lon="2.34918">
        <ele>280.95056152344</ele>
        <time>2011-06-05T09:03:21Z</time>
      </trkpt>
      <trkpt lat="43.11869" lon="2.34921">
        <ele>280.76428222656</ele>
        <time>2011-06-05T09:03:22Z</time>
      </trkpt>
      <trkpt lat="43.11865" lon="2.34934">
        <ele>280.08953857422</ele>
        <time>2011-06-05T09:03:25Z</time>
      </trkpt>
      <trkpt lat="43.11858" lon="2.34955">
        <ele>279.01684570312</ele>
        <time>2011-06-05T09:03:29Z</time>
      </trkpt>
      <trkpt lat="43.11855" lon="2.34966">
        <ele>278.47015380859</ele>
        <time>2011-06-05T09:03:31Z</time>
      </trkpt>
      <trkpt lat="43.11855" lon="2.35">
        <ele>276.74584960938</ele>
        <time>2011-06-05T09:03:36Z</time>
      </trkpt>
      <trkpt lat="43.11846" lon="2.35017">
        <ele>275.18988037109</ele>
        <time>2011-06-05T09:03:40Z</time>
      </trkpt>
      <trkpt lat="43.11832" lon="2.35026">
        <ele>274.38534545898</ele>
        <time>2011-06-05T09:03:43Z</time>
      </trkpt>
      <trkpt lat="43.118" lon="2.35052">
        <ele>268.3249206543</ele>
        <time>2011-06-05T09:03:50Z</time>
      </trkpt>
      <trkpt lat="43.11781" lon="2.35067">
        <ele>265.20349121094</ele>
        <time>2011-06-05T09:03:54Z</time>
      </trkpt>
      <trkpt lat="43.1178" lon="2.35075">
        <ele>264.52572631836</ele>
        <time>2011-06-05T09:03:58Z</time>
      </trkpt>
      <trkpt lat="43.11781" lon="2.35077">
        <ele>264.46362304688</ele>
        <time>2011-06-05T09:03:59Z</time>
      </trkpt>
      <trkpt lat="43.11787" lon="2.35092">
        <ele>263.28717041016</ele>
        <time>2011-06-05T09:04:05Z</time>
      </trkpt>
      <trkpt lat="43.11796" lon="2.3512">
        <ele>260.20700073242</ele>
        <time>2011-06-05T09:04:13Z</time>
      </trkpt>
      <trkpt lat="43.11799" lon="2.35135">
        <ele>258.59796142578</ele>
        <time>2011-06-05T09:04:16Z</time>
      </trkpt>
      <trkpt lat="43.11796" lon="2.35168">
        <ele>253.57867431641</ele>
        <time>2011-06-05T09:04:21Z</time>
      </trkpt>
      <trkpt lat="43.11795" lon="2.35183">
        <ele>251.55615234375</ele>
        <time>2011-06-05T09:04:23Z</time>
      </trkpt>
      <trkpt lat="43.11796" lon="2.35212">
        <ele>248.078125</ele>
        <time>2011-06-05T09:04:27Z</time>
      </trkpt>
      <trkpt lat="43.11798" lon="2.35226">
        <ele>246.72494506836</ele>
        <time>2011-06-05T09:04:29Z</time>
      </trkpt>
      <trkpt lat="43.11797" lon="2.35239">
        <ele>244.78704833984</ele>
        <time>2011-06-05T09:04:32Z</time>
      </trkpt>
      <trkpt lat="43.11791" lon="2.35236">
        <ele>244.1301574707</ele>
        <time>2011-06-05T09:04:34Z</time>
      </trkpt>
      <trkpt lat="43.11788" lon="2.35228">
        <ele>244.53749084473</ele>
        <time>2011-06-05T09:04:36Z</time>
      </trkpt>
      <trkpt lat="43.11783" lon="2.35209">
        <ele>246.13027954102</ele>
        <time>2011-06-05T09:04:40Z</time>
      </trkpt>
      <trkpt lat="43.11774" lon="2.35184">
        <ele>247.82737731934</ele>
        <time>2011-06-05T09:04:45Z</time>
      </trkpt>
      <trkpt lat="43.11768" lon="2.35189">
        <ele>246.1258392334</ele>
        <time>2011-06-05T09:04:49Z</time>
      </trkpt>
      <trkpt lat="43.11771" lon="2.35209">
        <ele>244.18710327148</ele>
        <time>2011-06-05T09:04:52Z</time>
      </trkpt>
      <trkpt lat="43.1177" lon="2.35267">
        <ele>236.25366210938</ele>
        <time>2011-06-05T09:04:57Z</time>
      </trkpt>
      <trkpt lat="43.1177" lon="2.35303">
        <ele>231.32225036621</ele>
        <time>2011-06-05T09:05:00Z</time>
      </trkpt>
      <trkpt lat="43.11773" lon="2.35323">
        <ele>229.07426452637</ele>
        <time>2011-06-05T09:05:02Z</time>
      </trkpt>
      <trkpt lat="43.1177" lon="2.35337">
        <ele>226.43228149414</ele>
        <time>2011-06-05T09:05:05Z</time>
      </trkpt>
      <trkpt lat="43.11764" lon="2.35332">
        <ele>226.00944519043</ele>
        <time>2011-06-05T09:05:07Z</time>
      </trkpt>
      <trkpt lat="43.11761" lon="2.35327">
        <ele>226.16743469238</ele>
        <time>2011-06-05T09:05:08Z</time>
      </trkpt>
      <trkpt lat="43.11743" lon="2.35286">
        <ele>228.11811828613</ele>
        <time>2011-06-05T09:05:14Z</time>
      </trkpt>
      <trkpt lat="43.1174" lon="2.35277">
        <ele>228.42228698731</ele>
        <time>2011-06-05T09:05:15Z</time>
      </trkpt>
      <trkpt lat="43.11728" lon="2.35246">
        <ele>229.29493713379</ele>
        <time>2011-06-05T09:05:18Z</time>
      </trkpt>
      <trkpt lat="43.11704" lon="2.35214">
        <ele>227.47749328613</ele>
        <time>2011-06-05T09:05:22Z</time>
      </trkpt>
      <trkpt lat="43.1169" lon="2.35215">
        <ele>223.43380737305</ele>
        <time>2011-06-05T09:05:25Z</time>
      </trkpt>
      <trkpt lat="43.11687" lon="2.35219">
        <ele>221.96122741699</ele>
        <time>2011-06-05T09:05:26Z</time>
      </trkpt>
      <trkpt lat="43.11671" lon="2.35225">
        <ele>216.56370544434</ele>
        <time>2011-06-05T09:05:31Z</time>
      </trkpt>
      <trkpt lat="43.11669" lon="2.35223">
        <ele>216.43379211426</ele>
        <time>2011-06-05T09:05:32Z</time>
      </trkpt>
      <trkpt lat="43.11662" lon="2.35215">
        <ele>216.79090881348</ele>
        <time>2011-06-05T09:05:35Z</time>
      </trkpt>
      <trkpt lat="43.11647" lon="2.35215">
        <ele>215.13246154785</ele>
        <time>2011-06-05T09:05:39Z</time>
      </trkpt>
      <trkpt lat="43.11625" lon="2.35241">
        <ele>208.83108520508</ele>
        <time>2011-06-05T09:05:46Z</time>
      </trkpt>
      <trkpt lat="43.11628" lon="2.35256">
        <ele>207.52157592773</ele>
        <time>2011-06-05T09:05:50Z</time>
      </trkpt>
      <trkpt lat="43.1163" lon="2.35259">
        <ele>207.54760742188</ele>
        <time>2011-06-05T09:05:51Z</time>
      </trkpt>
      <trkpt lat="43.11641" lon="2.35276">
        <ele>207.67770385742</ele>
        <time>2011-06-05T09:05:59Z</time>
      </trkpt>
      <trkpt lat="43.11652" lon="2.35294">
        <ele>207.70088195801</ele>
        <time>2011-06-05T09:06:05Z</time>
      </trkpt>
      <trkpt lat="43.11669" lon="2.35323">
        <ele>208.02481079102</ele>
        <time>2011-06-05T09:06:12Z</time>
      </trkpt>
      <trkpt lat="43.11687" lon="2.35351">
        <ele>209.74603271484</ele>
        <time>2011-06-05T09:06:19Z</time>
      </trkpt>
      <trkpt lat="43.11695" lon="2.35365">
        <ele>210.23875427246</ele>
        <time>2011-06-05T09:06:24Z</time>
      </trkpt>
      <trkpt lat="43.11712" lon="2.35387">
        <ele>210.57675170898</ele>
        <time>2011-06-05T09:06:30Z</time>
      </trkpt>
      <trkpt lat="43.11725" lon="2.35398">
        <ele>211.04258728027</ele>
        <time>2011-06-05T09:06:34Z</time>
      </trkpt>
      <trkpt lat="43.11733" lon="2.35402">
        <ele>211.40643310547</ele>
        <time>2011-06-05T09:06:36Z</time>
      </trkpt>
      <trkpt lat="43.11769" lon="2.35415">
        <ele>214.33636474609</ele>
        <time>2011-06-05T09:06:45Z</time>
      </trkpt>
      <trkpt lat="43.11807" lon="2.35429">
        <ele>218.33335876465</ele>
        <time>2011-06-05T09:06:54Z</time>
      </trkpt>
      <trkpt lat="43.1185" lon="2.35446">
        <ele>221.18194580078</ele>
        <time>2011-06-05T09:07:04Z</time>
      </trkpt>
      <trkpt lat="43.11887" lon="2.35467">
        <ele>222.38508605957</ele>
        <time>2011-06-05T09:07:13Z</time>
      </trkpt>
      <trkpt lat="43.1192" lon="2.35493">
        <ele>220.45004272461</ele>
        <time>2011-06-05T09:07:21Z</time>
      </trkpt>
      <trkpt lat="43.11931" lon="2.35503">
        <ele>220.24041748047</ele>
        <time>2011-06-05T09:07:24Z</time>
      </trkpt>
      <trkpt lat="43.11967" lon="2.35546">
        <ele>222.77647399902</ele>
        <time>2011-06-05T09:07:34Z</time>
      </trkpt>
      <trkpt lat="43.11977" lon="2.35577">
        <ele>222.40802001953</ele>
        <time>2011-06-05T09:07:39Z</time>
      </trkpt>
      <trkpt lat="43.11978" lon="2.35584">
        <ele>221.93026733398</ele>
        <time>2011-06-05T09:07:40Z</time>
      </trkpt>
      <trkpt lat="43.11975" lon="2.35656">
        <ele>221.06237792969</ele>
        <time>2011-06-05T09:07:51Z</time>
      </trkpt>
      <trkpt lat="43.11972" lon="2.35713">
        <ele>220.84686279297</ele>
        <time>2011-06-05T09:08:00Z</time>
      </trkpt>
      <trkpt lat="43.11974" lon="2.3577">
        <ele>220.47859191894</ele>
        <time>2011-06-05T09:08:09Z</time>
      </trkpt>
      <trkpt lat="43.11977" lon="2.35807">
        <ele>218.8298034668</ele>
        <time>2011-06-05T09:08:15Z</time>
      </trkpt>
      <trkpt lat="43.11977" lon="2.35829">
        <ele>217.53289794922</ele>
        <time>2011-06-05T09:08:20Z</time>
      </trkpt>
      <trkpt lat="43.11972" lon="2.35822">
        <ele>217.30023193359</ele>
        <time>2011-06-05T09:08:23Z</time>
      </trkpt>
      <trkpt lat="43.11962" lon="2.35798">
        <ele>217.03346252441</ele>
        <time>2011-06-05T09:08:27Z</time>
      </trkpt>
      <trkpt lat="43.11955" lon="2.35792">
        <ele>216.24333190918</ele>
        <time>2011-06-05T09:08:28Z</time>
      </trkpt>
      <trkpt lat="43.11902" lon="2.35739">
        <ele>209.14730834961</ele>
        <time>2011-06-05T09:08:35Z</time>
      </trkpt>
      <trkpt lat="43.11872" lon="2.35709">
        <ele>207.70909118652</ele>
        <time>2011-06-05T09:08:39Z</time>
      </trkpt>
      <trkpt lat="43.11861" lon="2.35696">
        <ele>207.35482788086</ele>
        <time>2011-06-05T09:08:42Z</time>
      </trkpt>
      <trkpt lat="43.11858" lon="2.35693">
        <ele>207.2825012207</ele>
        <time>2011-06-05T09:08:46Z</time>
      </trkpt>
      <trkpt lat="43.11856" lon="2.35691">
        <ele>207.24401855469</ele>
        <time>2011-06-05T09:08:51Z</time>
      </trkpt>
      <trkpt lat="43.11853" lon="2.35686">
        <ele>207.16381835938</ele>
        <time>2011-06-05T09:08:58Z</time>
      </trkpt>
      <trkpt lat="43.11851" lon="2.35685">
        <ele>207.13786315918</ele>
        <time>2011-06-05T09:09:02Z</time>
      </trkpt>
      <trkpt lat="43.11849" lon="2.35683">
        <ele>207.10868835449</ele>
        <time>2011-06-05T09:09:07Z</time>
      </trkpt>
      <trkpt lat="43.11844" lon="2.35675">
        <ele>207.03979492188</ele>
        <time>2011-06-05T09:09:13Z</time>
      </trkpt>
      <trkpt lat="43.11837" lon="2.35663">
        <ele>207.00202941894</ele>
        <time>2011-06-05T09:09:19Z</time>
      </trkpt>
      <trkpt lat="43.1183" lon="2.35652">
        <ele>207.1837310791</ele>
        <time>2011-06-05T09:09:24Z</time>
      </trkpt>
      <trkpt lat="43.1182" lon="2.35645">
        <ele>207.67695617676</ele>
        <time>2011-06-05T09:09:29Z</time>
      </trkpt>
      <trkpt lat="43.11804" lon="2.3564">
        <ele>208.31971740723</ele>
        <time>2011-06-05T09:09:36Z</time>
      </trkpt>
      <trkpt lat="43.11794" lon="2.35635">
        <ele>208.59260559082</ele>
        <time>2011-06-05T09:09:40Z</time>
      </trkpt>
      <trkpt lat="43.11779" lon="2.3563">
        <ele>208.90586853027</ele>
        <time>2011-06-05T09:09:45Z</time>
      </trkpt>
      <trkpt lat="43.11761" lon="2.3563">
        <ele>209.53257751465</ele>
        <time>2011-06-05T09:09:50Z</time>
      </trkpt>
      <trkpt lat="43.11726" lon="2.35629">
        <ele>211.09231567383</ele>
        <time>2011-06-05T09:09:58Z</time>
      </trkpt>
      <trkpt lat="43.11694" lon="2.35625">
        <ele>212.18064880371</ele>
        <time>2011-06-05T09:10:05Z</time>
      </trkpt>
      <trkpt lat="43.11668" lon="2.35619">
        <ele>212.5832824707</ele>
        <time>2011-06-05T09:10:11Z</time>
      </trkpt>
      <trkpt lat="43.11647" lon="2.35611">
        <ele>214.59945678711</ele>
        <time>2011-06-05T09:10:16Z</time>
      </trkpt>
      <trkpt lat="43.11616" lon="2.35585">
        <ele>214.66448974609</ele>
        <time>2011-06-05T09:10:24Z</time>
      </trkpt>
      <trkpt lat="43.11588" lon="2.35562">
        <ele>214.6276550293</ele>
        <time>2011-06-05T09:10:31Z</time>
      </trkpt>
      <trkpt lat="43.11556" lon="2.35544">
        <ele>214.78248596191</ele>
        <time>2011-06-05T09:10:39Z</time>
      </trkpt>
      <trkpt lat="43.11535" lon="2.35522">
        <ele>212.74406433106</ele>
        <time>2011-06-05T09:10:45Z</time>
      </trkpt>
      <trkpt lat="43.11505" lon="2.3549">
        <ele>210.05166625977</ele>
        <time>2011-06-05T09:10:53Z</time>
      </trkpt>
      <trkpt lat="43.11485" lon="2.35465">
        <ele>208.28681945801</ele>
        <time>2011-06-05T09:10:59Z</time>
      </trkpt>
      <trkpt lat="43.11464" lon="2.3546">
        <ele>209.26167297363</ele>
        <time>2011-06-05T09:11:03Z</time>
      </trkpt>
      <trkpt lat="43.11444" lon="2.35452">
        <ele>209.93611145019</ele>
        <time>2011-06-05T09:11:07Z</time>
      </trkpt>
      <trkpt lat="43.11421" lon="2.35431">
        <ele>209.25444030762</ele>
        <time>2011-06-05T09:11:14Z</time>
      </trkpt>
      <trkpt lat="43.11404" lon="2.3542">
        <ele>210.22932434082</ele>
        <time>2011-06-05T09:11:19Z</time>
      </trkpt>
      <trkpt lat="43.11383" lon="2.3541">
        <ele>211.96736145019</ele>
        <time>2011-06-05T09:11:25Z</time>
      </trkpt>
      <trkpt lat="43.11359" lon="2.35392">
        <ele>212.65861511231</ele>
        <time>2011-06-05T09:11:32Z</time>
      </trkpt>
      <trkpt lat="43.11338" lon="2.35378">
        <ele>213.01490783691</ele>
        <time>2011-06-05T09:11:37Z</time>
      </trkpt>
      <trkpt lat="43.11329" lon="2.3537">
        <ele>212.72088623047</ele>
        <time>2011-06-05T09:11:39Z</time>
      </trkpt>
      <trkpt lat="43.11319" lon="2.35356">
        <ele>211.76818847656</ele>
        <time>2011-06-05T09:11:42Z</time>
      </trkpt>
      <trkpt lat="43.11302" lon="2.35322">
        <ele>209.01083374023</ele>
        <time>2011-06-05T09:11:49Z</time>
      </trkpt>
      <trkpt lat="43.11283" lon="2.35312">
        <ele>209.97109985352</ele>
        <time>2011-06-05T09:11:54Z</time>
      </trkpt>
      <trkpt lat="43.1125" lon="2.3531">
        <ele>213.82086181641</ele>
        <time>2011-06-05T09:12:02Z</time>
      </trkpt>
      <trkpt lat="43.11216" lon="2.35297">
        <ele>212.86076354981</ele>
        <time>2011-06-05T09:12:10Z</time>
      </trkpt>
      <trkpt lat="43.11209" lon="2.35294">
        <ele>212.62875366211</ele>
        <time>2011-06-05T09:12:12Z</time>
      </trkpt>
      <trkpt lat="43.11185" lon="2.35295">
        <ele>213.71675109863</ele>
        <time>2011-06-05T09:12:18Z</time>
      </trkpt>
      <trkpt lat="43.11161" lon="2.3531">
        <ele>216.66159057617</ele>
        <time>2011-06-05T09:12:24Z</time>
      </trkpt>
      <trkpt lat="43.11152" lon="2.35314">
        <ele>217.42613220215</ele>
        <time>2011-06-05T09:12:26Z</time>
      </trkpt>
      <trkpt lat="43.11138" lon="2.35338">
        <ele>220.08666992188</ele>
        <time>2011-06-05T09:12:31Z</time>
      </trkpt>
      <trkpt lat="43.11127" lon="2.35367">
        <ele>221.84391784668</ele>
        <time>2011-06-05T09:12:37Z</time>
      </trkpt>
      <trkpt lat="43.11109" lon="2.35385">
        <ele>221.64698791504</ele>
        <time>2011-06-05T09:12:43Z</time>
      </trkpt>
      <trkpt lat="43.11081" lon="2.35399">
        <ele>219.95530700684</ele>
        <time>2011-06-05T09:12:51Z</time>
      </trkpt>
      <trkpt lat="43.11078" lon="2.35401">
        <ele>220.14276123047</ele>
        <time>2011-06-05T09:12:55Z</time>
      </trkpt>
      <trkpt lat="43.11079" lon="2.35402">
        <ele>220.07133483887</ele>
        <time>2011-06-05T09:14:12Z</time>
      </trkpt>
      <trkpt lat="43.11082" lon="2.35412">
        <ele>219.98315429688</ele>
        <time>2011-06-05T09:14:15Z</time>
      </trkpt>
      <trkpt lat="43.11086" lon="2.35425">
        <ele>219.66261291504</ele>
        <time>2011-06-05T09:14:19Z</time>
      </trkpt>
      <trkpt lat="43.11088" lon="2.35429">
        <ele>219.69776916504</ele>
        <time>2011-06-05T09:14:21Z</time>
      </trkpt>
      <trkpt lat="43.11101" lon="2.35437">
        <ele>220.78837585449</ele>
        <time>2011-06-05T09:14:26Z</time>
      </trkpt>
      <trkpt lat="43.11106" lon="2.35439">
        <ele>221.32029724121</ele>
        <time>2011-06-05T09:14:28Z</time>
      </trkpt>
      <trkpt lat="43.11124" lon="2.35452">
        <ele>222.96151733398</ele>
        <time>2011-06-05T09:14:34Z</time>
      </trkpt>
      <trkpt lat="43.11132" lon="2.35467">
        <ele>223.23788452148</ele>
        <time>2011-06-05T09:14:38Z</time>
      </trkpt>
      <trkpt lat="43.11137" lon="2.35475">
        <ele>223.51881408691</ele>
        <time>2011-06-05T09:14:41Z</time>
      </trkpt>
      <trkpt lat="43.11149" lon="2.35497">
        <ele>224.39071655273</ele>
        <time>2011-06-05T09:14:47Z</time>
      </trkpt>
      <trkpt lat="43.1116" lon="2.35523">
        <ele>223.36408996582</ele>
        <time>2011-06-05T09:14:53Z</time>
      </trkpt>
      <trkpt lat="43.11171" lon="2.35543">
        <ele>222.47743225098</ele>
        <time>2011-06-05T09:14:59Z</time>
      </trkpt>
      <trkpt lat="43.11189" lon="2.35552">
        <ele>224.32618713379</ele>
        <time>2011-06-05T09:15:06Z</time>
      </trkpt>
      <trkpt lat="43.11201" lon="2.35555">
        <ele>225.96295166016</ele>
        <time>2011-06-05T09:15:12Z</time>
      </trkpt>
      <trkpt lat="43.11206" lon="2.35562">
        <ele>226.29986572266</ele>
        <time>2011-06-05T09:15:17Z</time>
      </trkpt>
      <trkpt lat="43.1121" lon="2.35564">
        <ele>226.91305541992</ele>
        <time>2011-06-05T09:15:19Z</time>
      </trkpt>
      <trkpt lat="43.11219" lon="2.35569">
        <ele>228.25039672852</ele>
        <time>2011-06-05T09:15:24Z</time>
      </trkpt>
      <trkpt lat="43.11226" lon="2.35572">
        <ele>229.40350341797</ele>
        <time>2011-06-05T09:15:29Z</time>
      </trkpt>
      <trkpt lat="43.11235" lon="2.35579">
        <ele>230.95649719238</ele>
        <time>2011-06-05T09:15:36Z</time>
      </trkpt>
      <trkpt lat="43.11236" lon="2.3558">
        <ele>231.16706848144</ele>
        <time>2011-06-05T09:15:37Z</time>
      </trkpt>
      <trkpt lat="43.11244" lon="2.35583">
        <ele>232.81396484375</ele>
        <time>2011-06-05T09:15:44Z</time>
      </trkpt>
      <trkpt lat="43.11246" lon="2.35585">
        <ele>233.06874084473</ele>
        <time>2011-06-05T09:15:45Z</time>
      </trkpt>
      <trkpt lat="43.11249" lon="2.35591">
        <ele>233.47169494629</ele>
        <time>2011-06-05T09:15:49Z</time>
      </trkpt>
      <trkpt lat="43.11252" lon="2.35595">
        <ele>233.51486206055</ele>
        <time>2011-06-05T09:15:54Z</time>
      </trkpt>
      <trkpt lat="43.11254" lon="2.356">
        <ele>233.35420227051</ele>
        <time>2011-06-05T09:16:03Z</time>
      </trkpt>
      <trkpt lat="43.1126" lon="2.35607">
        <ele>233.30236816406</ele>
        <time>2011-06-05T09:16:11Z</time>
      </trkpt>
      <trkpt lat="43.11266" lon="2.3561">
        <ele>233.47480773926</ele>
        <time>2011-06-05T09:16:19Z</time>
      </trkpt>
      <trkpt lat="43.11272" lon="2.35611">
        <ele>233.7131652832</ele>
        <time>2011-06-05T09:16:26Z</time>
      </trkpt>
      <trkpt lat="43.11276" lon="2.35611">
        <ele>233.92112731934</ele>
        <time>2011-06-05T09:16:32Z</time>
      </trkpt>
      <trkpt lat="43.11279" lon="2.3561">
        <ele>234.1028137207</ele>
        <time>2011-06-05T09:16:37Z</time>
      </trkpt>
      <trkpt lat="43.1128" lon="2.3561">
        <ele>234.12068176269</ele>
        <time>2011-06-05T09:16:38Z</time>
      </trkpt>
      <trkpt lat="43.11285" lon="2.35608">
        <ele>234.42701721191</ele>
        <time>2011-06-05T09:16:53Z</time>
      </trkpt>
      <trkpt lat="43.11288" lon="2.35607">
        <ele>234.54246520996</ele>
        <time>2011-06-05T09:16:57Z</time>
      </trkpt>
      <trkpt lat="43.11291" lon="2.35618">
        <ele>234.55589294434</ele>
        <time>2011-06-05T09:17:08Z</time>
      </trkpt>
      <trkpt lat="43.11295" lon="2.3563">
        <ele>234.67395019531</ele>
        <time>2011-06-05T09:17:13Z</time>
      </trkpt>
      <trkpt lat="43.11297" lon="2.35631">
        <ele>234.78684997559</ele>
        <time>2011-06-05T09:17:14Z</time>
      </trkpt>
      <trkpt lat="43.11298" lon="2.35638">
        <ele>234.79560852051</ele>
        <time>2011-06-05T09:17:17Z</time>
      </trkpt>
      <trkpt lat="43.11301" lon="2.35655">
        <ele>234.97750854492</ele>
        <time>2011-06-05T09:17:21Z</time>
      </trkpt>
      <trkpt lat="43.11312" lon="2.35658">
        <ele>235.87963867188</ele>
        <time>2011-06-05T09:17:24Z</time>
      </trkpt>
      <trkpt lat="43.11316" lon="2.3566">
        <ele>236.30201721191</ele>
        <time>2011-06-05T09:17:25Z</time>
      </trkpt>
      <trkpt lat="43.11336" lon="2.35684">
        <ele>236.46621704102</ele>
        <time>2011-06-05T09:17:30Z</time>
      </trkpt>
      <trkpt lat="43.1134" lon="2.35688">
        <ele>236.39082336426</ele>
        <time>2011-06-05T09:17:31Z</time>
      </trkpt>
      <trkpt lat="43.11354" lon="2.35692">
        <ele>237.15380859375</ele>
        <time>2011-06-05T09:17:36Z</time>
      </trkpt>
      <trkpt lat="43.11363" lon="2.35688">
        <ele>238.05937194824</ele>
        <time>2011-06-05T09:17:40Z</time>
      </trkpt>
      <trkpt lat="43.11366" lon="2.35691">
        <ele>238.12992858887</ele>
        <time>2011-06-05T09:17:41Z</time>
      </trkpt>
      <trkpt lat="43.11369" lon="2.35699">
        <ele>238.26792907715</ele>
        <time>2011-06-05T09:17:43Z</time>
      </trkpt>
      <trkpt lat="43.11377" lon="2.35706">
        <ele>239.01817321777</ele>
        <time>2011-06-05T09:17:47Z</time>
      </trkpt>
      <trkpt lat="43.1139" lon="2.35718">
        <ele>240.65852355957</ele>
        <time>2011-06-05T09:17:52Z</time>
      </trkpt>
      <trkpt lat="43.11395" lon="2.35723">
        <ele>241.60661315918</ele>
        <time>2011-06-05T09:17:54Z</time>
      </trkpt>
      <trkpt lat="43.11404" lon="2.35718">
        <ele>242.58625793457</ele>
        <time>2011-06-05T09:17:58Z</time>
      </trkpt>
      <trkpt lat="43.11411" lon="2.35703">
        <ele>242.4015045166</ele>
        <time>2011-06-05T09:18:02Z</time>
      </trkpt>
      <trkpt lat="43.11417" lon="2.35703">
        <ele>243.08113098144</ele>
        <time>2011-06-05T09:18:05Z</time>
      </trkpt>
      <trkpt lat="43.11418" lon="2.35704">
        <ele>243.25263977051</ele>
        <time>2011-06-05T09:18:07Z</time>
      </trkpt>
      <trkpt lat="43.1142" lon="2.35706">
        <ele>243.72801208496</ele>
        <time>2011-06-05T09:18:14Z</time>
      </trkpt>
      <trkpt lat="43.11421" lon="2.35707">
        <ele>243.93147277832</ele>
        <time>2011-06-05T09:18:15Z</time>
      </trkpt>
      <trkpt lat="43.11425" lon="2.35712">
        <ele>244.86614990234</ele>
        <time>2011-06-05T09:18:22Z</time>
      </trkpt>
      <trkpt lat="43.11428" lon="2.3571">
        <ele>245.12869262695</ele>
        <time>2011-06-05T09:18:28Z</time>
      </trkpt>
      <trkpt lat="43.11428" lon="2.35709">
        <ele>245.109375</ele>
        <time>2011-06-05T09:18:31Z</time>
      </trkpt>
      <trkpt lat="43.11436" lon="2.35696">
        <ele>244.75254821777</ele>
        <time>2011-06-05T09:18:38Z</time>
      </trkpt>
      <trkpt lat="43.1144" lon="2.35686">
        <ele>244.18830871582</ele>
        <time>2011-06-05T09:18:42Z</time>
      </trkpt>
      <trkpt lat="43.11451" lon="2.35667">
        <ele>243.38565063477</ele>
        <time>2011-06-05T09:18:48Z</time>
      </trkpt>
      <trkpt lat="43.1146" lon="2.35651">
        <ele>240.91778564453</ele>
        <time>2011-06-05T09:18:52Z</time>
      </trkpt>
      <trkpt lat="43.1147" lon="2.35642">
        <ele>239.89152526856</ele>
        <time>2011-06-05T09:18:55Z</time>
      </trkpt>
      <trkpt lat="43.11483" lon="2.35644">
        <ele>241.24108886719</ele>
        <time>2011-06-05T09:18:59Z</time>
      </trkpt>
      <trkpt lat="43.11486" lon="2.3565">
        <ele>242.81643676758</ele>
        <time>2011-06-05T09:19:02Z</time>
      </trkpt>
      <trkpt lat="43.1149" lon="2.35657">
        <ele>244.83619689941</ele>
        <time>2011-06-05T09:19:08Z</time>
      </trkpt>
      <trkpt lat="43.11489" lon="2.35658">
        <ele>244.94584655762</ele>
        <time>2011-06-05T09:19:10Z</time>
      </trkpt>
      <trkpt lat="43.11489" lon="2.35659">
        <ele>245.28047180176</ele>
        <time>2011-06-05T09:19:17Z</time>
      </trkpt>
      <trkpt lat="43.11489" lon="2.35661">
        <ele>245.49877929688</ele>
        <time>2011-06-05T09:19:18Z</time>
      </trkpt>
      <trkpt lat="43.11489" lon="2.35662">
        <ele>245.7293548584</ele>
        <time>2011-06-05T09:19:19Z</time>
      </trkpt>
      <trkpt lat="43.11488" lon="2.35664">
        <ele>246.32186889648</ele>
        <time>2011-06-05T09:19:22Z</time>
      </trkpt>
      <trkpt lat="43.11488" lon="2.35668">
        <ele>247.11004638672</ele>
        <time>2011-06-05T09:19:28Z</time>
      </trkpt>
      <trkpt lat="43.11488" lon="2.3567">
        <ele>247.39778137207</ele>
        <time>2011-06-05T09:19:33Z</time>
      </trkpt>
      <trkpt lat="43.11489" lon="2.35673">
        <ele>247.96649169922</ele>
        <time>2011-06-05T09:19:37Z</time>
      </trkpt>
      <trkpt lat="43.11489" lon="2.35676">
        <ele>248.42185974121</ele>
        <time>2011-06-05T09:19:41Z</time>
      </trkpt>
      <trkpt lat="43.1149" lon="2.35684">
        <ele>249.60966491699</ele>
        <time>2011-06-05T09:19:51Z</time>
      </trkpt>
      <trkpt lat="43.11493" lon="2.35688">
        <ele>250.54638671875</ele>
        <time>2011-06-05T09:19:59Z</time>
      </trkpt>
      <trkpt lat="43.11494" lon="2.35689">
        <ele>250.86022949219</ele>
        <time>2011-06-05T09:20:02Z</time>
      </trkpt>
      <trkpt lat="43.11495" lon="2.35691">
        <ele>251.23515319824</ele>
        <time>2011-06-05T09:20:06Z</time>
      </trkpt>
      <trkpt lat="43.11494" lon="2.35694">
        <ele>251.58567810059</ele>
        <time>2011-06-05T09:20:11Z</time>
      </trkpt>
      <trkpt lat="43.11493" lon="2.35698">
        <ele>251.98576354981</ele>
        <time>2011-06-05T09:20:17Z</time>
      </trkpt>
      <trkpt lat="43.11492" lon="2.357">
        <ele>252.21786499023</ele>
        <time>2011-06-05T09:20:25Z</time>
      </trkpt>
      <trkpt lat="43.11491" lon="2.35703">
        <ele>252.53948974609</ele>
        <time>2011-06-05T09:20:27Z</time>
      </trkpt>
      <trkpt lat="43.11489" lon="2.35708">
        <ele>252.96252441406</ele>
        <time>2011-06-05T09:20:31Z</time>
      </trkpt>
      <trkpt lat="43.11489" lon="2.35719">
        <ele>254.68333435059</ele>
        <time>2011-06-05T09:20:38Z</time>
      </trkpt>
      <trkpt lat="43.11489" lon="2.35726">
        <ele>255.66847229004</ele>
        <time>2011-06-05T09:20:43Z</time>
      </trkpt>
      <trkpt lat="43.11489" lon="2.35731">
        <ele>256.31356811523</ele>
        <time>2011-06-05T09:20:45Z</time>
      </trkpt>
      <trkpt lat="43.11497" lon="2.35744">
        <ele>259.62713623047</ele>
        <time>2011-06-05T09:20:52Z</time>
      </trkpt>
      <trkpt lat="43.11497" lon="2.35753">
        <ele>260.39807128906</ele>
        <time>2011-06-05T09:20:57Z</time>
      </trkpt>
      <trkpt lat="43.11498" lon="2.35758">
        <ele>260.53063964844</ele>
        <time>2011-06-05T09:20:59Z</time>
      </trkpt>
      <trkpt lat="43.11505" lon="2.35772">
        <ele>260.03659057617</ele>
        <time>2011-06-05T09:21:06Z</time>
      </trkpt>
      <trkpt lat="43.1151" lon="2.35784">
        <ele>259.34655761719</ele>
        <time>2011-06-05T09:21:12Z</time>
      </trkpt>
      <trkpt lat="43.11507" lon="2.35794">
        <ele>259.73648071289</ele>
        <time>2011-06-05T09:21:16Z</time>
      </trkpt>
      <trkpt lat="43.11507" lon="2.35796">
        <ele>259.693359375</ele>
        <time>2011-06-05T09:21:17Z</time>
      </trkpt>
      <trkpt lat="43.11509" lon="2.358">
        <ele>259.57824707031</ele>
        <time>2011-06-05T09:21:19Z</time>
      </trkpt>
      <trkpt lat="43.11517" lon="2.35811">
        <ele>258.93621826172</ele>
        <time>2011-06-05T09:21:23Z</time>
      </trkpt>
      <trkpt lat="43.11528" lon="2.35825">
        <ele>258.45562744141</ele>
        <time>2011-06-05T09:21:28Z</time>
      </trkpt>
      <trkpt lat="43.1153" lon="2.35831">
        <ele>258.47756958008</ele>
        <time>2011-06-05T09:21:29Z</time>
      </trkpt>
      <trkpt lat="43.11535" lon="2.35862">
        <ele>259.21429443359</ele>
        <time>2011-06-05T09:21:34Z</time>
      </trkpt>
      <trkpt lat="43.11539" lon="2.35877">
        <ele>259.77951049805</ele>
        <time>2011-06-05T09:21:38Z</time>
      </trkpt>
      <trkpt lat="43.11541" lon="2.35884">
        <ele>260.12646484375</ele>
        <time>2011-06-05T09:21:40Z</time>
      </trkpt>
      <trkpt lat="43.11546" lon="2.35905">
        <ele>261.26083374023</ele>
        <time>2011-06-05T09:21:46Z</time>
      </trkpt>
      <trkpt lat="43.11552" lon="2.35921">
        <ele>262.61022949219</ele>
        <time>2011-06-05T09:21:51Z</time>
      </trkpt>
      <trkpt lat="43.1156" lon="2.35932">
        <ele>263.85006713867</ele>
        <time>2011-06-05T09:21:56Z</time>
      </trkpt>
      <trkpt lat="43.1156" lon="2.35946">
        <ele>264.63833618164</ele>
        <time>2011-06-05T09:22:00Z</time>
      </trkpt>
      <trkpt lat="43.11561" lon="2.35961">
        <ele>265.5549621582</ele>
        <time>2011-06-05T09:22:05Z</time>
      </trkpt>
      <trkpt lat="43.11563" lon="2.35971">
        <ele>266.39822387695</ele>
        <time>2011-06-05T09:22:09Z</time>
      </trkpt>
      <trkpt lat="43.11564" lon="2.35992">
        <ele>267.76312255859</ele>
        <time>2011-06-05T09:22:16Z</time>
      </trkpt>
      <trkpt lat="43.11566" lon="2.36008">
        <ele>269.01544189453</ele>
        <time>2011-06-05T09:22:23Z</time>
      </trkpt>
      <trkpt lat="43.11566" lon="2.3601">
        <ele>269.17001342773</ele>
        <time>2011-06-05T09:22:24Z</time>
      </trkpt>
      <trkpt lat="43.1157" lon="2.36028">
        <ele>270.85491943359</ele>
        <time>2011-06-05T09:22:29Z</time>
      </trkpt>
      <trkpt lat="43.11574" lon="2.36045">
        <ele>272.81384277344</ele>
        <time>2011-06-05T09:22:34Z</time>
      </trkpt>
      <trkpt lat="43.11578" lon="2.36061">
        <ele>274.98532104492</ele>
        <time>2011-06-05T09:22:39Z</time>
      </trkpt>
      <trkpt lat="43.11584" lon="2.36084">
        <ele>277.81356811523</ele>
        <time>2011-06-05T09:22:46Z</time>
      </trkpt>
      <trkpt lat="43.11587" lon="2.36102">
        <ele>276.95880126953</ele>
        <time>2011-06-05T09:22:51Z</time>
      </trkpt>
      <trkpt lat="43.11589" lon="2.36123">
        <ele>276.23916625977</ele>
        <time>2011-06-05T09:22:56Z</time>
      </trkpt>
      <trkpt lat="43.11588" lon="2.36135">
        <ele>276.03109741211</ele>
        <time>2011-06-05T09:22:58Z</time>
      </trkpt>
      <trkpt lat="43.11589" lon="2.36147">
        <ele>275.68417358398</ele>
        <time>2011-06-05T09:23:00Z</time>
      </trkpt>
      <trkpt lat="43.11594" lon="2.36179">
        <ele>274.72677612305</ele>
        <time>2011-06-05T09:23:06Z</time>
      </trkpt>
      <trkpt lat="43.11594" lon="2.36202">
        <ele>275.06018066406</ele>
        <time>2011-06-05T09:23:12Z</time>
      </trkpt>
      <trkpt lat="43.11594" lon="2.36225">
        <ele>275.44403076172</ele>
        <time>2011-06-05T09:23:18Z</time>
      </trkpt>
      <trkpt lat="43.11594" lon="2.36243">
        <ele>275.75164794922</ele>
        <time>2011-06-05T09:23:23Z</time>
      </trkpt>
      <trkpt lat="43.11594" lon="2.36263">
        <ele>276.39797973633</ele>
        <time>2011-06-05T09:23:29Z</time>
      </trkpt>
      <trkpt lat="43.11592" lon="2.36281">
        <ele>277.14071655273</ele>
        <time>2011-06-05T09:23:34Z</time>
      </trkpt>
      <trkpt lat="43.11596" lon="2.36309">
        <ele>278.30053710938</ele>
        <time>2011-06-05T09:23:40Z</time>
      </trkpt>
      <trkpt lat="43.11596" lon="2.36328">
        <ele>279.064453125</ele>
        <time>2011-06-05T09:23:44Z</time>
      </trkpt>
      <trkpt lat="43.11598" lon="2.36353">
        <ele>279.84063720703</ele>
        <time>2011-06-05T09:23:50Z</time>
      </trkpt>
      <trkpt lat="43.11599" lon="2.36377">
        <ele>280.44061279297</ele>
        <time>2011-06-05T09:23:56Z</time>
      </trkpt>
      <trkpt lat="43.11599" lon="2.36402">
        <ele>281.06213378906</ele>
        <time>2011-06-05T09:24:02Z</time>
      </trkpt>
      <trkpt lat="43.11601" lon="2.36415">
        <ele>281.32461547852</ele>
        <time>2011-06-05T09:24:05Z</time>
      </trkpt>
      <trkpt lat="43.116" lon="2.36443">
        <ele>282.4709777832</ele>
        <time>2011-06-05T09:24:12Z</time>
      </trkpt>
      <trkpt lat="43.11599" lon="2.36476">
        <ele>283.82891845703</ele>
        <time>2011-06-05T09:24:19Z</time>
      </trkpt>
      <trkpt lat="43.11597" lon="2.36492">
        <ele>284.51455688477</ele>
        <time>2011-06-05T09:24:24Z</time>
      </trkpt>
      <trkpt lat="43.11596" lon="2.36508">
        <ele>285.15414428711</ele>
        <time>2011-06-05T09:24:29Z</time>
      </trkpt>
      <trkpt lat="43.11594" lon="2.36525">
        <ele>285.86410522461</ele>
        <time>2011-06-05T09:24:34Z</time>
      </trkpt>
      <trkpt lat="43.11593" lon="2.36547">
        <ele>286.70269775391</ele>
        <time>2011-06-05T09:24:40Z</time>
      </trkpt>
      <trkpt lat="43.11595" lon="2.36574">
        <ele>287.76208496094</ele>
        <time>2011-06-05T09:24:47Z</time>
      </trkpt>
      <trkpt lat="43.11596" lon="2.36588">
        <ele>287.98327636719</ele>
        <time>2011-06-05T09:24:51Z</time>
      </trkpt>
      <trkpt lat="43.11595" lon="2.36603">
        <ele>287.4924621582</ele>
        <time>2011-06-05T09:24:55Z</time>
      </trkpt>
      <trkpt lat="43.11596" lon="2.36618">
        <ele>287.00509643555</ele>
        <time>2011-06-05T09:25:00Z</time>
      </trkpt>
      <trkpt lat="43.11597" lon="2.36625">
        <ele>286.74630737305</ele>
        <time>2011-06-05T09:25:05Z</time>
      </trkpt>
      <trkpt lat="43.11598" lon="2.36625">
        <ele>286.74969482422</ele>
        <time>2011-06-05T09:25:08Z</time>
      </trkpt>
      <trkpt lat="43.11605" lon="2.36631">
        <ele>286.3551940918</ele>
        <time>2011-06-05T09:26:53Z</time>
      </trkpt>
      <trkpt lat="43.11611" lon="2.36638">
        <ele>285.91903686523</ele>
        <time>2011-06-05T09:26:56Z</time>
      </trkpt>
      <trkpt lat="43.11606" lon="2.36654">
        <ele>285.44082641602</ele>
        <time>2011-06-05T09:27:00Z</time>
      </trkpt>
      <trkpt lat="43.11592" lon="2.36668">
        <ele>285.53045654297</ele>
        <time>2011-06-05T09:27:04Z</time>
      </trkpt>
      <trkpt lat="43.11589" lon="2.36691">
        <ele>284.99591064453</ele>
        <time>2011-06-05T09:27:08Z</time>
      </trkpt>
      <trkpt lat="43.11587" lon="2.36712">
        <ele>284.36911010742</ele>
        <time>2011-06-05T09:27:11Z</time>
      </trkpt>
      <trkpt lat="43.11593" lon="2.36727">
        <ele>283.93695068359</ele>
        <time>2011-06-05T09:27:14Z</time>
      </trkpt>
      <trkpt lat="43.11593" lon="2.36736">
        <ele>283.72625732422</ele>
        <time>2011-06-05T09:27:17Z</time>
      </trkpt>
      <trkpt lat="43.11586" lon="2.36739">
        <ele>283.45233154297</ele>
        <time>2011-06-05T09:27:20Z</time>
      </trkpt>
      <trkpt lat="43.11574" lon="2.36752">
        <ele>280.52557373047</ele>
        <time>2011-06-05T09:27:24Z</time>
      </trkpt>
      <trkpt lat="43.1156" lon="2.36798">
        <ele>280.79196166992</ele>
        <time>2011-06-05T09:27:31Z</time>
      </trkpt>
      <trkpt lat="43.11546" lon="2.36817">
        <ele>278.59970092773</ele>
        <time>2011-06-05T09:27:35Z</time>
      </trkpt>
      <trkpt lat="43.11528" lon="2.36829">
        <ele>274.90179443359</ele>
        <time>2011-06-05T09:27:38Z</time>
      </trkpt>
      <trkpt lat="43.11507" lon="2.36861">
        <ele>272.9794921875</ele>
        <time>2011-06-05T09:27:43Z</time>
      </trkpt>
      <trkpt lat="43.11502" lon="2.36884">
        <ele>274.22787475586</ele>
        <time>2011-06-05T09:27:48Z</time>
      </trkpt>
      <trkpt lat="43.11502" lon="2.36894">
        <ele>275.19680786133</ele>
        <time>2011-06-05T09:27:50Z</time>
      </trkpt>
      <trkpt lat="43.11501" lon="2.36914">
        <ele>276.99047851562</ele>
        <time>2011-06-05T09:27:54Z</time>
      </trkpt>
      <trkpt lat="43.11495" lon="2.36945">
        <ele>276.95901489258</ele>
        <time>2011-06-05T09:27:59Z</time>
      </trkpt>
      <trkpt lat="43.11489" lon="2.36938">
        <ele>274.67776489258</ele>
        <time>2011-06-05T09:28:03Z</time>
      </trkpt>
      <trkpt lat="43.11489" lon="2.36933">
        <ele>274.49676513672</ele>
        <time>2011-06-05T09:28:04Z</time>
      </trkpt>
      <trkpt lat="43.11488" lon="2.36911">
        <ele>272.55764770508</ele>
        <time>2011-06-05T09:28:07Z</time>
      </trkpt>
      <trkpt lat="43.11481" lon="2.36891">
        <ele>268.07550048828</ele>
        <time>2011-06-05T09:28:09Z</time>
      </trkpt>
      <trkpt lat="43.11454" lon="2.36834">
        <ele>255.26556396484</ele>
        <time>2011-06-05T09:28:14Z</time>
      </trkpt>
      <trkpt lat="43.1144" lon="2.36808">
        <ele>250.12858581543</ele>
        <time>2011-06-05T09:28:17Z</time>
      </trkpt>
      <trkpt lat="43.11435" lon="2.36796">
        <ele>248.462890625</ele>
        <time>2011-06-05T09:28:19Z</time>
      </trkpt>
      <trkpt lat="43.11432" lon="2.368">
        <ele>247.88899230957</ele>
        <time>2011-06-05T09:28:23Z</time>
      </trkpt>
      <trkpt lat="43.11432" lon="2.36803">
        <ele>248.0184173584</ele>
        <time>2011-06-05T09:28:24Z</time>
      </trkpt>
      <trkpt lat="43.11432" lon="2.36807">
        <ele>248.0770111084</ele>
        <time>2011-06-05T09:28:25Z</time>
      </trkpt>
      <trkpt lat="43.11431" lon="2.36823">
        <ele>248.49378967285</ele>
        <time>2011-06-05T09:28:30Z</time>
      </trkpt>
      <trkpt lat="43.11428" lon="2.36841">
        <ele>248.47685241699</ele>
        <time>2011-06-05T09:28:35Z</time>
      </trkpt>
      <trkpt lat="43.11422" lon="2.36878">
        <ele>248.7618560791</ele>
        <time>2011-06-05T09:28:41Z</time>
      </trkpt>
      <trkpt lat="43.1141" lon="2.36912">
        <ele>247.85585021973</ele>
        <time>2011-06-05T09:28:48Z</time>
      </trkpt>
      <trkpt lat="43.11408" lon="2.36916">
        <ele>247.75251770019</ele>
        <time>2011-06-05T09:28:49Z</time>
      </trkpt>
      <trkpt lat="43.1139" lon="2.36916">
        <ele>245.13009643555</ele>
        <time>2011-06-05T09:28:56Z</time>
      </trkpt>
      <trkpt lat="43.11376" lon="2.36914">
        <ele>243.03890991211</ele>
        <time>2011-06-05T09:29:00Z</time>
      </trkpt>
      <trkpt lat="43.11364" lon="2.36923">
        <ele>241.84558105469</ele>
        <time>2011-06-05T09:29:03Z</time>
      </trkpt>
      <trkpt lat="43.11348" lon="2.36962">
        <ele>241.52255249023</ele>
        <time>2011-06-05T09:29:08Z</time>
      </trkpt>
      <trkpt lat="43.11343" lon="2.37002">
        <ele>242.5675201416</ele>
        <time>2011-06-05T09:29:12Z</time>
      </trkpt>
      <trkpt lat="43.1134" lon="2.37019">
        <ele>242.16687011719</ele>
        <time>2011-06-05T09:29:14Z</time>
      </trkpt>
      <trkpt lat="43.11342" lon="2.37046">
        <ele>242.60260009766</ele>
        <time>2011-06-05T09:29:19Z</time>
      </trkpt>
      <trkpt lat="43.11356" lon="2.37069">
        <ele>245.55158996582</ele>
        <time>2011-06-05T09:29:24Z</time>
      </trkpt>
      <trkpt lat="43.11355" lon="2.37084">
        <ele>245.47409057617</ele>
        <time>2011-06-05T09:29:27Z</time>
      </trkpt>
      <trkpt lat="43.11347" lon="2.37107">
        <ele>245.46492004394</ele>
        <time>2011-06-05T09:29:33Z</time>
      </trkpt>
      <trkpt lat="43.11337" lon="2.37126">
        <ele>244.70393371582</ele>
        <time>2011-06-05T09:29:38Z</time>
      </trkpt>
      <trkpt lat="43.11336" lon="2.37149">
        <ele>246.19822692871</ele>
        <time>2011-06-05T09:29:44Z</time>
      </trkpt>
      <trkpt lat="43.11334" lon="2.37169">
        <ele>247.27803039551</ele>
        <time>2011-06-05T09:29:49Z</time>
      </trkpt>
      <trkpt lat="43.11324" lon="2.37187">
        <ele>248.61434936523</ele>
        <time>2011-06-05T09:29:55Z</time>
      </trkpt>
      <trkpt lat="43.11319" lon="2.37209">
        <ele>250.16732788086</ele>
        <time>2011-06-05T09:30:01Z</time>
      </trkpt>
      <trkpt lat="43.11316" lon="2.37238">
        <ele>252.13430786133</ele>
        <time>2011-06-05T09:30:08Z</time>
      </trkpt>
      <trkpt lat="43.11317" lon="2.37257">
        <ele>253.52578735352</ele>
        <time>2011-06-05T09:30:12Z</time>
      </trkpt>
      <trkpt lat="43.11312" lon="2.37281">
        <ele>253.94555664062</ele>
        <time>2011-06-05T09:30:16Z</time>
      </trkpt>
      <trkpt lat="43.11304" lon="2.3731">
        <ele>254.02545166016</ele>
        <time>2011-06-05T09:30:22Z</time>
      </trkpt>
      <trkpt lat="43.11306" lon="2.37331">
        <ele>254.91069030762</ele>
        <time>2011-06-05T09:30:26Z</time>
      </trkpt>
      <trkpt lat="43.1131" lon="2.37352">
        <ele>254.93049621582</ele>
        <time>2011-06-05T09:30:31Z</time>
      </trkpt>
      <trkpt lat="43.1132" lon="2.37371">
        <ele>255.77764892578</ele>
        <time>2011-06-05T09:30:36Z</time>
      </trkpt>
      <trkpt lat="43.11327" lon="2.37379">
        <ele>256.50720214844</ele>
        <time>2011-06-05T09:30:38Z</time>
      </trkpt>
      <trkpt lat="43.11335" lon="2.37404">
        <ele>256.8583984375</ele>
        <time>2011-06-05T09:30:43Z</time>
      </trkpt>
      <trkpt lat="43.11336" lon="2.37409">
        <ele>257.16546630859</ele>
        <time>2011-06-05T09:30:44Z</time>
      </trkpt>
      <trkpt lat="43.1134" lon="2.37429">
        <ele>259.41296386719</ele>
        <time>2011-06-05T09:30:48Z</time>
      </trkpt>
      <trkpt lat="43.11331" lon="2.37445">
        <ele>258.62170410156</ele>
        <time>2011-06-05T09:30:52Z</time>
      </trkpt>
      <trkpt lat="43.11311" lon="2.3746">
        <ele>256.49853515625</ele>
        <time>2011-06-05T09:30:58Z</time>
      </trkpt>
      <trkpt lat="43.11309" lon="2.37484">
        <ele>258.24237060547</ele>
        <time>2011-06-05T09:31:03Z</time>
      </trkpt>
      <trkpt lat="43.11308" lon="2.37495">
        <ele>258.88336181641</ele>
        <time>2011-06-05T09:31:05Z</time>
      </trkpt>
      <trkpt lat="43.11294" lon="2.37524">
        <ele>259.18890380859</ele>
        <time>2011-06-05T09:31:12Z</time>
      </trkpt>
      <trkpt lat="43.11285" lon="2.37549">
        <ele>259.87176513672</ele>
        <time>2011-06-05T09:31:18Z</time>
      </trkpt>
      <trkpt lat="43.11279" lon="2.37582">
        <ele>262.15982055664</ele>
        <time>2011-06-05T09:31:25Z</time>
      </trkpt>
      <trkpt lat="43.11272" lon="2.37602">
        <ele>261.3410949707</ele>
        <time>2011-06-05T09:31:30Z</time>
      </trkpt>
      <trkpt lat="43.11267" lon="2.37623">
        <ele>261.01165771484</ele>
        <time>2011-06-05T09:31:35Z</time>
      </trkpt>
      <trkpt lat="43.11267" lon="2.37653">
        <ele>262.63534545898</ele>
        <time>2011-06-05T09:31:41Z</time>
      </trkpt>
      <trkpt lat="43.11268" lon="2.37675">
        <ele>263.62646484375</ele>
        <time>2011-06-05T09:31:46Z</time>
      </trkpt>
      <trkpt lat="43.11265" lon="2.37682">
        <ele>262.87066650391</ele>
        <time>2011-06-05T09:31:48Z</time>
      </trkpt>
      <trkpt lat="43.11264" lon="2.37713">
        <ele>262.4260559082</ele>
        <time>2011-06-05T09:31:54Z</time>
      </trkpt>
      <trkpt lat="43.11265" lon="2.37738">
        <ele>262.38092041016</ele>
        <time>2011-06-05T09:31:59Z</time>
      </trkpt>
      <trkpt lat="43.11266" lon="2.37758">
        <ele>262.60372924805</ele>
        <time>2011-06-05T09:32:04Z</time>
      </trkpt>
      <trkpt lat="43.11264" lon="2.37789">
        <ele>262.5036315918</ele>
        <time>2011-06-05T09:32:11Z</time>
      </trkpt>
      <trkpt lat="43.11263" lon="2.37801">
        <ele>262.30526733398</ele>
        <time>2011-06-05T09:32:13Z</time>
      </trkpt>
      <trkpt lat="43.11255" lon="2.37843">
        <ele>260.96920776367</ele>
        <time>2011-06-05T09:32:18Z</time>
      </trkpt>
      <trkpt lat="43.11255" lon="2.37852">
        <ele>260.86907958984</ele>
        <time>2011-06-05T09:32:19Z</time>
      </trkpt>
      <trkpt lat="43.11256" lon="2.37889">
        <ele>261.10266113281</ele>
        <time>2011-06-05T09:32:23Z</time>
      </trkpt>
      <trkpt lat="43.1126" lon="2.37911">
        <ele>261.56686401367</ele>
        <time>2011-06-05T09:32:26Z</time>
      </trkpt>
      <trkpt lat="43.11272" lon="2.3794">
        <ele>263.28323364258</ele>
        <time>2011-06-05T09:32:31Z</time>
      </trkpt>
      <trkpt lat="43.11276" lon="2.37951">
        <ele>263.74645996094</ele>
        <time>2011-06-05T09:32:34Z</time>
      </trkpt>
      <trkpt lat="43.11284" lon="2.37974">
        <ele>264.14340209961</ele>
        <time>2011-06-05T09:32:38Z</time>
      </trkpt>
      <trkpt lat="43.1129" lon="2.3799">
        <ele>264.21160888672</ele>
        <time>2011-06-05T09:32:41Z</time>
      </trkpt>
      <trkpt lat="43.11293" lon="2.38002">
        <ele>264.12783813477</ele>
        <time>2011-06-05T09:32:43Z</time>
      </trkpt>
      <trkpt lat="43.11292" lon="2.38033">
        <ele>264.80706787109</ele>
        <time>2011-06-05T09:32:48Z</time>
      </trkpt>
      <trkpt lat="43.11285" lon="2.38076">
        <ele>265.36141967773</ele>
        <time>2011-06-05T09:32:55Z</time>
      </trkpt>
      <trkpt lat="43.11277" lon="2.38099">
        <ele>265.27307128906</ele>
        <time>2011-06-05T09:33:00Z</time>
      </trkpt>
      <trkpt lat="43.11266" lon="2.38122">
        <ele>264.62878417969</ele>
        <time>2011-06-05T09:33:05Z</time>
      </trkpt>
      <trkpt lat="43.11258" lon="2.38142">
        <ele>263.90707397461</ele>
        <time>2011-06-05T09:33:10Z</time>
      </trkpt>
      <trkpt lat="43.11256" lon="2.38154">
        <ele>263.740234375</ele>
        <time>2011-06-05T09:33:13Z</time>
      </trkpt>
      <trkpt lat="43.11263" lon="2.38174">
        <ele>264.64883422852</ele>
        <time>2011-06-05T09:33:19Z</time>
      </trkpt>
      <trkpt lat="43.11265" lon="2.38187">
        <ele>264.71423339844</ele>
        <time>2011-06-05T09:33:24Z</time>
      </trkpt>
      <trkpt lat="43.11266" lon="2.3819">
        <ele>264.72204589844</ele>
        <time>2011-06-05T09:33:26Z</time>
      </trkpt>
      <trkpt lat="43.11266" lon="2.38197">
        <ele>264.67669677734</ele>
        <time>2011-06-05T09:33:29Z</time>
      </trkpt>
      <trkpt lat="43.11265" lon="2.38199">
        <ele>264.54241943359</ele>
        <time>2011-06-05T09:33:34Z</time>
      </trkpt>
      <trkpt lat="43.11264" lon="2.38204">
        <ele>264.33654785156</ele>
        <time>2011-06-05T09:33:38Z</time>
      </trkpt>
      <trkpt lat="43.11261" lon="2.38213">
        <ele>263.81552124023</ele>
        <time>2011-06-05T09:33:45Z</time>
      </trkpt>
      <trkpt lat="43.11261" lon="2.38215">
        <ele>263.79769897461</ele>
        <time>2011-06-05T09:33:47Z</time>
      </trkpt>
      <trkpt lat="43.11261" lon="2.38223">
        <ele>263.73098754883</ele>
        <time>2011-06-05T09:34:09Z</time>
      </trkpt>
      <trkpt lat="43.11261" lon="2.38234">
        <ele>263.48779296875</ele>
        <time>2011-06-05T09:34:14Z</time>
      </trkpt>
      <trkpt lat="43.11259" lon="2.38238">
        <ele>263.24914550781</ele>
        <time>2011-06-05T09:34:16Z</time>
      </trkpt>
      <trkpt lat="43.11258" lon="2.38246">
        <ele>263.05056762695</ele>
        <time>2011-06-05T09:34:22Z</time>
      </trkpt>
      <trkpt lat="43.1126" lon="2.38251">
        <ele>263.33297729492</ele>
        <time>2011-06-05T09:34:25Z</time>
      </trkpt>
      <trkpt lat="43.11255" lon="2.38257">
        <ele>263.47015380859</ele>
        <time>2011-06-05T09:34:30Z</time>
      </trkpt>
      <trkpt lat="43.11251" lon="2.38262">
        <ele>263.57846069336</ele>
        <time>2011-06-05T09:34:36Z</time>
      </trkpt>
      <trkpt lat="43.11251" lon="2.38263">
        <ele>263.66293334961</ele>
        <time>2011-06-05T09:34:37Z</time>
      </trkpt>
      <trkpt lat="43.11252" lon="2.38266">
        <ele>264.19723510742</ele>
        <time>2011-06-05T09:34:42Z</time>
      </trkpt>
      <trkpt lat="43.11253" lon="2.38267">
        <ele>264.31954956055</ele>
        <time>2011-06-05T09:35:10Z</time>
      </trkpt>
      <trkpt lat="43.11254" lon="2.38266">
        <ele>264.32577514648</ele>
        <time>2011-06-05T09:35:13Z</time>
      </trkpt>
      <trkpt lat="43.11265" lon="2.38274">
        <ele>266.23944091797</ele>
        <time>2011-06-05T09:35:22Z</time>
      </trkpt>
      <trkpt lat="43.11271" lon="2.38295">
        <ele>268.67608642578</ele>
        <time>2011-06-05T09:35:31Z</time>
      </trkpt>
      <trkpt lat="43.11272" lon="2.3831">
        <ele>270.18460083008</ele>
        <time>2011-06-05T09:35:36Z</time>
      </trkpt>
      <trkpt lat="43.11272" lon="2.38327">
        <ele>271.64797973633</ele>
        <time>2011-06-05T09:35:40Z</time>
      </trkpt>
      <trkpt lat="43.11279" lon="2.38359">
        <ele>273.98309326172</ele>
        <time>2011-06-05T09:35:44Z</time>
      </trkpt>
      <trkpt lat="43.11283" lon="2.38381">
        <ele>275.29821777344</ele>
        <time>2011-06-05T09:35:47Z</time>
      </trkpt>
      <trkpt lat="43.11283" lon="2.38391">
        <ele>275.86044311523</ele>
        <time>2011-06-05T09:35:49Z</time>
      </trkpt>
      <trkpt lat="43.11286" lon="2.38423">
        <ele>277.80859375</ele>
        <time>2011-06-05T09:35:56Z</time>
      </trkpt>
      <trkpt lat="43.11292" lon="2.38457">
        <ele>279.8928527832</ele>
        <time>2011-06-05T09:36:04Z</time>
      </trkpt>
      <trkpt lat="43.11296" lon="2.38476">
        <ele>280.65151977539</ele>
        <time>2011-06-05T09:36:10Z</time>
      </trkpt>
      <trkpt lat="43.11301" lon="2.38497">
        <ele>281.33010864258</ele>
        <time>2011-06-05T09:36:15Z</time>
      </trkpt>
      <trkpt lat="43.11303" lon="2.38517">
        <ele>281.19772338867</ele>
        <time>2011-06-05T09:36:21Z</time>
      </trkpt>
      <trkpt lat="43.11307" lon="2.38533">
        <ele>280.5022277832</ele>
        <time>2011-06-05T09:36:26Z</time>
      </trkpt>
      <trkpt lat="43.11309" lon="2.38546">
        <ele>280.09671020508</ele>
        <time>2011-06-05T09:36:31Z</time>
      </trkpt>
      <trkpt lat="43.11309" lon="2.38548">
        <ele>280.17529296875</ele>
        <time>2011-06-05T09:36:32Z</time>
      </trkpt>
      <trkpt lat="43.11304" lon="2.38563">
        <ele>281.29748535156</ele>
        <time>2011-06-05T09:36:40Z</time>
      </trkpt>
      <trkpt lat="43.11303" lon="2.38566">
        <ele>281.3918762207</ele>
        <time>2011-06-05T09:36:42Z</time>
      </trkpt>
      <trkpt lat="43.11302" lon="2.38577">
        <ele>281.68746948242</ele>
        <time>2011-06-05T09:36:48Z</time>
      </trkpt>
      <trkpt lat="43.11301" lon="2.38588">
        <ele>282.09274291992</ele>
        <time>2011-06-05T09:36:56Z</time>
      </trkpt>
      <trkpt lat="43.11296" lon="2.38599">
        <ele>283.06243896484</ele>
        <time>2011-06-05T09:37:02Z</time>
      </trkpt>
      <trkpt lat="43.11288" lon="2.38619">
        <ele>284.2932434082</ele>
        <time>2011-06-05T09:37:10Z</time>
      </trkpt>
      <trkpt lat="43.11283" lon="2.38636">
        <ele>284.76007080078</ele>
        <time>2011-06-05T09:37:17Z</time>
      </trkpt>
      <trkpt lat="43.11275" lon="2.38653">
        <ele>285.36254882812</ele>
        <time>2011-06-05T09:37:24Z</time>
      </trkpt>
      <trkpt lat="43.11261" lon="2.38668">
        <ele>286.0910949707</ele>
        <time>2011-06-05T09:37:32Z</time>
      </trkpt>
      <trkpt lat="43.11249" lon="2.38686">
        <ele>286.34664916992</ele>
        <time>2011-06-05T09:37:40Z</time>
      </trkpt>
      <trkpt lat="43.11242" lon="2.38704">
        <ele>287.55517578125</ele>
        <time>2011-06-05T09:37:45Z</time>
      </trkpt>
      <trkpt lat="43.11236" lon="2.38731">
        <ele>288.1203918457</ele>
        <time>2011-06-05T09:37:49Z</time>
      </trkpt>
      <trkpt lat="43.11224" lon="2.38772">
        <ele>289.88323974609</ele>
        <time>2011-06-05T09:37:55Z</time>
      </trkpt>
      <trkpt lat="43.11211" lon="2.38802">
        <ele>291.14974975586</ele>
        <time>2011-06-05T09:38:01Z</time>
      </trkpt>
      <trkpt lat="43.11205" lon="2.38818">
        <ele>290.95095825195</ele>
        <time>2011-06-05T09:38:06Z</time>
      </trkpt>
      <trkpt lat="43.11193" lon="2.38834">
        <ele>290.80361938477</ele>
        <time>2011-06-05T09:38:12Z</time>
      </trkpt>
      <trkpt lat="43.11177" lon="2.3884">
        <ele>292.39349365234</ele>
        <time>2011-06-05T09:38:18Z</time>
      </trkpt>
      <trkpt lat="43.11163" lon="2.38841">
        <ele>293.85479736328</ele>
        <time>2011-06-05T09:38:23Z</time>
      </trkpt>
      <trkpt lat="43.11144" lon="2.38842">
        <ele>297.23580932617</ele>
        <time>2011-06-05T09:38:30Z</time>
      </trkpt>
      <trkpt lat="43.11131" lon="2.38842">
        <ele>299.4797668457</ele>
        <time>2011-06-05T09:38:35Z</time>
      </trkpt>
      <trkpt lat="43.11116" lon="2.38845">
        <ele>302.08694458008</ele>
        <time>2011-06-05T09:38:42Z</time>
      </trkpt>
      <trkpt lat="43.11106" lon="2.38852">
        <ele>303.6565246582</ele>
        <time>2011-06-05T09:38:46Z</time>
      </trkpt>
      <trkpt lat="43.11099" lon="2.38865">
        <ele>304.49203491211</ele>
        <time>2011-06-05T09:38:50Z</time>
      </trkpt>
      <trkpt lat="43.11103" lon="2.38869">
        <ele>303.72406005859</ele>
        <time>2011-06-05T09:38:52Z</time>
      </trkpt>
      <trkpt lat="43.11127" lon="2.38872">
        <ele>300.19430541992</ele>
        <time>2011-06-05T09:39:00Z</time>
      </trkpt>
      <trkpt lat="43.11153" lon="2.38879">
        <ele>296.49725341797</ele>
        <time>2011-06-05T09:39:10Z</time>
      </trkpt>
      <trkpt lat="43.11168" lon="2.38883">
        <ele>294.69244384766</ele>
        <time>2011-06-05T09:39:15Z</time>
      </trkpt>
      <trkpt lat="43.11189" lon="2.38888">
        <ele>293.25946044922</ele>
        <time>2011-06-05T09:39:21Z</time>
      </trkpt>
      <trkpt lat="43.11198" lon="2.38904">
        <ele>293.21502685547</ele>
        <time>2011-06-05T09:39:26Z</time>
      </trkpt>
      <trkpt lat="43.112" lon="2.38922">
        <ele>293.96231079102</ele>
        <time>2011-06-05T09:39:31Z</time>
      </trkpt>
      <trkpt lat="43.11199" lon="2.38949">
        <ele>295.74401855469</ele>
        <time>2011-06-05T09:39:38Z</time>
      </trkpt>
      <trkpt lat="43.1119" lon="2.38969">
        <ele>297.24700927734</ele>
        <time>2011-06-05T09:39:44Z</time>
      </trkpt>
      <trkpt lat="43.11187" lon="2.38979">
        <ele>297.88262939453</ele>
        <time>2011-06-05T09:39:47Z</time>
      </trkpt>
      <trkpt lat="43.11195" lon="2.38997">
        <ele>298.80493164062</ele>
        <time>2011-06-05T09:39:52Z</time>
      </trkpt>
      <trkpt lat="43.11198" lon="2.39026">
        <ele>300.92471313477</ele>
        <time>2011-06-05T09:39:56Z</time>
      </trkpt>
      <trkpt lat="43.11184" lon="2.39043">
        <ele>301.24975585938</ele>
        <time>2011-06-05T09:39:59Z</time>
      </trkpt>
      <trkpt lat="43.11169" lon="2.39055">
        <ele>300.53350830078</ele>
        <time>2011-06-05T09:40:04Z</time>
      </trkpt>
      <trkpt lat="43.11161" lon="2.39063">
        <ele>301.69427490234</ele>
        <time>2011-06-05T09:40:09Z</time>
      </trkpt>
      <trkpt lat="43.1115" lon="2.39079">
        <ele>304.29391479492</ele>
        <time>2011-06-05T09:40:16Z</time>
      </trkpt>
      <trkpt lat="43.11144" lon="2.391">
        <ele>306.31008911133</ele>
        <time>2011-06-05T09:40:23Z</time>
      </trkpt>
      <trkpt lat="43.11141" lon="2.39124">
        <ele>307.69702148438</ele>
        <time>2011-06-05T09:40:30Z</time>
      </trkpt>
      <trkpt lat="43.11136" lon="2.39142">
        <ele>308.91641235352</ele>
        <time>2011-06-05T09:40:35Z</time>
      </trkpt>
      <trkpt lat="43.11133" lon="2.39157">
        <ele>309.57220458984</ele>
        <time>2011-06-05T09:40:41Z</time>
      </trkpt>
      <trkpt lat="43.11128" lon="2.39174">
        <ele>310.41998291016</ele>
        <time>2011-06-05T09:40:48Z</time>
      </trkpt>
      <trkpt lat="43.11122" lon="2.39188">
        <ele>311.02838134766</ele>
        <time>2011-06-05T09:40:55Z</time>
      </trkpt>
      <trkpt lat="43.11116" lon="2.39199">
        <ele>311.2926940918</ele>
        <time>2011-06-05T09:41:01Z</time>
      </trkpt>
      <trkpt lat="43.11106" lon="2.39214">
        <ele>311.27160644531</ele>
        <time>2011-06-05T09:41:09Z</time>
      </trkpt>
      <trkpt lat="43.11097" lon="2.39226">
        <ele>310.82928466797</ele>
        <time>2011-06-05T09:41:16Z</time>
      </trkpt>
      <trkpt lat="43.11089" lon="2.39232">
        <ele>310.26513671875</ele>
        <time>2011-06-05T09:41:22Z</time>
      </trkpt>
      <trkpt lat="43.11083" lon="2.39243">
        <ele>309.57955932617</ele>
        <time>2011-06-05T09:41:27Z</time>
      </trkpt>
      <trkpt lat="43.11083" lon="2.39256">
        <ele>309.52005004883</ele>
        <time>2011-06-05T09:41:32Z</time>
      </trkpt>
      <trkpt lat="43.11087" lon="2.39275">
        <ele>310.8337097168</ele>
        <time>2011-06-05T09:41:39Z</time>
      </trkpt>
      <trkpt lat="43.11089" lon="2.39298">
        <ele>312.39413452148</ele>
        <time>2011-06-05T09:41:47Z</time>
      </trkpt>
      <trkpt lat="43.11088" lon="2.39317">
        <ele>313.56878662109</ele>
        <time>2011-06-05T09:41:54Z</time>
      </trkpt>
      <trkpt lat="43.11086" lon="2.3933">
        <ele>314.12002563477</ele>
        <time>2011-06-05T09:42:00Z</time>
      </trkpt>
      <trkpt lat="43.11084" lon="2.39342">
        <ele>314.78915405273</ele>
        <time>2011-06-05T09:42:05Z</time>
      </trkpt>
      <trkpt lat="43.11086" lon="2.39358">
        <ele>316.33312988281</ele>
        <time>2011-06-05T09:42:11Z</time>
      </trkpt>
      <trkpt lat="43.11094" lon="2.39373">
        <ele>318.55700683594</ele>
        <time>2011-06-05T09:42:17Z</time>
      </trkpt>
      <trkpt lat="43.11101" lon="2.39389">
        <ele>320.70346069336</ele>
        <time>2011-06-05T09:42:23Z</time>
      </trkpt>
      <trkpt lat="43.11103" lon="2.39407">
        <ele>322.40411376953</ele>
        <time>2011-06-05T09:42:29Z</time>
      </trkpt>
      <trkpt lat="43.11104" lon="2.39419">
        <ele>323.349609375</ele>
        <time>2011-06-05T09:42:32Z</time>
      </trkpt>
      <trkpt lat="43.11093" lon="2.3944">
        <ele>322.80633544922</ele>
        <time>2011-06-05T09:42:37Z</time>
      </trkpt>
      <trkpt lat="43.11091" lon="2.39444">
        <ele>322.68460083008</ele>
        <time>2011-06-05T09:42:38Z</time>
      </trkpt>
      <trkpt lat="43.11081" lon="2.3947">
        <ele>322.66479492188</ele>
        <time>2011-06-05T09:42:45Z</time>
      </trkpt>
      <trkpt lat="43.11066" lon="2.39498">
        <ele>325.88821411133</ele>
        <time>2011-06-05T09:42:54Z</time>
      </trkpt>
      <trkpt lat="43.11055" lon="2.39516">
        <ele>328.150390625</ele>
        <time>2011-06-05T09:43:01Z</time>
      </trkpt>
      <trkpt lat="43.11047" lon="2.3953">
        <ele>329.46563720703</ele>
        <time>2011-06-05T09:43:07Z</time>
      </trkpt>
      <trkpt lat="43.11041" lon="2.39546">
        <ele>330.05935668945</ele>
        <time>2011-06-05T09:43:13Z</time>
      </trkpt>
      <trkpt lat="43.1104" lon="2.39572">
        <ele>330.04293823242</ele>
        <time>2011-06-05T09:43:21Z</time>
      </trkpt>
      <trkpt lat="43.11042" lon="2.39581">
        <ele>330.00012207031</ele>
        <time>2011-06-05T09:43:24Z</time>
      </trkpt>
      <trkpt lat="43.1105" lon="2.39586">
        <ele>330.27621459961</ele>
        <time>2011-06-05T09:43:28Z</time>
      </trkpt>
      <trkpt lat="43.11063" lon="2.39592">
        <ele>330.97775268555</ele>
        <time>2011-06-05T09:43:33Z</time>
      </trkpt>
      <trkpt lat="43.11064" lon="2.39613">
        <ele>333.45086669922</ele>
        <time>2011-06-05T09:43:39Z</time>
      </trkpt>
      <trkpt lat="43.11062" lon="2.39641">
        <ele>336.71704101562</ele>
        <time>2011-06-05T09:43:47Z</time>
      </trkpt>
      <trkpt lat="43.11064" lon="2.39662">
        <ele>339.10125732422</ele>
        <time>2011-06-05T09:43:53Z</time>
      </trkpt>
      <trkpt lat="43.11061" lon="2.39693">
        <ele>340.88983154297</ele>
        <time>2011-06-05T09:44:01Z</time>
      </trkpt>
      <trkpt lat="43.1105" lon="2.39729">
        <ele>342.59802246094</ele>
        <time>2011-06-05T09:44:11Z</time>
      </trkpt>
      <trkpt lat="43.11044" lon="2.39751">
        <ele>343.51803588867</ele>
        <time>2011-06-05T09:44:17Z</time>
      </trkpt>
      <trkpt lat="43.11054" lon="2.39766">
        <ele>344.25549316406</ele>
        <time>2011-06-05T09:44:24Z</time>
      </trkpt>
      <trkpt lat="43.11065" lon="2.39776">
        <ele>344.82864379883</ele>
        <time>2011-06-05T09:44:31Z</time>
      </trkpt>
      <trkpt lat="43.11076" lon="2.39788">
        <ele>345.64276123047</ele>
        <time>2011-06-05T09:44:39Z</time>
      </trkpt>
      <trkpt lat="43.1108" lon="2.39792">
        <ele>345.99304199219</ele>
        <time>2011-06-05T09:44:42Z</time>
      </trkpt>
      <trkpt lat="43.11095" lon="2.39805">
        <ele>350.34661865234</ele>
        <time>2011-06-05T09:44:50Z</time>
      </trkpt>
      <trkpt lat="43.11104" lon="2.39818">
        <ele>353.93099975586</ele>
        <time>2011-06-05T09:44:56Z</time>
      </trkpt>
      <trkpt lat="43.11109" lon="2.39831">
        <ele>356.20300292969</ele>
        <time>2011-06-05T09:45:02Z</time>
      </trkpt>
      <trkpt lat="43.11113" lon="2.39849">
        <ele>358.21771240234</ele>
        <time>2011-06-05T09:45:09Z</time>
      </trkpt>
      <trkpt lat="43.11119" lon="2.39866">
        <ele>360.18649291992</ele>
        <time>2011-06-05T09:45:16Z</time>
      </trkpt>
      <trkpt lat="43.11126" lon="2.39884">
        <ele>362.11672973633</ele>
        <time>2011-06-05T09:45:24Z</time>
      </trkpt>
      <trkpt lat="43.1113" lon="2.39905">
        <ele>363.12265014648</ele>
        <time>2011-06-05T09:45:32Z</time>
      </trkpt>
      <trkpt lat="43.11131" lon="2.3992">
        <ele>363.47872924805</ele>
        <time>2011-06-05T09:45:39Z</time>
      </trkpt>
      <trkpt lat="43.11132" lon="2.39938">
        <ele>364.36715698242</ele>
        <time>2011-06-05T09:45:46Z</time>
      </trkpt>
      <trkpt lat="43.11138" lon="2.39959">
        <ele>365.62414550781</ele>
        <time>2011-06-05T09:45:54Z</time>
      </trkpt>
      <trkpt lat="43.11141" lon="2.39972">
        <ele>366.13632202148</ele>
        <time>2011-06-05T09:45:59Z</time>
      </trkpt>
      <trkpt lat="43.1114" lon="2.39987">
        <ele>366.37738037109</ele>
        <time>2011-06-05T09:46:05Z</time>
      </trkpt>
      <trkpt lat="43.1113" lon="2.39993">
        <ele>366.2825012207</ele>
        <time>2011-06-05T09:46:11Z</time>
      </trkpt>
      <trkpt lat="43.11113" lon="2.39994">
        <ele>365.93658447266</ele>
        <time>2011-06-05T09:46:19Z</time>
      </trkpt>
      <trkpt lat="43.11097" lon="2.39987">
        <ele>364.86770629883</ele>
        <time>2011-06-05T09:46:27Z</time>
      </trkpt>
      <trkpt lat="43.11083" lon="2.39976">
        <ele>363.07672119141</ele>
        <time>2011-06-05T09:46:34Z</time>
      </trkpt>
      <trkpt lat="43.11068" lon="2.39967">
        <ele>362.47308349609</ele>
        <time>2011-06-05T09:46:41Z</time>
      </trkpt>
      <trkpt lat="43.11048" lon="2.39956">
        <ele>361.59628295898</ele>
        <time>2011-06-05T09:46:51Z</time>
      </trkpt>
      <trkpt lat="43.11032" lon="2.39955">
        <ele>361.73635864258</ele>
        <time>2011-06-05T09:46:58Z</time>
      </trkpt>
      <trkpt lat="43.11018" lon="2.3996">
        <ele>362.77310180664</ele>
        <time>2011-06-05T09:47:04Z</time>
      </trkpt>
      <trkpt lat="43.11009" lon="2.39963">
        <ele>363.54934692383</ele>
        <time>2011-06-05T09:47:09Z</time>
      </trkpt>
      <trkpt lat="43.11" lon="2.39974">
        <ele>365.62966918945</ele>
        <time>2011-06-05T09:47:15Z</time>
      </trkpt>
      <trkpt lat="43.10994" lon="2.39996">
        <ele>368.09243774414</ele>
        <time>2011-06-05T09:47:23Z</time>
      </trkpt>
      <trkpt lat="43.10992" lon="2.40025">
        <ele>371.26159667969</ele>
        <time>2011-06-05T09:47:33Z</time>
      </trkpt>
      <trkpt lat="43.10988" lon="2.40051">
        <ele>373.26058959961</ele>
        <time>2011-06-05T09:47:40Z</time>
      </trkpt>
      <trkpt lat="43.10985" lon="2.40068">
        <ele>374.61233520508</ele>
        <time>2011-06-05T09:47:45Z</time>
      </trkpt>
      <trkpt lat="43.10983" lon="2.40074">
        <ele>374.85537719727</ele>
        <time>2011-06-05T09:47:48Z</time>
      </trkpt>
      <trkpt lat="43.10978" lon="2.40092">
        <ele>375.69818115234</ele>
        <time>2011-06-05T09:47:54Z</time>
      </trkpt>
      <trkpt lat="43.1097" lon="2.40117">
        <ele>376.65481567383</ele>
        <time>2011-06-05T09:48:01Z</time>
      </trkpt>
      <trkpt lat="43.10963" lon="2.40144">
        <ele>378.27432250977</ele>
        <time>2011-06-05T09:48:08Z</time>
      </trkpt>
      <trkpt lat="43.1096" lon="2.40167">
        <ele>379.96606445312</ele>
        <time>2011-06-05T09:48:14Z</time>
      </trkpt>
      <trkpt lat="43.10952" lon="2.40203">
        <ele>382.47024536133</ele>
        <time>2011-06-05T09:48:23Z</time>
      </trkpt>
      <trkpt lat="43.10944" lon="2.40226">
        <ele>383.74264526367</ele>
        <time>2011-06-05T09:48:30Z</time>
      </trkpt>
      <trkpt lat="43.10939" lon="2.40247">
        <ele>385.17944335938</ele>
        <time>2011-06-05T09:48:37Z</time>
      </trkpt>
      <trkpt lat="43.10934" lon="2.40261">
        <ele>386.01202392578</ele>
        <time>2011-06-05T09:48:43Z</time>
      </trkpt>
      <trkpt lat="43.10933" lon="2.40268">
        <ele>386.81356811523</ele>
        <time>2011-06-05T09:48:48Z</time>
      </trkpt>
      <trkpt lat="43.10928" lon="2.4028">
        <ele>387.49642944336</ele>
        <time>2011-06-05T09:48:53Z</time>
      </trkpt>
      <trkpt lat="43.10918" lon="2.403">
        <ele>388.12066650391</ele>
        <time>2011-06-05T09:48:59Z</time>
      </trkpt>
      <trkpt lat="43.10902" lon="2.40331">
        <ele>391.76483154297</ele>
        <time>2011-06-05T09:49:07Z</time>
      </trkpt>
      <trkpt lat="43.10895" lon="2.40353">
        <ele>394.41760253906</ele>
        <time>2011-06-05T09:49:12Z</time>
      </trkpt>
      <trkpt lat="43.1088" lon="2.40371">
        <ele>395.3141784668</ele>
        <time>2011-06-05T09:49:18Z</time>
      </trkpt>
      <trkpt lat="43.10869" lon="2.40371">
        <ele>394.16497802734</ele>
        <time>2011-06-05T09:49:22Z</time>
      </trkpt>
      <trkpt lat="43.1086" lon="2.4037">
        <ele>393.04284667969</ele>
        <time>2011-06-05T09:49:26Z</time>
      </trkpt>
      <trkpt lat="43.10849" lon="2.40373">
        <ele>392.10928344727</ele>
        <time>2011-06-05T09:49:31Z</time>
      </trkpt>
      <trkpt lat="43.10842" lon="2.40378">
        <ele>391.75296020508</ele>
        <time>2011-06-05T09:49:35Z</time>
      </trkpt>
      <trkpt lat="43.10835" lon="2.40395">
        <ele>391.96432495117</ele>
        <time>2011-06-05T09:49:41Z</time>
      </trkpt>
      <trkpt lat="43.10827" lon="2.40413">
        <ele>392.76007080078</ele>
        <time>2011-06-05T09:49:48Z</time>
      </trkpt>
      <trkpt lat="43.10822" lon="2.40428">
        <ele>392.19778442383</ele>
        <time>2011-06-05T09:49:53Z</time>
      </trkpt>
      <trkpt lat="43.10826" lon="2.4044">
        <ele>391.61544799805</ele>
        <time>2011-06-05T09:49:58Z</time>
      </trkpt>
      <trkpt lat="43.10828" lon="2.40443">
        <ele>391.53997802734</ele>
        <time>2011-06-05T09:49:59Z</time>
      </trkpt>
      <trkpt lat="43.10849" lon="2.40467">
        <ele>394.01373291016</ele>
        <time>2011-06-05T09:50:07Z</time>
      </trkpt>
      <trkpt lat="43.10866" lon="2.40481">
        <ele>397.5583190918</ele>
        <time>2011-06-05T09:50:13Z</time>
      </trkpt>
      <trkpt lat="43.10885" lon="2.40504">
        <ele>401.75387573242</ele>
        <time>2011-06-05T09:50:20Z</time>
      </trkpt>
      <trkpt lat="43.10894" lon="2.40536">
        <ele>402.39181518555</ele>
        <time>2011-06-05T09:50:27Z</time>
      </trkpt>
      <trkpt lat="43.10891" lon="2.40569">
        <ele>399.87634277344</ele>
        <time>2011-06-05T09:50:33Z</time>
      </trkpt>
      <trkpt lat="43.10887" lon="2.40612">
        <ele>395.63214111328</ele>
        <time>2011-06-05T09:50:41Z</time>
      </trkpt>
      <trkpt lat="43.1089" lon="2.40662">
        <ele>392.60592651367</ele>
        <time>2011-06-05T09:50:50Z</time>
      </trkpt>
      <trkpt lat="43.10898" lon="2.40684">
        <ele>392.51992797852</ele>
        <time>2011-06-05T09:50:55Z</time>
      </trkpt>
      <trkpt lat="43.1091" lon="2.4069">
        <ele>394.43878173828</ele>
        <time>2011-06-05T09:50:59Z</time>
      </trkpt>
      <trkpt lat="43.10932" lon="2.40681">
        <ele>398.2780456543</ele>
        <time>2011-06-05T09:51:05Z</time>
      </trkpt>
      <trkpt lat="43.10962" lon="2.40663">
        <ele>403.91036987305</ele>
        <time>2011-06-05T09:51:14Z</time>
      </trkpt>
      <trkpt lat="43.10985" lon="2.40657">
        <ele>407.28607177734</ele>
        <time>2011-06-05T09:51:20Z</time>
      </trkpt>
      <trkpt lat="43.11007" lon="2.40669">
        <ele>408.00830078125</ele>
        <time>2011-06-05T09:51:26Z</time>
      </trkpt>
      <trkpt lat="43.11022" lon="2.4069">
        <ele>407.31750488281</ele>
        <time>2011-06-05T09:51:32Z</time>
      </trkpt>
      <trkpt lat="43.11039" lon="2.40723">
        <ele>405.37246704102</ele>
        <time>2011-06-05T09:51:40Z</time>
      </trkpt>
      <trkpt lat="43.11054" lon="2.40756">
        <ele>404.41345214844</ele>
        <time>2011-06-05T09:51:47Z</time>
      </trkpt>
      <trkpt lat="43.11063" lon="2.40789">
        <ele>404.93710327148</ele>
        <time>2011-06-05T09:51:54Z</time>
      </trkpt>
      <trkpt lat="43.11071" lon="2.40809">
        <ele>406.27658081055</ele>
        <time>2011-06-05T09:51:59Z</time>
      </trkpt>
      <trkpt lat="43.11081" lon="2.40843">
        <ele>407.95880126953</ele>
        <time>2011-06-05T09:52:07Z</time>
      </trkpt>
      <trkpt lat="43.11087" lon="2.4088">
        <ele>407.39135742188</ele>
        <time>2011-06-05T09:52:15Z</time>
      </trkpt>
      <trkpt lat="43.1109" lon="2.40919">
        <ele>406.05291748047</ele>
        <time>2011-06-05T09:52:23Z</time>
      </trkpt>
      <trkpt lat="43.11087" lon="2.40954">
        <ele>405.55545043945</ele>
        <time>2011-06-05T09:52:30Z</time>
      </trkpt>
      <trkpt lat="43.11084" lon="2.40985">
        <ele>405.16839599609</ele>
        <time>2011-06-05T09:52:36Z</time>
      </trkpt>
      <trkpt lat="43.11092" lon="2.41016">
        <ele>404.30288696289</ele>
        <time>2011-06-05T09:52:42Z</time>
      </trkpt>
      <trkpt lat="43.11105" lon="2.41041">
        <ele>403.80072021484</ele>
        <time>2011-06-05T09:52:49Z</time>
      </trkpt>
      <trkpt lat="43.11116" lon="2.41056">
        <ele>404.02380371094</ele>
        <time>2011-06-05T09:52:55Z</time>
      </trkpt>
      <trkpt lat="43.11122" lon="2.41065">
        <ele>404.29751586914</ele>
        <time>2011-06-05T09:53:00Z</time>
      </trkpt>
      <trkpt lat="43.11122" lon="2.41069">
        <ele>404.28213500977</ele>
        <time>2011-06-05T09:53:06Z</time>
      </trkpt>
      <trkpt lat="43.11122" lon="2.4107">
        <ele>404.27615356445</ele>
        <time>2011-06-05T09:53:12Z</time>
      </trkpt>
      <trkpt lat="43.11124" lon="2.4107">
        <ele>404.40859985352</ele>
        <time>2011-06-05T10:07:18Z</time>
      </trkpt>
      <trkpt lat="43.11124" lon="2.41069">
        <ele>404.40878295898</ele>
        <time>2011-06-05T10:07:19Z</time>
      </trkpt>
      <trkpt lat="43.11125" lon="2.4107">
        <ele>404.51251220703</ele>
        <time>2011-06-05T10:09:44Z</time>
      </trkpt>
      <trkpt lat="43.11128" lon="2.41074">
        <ele>404.73806762695</ele>
        <time>2011-06-05T10:09:47Z</time>
      </trkpt>
      <trkpt lat="43.11132" lon="2.41078">
        <ele>405.07931518555</ele>
        <time>2011-06-05T10:09:51Z</time>
      </trkpt>
      <trkpt lat="43.11136" lon="2.41081">
        <ele>405.38726806641</ele>
        <time>2011-06-05T10:09:57Z</time>
      </trkpt>
      <trkpt lat="43.11137" lon="2.41085">
        <ele>405.7555847168</ele>
        <time>2011-06-05T10:10:02Z</time>
      </trkpt>
      <trkpt lat="43.11137" lon="2.41086">
        <ele>405.84579467773</ele>
        <time>2011-06-05T10:10:04Z</time>
      </trkpt>
      <trkpt lat="43.11137" lon="2.41095">
        <ele>406.92816162109</ele>
        <time>2011-06-05T10:10:09Z</time>
      </trkpt>
      <trkpt lat="43.11138" lon="2.41102">
        <ele>407.94165039062</ele>
        <time>2011-06-05T10:10:14Z</time>
      </trkpt>
      <trkpt lat="43.11138" lon="2.41103">
        <ele>408.12042236328</ele>
        <time>2011-06-05T10:10:15Z</time>
      </trkpt>
      <trkpt lat="43.11139" lon="2.41105">
        <ele>408.33963012695</ele>
        <time>2011-06-05T10:10:16Z</time>
      </trkpt>
      <trkpt lat="43.11139" lon="2.41106">
        <ele>408.5202331543</ele>
        <time>2011-06-05T10:10:17Z</time>
      </trkpt>
      <trkpt lat="43.1114" lon="2.41108">
        <ele>408.96685791016</ele>
        <time>2011-06-05T10:10:19Z</time>
      </trkpt>
      <trkpt lat="43.11144" lon="2.41113">
        <ele>410.0725402832</ele>
        <time>2011-06-05T10:10:24Z</time>
      </trkpt>
      <trkpt lat="43.11146" lon="2.41117">
        <ele>410.734375</ele>
        <time>2011-06-05T10:10:29Z</time>
      </trkpt>
      <trkpt lat="43.11147" lon="2.4112">
        <ele>411.31265258789</ele>
        <time>2011-06-05T10:10:33Z</time>
      </trkpt>
      <trkpt lat="43.11147" lon="2.41121">
        <ele>411.3935546875</ele>
        <time>2011-06-05T10:10:34Z</time>
      </trkpt>
      <trkpt lat="43.11147" lon="2.41121">
        <ele>411.43560791016</ele>
        <time>2011-06-05T10:10:36Z</time>
      </trkpt>
      <trkpt lat="43.11142" lon="2.41133">
        <ele>412.51278686523</ele>
        <time>2011-06-05T10:10:50Z</time>
      </trkpt>
      <trkpt lat="43.11142" lon="2.41141">
        <ele>413.36715698242</ele>
        <time>2011-06-05T10:10:58Z</time>
      </trkpt>
      <trkpt lat="43.11141" lon="2.41148">
        <ele>414.29699707031</ele>
        <time>2011-06-05T10:11:07Z</time>
      </trkpt>
      <trkpt lat="43.1114" lon="2.41151">
        <ele>414.50033569336</ele>
        <time>2011-06-05T10:11:12Z</time>
      </trkpt>
      <trkpt lat="43.1114" lon="2.41159">
        <ele>415.5290222168</ele>
        <time>2011-06-05T10:11:20Z</time>
      </trkpt>
      <trkpt lat="43.1114" lon="2.4116">
        <ele>415.6950378418</ele>
        <time>2011-06-05T10:11:22Z</time>
      </trkpt>
      <trkpt lat="43.1114" lon="2.41164">
        <ele>416.18475341797</ele>
        <time>2011-06-05T10:11:28Z</time>
      </trkpt>
      <trkpt lat="43.11143" lon="2.41172">
        <ele>417.84127807617</ele>
        <time>2011-06-05T10:11:43Z</time>
      </trkpt>
      <trkpt lat="43.11147" lon="2.41188">
        <ele>420.63775634766</ele>
        <time>2011-06-05T10:12:20Z</time>
      </trkpt>
      <trkpt lat="43.11147" lon="2.41188">
        <ele>420.69522094727</ele>
        <time>2011-06-05T10:12:21Z</time>
      </trkpt>
      <trkpt lat="43.11148" lon="2.41197">
        <ele>422.24462890625</ele>
        <time>2011-06-05T10:12:32Z</time>
      </trkpt>
      <trkpt lat="43.11147" lon="2.412">
        <ele>422.55349731445</ele>
        <time>2011-06-05T10:12:36Z</time>
      </trkpt>
      <trkpt lat="43.11147" lon="2.41204">
        <ele>423.03451538086</ele>
        <time>2011-06-05T10:12:41Z</time>
      </trkpt>
      <trkpt lat="43.11147" lon="2.41205">
        <ele>423.07507324219</ele>
        <time>2011-06-05T10:12:42Z</time>
      </trkpt>
      <trkpt lat="43.11147" lon="2.41211">
        <ele>423.82379150391</ele>
        <time>2011-06-05T10:12:53Z</time>
      </trkpt>
      <trkpt lat="43.11146" lon="2.41218">
        <ele>424.69995117188</ele>
        <time>2011-06-05T10:13:04Z</time>
      </trkpt>
      <trkpt lat="43.11145" lon="2.41222">
        <ele>425.05358886719</ele>
        <time>2011-06-05T10:13:09Z</time>
      </trkpt>
      <trkpt lat="43.11146" lon="2.41228">
        <ele>426.27319335938</ele>
        <time>2011-06-05T10:13:17Z</time>
      </trkpt>
      <trkpt lat="43.11154" lon="2.41235">
        <ele>428.83502197266</ele>
        <time>2011-06-05T10:14:04Z</time>
      </trkpt>
      <trkpt lat="43.1116" lon="2.41247">
        <ele>431.947265625</ele>
        <time>2011-06-05T10:14:07Z</time>
      </trkpt>
      <trkpt lat="43.11171" lon="2.4127">
        <ele>433.45547485352</ele>
        <time>2011-06-05T10:14:11Z</time>
      </trkpt>
      <trkpt lat="43.11186" lon="2.41284">
        <ele>432.8942565918</ele>
        <time>2011-06-05T10:14:16Z</time>
      </trkpt>
      <trkpt lat="43.11202" lon="2.41308">
        <ele>434.10754394531</ele>
        <time>2011-06-05T10:14:21Z</time>
      </trkpt>
      <trkpt lat="43.11208" lon="2.41321">
        <ele>435.36077880859</ele>
        <time>2011-06-05T10:14:23Z</time>
      </trkpt>
      <trkpt lat="43.11214" lon="2.41342">
        <ele>436.86273193359</ele>
        <time>2011-06-05T10:14:28Z</time>
      </trkpt>
      <trkpt lat="43.11217" lon="2.41346">
        <ele>437.09167480469</ele>
        <time>2011-06-05T10:14:31Z</time>
      </trkpt>
      <trkpt lat="43.11225" lon="2.41353">
        <ele>438.24072265625</ele>
        <time>2011-06-05T10:14:38Z</time>
      </trkpt>
      <trkpt lat="43.11232" lon="2.41357">
        <ele>439.39443969727</ele>
        <time>2011-06-05T10:14:45Z</time>
      </trkpt>
      <trkpt lat="43.11236" lon="2.41357">
        <ele>440.07629394531</ele>
        <time>2011-06-05T10:14:48Z</time>
      </trkpt>
      <trkpt lat="43.11248" lon="2.41366">
        <ele>442.6845703125</ele>
        <time>2011-06-05T10:14:54Z</time>
      </trkpt>
      <trkpt lat="43.11251" lon="2.41373">
        <ele>443.83554077148</ele>
        <time>2011-06-05T10:15:00Z</time>
      </trkpt>
      <trkpt lat="43.11251" lon="2.41374">
        <ele>443.94342041016</ele>
        <time>2011-06-05T10:15:06Z</time>
      </trkpt>
      <trkpt lat="43.11251" lon="2.41377">
        <ele>444.32055664062</ele>
        <time>2011-06-05T10:15:12Z</time>
      </trkpt>
      <trkpt lat="43.11252" lon="2.4138">
        <ele>444.55532836914</ele>
        <time>2011-06-05T10:15:17Z</time>
      </trkpt>
      <trkpt lat="43.11254" lon="2.41384">
        <ele>445.07360839844</ele>
        <time>2011-06-05T10:15:24Z</time>
      </trkpt>
      <trkpt lat="43.11257" lon="2.41385">
        <ele>445.3762512207</ele>
        <time>2011-06-05T10:15:29Z</time>
      </trkpt>
      <trkpt lat="43.11257" lon="2.41386">
        <ele>445.53948974609</ele>
        <time>2011-06-05T10:15:32Z</time>
      </trkpt>
      <trkpt lat="43.11261" lon="2.41396">
        <ele>446.74545288086</ele>
        <time>2011-06-05T10:15:57Z</time>
      </trkpt>
      <trkpt lat="43.11263" lon="2.414">
        <ele>447.35882568359</ele>
        <time>2011-06-05T10:16:03Z</time>
      </trkpt>
      <trkpt lat="43.11264" lon="2.41403">
        <ele>447.70156860352</ele>
        <time>2011-06-05T10:16:08Z</time>
      </trkpt>
      <trkpt lat="43.11266" lon="2.4141">
        <ele>448.62152099609</ele>
        <time>2011-06-05T10:16:34Z</time>
      </trkpt>
      <trkpt lat="43.11267" lon="2.41416">
        <ele>449.42901611328</ele>
        <time>2011-06-05T10:16:38Z</time>
      </trkpt>
      <trkpt lat="43.1127" lon="2.41424">
        <ele>449.40805053711</ele>
        <time>2011-06-05T10:16:42Z</time>
      </trkpt>
      <trkpt lat="43.11272" lon="2.41433">
        <ele>449.3017578125</ele>
        <time>2011-06-05T10:16:46Z</time>
      </trkpt>
      <trkpt lat="43.11277" lon="2.41439">
        <ele>449.67498779297</ele>
        <time>2011-06-05T10:16:52Z</time>
      </trkpt>
      <trkpt lat="43.11285" lon="2.41443">
        <ele>450.60192871094</ele>
        <time>2011-06-05T10:16:59Z</time>
      </trkpt>
      <trkpt lat="43.11292" lon="2.41449">
        <ele>451.28491210938</ele>
        <time>2011-06-05T10:17:04Z</time>
      </trkpt>
      <trkpt lat="43.11299" lon="2.41457">
        <ele>452.22384643555</ele>
        <time>2011-06-05T10:17:11Z</time>
      </trkpt>
      <trkpt lat="43.113" lon="2.41457">
        <ele>452.3291015625</ele>
        <time>2011-06-05T10:17:12Z</time>
      </trkpt>
      <trkpt lat="43.11306" lon="2.41463">
        <ele>453.22817993164</ele>
        <time>2011-06-05T10:17:21Z</time>
      </trkpt>
      <trkpt lat="43.11309" lon="2.41465">
        <ele>453.81680297852</ele>
        <time>2011-06-05T10:17:30Z</time>
      </trkpt>
      <trkpt lat="43.1131" lon="2.41466">
        <ele>453.8869934082</ele>
        <time>2011-06-05T10:17:33Z</time>
      </trkpt>
      <trkpt lat="43.11317" lon="2.41483">
        <ele>455.35101318359</ele>
        <time>2011-06-05T10:18:03Z</time>
      </trkpt>
      <trkpt lat="43.1132" lon="2.415">
        <ele>456.53503417969</ele>
        <time>2011-06-05T10:18:08Z</time>
      </trkpt>
      <trkpt lat="43.11324" lon="2.41507">
        <ele>456.90524291992</ele>
        <time>2011-06-05T10:18:09Z</time>
      </trkpt>
      <trkpt lat="43.11335" lon="2.41527">
        <ele>457.57647705078</ele>
        <time>2011-06-05T10:18:12Z</time>
      </trkpt>
      <trkpt lat="43.11341" lon="2.41539">
        <ele>455.6071472168</ele>
        <time>2011-06-05T10:18:14Z</time>
      </trkpt>
      <trkpt lat="43.11342" lon="2.41557">
        <ele>454.55633544922</ele>
        <time>2011-06-05T10:18:18Z</time>
      </trkpt>
      <trkpt lat="43.1134" lon="2.41568">
        <ele>454.80404663086</ele>
        <time>2011-06-05T10:18:21Z</time>
      </trkpt>
      <trkpt lat="43.1134" lon="2.41592">
        <ele>454.47763061523</ele>
        <time>2011-06-05T10:18:28Z</time>
      </trkpt>
      <trkpt lat="43.11335" lon="2.41617">
        <ele>456.07919311523</ele>
        <time>2011-06-05T10:18:33Z</time>
      </trkpt>
      <trkpt lat="43.11329" lon="2.41636">
        <ele>455.88763427734</ele>
        <time>2011-06-05T10:18:38Z</time>
      </trkpt>
      <trkpt lat="43.11328" lon="2.41652">
        <ele>455.8850402832</ele>
        <time>2011-06-05T10:18:43Z</time>
      </trkpt>
      <trkpt lat="43.11336" lon="2.41672">
        <ele>456.18005371094</ele>
        <time>2011-06-05T10:18:48Z</time>
      </trkpt>
      <trkpt lat="43.1134" lon="2.41686">
        <ele>454.55242919922</ele>
        <time>2011-06-05T10:18:52Z</time>
      </trkpt>
      <trkpt lat="43.11345" lon="2.41698">
        <ele>453.10232543945</ele>
        <time>2011-06-05T10:18:56Z</time>
      </trkpt>
      <trkpt lat="43.11353" lon="2.41725">
        <ele>451.04498291016</ele>
        <time>2011-06-05T10:19:00Z</time>
      </trkpt>
      <trkpt lat="43.11364" lon="2.41753">
        <ele>448.65090942383</ele>
        <time>2011-06-05T10:19:06Z</time>
      </trkpt>
      <trkpt lat="43.11373" lon="2.41762">
        <ele>446.79449462891</ele>
        <time>2011-06-05T10:19:09Z</time>
      </trkpt>
      <trkpt lat="43.11382" lon="2.41789">
        <ele>444.17761230469</ele>
        <time>2011-06-05T10:19:14Z</time>
      </trkpt>
      <trkpt lat="43.11394" lon="2.41821">
        <ele>442.35540771484</ele>
        <time>2011-06-05T10:19:18Z</time>
      </trkpt>
      <trkpt lat="43.11403" lon="2.41839">
        <ele>442.00921630859</ele>
        <time>2011-06-05T10:19:20Z</time>
      </trkpt>
      <trkpt lat="43.11409" lon="2.41869">
        <ele>440.82653808594</ele>
        <time>2011-06-05T10:19:24Z</time>
      </trkpt>
      <trkpt lat="43.11415" lon="2.41884">
        <ele>441.00564575195</ele>
        <time>2011-06-05T10:19:26Z</time>
      </trkpt>
      <trkpt lat="43.11433" lon="2.41912">
        <ele>440.65078735352</ele>
        <time>2011-06-05T10:19:31Z</time>
      </trkpt>
      <trkpt lat="43.11445" lon="2.41934">
        <ele>440.69415283203</ele>
        <time>2011-06-05T10:19:37Z</time>
      </trkpt>
      <trkpt lat="43.11453" lon="2.41958">
        <ele>440.97698974609</ele>
        <time>2011-06-05T10:19:43Z</time>
      </trkpt>
      <trkpt lat="43.11455" lon="2.41962">
        <ele>441.17901611328</ele>
        <time>2011-06-05T10:19:44Z</time>
      </trkpt>
      <trkpt lat="43.11474" lon="2.41967">
        <ele>443.23321533203</ele>
        <time>2011-06-05T10:19:50Z</time>
      </trkpt>
      <trkpt lat="43.11479" lon="2.41971">
        <ele>443.87921142578</ele>
        <time>2011-06-05T10:19:52Z</time>
      </trkpt>
      <trkpt lat="43.11491" lon="2.41983">
        <ele>445.77481079102</ele>
        <time>2011-06-05T10:19:58Z</time>
      </trkpt>
      <trkpt lat="43.11498" lon="2.41993">
        <ele>447.27038574219</ele>
        <time>2011-06-05T10:20:03Z</time>
      </trkpt>
      <trkpt lat="43.11502" lon="2.42005">
        <ele>448.3249206543</ele>
        <time>2011-06-05T10:20:09Z</time>
      </trkpt>
      <trkpt lat="43.11502" lon="2.42007">
        <ele>448.51763916016</ele>
        <time>2011-06-05T10:20:10Z</time>
      </trkpt>
      <trkpt lat="43.11504" lon="2.42017">
        <ele>449.40313720703</ele>
        <time>2011-06-05T10:20:16Z</time>
      </trkpt>
      <trkpt lat="43.11504" lon="2.42023">
        <ele>449.96661376953</ele>
        <time>2011-06-05T10:20:20Z</time>
      </trkpt>
      <trkpt lat="43.11505" lon="2.42037">
        <ele>451.29653930664</ele>
        <time>2011-06-05T10:20:28Z</time>
      </trkpt>
      <trkpt lat="43.11506" lon="2.42045">
        <ele>451.98196411133</ele>
        <time>2011-06-05T10:20:33Z</time>
      </trkpt>
      <trkpt lat="43.11507" lon="2.42051">
        <ele>452.54287719727</ele>
        <time>2011-06-05T10:20:37Z</time>
      </trkpt>
      <trkpt lat="43.11507" lon="2.42059">
        <ele>453.37622070312</ele>
        <time>2011-06-05T10:20:42Z</time>
      </trkpt>
      <trkpt lat="43.11507" lon="2.42062">
        <ele>453.666015625</ele>
        <time>2011-06-05T10:20:44Z</time>
      </trkpt>
      <trkpt lat="43.11507" lon="2.42064">
        <ele>453.85522460938</ele>
        <time>2011-06-05T10:20:45Z</time>
      </trkpt>
      <trkpt lat="43.1151" lon="2.42081">
        <ele>455.43579101562</ele>
        <time>2011-06-05T10:20:54Z</time>
      </trkpt>
      <trkpt lat="43.11511" lon="2.42092">
        <ele>455.91577148438</ele>
        <time>2011-06-05T10:21:00Z</time>
      </trkpt>
      <trkpt lat="43.11513" lon="2.42098">
        <ele>456.07318115234</ele>
        <time>2011-06-05T10:21:05Z</time>
      </trkpt>
      <trkpt lat="43.11519" lon="2.4211">
        <ele>456.451171875</ele>
        <time>2011-06-05T10:21:13Z</time>
      </trkpt>
      <trkpt lat="43.11523" lon="2.4212">
        <ele>456.91177368164</ele>
        <time>2011-06-05T10:21:20Z</time>
      </trkpt>
      <trkpt lat="43.11528" lon="2.4213">
        <ele>457.44512939453</ele>
        <time>2011-06-05T10:21:26Z</time>
      </trkpt>
      <trkpt lat="43.1153" lon="2.42134">
        <ele>457.64450073242</ele>
        <time>2011-06-05T10:21:28Z</time>
      </trkpt>
      <trkpt lat="43.11532" lon="2.42143">
        <ele>458.18206787109</ele>
        <time>2011-06-05T10:21:33Z</time>
      </trkpt>
      <trkpt lat="43.11534" lon="2.42149">
        <ele>458.58880615234</ele>
        <time>2011-06-05T10:21:37Z</time>
      </trkpt>
      <trkpt lat="43.11536" lon="2.42161">
        <ele>459.39489746094</ele>
        <time>2011-06-05T10:21:43Z</time>
      </trkpt>
      <trkpt lat="43.11542" lon="2.42178">
        <ele>461.00622558594</ele>
        <time>2011-06-05T10:21:51Z</time>
      </trkpt>
      <trkpt lat="43.11546" lon="2.42193">
        <ele>462.64926147461</ele>
        <time>2011-06-05T10:21:58Z</time>
      </trkpt>
      <trkpt lat="43.1155" lon="2.42212">
        <ele>464.80087280273</ele>
        <time>2011-06-05T10:22:07Z</time>
      </trkpt>
      <trkpt lat="43.11554" lon="2.42229">
        <ele>466.78048706055</ele>
        <time>2011-06-05T10:22:15Z</time>
      </trkpt>
      <trkpt lat="43.11556" lon="2.42241">
        <ele>468.12170410156</ele>
        <time>2011-06-05T10:22:21Z</time>
      </trkpt>
      <trkpt lat="43.11558" lon="2.4225">
        <ele>469.20901489258</ele>
        <time>2011-06-05T10:22:26Z</time>
      </trkpt>
      <trkpt lat="43.11559" lon="2.42262">
        <ele>471.09429931641</ele>
        <time>2011-06-05T10:22:33Z</time>
      </trkpt>
      <trkpt lat="43.11559" lon="2.42269">
        <ele>472.04513549805</ele>
        <time>2011-06-05T10:22:37Z</time>
      </trkpt>
      <trkpt lat="43.11561" lon="2.42281">
        <ele>474.02722167969</ele>
        <time>2011-06-05T10:22:45Z</time>
      </trkpt>
      <trkpt lat="43.11562" lon="2.42294">
        <ele>476.10940551758</ele>
        <time>2011-06-05T10:22:52Z</time>
      </trkpt>
      <trkpt lat="43.11562" lon="2.42302">
        <ele>477.36383056641</ele>
        <time>2011-06-05T10:22:57Z</time>
      </trkpt>
      <trkpt lat="43.11559" lon="2.42315">
        <ele>478.60668945312</ele>
        <time>2011-06-05T10:23:03Z</time>
      </trkpt>
      <trkpt lat="43.11551" lon="2.42331">
        <ele>478.96932983398</ele>
        <time>2011-06-05T10:23:10Z</time>
      </trkpt>
      <trkpt lat="43.11548" lon="2.42339">
        <ele>478.83538818359</ele>
        <time>2011-06-05T10:23:15Z</time>
      </trkpt>
      <trkpt lat="43.11548" lon="2.42339">
        <ele>478.83538818359</ele>
        <time>2011-06-05T10:23:16Z</time>
      </trkpt>
      <trkpt lat="43.11547" lon="2.42344">
        <ele>478.86996459961</ele>
        <time>2011-06-05T10:24:29Z</time>
      </trkpt>
      <trkpt lat="43.11546" lon="2.42346">
        <ele>478.85321044922</ele>
        <time>2011-06-05T10:24:30Z</time>
      </trkpt>
      <trkpt lat="43.11545" lon="2.42354">
        <ele>479.02917480469</ele>
        <time>2011-06-05T10:24:32Z</time>
      </trkpt>
      <trkpt lat="43.11552" lon="2.42369">
        <ele>482.06182861328</ele>
        <time>2011-06-05T10:24:38Z</time>
      </trkpt>
      <trkpt lat="43.11559" lon="2.42376">
        <ele>484.47085571289</ele>
        <time>2011-06-05T10:24:44Z</time>
      </trkpt>
      <trkpt lat="43.11565" lon="2.42383">
        <ele>486.57888793945</ele>
        <time>2011-06-05T10:24:51Z</time>
      </trkpt>
      <trkpt lat="43.1157" lon="2.42387">
        <ele>488.34396362305</ele>
        <time>2011-06-05T10:24:56Z</time>
      </trkpt>
      <trkpt lat="43.11573" lon="2.4239">
        <ele>489.42813110352</ele>
        <time>2011-06-05T10:25:01Z</time>
      </trkpt>
      <trkpt lat="43.11573" lon="2.42389">
        <ele>489.41775512695</ele>
        <time>2011-06-05T10:25:02Z</time>
      </trkpt>
      <trkpt lat="43.11576" lon="2.42393">
        <ele>490.52072143555</ele>
        <time>2011-06-05T10:25:09Z</time>
      </trkpt>
      <trkpt lat="43.11578" lon="2.42397">
        <ele>491.39407348633</ele>
        <time>2011-06-05T10:25:14Z</time>
      </trkpt>
      <trkpt lat="43.11581" lon="2.42407">
        <ele>493.33847045898</ele>
        <time>2011-06-05T10:25:23Z</time>
      </trkpt>
      <trkpt lat="43.11584" lon="2.42413">
        <ele>494.63296508789</ele>
        <time>2011-06-05T10:25:30Z</time>
      </trkpt>
      <trkpt lat="43.11587" lon="2.42422">
        <ele>494.48974609375</ele>
        <time>2011-06-05T10:25:38Z</time>
      </trkpt>
      <trkpt lat="43.11587" lon="2.42422">
        <ele>494.48654174805</ele>
        <time>2011-06-05T10:25:39Z</time>
      </trkpt>
      <trkpt lat="43.1159" lon="2.42428">
        <ele>494.11358642578</ele>
        <time>2011-06-05T10:25:47Z</time>
      </trkpt>
      <trkpt lat="43.11592" lon="2.42435">
        <ele>493.7956237793</ele>
        <time>2011-06-05T10:25:54Z</time>
      </trkpt>
      <trkpt lat="43.11594" lon="2.42439">
        <ele>493.59896850586</ele>
        <time>2011-06-05T10:25:59Z</time>
      </trkpt>
      <trkpt lat="43.11599" lon="2.42443">
        <ele>492.94473266602</ele>
        <time>2011-06-05T10:26:07Z</time>
      </trkpt>
      <trkpt lat="43.11603" lon="2.42446">
        <ele>492.56118774414</ele>
        <time>2011-06-05T10:26:13Z</time>
      </trkpt>
      <trkpt lat="43.11605" lon="2.42449">
        <ele>492.26580810547</ele>
        <time>2011-06-05T10:26:26Z</time>
      </trkpt>
      <trkpt lat="43.11605" lon="2.42455">
        <ele>492.33218383789</ele>
        <time>2011-06-05T10:26:32Z</time>
      </trkpt>
      <trkpt lat="43.11603" lon="2.42461">
        <ele>492.46768188477</ele>
        <time>2011-06-05T10:26:36Z</time>
      </trkpt>
      <trkpt lat="43.116" lon="2.4248">
        <ele>492.6496887207</ele>
        <time>2011-06-05T10:26:43Z</time>
      </trkpt>
      <trkpt lat="43.11599" lon="2.42494">
        <ele>492.68661499023</ele>
        <time>2011-06-05T10:26:49Z</time>
      </trkpt>
      <trkpt lat="43.11595" lon="2.42514">
        <ele>492.18817138672</ele>
        <time>2011-06-05T10:26:55Z</time>
      </trkpt>
      <trkpt lat="43.1159" lon="2.42537">
        <ele>491.44351196289</ele>
        <time>2011-06-05T10:27:01Z</time>
      </trkpt>
      <trkpt lat="43.11584" lon="2.42561">
        <ele>490.93640136719</ele>
        <time>2011-06-05T10:27:07Z</time>
      </trkpt>
      <trkpt lat="43.11579" lon="2.42578">
        <ele>489.16604614258</ele>
        <time>2011-06-05T10:27:11Z</time>
      </trkpt>
      <trkpt lat="43.11575" lon="2.42615">
        <ele>487.58355712891</ele>
        <time>2011-06-05T10:27:16Z</time>
      </trkpt>
      <trkpt lat="43.11568" lon="2.42651">
        <ele>486.27444458008</ele>
        <time>2011-06-05T10:27:20Z</time>
      </trkpt>
      <trkpt lat="43.11563" lon="2.42674">
        <ele>485.57086181641</ele>
        <time>2011-06-05T10:27:23Z</time>
      </trkpt>
      <trkpt lat="43.11561" lon="2.427">
        <ele>485.74337768555</ele>
        <time>2011-06-05T10:27:27Z</time>
      </trkpt>
      <trkpt lat="43.11558" lon="2.42725">
        <ele>486.06649780273</ele>
        <time>2011-06-05T10:27:32Z</time>
      </trkpt>
      <trkpt lat="43.11549" lon="2.4275">
        <ele>486.37176513672</ele>
        <time>2011-06-05T10:27:38Z</time>
      </trkpt>
      <trkpt lat="43.11544" lon="2.42769">
        <ele>486.31195068359</ele>
        <time>2011-06-05T10:27:43Z</time>
      </trkpt>
      <trkpt lat="43.11538" lon="2.42796">
        <ele>486.51959228516</ele>
        <time>2011-06-05T10:27:49Z</time>
      </trkpt>
      <trkpt lat="43.11533" lon="2.42828">
        <ele>487.10104370117</ele>
        <time>2011-06-05T10:27:56Z</time>
      </trkpt>
      <trkpt lat="43.11531" lon="2.42852">
        <ele>488.28051757812</ele>
        <time>2011-06-05T10:28:01Z</time>
      </trkpt>
      <trkpt lat="43.11528" lon="2.42885">
        <ele>490.23083496094</ele>
        <time>2011-06-05T10:28:08Z</time>
      </trkpt>
      <trkpt lat="43.11527" lon="2.429">
        <ele>491.12469482422</ele>
        <time>2011-06-05T10:28:13Z</time>
      </trkpt>
      <trkpt lat="43.11523" lon="2.42921">
        <ele>492.1936340332</ele>
        <time>2011-06-05T10:28:20Z</time>
      </trkpt>
      <trkpt lat="43.11519" lon="2.42939">
        <ele>492.51580810547</ele>
        <time>2011-06-05T10:28:25Z</time>
      </trkpt>
      <trkpt lat="43.11512" lon="2.42964">
        <ele>493.63421630859</ele>
        <time>2011-06-05T10:28:31Z</time>
      </trkpt>
      <trkpt lat="43.11502" lon="2.42979">
        <ele>495.60723876953</ele>
        <time>2011-06-05T10:28:36Z</time>
      </trkpt>
      <trkpt lat="43.11488" lon="2.42998">
        <ele>495.89581298828</ele>
        <time>2011-06-05T10:28:43Z</time>
      </trkpt>
      <trkpt lat="43.11481" lon="2.43017">
        <ele>493.21441650391</ele>
        <time>2011-06-05T10:28:48Z</time>
      </trkpt>
      <trkpt lat="43.1148" lon="2.43022">
        <ele>492.517578125</ele>
        <time>2011-06-05T10:28:49Z</time>
      </trkpt>
      <trkpt lat="43.11478" lon="2.4304">
        <ele>490.07443237305</ele>
        <time>2011-06-05T10:28:52Z</time>
      </trkpt>
      <trkpt lat="43.11469" lon="2.43081">
        <ele>484.84677124023</ele>
        <time>2011-06-05T10:28:57Z</time>
      </trkpt>
      <trkpt lat="43.11458" lon="2.4311">
        <ele>481.42486572266</ele>
        <time>2011-06-05T10:29:02Z</time>
      </trkpt>
      <trkpt lat="43.11456" lon="2.43118">
        <ele>480.49584960938</ele>
        <time>2011-06-05T10:29:05Z</time>
      </trkpt>
      <trkpt lat="43.11454" lon="2.43139">
        <ele>478.19146728516</ele>
        <time>2011-06-05T10:29:10Z</time>
      </trkpt>
      <trkpt lat="43.11449" lon="2.43176">
        <ele>474.53460693359</ele>
        <time>2011-06-05T10:29:14Z</time>
      </trkpt>
      <trkpt lat="43.11445" lon="2.43217">
        <ele>472.5651550293</ele>
        <time>2011-06-05T10:29:17Z</time>
      </trkpt>
      <trkpt lat="43.11441" lon="2.43267">
        <ele>470.69473266602</ele>
        <time>2011-06-05T10:29:21Z</time>
      </trkpt>
      <trkpt lat="43.1144" lon="2.43298">
        <ele>469.91250610352</ele>
        <time>2011-06-05T10:29:24Z</time>
      </trkpt>
      <trkpt lat="43.11441" lon="2.43332">
        <ele>469.03649902344</ele>
        <time>2011-06-05T10:29:27Z</time>
      </trkpt>
      <trkpt lat="43.11435" lon="2.43394">
        <ele>468.47869873047</ele>
        <time>2011-06-05T10:29:33Z</time>
      </trkpt>
      <trkpt lat="43.11432" lon="2.43415">
        <ele>468.54605102539</ele>
        <time>2011-06-05T10:29:36Z</time>
      </trkpt>
      <trkpt lat="43.11422" lon="2.43456">
        <ele>469.41195678711</ele>
        <time>2011-06-05T10:29:41Z</time>
      </trkpt>
      <trkpt lat="43.11404" lon="2.43506">
        <ele>470.16891479492</ele>
        <time>2011-06-05T10:29:48Z</time>
      </trkpt>
      <trkpt lat="43.11391" lon="2.43542">
        <ele>469.69412231445</ele>
        <time>2011-06-05T10:29:55Z</time>
      </trkpt>
      <trkpt lat="43.11385" lon="2.43566">
        <ele>469.91934204102</ele>
        <time>2011-06-05T10:30:00Z</time>
      </trkpt>
      <trkpt lat="43.11383" lon="2.4357">
        <ele>470.00302124023</ele>
        <time>2011-06-05T10:30:01Z</time>
      </trkpt>
      <trkpt lat="43.11382" lon="2.43574">
        <ele>470.0888671875</ele>
        <time>2011-06-05T10:30:02Z</time>
      </trkpt>
      <trkpt lat="43.1138" lon="2.43597">
        <ele>469.66809082031</ele>
        <time>2011-06-05T10:30:08Z</time>
      </trkpt>
      <trkpt lat="43.1138" lon="2.43602">
        <ele>469.41400146484</ele>
        <time>2011-06-05T10:30:10Z</time>
      </trkpt>
      <trkpt lat="43.1138" lon="2.43605">
        <ele>469.28927612305</ele>
        <time>2011-06-05T10:30:11Z</time>
      </trkpt>
      <trkpt lat="43.1138" lon="2.43608">
        <ele>469.14508056641</ele>
        <time>2011-06-05T10:30:12Z</time>
      </trkpt>
      <trkpt lat="43.11379" lon="2.43622">
        <ele>468.48132324219</ele>
        <time>2011-06-05T10:30:16Z</time>
      </trkpt>
      <trkpt lat="43.11375" lon="2.43643">
        <ele>467.65393066406</ele>
        <time>2011-06-05T10:30:21Z</time>
      </trkpt>
      <trkpt lat="43.11371" lon="2.43666">
        <ele>466.67657470703</ele>
        <time>2011-06-05T10:30:26Z</time>
      </trkpt>
      <trkpt lat="43.11365" lon="2.43691">
        <ele>466.41342163086</ele>
        <time>2011-06-05T10:30:31Z</time>
      </trkpt>
      <trkpt lat="43.1136" lon="2.43705">
        <ele>466.44750976562</ele>
        <time>2011-06-05T10:30:33Z</time>
      </trkpt>
      <trkpt lat="43.1135" lon="2.43731">
        <ele>466.7919921875</ele>
        <time>2011-06-05T10:30:36Z</time>
      </trkpt>
      <trkpt lat="43.11348" lon="2.43741">
        <ele>466.88037109375</ele>
        <time>2011-06-05T10:30:37Z</time>
      </trkpt>
      <trkpt lat="43.11346" lon="2.43764">
        <ele>467.33001708984</ele>
        <time>2011-06-05T10:30:41Z</time>
      </trkpt>
      <trkpt lat="43.11346" lon="2.43773">
        <ele>467.54251098633</ele>
        <time>2011-06-05T10:30:45Z</time>
      </trkpt>
      <trkpt lat="43.11347" lon="2.43785">
        <ele>467.82113647461</ele>
        <time>2011-06-05T10:30:50Z</time>
      </trkpt>
      <trkpt lat="43.1135" lon="2.43795">
        <ele>467.76583862305</ele>
        <time>2011-06-05T10:30:54Z</time>
      </trkpt>
      <trkpt lat="43.11356" lon="2.43815">
        <ele>467.53988647461</ele>
        <time>2011-06-05T10:31:02Z</time>
      </trkpt>
      <trkpt lat="43.11356" lon="2.43819">
        <ele>467.63314819336</ele>
        <time>2011-06-05T10:31:04Z</time>
      </trkpt>
      <trkpt lat="43.11356" lon="2.43831">
        <ele>467.94912719727</ele>
        <time>2011-06-05T10:31:08Z</time>
      </trkpt>
      <trkpt lat="43.11353" lon="2.43864">
        <ele>470.32824707031</ele>
        <time>2011-06-05T10:31:16Z</time>
      </trkpt>
      <trkpt lat="43.11353" lon="2.4388">
        <ele>471.41845703125</ele>
        <time>2011-06-05T10:31:21Z</time>
      </trkpt>
      <trkpt lat="43.11356" lon="2.43895">
        <ele>471.90704345703</ele>
        <time>2011-06-05T10:31:26Z</time>
      </trkpt>
      <trkpt lat="43.11357" lon="2.43906">
        <ele>472.48895263672</ele>
        <time>2011-06-05T10:31:30Z</time>
      </trkpt>
      <trkpt lat="43.11353" lon="2.43926">
        <ele>473.11465454102</ele>
        <time>2011-06-05T10:31:37Z</time>
      </trkpt>
      <trkpt lat="43.11348" lon="2.43939">
        <ele>472.85900878906</ele>
        <time>2011-06-05T10:31:41Z</time>
      </trkpt>
      <trkpt lat="43.11346" lon="2.43952">
        <ele>472.19244384766</ele>
        <time>2011-06-05T10:31:43Z</time>
      </trkpt>
      <trkpt lat="43.11346" lon="2.43968">
        <ele>471.20343017578</ele>
        <time>2011-06-05T10:31:45Z</time>
      </trkpt>
      <trkpt lat="43.11352" lon="2.43992">
        <ele>469.36209106445</ele>
        <time>2011-06-05T10:31:48Z</time>
      </trkpt>
      <trkpt lat="43.11359" lon="2.44012">
        <ele>466.87106323242</ele>
        <time>2011-06-05T10:31:52Z</time>
      </trkpt>
      <trkpt lat="43.11365" lon="2.44027">
        <ele>464.48599243164</ele>
        <time>2011-06-05T10:31:55Z</time>
      </trkpt>
      <trkpt lat="43.11375" lon="2.44052">
        <ele>461.0007019043</ele>
        <time>2011-06-05T10:31:59Z</time>
      </trkpt>
      <trkpt lat="43.11379" lon="2.44088">
        <ele>456.92678833008</ele>
        <time>2011-06-05T10:32:03Z</time>
      </trkpt>
      <trkpt lat="43.11378" lon="2.44096">
        <ele>456.80252075195</ele>
        <time>2011-06-05T10:32:04Z</time>
      </trkpt>
      <trkpt lat="43.11378" lon="2.44112">
        <ele>456.57141113281</ele>
        <time>2011-06-05T10:32:06Z</time>
      </trkpt>
      <trkpt lat="43.11381" lon="2.44141">
        <ele>456.01364135742</ele>
        <time>2011-06-05T10:32:10Z</time>
      </trkpt>
      <trkpt lat="43.11378" lon="2.44162">
        <ele>455.86575317383</ele>
        <time>2011-06-05T10:32:14Z</time>
      </trkpt>
      <trkpt lat="43.11369" lon="2.4419">
        <ele>456.87786865234</ele>
        <time>2011-06-05T10:32:20Z</time>
      </trkpt>
      <trkpt lat="43.11354" lon="2.44219">
        <ele>460.27914428711</ele>
        <time>2011-06-05T10:32:27Z</time>
      </trkpt>
      <trkpt lat="43.11341" lon="2.44239">
        <ele>464.2917175293</ele>
        <time>2011-06-05T10:32:33Z</time>
      </trkpt>
      <trkpt lat="43.1133" lon="2.4427">
        <ele>465.95758056641</ele>
        <time>2011-06-05T10:32:40Z</time>
      </trkpt>
      <trkpt lat="43.11319" lon="2.44294">
        <ele>464.59094238281</ele>
        <time>2011-06-05T10:32:46Z</time>
      </trkpt>
      <trkpt lat="43.11311" lon="2.44316">
        <ele>463.90963745117</ele>
        <time>2011-06-05T10:32:52Z</time>
      </trkpt>
      <trkpt lat="43.11301" lon="2.44349">
        <ele>464.02005004883</ele>
        <time>2011-06-05T10:33:01Z</time>
      </trkpt>
      <trkpt lat="43.11296" lon="2.44374">
        <ele>464.59732055664</ele>
        <time>2011-06-05T10:33:08Z</time>
      </trkpt>
      <trkpt lat="43.11295" lon="2.444">
        <ele>465.19488525391</ele>
        <time>2011-06-05T10:33:14Z</time>
      </trkpt>
      <trkpt lat="43.113" lon="2.44428">
        <ele>466.81741333008</ele>
        <time>2011-06-05T10:33:21Z</time>
      </trkpt>
      <trkpt lat="43.11304" lon="2.44452">
        <ele>469.20513916016</ele>
        <time>2011-06-05T10:33:27Z</time>
      </trkpt>
      <trkpt lat="43.11307" lon="2.4447">
        <ele>470.96954345703</ele>
        <time>2011-06-05T10:33:32Z</time>
      </trkpt>
      <trkpt lat="43.11309" lon="2.44489">
        <ele>472.8967590332</ele>
        <time>2011-06-05T10:33:39Z</time>
      </trkpt>
      <trkpt lat="43.11311" lon="2.44502">
        <ele>474.3561706543</ele>
        <time>2011-06-05T10:33:45Z</time>
      </trkpt>
      <trkpt lat="43.11313" lon="2.44521">
        <ele>476.73107910156</ele>
        <time>2011-06-05T10:33:53Z</time>
      </trkpt>
      <trkpt lat="43.11315" lon="2.44541">
        <ele>479.1735534668</ele>
        <time>2011-06-05T10:34:02Z</time>
      </trkpt>
      <trkpt lat="43.11315" lon="2.44556">
        <ele>481.03237915039</ele>
        <time>2011-06-05T10:34:09Z</time>
      </trkpt>
      <trkpt lat="43.11317" lon="2.44571">
        <ele>483.0393371582</ele>
        <time>2011-06-05T10:34:16Z</time>
      </trkpt>
      <trkpt lat="43.11318" lon="2.44575">
        <ele>483.60095214844</ele>
        <time>2011-06-05T10:34:18Z</time>
      </trkpt>
      <trkpt lat="43.11322" lon="2.4459">
        <ele>485.99926757812</ele>
        <time>2011-06-05T10:34:24Z</time>
      </trkpt>
      <trkpt lat="43.11324" lon="2.44594">
        <ele>486.84518432617</ele>
        <time>2011-06-05T10:34:27Z</time>
      </trkpt>
      <trkpt lat="43.11324" lon="2.44596">
        <ele>487.09283447266</ele>
        <time>2011-06-05T10:34:28Z</time>
      </trkpt>
      <trkpt lat="43.11326" lon="2.44605">
        <ele>488.67736816406</ele>
        <time>2011-06-05T10:34:34Z</time>
      </trkpt>
      <trkpt lat="43.11328" lon="2.44619">
        <ele>490.71130371094</ele>
        <time>2011-06-05T10:34:42Z</time>
      </trkpt>
      <trkpt lat="43.1133" lon="2.44628">
        <ele>492.32745361328</ele>
        <time>2011-06-05T10:34:48Z</time>
      </trkpt>
      <trkpt lat="43.11334" lon="2.4464">
        <ele>494.36151123047</ele>
        <time>2011-06-05T10:34:55Z</time>
      </trkpt>
      <trkpt lat="43.11338" lon="2.44651">
        <ele>495.19244384766</ele>
        <time>2011-06-05T10:35:01Z</time>
      </trkpt>
      <trkpt lat="43.1134" lon="2.44655">
        <ele>495.54788208008</ele>
        <time>2011-06-05T10:35:04Z</time>
      </trkpt>
      <trkpt lat="43.1134" lon="2.44661">
        <ele>496.37203979492</ele>
        <time>2011-06-05T10:35:08Z</time>
      </trkpt>
      <trkpt lat="43.11338" lon="2.44679">
        <ele>498.25314331055</ele>
        <time>2011-06-05T10:35:18Z</time>
      </trkpt>
      <trkpt lat="43.11335" lon="2.44701">
        <ele>500.2473449707</ele>
        <time>2011-06-05T10:35:27Z</time>
      </trkpt>
      <trkpt lat="43.11332" lon="2.44729">
        <ele>502.09045410156</ele>
        <time>2011-06-05T10:35:38Z</time>
      </trkpt>
      <trkpt lat="43.11332" lon="2.44746">
        <ele>503.39678955078</ele>
        <time>2011-06-05T10:35:46Z</time>
      </trkpt>
      <trkpt lat="43.11333" lon="2.4477">
        <ele>505.05426025391</ele>
        <time>2011-06-05T10:35:56Z</time>
      </trkpt>
      <trkpt lat="43.11334" lon="2.44787">
        <ele>506.10485839844</ele>
        <time>2011-06-05T10:36:03Z</time>
      </trkpt>
      <trkpt lat="43.11335" lon="2.44804">
        <ele>506.89587402344</ele>
        <time>2011-06-05T10:36:11Z</time>
      </trkpt>
      <trkpt lat="43.1133" lon="2.44823">
        <ele>507.79754638672</ele>
        <time>2011-06-05T10:36:20Z</time>
      </trkpt>
      <trkpt lat="43.11326" lon="2.44844">
        <ele>508.12637329102</ele>
        <time>2011-06-05T10:36:28Z</time>
      </trkpt>
      <trkpt lat="43.11322" lon="2.44862">
        <ele>508.41055297852</ele>
        <time>2011-06-05T10:36:35Z</time>
      </trkpt>
      <trkpt lat="43.11317" lon="2.44881">
        <ele>508.70745849609</ele>
        <time>2011-06-05T10:36:43Z</time>
      </trkpt>
      <trkpt lat="43.11316" lon="2.44896">
        <ele>509.31576538086</ele>
        <time>2011-06-05T10:36:50Z</time>
      </trkpt>
      <trkpt lat="43.11313" lon="2.44908">
        <ele>509.78845214844</ele>
        <time>2011-06-05T10:36:56Z</time>
      </trkpt>
      <trkpt lat="43.11308" lon="2.44926">
        <ele>509.24887084961</ele>
        <time>2011-06-05T10:37:04Z</time>
      </trkpt>
      <trkpt lat="43.11302" lon="2.44944">
        <ele>508.22369384766</ele>
        <time>2011-06-05T10:37:12Z</time>
      </trkpt>
      <trkpt lat="43.11297" lon="2.44953">
        <ele>507.75244140625</ele>
        <time>2011-06-05T10:37:17Z</time>
      </trkpt>
      <trkpt lat="43.11289" lon="2.44967">
        <ele>507.45462036133</ele>
        <time>2011-06-05T10:37:25Z</time>
      </trkpt>
      <trkpt lat="43.11282" lon="2.44983">
        <ele>507.70294189453</ele>
        <time>2011-06-05T10:37:32Z</time>
      </trkpt>
      <trkpt lat="43.11274" lon="2.44997">
        <ele>508.46844482422</ele>
        <time>2011-06-05T10:37:38Z</time>
      </trkpt>
      <trkpt lat="43.11261" lon="2.45017">
        <ele>508.03311157227</ele>
        <time>2011-06-05T10:37:46Z</time>
      </trkpt>
      <trkpt lat="43.11247" lon="2.45037">
        <ele>508.41213989258</ele>
        <time>2011-06-05T10:37:54Z</time>
      </trkpt>
      <trkpt lat="43.1124" lon="2.45046">
        <ele>508.55117797852</ele>
        <time>2011-06-05T10:38:00Z</time>
      </trkpt>
      <trkpt lat="43.11231" lon="2.45058">
        <ele>508.94921875</ele>
        <time>2011-06-05T10:38:06Z</time>
      </trkpt>
      <trkpt lat="43.11219" lon="2.45069">
        <ele>510.03173828125</ele>
        <time>2011-06-05T10:38:12Z</time>
      </trkpt>
      <trkpt lat="43.11204" lon="2.45086">
        <ele>511.71716308594</ele>
        <time>2011-06-05T10:38:19Z</time>
      </trkpt>
      <trkpt lat="43.11202" lon="2.45088">
        <ele>511.72369384766</ele>
        <time>2011-06-05T10:38:20Z</time>
      </trkpt>
      <trkpt lat="43.11198" lon="2.45096">
        <ele>511.15637207031</ele>
        <time>2011-06-05T10:38:25Z</time>
      </trkpt>
      <trkpt lat="43.11198" lon="2.45096">
        <ele>511.15637207031</ele>
        <time>2011-06-05T10:38:26Z</time>
      </trkpt>
      <trkpt lat="43.11197" lon="2.45091">
        <ele>512.01879882812</ele>
        <time>2011-06-05T10:39:19Z</time>
      </trkpt>
      <trkpt lat="43.11192" lon="2.45087">
        <ele>513.17297363281</ele>
        <time>2011-06-05T10:42:02Z</time>
      </trkpt>
      <trkpt lat="43.11192" lon="2.45084">
        <ele>513.63519287109</ele>
        <time>2011-06-05T10:42:03Z</time>
      </trkpt>
      <trkpt lat="43.11189" lon="2.45076">
        <ele>513.67730712891</ele>
        <time>2011-06-05T10:42:05Z</time>
      </trkpt>
      <trkpt lat="43.1118" lon="2.45055">
        <ele>513.42156982422</ele>
        <time>2011-06-05T10:42:09Z</time>
      </trkpt>
      <trkpt lat="43.11172" lon="2.4505">
        <ele>513.7392578125</ele>
        <time>2011-06-05T10:42:11Z</time>
      </trkpt>
      <trkpt lat="43.11165" lon="2.45045">
        <ele>514.09783935547</ele>
        <time>2011-06-05T10:42:13Z</time>
      </trkpt>
      <trkpt lat="43.11155" lon="2.45025">
        <ele>514.36529541016</ele>
        <time>2011-06-05T10:42:17Z</time>
      </trkpt>
      <trkpt lat="43.11147" lon="2.44997">
        <ele>513.62524414062</ele>
        <time>2011-06-05T10:42:23Z</time>
      </trkpt>
      <trkpt lat="43.11142" lon="2.44985">
        <ele>512.85137939453</ele>
        <time>2011-06-05T10:42:26Z</time>
      </trkpt>
      <trkpt lat="43.11137" lon="2.44969">
        <ele>511.72918701172</ele>
        <time>2011-06-05T10:42:30Z</time>
      </trkpt>
      <trkpt lat="43.11136" lon="2.44964">
        <ele>511.37646484375</ele>
        <time>2011-06-05T10:42:31Z</time>
      </trkpt>
      <trkpt lat="43.11128" lon="2.44942">
        <ele>510.16009521484</ele>
        <time>2011-06-05T10:42:36Z</time>
      </trkpt>
      <trkpt lat="43.11117" lon="2.44918">
        <ele>509.43151855469</ele>
        <time>2011-06-05T10:42:42Z</time>
      </trkpt>
      <trkpt lat="43.11103" lon="2.44905">
        <ele>510.60827636719</ele>
        <time>2011-06-05T10:42:47Z</time>
      </trkpt>
      <trkpt lat="43.11083" lon="2.44884">
        <ele>511.50241088867</ele>
        <time>2011-06-05T10:42:54Z</time>
      </trkpt>
      <trkpt lat="43.11066" lon="2.44869">
        <ele>510.28704833984</ele>
        <time>2011-06-05T10:43:00Z</time>
      </trkpt>
      <trkpt lat="43.11052" lon="2.44858">
        <ele>509.39611816406</ele>
        <time>2011-06-05T10:43:05Z</time>
      </trkpt>
      <trkpt lat="43.11035" lon="2.44851">
        <ele>509.53115844727</ele>
        <time>2011-06-05T10:43:11Z</time>
      </trkpt>
      <trkpt lat="43.1102" lon="2.44846">
        <ele>509.78863525391</ele>
        <time>2011-06-05T10:43:16Z</time>
      </trkpt>
      <trkpt lat="43.10999" lon="2.44846">
        <ele>511.04336547852</ele>
        <time>2011-06-05T10:43:22Z</time>
      </trkpt>
      <trkpt lat="43.10984" lon="2.44846">
        <ele>508.82229614258</ele>
        <time>2011-06-05T10:43:27Z</time>
      </trkpt>
      <trkpt lat="43.10968" lon="2.44844">
        <ele>506.10357666016</ele>
        <time>2011-06-05T10:43:32Z</time>
      </trkpt>
      <trkpt lat="43.10957" lon="2.44842">
        <ele>504.23541259766</ele>
        <time>2011-06-05T10:43:37Z</time>
      </trkpt>
      <trkpt lat="43.10954" lon="2.4484">
        <ele>503.50881958008</ele>
        <time>2011-06-05T10:43:39Z</time>
      </trkpt>
      <trkpt lat="43.10944" lon="2.44846">
        <ele>502.9765625</ele>
        <time>2011-06-05T10:43:44Z</time>
      </trkpt>
      <trkpt lat="43.10942" lon="2.44849">
        <ele>503.21478271484</ele>
        <time>2011-06-05T10:43:45Z</time>
      </trkpt>
      <trkpt lat="43.10931" lon="2.44868">
        <ele>504.52166748047</ele>
        <time>2011-06-05T10:43:52Z</time>
      </trkpt>
      <trkpt lat="43.10925" lon="2.44887">
        <ele>506.50051879883</ele>
        <time>2011-06-05T10:43:57Z</time>
      </trkpt>
      <trkpt lat="43.10918" lon="2.44899">
        <ele>507.51571655273</ele>
        <time>2011-06-05T10:44:01Z</time>
      </trkpt>
      <trkpt lat="43.10917" lon="2.44901">
        <ele>507.63870239258</ele>
        <time>2011-06-05T10:44:05Z</time>
      </trkpt>
      <trkpt lat="43.10917" lon="2.44902">
        <ele>507.68707275391</ele>
        <time>2011-06-05T10:44:06Z</time>
      </trkpt>
      <trkpt lat="43.10911" lon="2.44912">
        <ele>508.57406616211</ele>
        <time>2011-06-05T10:44:12Z</time>
      </trkpt>
      <trkpt lat="43.10906" lon="2.44916">
        <ele>508.58093261719</ele>
        <time>2011-06-05T10:44:14Z</time>
      </trkpt>
      <trkpt lat="43.10897" lon="2.44924">
        <ele>508.66467285156</ele>
        <time>2011-06-05T10:44:18Z</time>
      </trkpt>
      <trkpt lat="43.10894" lon="2.44935">
        <ele>510.02563476562</ele>
        <time>2011-06-05T10:44:24Z</time>
      </trkpt>
      <trkpt lat="43.1089" lon="2.44945">
        <ele>511.11389160156</ele>
        <time>2011-06-05T10:44:31Z</time>
      </trkpt>
      <trkpt lat="43.1089" lon="2.44947">
        <ele>511.27349853516</ele>
        <time>2011-06-05T10:44:32Z</time>
      </trkpt>
      <trkpt lat="43.10886" lon="2.44957">
        <ele>512.20819091797</ele>
        <time>2011-06-05T10:44:37Z</time>
      </trkpt>
      <trkpt lat="43.1088" lon="2.44965">
        <ele>512.15423583984</ele>
        <time>2011-06-05T10:44:41Z</time>
      </trkpt>
      <trkpt lat="43.10871" lon="2.44977">
        <ele>511.99710083008</ele>
        <time>2011-06-05T10:44:46Z</time>
      </trkpt>
      <trkpt lat="43.10866" lon="2.44985">
        <ele>511.71688842773</ele>
        <time>2011-06-05T10:44:49Z</time>
      </trkpt>
      <trkpt lat="43.10858" lon="2.44995">
        <ele>511.00653076172</ele>
        <time>2011-06-05T10:44:55Z</time>
      </trkpt>
      <trkpt lat="43.1085" lon="2.44989">
        <ele>508.30697631836</ele>
        <time>2011-06-05T10:44:59Z</time>
      </trkpt>
      <trkpt lat="43.10846" lon="2.44985">
        <ele>506.93139648438</ele>
        <time>2011-06-05T10:45:00Z</time>
      </trkpt>
      <trkpt lat="43.1083" lon="2.4497">
        <ele>502.55859375</ele>
        <time>2011-06-05T10:45:05Z</time>
      </trkpt>
      <trkpt lat="43.1083" lon="2.4497">
        <ele>502.57046508789</ele>
        <time>2011-06-05T10:45:07Z</time>
      </trkpt>
      <trkpt lat="43.10827" lon="2.44969">
        <ele>502.32977294922</ele>
        <time>2011-06-05T10:45:16Z</time>
      </trkpt>
      <trkpt lat="43.10815" lon="2.44967">
        <ele>501.5451965332</ele>
        <time>2011-06-05T10:45:23Z</time>
      </trkpt>
      <trkpt lat="43.10799" lon="2.44968">
        <ele>500.5817565918</ele>
        <time>2011-06-05T10:45:26Z</time>
      </trkpt>
      <trkpt lat="43.10765" lon="2.44973">
        <ele>498.01467895508</ele>
        <time>2011-06-05T10:45:30Z</time>
      </trkpt>
      <trkpt lat="43.10736" lon="2.44988">
        <ele>495.13034057617</ele>
        <time>2011-06-05T10:45:34Z</time>
      </trkpt>
      <trkpt lat="43.10727" lon="2.45">
        <ele>494.07623291016</ele>
        <time>2011-06-05T10:45:36Z</time>
      </trkpt>
      <trkpt lat="43.10716" lon="2.45015">
        <ele>492.75225830078</ele>
        <time>2011-06-05T10:45:40Z</time>
      </trkpt>
      <trkpt lat="43.10694" lon="2.45009">
        <ele>494.55557250977</ele>
        <time>2011-06-05T10:45:46Z</time>
      </trkpt>
      <trkpt lat="43.10679" lon="2.45005">
        <ele>495.78112792969</ele>
        <time>2011-06-05T10:45:50Z</time>
      </trkpt>
      <trkpt lat="43.1065" lon="2.45004">
        <ele>494.71710205078</ele>
        <time>2011-06-05T10:45:57Z</time>
      </trkpt>
      <trkpt lat="43.10625" lon="2.45012">
        <ele>491.52450561523</ele>
        <time>2011-06-05T10:46:04Z</time>
      </trkpt>
      <trkpt lat="43.10615" lon="2.45016">
        <ele>490.53463745117</ele>
        <time>2011-06-05T10:46:09Z</time>
      </trkpt>
      <trkpt lat="43.10613" lon="2.45026">
        <ele>490.23846435547</ele>
        <time>2011-06-05T10:46:14Z</time>
      </trkpt>
      <trkpt lat="43.10614" lon="2.45033">
        <ele>490.25082397461</ele>
        <time>2011-06-05T10:46:17Z</time>
      </trkpt>
      <trkpt lat="43.10616" lon="2.45037">
        <ele>490.23184204102</ele>
        <time>2011-06-05T10:46:22Z</time>
      </trkpt>
      <trkpt lat="43.10616" lon="2.45044">
        <ele>490.11642456055</ele>
        <time>2011-06-05T10:47:02Z</time>
      </trkpt>
      <trkpt lat="43.10616" lon="2.45059">
        <ele>489.85772705078</ele>
        <time>2011-06-05T10:47:09Z</time>
      </trkpt>
      <trkpt lat="43.10617" lon="2.45065">
        <ele>489.74588012695</ele>
        <time>2011-06-05T10:47:13Z</time>
      </trkpt>
      <trkpt lat="43.10611" lon="2.45082">
        <ele>489.66683959961</ele>
        <time>2011-06-05T10:47:20Z</time>
      </trkpt>
      <trkpt lat="43.10606" lon="2.45099">
        <ele>490.61367797852</ele>
        <time>2011-06-05T10:47:26Z</time>
      </trkpt>
      <trkpt lat="43.10603" lon="2.45115">
        <ele>491.52062988281</ele>
        <time>2011-06-05T10:47:32Z</time>
      </trkpt>
      <trkpt lat="43.10603" lon="2.45117">
        <ele>491.61688232422</ele>
        <time>2011-06-05T10:47:33Z</time>
      </trkpt>
      <trkpt lat="43.10603" lon="2.45124">
        <ele>491.90344238281</ele>
        <time>2011-06-05T10:47:36Z</time>
      </trkpt>
      <trkpt lat="43.10606" lon="2.45137">
        <ele>492.29736328125</ele>
        <time>2011-06-05T10:47:42Z</time>
      </trkpt>
      <trkpt lat="43.10605" lon="2.45148">
        <ele>492.83145141602</ele>
        <time>2011-06-05T10:47:47Z</time>
      </trkpt>
      <trkpt lat="43.10605" lon="2.4516">
        <ele>493.3564453125</ele>
        <time>2011-06-05T10:47:53Z</time>
      </trkpt>
      <trkpt lat="43.10605" lon="2.45167">
        <ele>493.69314575195</ele>
        <time>2011-06-05T10:47:56Z</time>
      </trkpt>
      <trkpt lat="43.10605" lon="2.45188">
        <ele>494.14926147461</ele>
        <time>2011-06-05T10:48:04Z</time>
      </trkpt>
      <trkpt lat="43.10607" lon="2.45207">
        <ele>494.5055847168</ele>
        <time>2011-06-05T10:48:11Z</time>
      </trkpt>
      <trkpt lat="43.10608" lon="2.45228">
        <ele>494.98025512695</ele>
        <time>2011-06-05T10:48:18Z</time>
      </trkpt>
      <trkpt lat="43.10609" lon="2.45247">
        <ele>495.39999389648</ele>
        <time>2011-06-05T10:48:25Z</time>
      </trkpt>
      <trkpt lat="43.10608" lon="2.45258">
        <ele>495.4065246582</ele>
        <time>2011-06-05T10:48:31Z</time>
      </trkpt>
      <trkpt lat="43.10608" lon="2.45258">
        <ele>495.40423583984</ele>
        <time>2011-06-05T10:48:33Z</time>
      </trkpt>
      <trkpt lat="43.10608" lon="2.4526">
        <ele>495.4294128418</ele>
        <time>2011-06-05T10:48:36Z</time>
      </trkpt>
      <trkpt lat="43.10607" lon="2.45262">
        <ele>495.45001220703</ele>
        <time>2011-06-05T10:48:38Z</time>
      </trkpt>
      <trkpt lat="43.10608" lon="2.4527">
        <ele>495.30841064453</ele>
        <time>2011-06-05T10:48:46Z</time>
      </trkpt>
      <trkpt lat="43.10609" lon="2.45286">
        <ele>494.99713134766</ele>
        <time>2011-06-05T10:48:53Z</time>
      </trkpt>
      <trkpt lat="43.10611" lon="2.45297">
        <ele>494.77337646484</ele>
        <time>2011-06-05T10:48:57Z</time>
      </trkpt>
      <trkpt lat="43.10611" lon="2.4531">
        <ele>494.62719726562</ele>
        <time>2011-06-05T10:49:02Z</time>
      </trkpt>
      <trkpt lat="43.10604" lon="2.45314">
        <ele>494.98394775391</ele>
        <time>2011-06-05T10:49:06Z</time>
      </trkpt>
      <trkpt lat="43.10591" lon="2.4532">
        <ele>495.69235229492</ele>
        <time>2011-06-05T10:49:10Z</time>
      </trkpt>
      <trkpt lat="43.10592" lon="2.4534">
        <ele>495.39556884766</ele>
        <time>2011-06-05T10:49:14Z</time>
      </trkpt>
      <trkpt lat="43.10596" lon="2.45347">
        <ele>495.09408569336</ele>
        <time>2011-06-05T10:49:16Z</time>
      </trkpt>
      <trkpt lat="43.10593" lon="2.45356">
        <ele>495.20352172852</ele>
        <time>2011-06-05T10:49:19Z</time>
      </trkpt>
      <trkpt lat="43.10578" lon="2.45356">
        <ele>495.41976928711</ele>
        <time>2011-06-05T10:49:22Z</time>
      </trkpt>
      <trkpt lat="43.10567" lon="2.45362">
        <ele>494.67562866211</ele>
        <time>2011-06-05T10:49:25Z</time>
      </trkpt>
      <trkpt lat="43.10561" lon="2.45371">
        <ele>494.2255859375</ele>
        <time>2011-06-05T10:49:27Z</time>
      </trkpt>
      <trkpt lat="43.10533" lon="2.45406">
        <ele>492.12243652344</ele>
        <time>2011-06-05T10:49:35Z</time>
      </trkpt>
      <trkpt lat="43.10521" lon="2.45422">
        <ele>491.03414916992</ele>
        <time>2011-06-05T10:49:40Z</time>
      </trkpt>
      <trkpt lat="43.10515" lon="2.45439">
        <ele>489.90805053711</ele>
        <time>2011-06-05T10:49:45Z</time>
      </trkpt>
      <trkpt lat="43.10514" lon="2.45443">
        <ele>489.68032836914</ele>
        <time>2011-06-05T10:49:46Z</time>
      </trkpt>
      <trkpt lat="43.10518" lon="2.45454">
        <ele>489.38793945312</ele>
        <time>2011-06-05T10:49:50Z</time>
      </trkpt>
      <trkpt lat="43.1053" lon="2.45467">
        <ele>489.64584350586</ele>
        <time>2011-06-05T10:49:57Z</time>
      </trkpt>
      <trkpt lat="43.10549" lon="2.45481">
        <ele>490.28637695312</ele>
        <time>2011-06-05T10:50:04Z</time>
      </trkpt>
      <trkpt lat="43.10561" lon="2.455">
        <ele>490.40274047852</ele>
        <time>2011-06-05T10:50:09Z</time>
      </trkpt>
      <trkpt lat="43.10573" lon="2.45522">
        <ele>489.86215209961</ele>
        <time>2011-06-05T10:50:15Z</time>
      </trkpt>
      <trkpt lat="43.10582" lon="2.45553">
        <ele>488.64367675781</ele>
        <time>2011-06-05T10:50:23Z</time>
      </trkpt>
      <trkpt lat="43.10591" lon="2.45575">
        <ele>487.01702880859</ele>
        <time>2011-06-05T10:50:29Z</time>
      </trkpt>
      <trkpt lat="43.10597" lon="2.45584">
        <ele>486.16110229492</ele>
        <time>2011-06-05T10:50:31Z</time>
      </trkpt>
      <trkpt lat="43.10611" lon="2.45614">
        <ele>484.82611083984</ele>
        <time>2011-06-05T10:50:35Z</time>
      </trkpt>
      <trkpt lat="43.10623" lon="2.45651">
        <ele>483.43283081055</ele>
        <time>2011-06-05T10:50:39Z</time>
      </trkpt>
      <trkpt lat="43.10633" lon="2.45682">
        <ele>482.32135009766</ele>
        <time>2011-06-05T10:50:43Z</time>
      </trkpt>
      <trkpt lat="43.10642" lon="2.45703">
        <ele>482.09692382812</ele>
        <time>2011-06-05T10:50:47Z</time>
      </trkpt>
      <trkpt lat="43.1065" lon="2.45724">
        <ele>482.44232177734</ele>
        <time>2011-06-05T10:50:52Z</time>
      </trkpt>
      <trkpt lat="43.10658" lon="2.45741">
        <ele>483.13229370117</ele>
        <time>2011-06-05T10:50:57Z</time>
      </trkpt>
      <trkpt lat="43.10667" lon="2.45753">
        <ele>483.73968505859</ele>
        <time>2011-06-05T10:51:02Z</time>
      </trkpt>
      <trkpt lat="43.10675" lon="2.45773">
        <ele>480.86968994141</ele>
        <time>2011-06-05T10:51:07Z</time>
      </trkpt>
      <trkpt lat="43.10682" lon="2.45796">
        <ele>478.38073730469</ele>
        <time>2011-06-05T10:51:12Z</time>
      </trkpt>
      <trkpt lat="43.10693" lon="2.45827">
        <ele>475.47354125977</ele>
        <time>2011-06-05T10:51:18Z</time>
      </trkpt>
      <trkpt lat="43.10699" lon="2.45842">
        <ele>473.32955932617</ele>
        <time>2011-06-05T10:51:21Z</time>
      </trkpt>
      <trkpt lat="43.10709" lon="2.45886">
        <ele>468.64764404297</ele>
        <time>2011-06-05T10:51:28Z</time>
      </trkpt>
      <trkpt lat="43.10713" lon="2.45913">
        <ele>466.79284667969</ele>
        <time>2011-06-05T10:51:32Z</time>
      </trkpt>
      <trkpt lat="43.10717" lon="2.45926">
        <ele>466.01257324219</ele>
        <time>2011-06-05T10:51:34Z</time>
      </trkpt>
      <trkpt lat="43.10737" lon="2.45962">
        <ele>464.31741333008</ele>
        <time>2011-06-05T10:51:39Z</time>
      </trkpt>
      <trkpt lat="43.10748" lon="2.45978">
        <ele>463.95071411133</ele>
        <time>2011-06-05T10:51:41Z</time>
      </trkpt>
      <trkpt lat="43.10763" lon="2.46006">
        <ele>461.14279174805</ele>
        <time>2011-06-05T10:51:44Z</time>
      </trkpt>
      <trkpt lat="43.10781" lon="2.46037">
        <ele>459.75967407227</ele>
        <time>2011-06-05T10:51:48Z</time>
      </trkpt>
      <trkpt lat="43.10801" lon="2.46081">
        <ele>460.64727783203</ele>
        <time>2011-06-05T10:51:55Z</time>
      </trkpt>
      <trkpt lat="43.10811" lon="2.46103">
        <ele>461.36389160156</ele>
        <time>2011-06-05T10:52:01Z</time>
      </trkpt>
      <trkpt lat="43.10818" lon="2.4612">
        <ele>462.4169921875</ele>
        <time>2011-06-05T10:52:06Z</time>
      </trkpt>
      <trkpt lat="43.10836" lon="2.46148">
        <ele>465.07400512695</ele>
        <time>2011-06-05T10:52:15Z</time>
      </trkpt>
      <trkpt lat="43.1085" lon="2.46165">
        <ele>465.05972290039</ele>
        <time>2011-06-05T10:52:21Z</time>
      </trkpt>
      <trkpt lat="43.1087" lon="2.46187">
        <ele>462.17163085938</ele>
        <time>2011-06-05T10:52:28Z</time>
      </trkpt>
      <trkpt lat="43.10886" lon="2.46205">
        <ele>460.55291748047</ele>
        <time>2011-06-05T10:52:35Z</time>
      </trkpt>
      <trkpt lat="43.10901" lon="2.46213">
        <ele>459.76361083984</ele>
        <time>2011-06-05T10:52:40Z</time>
      </trkpt>
      <trkpt lat="43.10924" lon="2.46221">
        <ele>458.17205810547</ele>
        <time>2011-06-05T10:52:46Z</time>
      </trkpt>
      <trkpt lat="43.10931" lon="2.46225">
        <ele>457.23922729492</ele>
        <time>2011-06-05T10:52:47Z</time>
      </trkpt>
      <trkpt lat="43.10952" lon="2.46245">
        <ele>454.69287109375</ele>
        <time>2011-06-05T10:52:50Z</time>
      </trkpt>
      <trkpt lat="43.10975" lon="2.46281">
        <ele>452.49725341797</ele>
        <time>2011-06-05T10:52:54Z</time>
      </trkpt>
      <trkpt lat="43.1099" lon="2.46309">
        <ele>452.64642333984</ele>
        <time>2011-06-05T10:52:58Z</time>
      </trkpt>
      <trkpt lat="43.11003" lon="2.46335">
        <ele>453.58355712891</ele>
        <time>2011-06-05T10:53:02Z</time>
      </trkpt>
      <trkpt lat="43.11015" lon="2.4636">
        <ele>452.84167480469</ele>
        <time>2011-06-05T10:53:07Z</time>
      </trkpt>
      <trkpt lat="43.11027" lon="2.46385">
        <ele>452.72897338867</ele>
        <time>2011-06-05T10:53:14Z</time>
      </trkpt>
      <trkpt lat="43.11036" lon="2.46404">
        <ele>453.06381225586</ele>
        <time>2011-06-05T10:53:20Z</time>
      </trkpt>
      <trkpt lat="43.11044" lon="2.46421">
        <ele>453.40124511719</ele>
        <time>2011-06-05T10:53:27Z</time>
      </trkpt>
      <trkpt lat="43.11051" lon="2.46435">
        <ele>453.2551574707</ele>
        <time>2011-06-05T10:53:33Z</time>
      </trkpt>
      <trkpt lat="43.11061" lon="2.46456">
        <ele>453.23709106445</ele>
        <time>2011-06-05T10:53:38Z</time>
      </trkpt>
      <trkpt lat="43.11092" lon="2.46493">
        <ele>454.09188842773</ele>
        <time>2011-06-05T10:53:45Z</time>
      </trkpt>
      <trkpt lat="43.11115" lon="2.46524">
        <ele>454.75942993164</ele>
        <time>2011-06-05T10:53:51Z</time>
      </trkpt>
      <trkpt lat="43.11126" lon="2.46541">
        <ele>454.80615234375</ele>
        <time>2011-06-05T10:53:56Z</time>
      </trkpt>
      <trkpt lat="43.11134" lon="2.46564">
        <ele>454.58486938477</ele>
        <time>2011-06-05T10:54:02Z</time>
      </trkpt>
      <trkpt lat="43.11143" lon="2.46594">
        <ele>454.19317626953</ele>
        <time>2011-06-05T10:54:09Z</time>
      </trkpt>
      <trkpt lat="43.11152" lon="2.46619">
        <ele>453.96014404297</ele>
        <time>2011-06-05T10:54:16Z</time>
      </trkpt>
      <trkpt lat="43.11164" lon="2.46654">
        <ele>454.00921630859</ele>
        <time>2011-06-05T10:54:25Z</time>
      </trkpt>
      <trkpt lat="43.11174" lon="2.46671">
        <ele>453.09371948242</ele>
        <time>2011-06-05T10:54:29Z</time>
      </trkpt>
      <trkpt lat="43.1119" lon="2.46688">
        <ele>450.69781494141</ele>
        <time>2011-06-05T10:54:33Z</time>
      </trkpt>
      <trkpt lat="43.11219" lon="2.46706">
        <ele>448.06585693359</ele>
        <time>2011-06-05T10:54:39Z</time>
      </trkpt>
      <trkpt lat="43.11251" lon="2.46717">
        <ele>446.50521850586</ele>
        <time>2011-06-05T10:54:44Z</time>
      </trkpt>
      <trkpt lat="43.11282" lon="2.46725">
        <ele>444.06588745117</ele>
        <time>2011-06-05T10:54:48Z</time>
      </trkpt>
      <trkpt lat="43.11325" lon="2.46731">
        <ele>440.98876953125</ele>
        <time>2011-06-05T10:54:53Z</time>
      </trkpt>
      <trkpt lat="43.11345" lon="2.4673">
        <ele>439.11639404297</ele>
        <time>2011-06-05T10:54:55Z</time>
      </trkpt>
      <trkpt lat="43.11371" lon="2.46734">
        <ele>435.97412109375</ele>
        <time>2011-06-05T10:54:58Z</time>
      </trkpt>
      <trkpt lat="43.11388" lon="2.4674">
        <ele>433.79577636719</ele>
        <time>2011-06-05T10:55:00Z</time>
      </trkpt>
      <trkpt lat="43.11422" lon="2.46738">
        <ele>430.03100585938</ele>
        <time>2011-06-05T10:55:04Z</time>
      </trkpt>
      <trkpt lat="43.11457" lon="2.46742">
        <ele>427.32119750977</ele>
        <time>2011-06-05T10:55:08Z</time>
      </trkpt>
      <trkpt lat="43.11465" lon="2.46745">
        <ele>426.6484375</ele>
        <time>2011-06-05T10:55:09Z</time>
      </trkpt>
      <trkpt lat="43.11505" lon="2.46753">
        <ele>423.47192382812</ele>
        <time>2011-06-05T10:55:14Z</time>
      </trkpt>
      <trkpt lat="43.11527" lon="2.46759">
        <ele>420.91046142578</ele>
        <time>2011-06-05T10:55:17Z</time>
      </trkpt>
      <trkpt lat="43.11557" lon="2.46752">
        <ele>417.16500854492</ele>
        <time>2011-06-05T10:55:21Z</time>
      </trkpt>
      <trkpt lat="43.11578" lon="2.46724">
        <ele>415.81607055664</ele>
        <time>2011-06-05T10:55:25Z</time>
      </trkpt>
      <trkpt lat="43.11582" lon="2.46692">
        <ele>416.92141723633</ele>
        <time>2011-06-05T10:55:28Z</time>
      </trkpt>
      <trkpt lat="43.11591" lon="2.46674">
        <ele>417.2873840332</ele>
        <time>2011-06-05T10:55:30Z</time>
      </trkpt>
      <trkpt lat="43.11605" lon="2.46676">
        <ele>416.51318359375</ele>
        <time>2011-06-05T10:55:33Z</time>
      </trkpt>
      <trkpt lat="43.11637" lon="2.46698">
        <ele>413.6640625</ele>
        <time>2011-06-05T10:55:42Z</time>
      </trkpt>
      <trkpt lat="43.11661" lon="2.46718">
        <ele>411.21997070312</ele>
        <time>2011-06-05T10:55:50Z</time>
      </trkpt>
      <trkpt lat="43.11672" lon="2.46721">
        <ele>410.61309814453</ele>
        <time>2011-06-05T10:55:53Z</time>
      </trkpt>
      <trkpt lat="43.1168" lon="2.4672">
        <ele>410.42141723633</ele>
        <time>2011-06-05T10:55:55Z</time>
      </trkpt>
      <trkpt lat="43.11698" lon="2.46704">
        <ele>410.81246948242</ele>
        <time>2011-06-05T10:56:00Z</time>
      </trkpt>
      <trkpt lat="43.11701" lon="2.46691">
        <ele>411.40655517578</ele>
        <time>2011-06-05T10:56:02Z</time>
      </trkpt>
      <trkpt lat="43.11713" lon="2.46651">
        <ele>411.97692871094</ele>
        <time>2011-06-05T10:56:08Z</time>
      </trkpt>
      <trkpt lat="43.11715" lon="2.46647">
        <ele>411.82772827148</ele>
        <time>2011-06-05T10:56:09Z</time>
      </trkpt>
      <trkpt lat="43.1172" lon="2.4665">
        <ele>411.74285888672</ele>
        <time>2011-06-05T10:56:13Z</time>
      </trkpt>
      <trkpt lat="43.1172" lon="2.46659">
        <ele>411.93411254883</ele>
        <time>2011-06-05T10:56:16Z</time>
      </trkpt>
      <trkpt lat="43.11724" lon="2.4669">
        <ele>410.73620605469</ele>
        <time>2011-06-05T10:56:24Z</time>
      </trkpt>
      <trkpt lat="43.11728" lon="2.46711">
        <ele>409.552734375</ele>
        <time>2011-06-05T10:56:29Z</time>
      </trkpt>
      <trkpt lat="43.11729" lon="2.46732">
        <ele>408.40585327148</ele>
        <time>2011-06-05T10:56:34Z</time>
      </trkpt>
      <trkpt lat="43.11731" lon="2.46754">
        <ele>407.30010986328</ele>
        <time>2011-06-05T10:56:37Z</time>
      </trkpt>
      <trkpt lat="43.11731" lon="2.46773">
        <ele>406.56198120117</ele>
        <time>2011-06-05T10:56:40Z</time>
      </trkpt>
      <trkpt lat="43.11725" lon="2.46797">
        <ele>405.85848999023</ele>
        <time>2011-06-05T10:56:44Z</time>
      </trkpt>
      <trkpt lat="43.11717" lon="2.46823">
        <ele>405.34060668945</ele>
        <time>2011-06-05T10:56:49Z</time>
      </trkpt>
      <trkpt lat="43.11724" lon="2.46845">
        <ele>404.69735717773</ele>
        <time>2011-06-05T10:56:55Z</time>
      </trkpt>
      <trkpt lat="43.11725" lon="2.46846">
        <ele>404.6667175293</ele>
        <time>2011-06-05T10:56:58Z</time>
      </trkpt>
      <trkpt lat="43.11727" lon="2.46846">
        <ele>404.54211425781</ele>
        <time>2011-06-05T10:57:08Z</time>
      </trkpt>
      <trkpt lat="43.11727" lon="2.46846">
        <ele>404.54336547852</ele>
        <time>2011-06-05T10:57:09Z</time>
      </trkpt>
      <trkpt lat="43.11733" lon="2.46846">
        <ele>404.12457275391</ele>
        <time>2011-06-05T10:57:28Z</time>
      </trkpt>
      <trkpt lat="43.11752" lon="2.46848">
        <ele>402.85583496094</ele>
        <time>2011-06-05T10:57:35Z</time>
      </trkpt>
      <trkpt lat="43.11764" lon="2.46857">
        <ele>401.81829833984</ele>
        <time>2011-06-05T10:57:40Z</time>
      </trkpt>
      <trkpt lat="43.11779" lon="2.46876">
        <ele>400.02230834961</ele>
        <time>2011-06-05T10:57:47Z</time>
      </trkpt>
      <trkpt lat="43.11781" lon="2.46892">
        <ele>399.36358642578</ele>
        <time>2011-06-05T10:57:51Z</time>
      </trkpt>
      <trkpt lat="43.11776" lon="2.46908">
        <ele>399.48971557617</ele>
        <time>2011-06-05T10:57:55Z</time>
      </trkpt>
      <trkpt lat="43.11764" lon="2.46925">
        <ele>400.33129882812</ele>
        <time>2011-06-05T10:58:00Z</time>
      </trkpt>
      <trkpt lat="43.11745" lon="2.46947">
        <ele>401.18908691406</ele>
        <time>2011-06-05T10:58:07Z</time>
      </trkpt>
      <trkpt lat="43.1174" lon="2.46953">
        <ele>401.34997558594</ele>
        <time>2011-06-05T10:58:09Z</time>
      </trkpt>
      <trkpt lat="43.11729" lon="2.46984">
        <ele>400.88851928711</ele>
        <time>2011-06-05T10:58:15Z</time>
      </trkpt>
      <trkpt lat="43.11723" lon="2.47017">
        <ele>399.99801635742</ele>
        <time>2011-06-05T10:58:22Z</time>
      </trkpt>
      <trkpt lat="43.11719" lon="2.47039">
        <ele>399.71887207031</ele>
        <time>2011-06-05T10:58:27Z</time>
      </trkpt>
      <trkpt lat="43.11716" lon="2.47068">
        <ele>398.88513183594</ele>
        <time>2011-06-05T10:58:34Z</time>
      </trkpt>
      <trkpt lat="43.11712" lon="2.47104">
        <ele>398.62301635742</ele>
        <time>2011-06-05T10:58:42Z</time>
      </trkpt>
      <trkpt lat="43.1171" lon="2.4712">
        <ele>398.4992980957</ele>
        <time>2011-06-05T10:58:45Z</time>
      </trkpt>
      <trkpt lat="43.11702" lon="2.47158">
        <ele>398.68020629883</ele>
        <time>2011-06-05T10:58:52Z</time>
      </trkpt>
      <trkpt lat="43.117" lon="2.47163">
        <ele>398.67761230469</ele>
        <time>2011-06-05T10:58:53Z</time>
      </trkpt>
      <trkpt lat="43.11691" lon="2.47205">
        <ele>399.51174926758</ele>
        <time>2011-06-05T10:59:01Z</time>
      </trkpt>
      <trkpt lat="43.11683" lon="2.47229">
        <ele>400.05230712891</ele>
        <time>2011-06-05T10:59:07Z</time>
      </trkpt>
      <trkpt lat="43.11677" lon="2.47252">
        <ele>400.27792358398</ele>
        <time>2011-06-05T10:59:13Z</time>
      </trkpt>
      <trkpt lat="43.11672" lon="2.47273">
        <ele>400.95343017578</ele>
        <time>2011-06-05T10:59:19Z</time>
      </trkpt>
      <trkpt lat="43.11668" lon="2.47292">
        <ele>401.43704223633</ele>
        <time>2011-06-05T10:59:24Z</time>
      </trkpt>
      <trkpt lat="43.11665" lon="2.47303">
        <ele>401.95080566406</ele>
        <time>2011-06-05T10:59:27Z</time>
      </trkpt>
      <trkpt lat="43.11655" lon="2.47334">
        <ele>403.76614379883</ele>
        <time>2011-06-05T10:59:35Z</time>
      </trkpt>
      <trkpt lat="43.11649" lon="2.47356">
        <ele>404.7135925293</ele>
        <time>2011-06-05T10:59:42Z</time>
      </trkpt>
      <trkpt lat="43.1164" lon="2.47371">
        <ele>405.35806274414</ele>
        <time>2011-06-05T10:59:49Z</time>
      </trkpt>
      <trkpt lat="43.11638" lon="2.47372">
        <ele>405.44348144531</ele>
        <time>2011-06-05T10:59:50Z</time>
      </trkpt>
      <trkpt lat="43.11624" lon="2.47374">
        <ele>406.41064453125</ele>
        <time>2011-06-05T10:59:58Z</time>
      </trkpt>
      <trkpt lat="43.11614" lon="2.47386">
        <ele>406.12557983398</ele>
        <time>2011-06-05T11:00:04Z</time>
      </trkpt>
      <trkpt lat="43.11608" lon="2.47404">
        <ele>404.75982666016</ele>
        <time>2011-06-05T11:00:09Z</time>
      </trkpt>
      <trkpt lat="43.11609" lon="2.47406">
        <ele>404.55999755859</ele>
        <time>2011-06-05T11:00:12Z</time>
      </trkpt>
      <trkpt lat="43.11617" lon="2.47432">
        <ele>402.63345336914</ele>
        <time>2011-06-05T11:00:34Z</time>
      </trkpt>
      <trkpt lat="43.11623" lon="2.47445">
        <ele>401.98825073242</ele>
        <time>2011-06-05T11:00:36Z</time>
      </trkpt>
      <trkpt lat="43.1163" lon="2.47465">
        <ele>401.26531982422</ele>
        <time>2011-06-05T11:00:39Z</time>
      </trkpt>
      <trkpt lat="43.11633" lon="2.47477">
        <ele>400.80563354492</ele>
        <time>2011-06-05T11:00:41Z</time>
      </trkpt>
      <trkpt lat="43.11634" lon="2.475">
        <ele>399.68508911133</ele>
        <time>2011-06-05T11:00:45Z</time>
      </trkpt>
      <trkpt lat="43.11645" lon="2.47528">
        <ele>398.20272827148</ele>
        <time>2011-06-05T11:00:50Z</time>
      </trkpt>
      <trkpt lat="43.11649" lon="2.47533">
        <ele>398.23202514648</ele>
        <time>2011-06-05T11:00:51Z</time>
      </trkpt>
      <trkpt lat="43.11686" lon="2.47559">
        <ele>399.71319580078</ele>
        <time>2011-06-05T11:00:58Z</time>
      </trkpt>
      <trkpt lat="43.1171" lon="2.47584">
        <ele>401.02978515625</ele>
        <time>2011-06-05T11:01:04Z</time>
      </trkpt>
      <trkpt lat="43.11726" lon="2.47614">
        <ele>399.27017211914</ele>
        <time>2011-06-05T11:01:10Z</time>
      </trkpt>
      <trkpt lat="43.11731" lon="2.47625">
        <ele>398.470703125</ele>
        <time>2011-06-05T11:01:12Z</time>
      </trkpt>
      <trkpt lat="43.11743" lon="2.47666">
        <ele>394.95346069336</ele>
        <time>2011-06-05T11:01:19Z</time>
      </trkpt>
      <trkpt lat="43.11759" lon="2.47711">
        <ele>388.66995239258</ele>
        <time>2011-06-05T11:01:27Z</time>
      </trkpt>
      <trkpt lat="43.11771" lon="2.47741">
        <ele>383.59036254883</ele>
        <time>2011-06-05T11:01:33Z</time>
      </trkpt>
      <trkpt lat="43.11774" lon="2.47746">
        <ele>382.69738769531</ele>
        <time>2011-06-05T11:01:34Z</time>
      </trkpt>
      <trkpt lat="43.11789" lon="2.4776">
        <ele>380.49960327148</ele>
        <time>2011-06-05T11:01:38Z</time>
      </trkpt>
      <trkpt lat="43.11802" lon="2.47756">
        <ele>380.42993164062</ele>
        <time>2011-06-05T11:01:42Z</time>
      </trkpt>
      <trkpt lat="43.11805" lon="2.47754">
        <ele>380.58251953125</ele>
        <time>2011-06-05T11:01:43Z</time>
      </trkpt>
      <trkpt lat="43.11814" lon="2.47745">
        <ele>381.46914672852</ele>
        <time>2011-06-05T11:01:46Z</time>
      </trkpt>
      <trkpt lat="43.11822" lon="2.4773">
        <ele>383.38708496094</ele>
        <time>2011-06-05T11:01:49Z</time>
      </trkpt>
      <trkpt lat="43.1183" lon="2.47709">
        <ele>386.02453613281</ele>
        <time>2011-06-05T11:01:53Z</time>
      </trkpt>
      <trkpt lat="43.11846" lon="2.47683">
        <ele>385.65481567383</ele>
        <time>2011-06-05T11:01:58Z</time>
      </trkpt>
      <trkpt lat="43.11866" lon="2.47658">
        <ele>382.69927978516</ele>
        <time>2011-06-05T11:02:03Z</time>
      </trkpt>
      <trkpt lat="43.11868" lon="2.47655">
        <ele>382.35400390625</ele>
        <time>2011-06-05T11:02:04Z</time>
      </trkpt>
      <trkpt lat="43.11872" lon="2.47659">
        <ele>380.45852661133</ele>
        <time>2011-06-05T11:02:08Z</time>
      </trkpt>
      <trkpt lat="43.11871" lon="2.47675">
        <ele>378.716796875</ele>
        <time>2011-06-05T11:02:13Z</time>
      </trkpt>
      <trkpt lat="43.11864" lon="2.477">
        <ele>377.69711303711</ele>
        <time>2011-06-05T11:02:17Z</time>
      </trkpt>
      <trkpt lat="43.11857" lon="2.47733">
        <ele>375.55557250977</ele>
        <time>2011-06-05T11:02:21Z</time>
      </trkpt>
      <trkpt lat="43.11847" lon="2.47787">
        <ele>372.06402587891</ele>
        <time>2011-06-05T11:02:27Z</time>
      </trkpt>
      <trkpt lat="43.11837" lon="2.47812">
        <ele>371.61013793945</ele>
        <time>2011-06-05T11:02:31Z</time>
      </trkpt>
      <trkpt lat="43.1183" lon="2.47828">
        <ele>370.755859375</ele>
        <time>2011-06-05T11:02:34Z</time>
      </trkpt>
      <trkpt lat="43.11823" lon="2.47847">
        <ele>368.73568725586</ele>
        <time>2011-06-05T11:02:37Z</time>
      </trkpt>
      <trkpt lat="43.11818" lon="2.47866">
        <ele>366.5339050293</ele>
        <time>2011-06-05T11:02:40Z</time>
      </trkpt>
      <trkpt lat="43.11814" lon="2.47877">
        <ele>365.25964355469</ele>
        <time>2011-06-05T11:02:42Z</time>
      </trkpt>
      <trkpt lat="43.11797" lon="2.47912">
        <ele>361.78634643555</ele>
        <time>2011-06-05T11:02:48Z</time>
      </trkpt>
      <trkpt lat="43.11787" lon="2.47942">
        <ele>360.5119934082</ele>
        <time>2011-06-05T11:02:53Z</time>
      </trkpt>
      <trkpt lat="43.11784" lon="2.47975">
        <ele>358.90710449219</ele>
        <time>2011-06-05T11:02:59Z</time>
      </trkpt>
      <trkpt lat="43.11789" lon="2.48">
        <ele>357.54797363281</ele>
        <time>2011-06-05T11:03:05Z</time>
      </trkpt>
      <trkpt lat="43.11797" lon="2.48016">
        <ele>357.23629760742</ele>
        <time>2011-06-05T11:03:10Z</time>
      </trkpt>
      <trkpt lat="43.11804" lon="2.48034">
        <ele>356.94131469727</ele>
        <time>2011-06-05T11:03:15Z</time>
      </trkpt>
      <trkpt lat="43.11805" lon="2.48046">
        <ele>356.79083251953</ele>
        <time>2011-06-05T11:03:20Z</time>
      </trkpt>
      <trkpt lat="43.11802" lon="2.48058">
        <ele>356.67895507812</ele>
        <time>2011-06-05T11:03:25Z</time>
      </trkpt>
      <trkpt lat="43.118" lon="2.48075">
        <ele>356.49786376953</ele>
        <time>2011-06-05T11:03:31Z</time>
      </trkpt>
      <trkpt lat="43.11799" lon="2.48083">
        <ele>356.4211730957</ele>
        <time>2011-06-05T11:03:34Z</time>
      </trkpt>
      <trkpt lat="43.11794" lon="2.48098">
        <ele>357.15234375</ele>
        <time>2011-06-05T11:03:38Z</time>
      </trkpt>
      <trkpt lat="43.1179" lon="2.48101">
        <ele>357.38287353516</ele>
        <time>2011-06-05T11:03:39Z</time>
      </trkpt>
      <trkpt lat="43.11781" lon="2.48096">
        <ele>357.3342590332</ele>
        <time>2011-06-05T11:03:43Z</time>
      </trkpt>
      <trkpt lat="43.11777" lon="2.48099">
        <ele>357.56158447266</ele>
        <time>2011-06-05T11:03:46Z</time>
      </trkpt>
      <trkpt lat="43.11771" lon="2.48116">
        <ele>358.69836425781</ele>
        <time>2011-06-05T11:03:50Z</time>
      </trkpt>
      <trkpt lat="43.11765" lon="2.48121">
        <ele>359.19073486328</ele>
        <time>2011-06-05T11:03:53Z</time>
      </trkpt>
      <trkpt lat="43.11764" lon="2.48123">
        <ele>359.35711669922</ele>
        <time>2011-06-05T11:03:54Z</time>
      </trkpt>
      <trkpt lat="43.11762" lon="2.48127">
        <ele>359.71459960938</ele>
        <time>2011-06-05T11:03:56Z</time>
      </trkpt>
      <trkpt lat="43.11757" lon="2.48133">
        <ele>360.28887939453</ele>
        <time>2011-06-05T11:04:00Z</time>
      </trkpt>
      <trkpt lat="43.11757" lon="2.48134">
        <ele>360.32189941406</ele>
        <time>2011-06-05T11:04:02Z</time>
      </trkpt>
      <trkpt lat="43.11771" lon="2.48152">
        <ele>360.88583374023</ele>
        <time>2011-06-05T11:04:29Z</time>
      </trkpt>
      <trkpt lat="43.11779" lon="2.48163">
        <ele>361.01205444336</ele>
        <time>2011-06-05T11:04:34Z</time>
      </trkpt>
      <trkpt lat="43.11784" lon="2.48166">
        <ele>360.88293457031</ele>
        <time>2011-06-05T11:04:36Z</time>
      </trkpt>
      <trkpt lat="43.11796" lon="2.48162">
        <ele>360.02151489258</ele>
        <time>2011-06-05T11:04:40Z</time>
      </trkpt>
      <trkpt lat="43.11827" lon="2.48153">
        <ele>357.97494506836</ele>
        <time>2011-06-05T11:04:48Z</time>
      </trkpt>
      <trkpt lat="43.11845" lon="2.48155">
        <ele>357.63000488281</ele>
        <time>2011-06-05T11:04:52Z</time>
      </trkpt>
      <trkpt lat="43.11871" lon="2.48164">
        <ele>357.8688659668</ele>
        <time>2011-06-05T11:04:57Z</time>
      </trkpt>
      <trkpt lat="43.11884" lon="2.4818">
        <ele>359.61709594727</ele>
        <time>2011-06-05T11:05:01Z</time>
      </trkpt>
      <trkpt lat="43.11887" lon="2.48184">
        <ele>360.14486694336</ele>
        <time>2011-06-05T11:05:02Z</time>
      </trkpt>
      <trkpt lat="43.11894" lon="2.48204">
        <ele>362.20690917969</ele>
        <time>2011-06-05T11:05:08Z</time>
      </trkpt>
      <trkpt lat="43.11899" lon="2.48215">
        <ele>363.2001953125</ele>
        <time>2011-06-05T11:05:12Z</time>
      </trkpt>
      <trkpt lat="43.11905" lon="2.48237">
        <ele>364.99356079102</ele>
        <time>2011-06-05T11:05:18Z</time>
      </trkpt>
      <trkpt lat="43.11911" lon="2.48256">
        <ele>366.30084228516</ele>
        <time>2011-06-05T11:05:24Z</time>
      </trkpt>
      <trkpt lat="43.11914" lon="2.48262">
        <ele>366.42279052734</ele>
        <time>2011-06-05T11:05:26Z</time>
      </trkpt>
      <trkpt lat="43.11919" lon="2.48269">
        <ele>366.80825805664</ele>
        <time>2011-06-05T11:05:28Z</time>
      </trkpt>
      <trkpt lat="43.11921" lon="2.48272">
        <ele>367.14147949219</ele>
        <time>2011-06-05T11:05:29Z</time>
      </trkpt>
      <trkpt lat="43.11922" lon="2.48275">
        <ele>367.4748840332</ele>
        <time>2011-06-05T11:05:30Z</time>
      </trkpt>
      <trkpt lat="43.11924" lon="2.48278">
        <ele>367.75115966797</ele>
        <time>2011-06-05T11:05:31Z</time>
      </trkpt>
      <trkpt lat="43.11929" lon="2.48289">
        <ele>368.73645019531</ele>
        <time>2011-06-05T11:05:36Z</time>
      </trkpt>
      <trkpt lat="43.11936" lon="2.48311">
        <ele>370.61813354492</ele>
        <time>2011-06-05T11:05:44Z</time>
      </trkpt>
      <trkpt lat="43.11938" lon="2.48328">
        <ele>372.07287597656</ele>
        <time>2011-06-05T11:05:50Z</time>
      </trkpt>
      <trkpt lat="43.11937" lon="2.48342">
        <ele>373.53747558594</ele>
        <time>2011-06-05T11:05:55Z</time>
      </trkpt>
      <trkpt lat="43.11935" lon="2.48361">
        <ele>375.76712036133</ele>
        <time>2011-06-05T11:06:02Z</time>
      </trkpt>
      <trkpt lat="43.11939" lon="2.48375">
        <ele>377.23480224609</ele>
        <time>2011-06-05T11:06:06Z</time>
      </trkpt>
      <trkpt lat="43.1194" lon="2.48377">
        <ele>377.36364746094</ele>
        <time>2011-06-05T11:06:07Z</time>
      </trkpt>
      <trkpt lat="43.11949" lon="2.48374">
        <ele>376.74179077148</ele>
        <time>2011-06-05T11:06:12Z</time>
      </trkpt>
      <trkpt lat="43.11958" lon="2.48357">
        <ele>374.55798339844</ele>
        <time>2011-06-05T11:06:18Z</time>
      </trkpt>
      <trkpt lat="43.11964" lon="2.48343">
        <ele>372.87002563477</ele>
        <time>2011-06-05T11:06:23Z</time>
      </trkpt>
      <trkpt lat="43.11975" lon="2.48334">
        <ele>371.64764404297</ele>
        <time>2011-06-05T11:06:29Z</time>
      </trkpt>
      <trkpt lat="43.11986" lon="2.48325">
        <ele>370.88787841797</ele>
        <time>2011-06-05T11:06:34Z</time>
      </trkpt>
      <trkpt lat="43.11994" lon="2.4831">
        <ele>369.9563293457</ele>
        <time>2011-06-05T11:06:40Z</time>
      </trkpt>
      <trkpt lat="43.12" lon="2.48303">
        <ele>369.56936645508</ele>
        <time>2011-06-05T11:06:45Z</time>
      </trkpt>
      <trkpt lat="43.12012" lon="2.48296">
        <ele>370.08151245117</ele>
        <time>2011-06-05T11:06:52Z</time>
      </trkpt>
      <trkpt lat="43.12018" lon="2.48303">
        <ele>370.87197875977</ele>
        <time>2011-06-05T11:06:56Z</time>
      </trkpt>
      <trkpt lat="43.12016" lon="2.48323">
        <ele>371.90701293945</ele>
        <time>2011-06-05T11:07:03Z</time>
      </trkpt>
      <trkpt lat="43.12015" lon="2.48325">
        <ele>371.97573852539</ele>
        <time>2011-06-05T11:07:04Z</time>
      </trkpt>
      <trkpt lat="43.12004" lon="2.4833">
        <ele>371.16638183594</ele>
        <time>2011-06-05T11:07:10Z</time>
      </trkpt>
      <trkpt lat="43.12" lon="2.48326">
        <ele>370.64343261719</ele>
        <time>2011-06-05T11:07:12Z</time>
      </trkpt>
      <trkpt lat="43.11996" lon="2.4832">
        <ele>370.41217041016</ele>
        <time>2011-06-05T11:07:14Z</time>
      </trkpt>
      <trkpt lat="43.12" lon="2.48306">
        <ele>369.69723510742</ele>
        <time>2011-06-05T11:07:19Z</time>
      </trkpt>
      <trkpt lat="43.12002" lon="2.48304">
        <ele>369.70260620117</ele>
        <time>2011-06-05T11:07:20Z</time>
      </trkpt>
      <trkpt lat="43.12017" lon="2.48297">
        <ele>370.4416809082</ele>
        <time>2011-06-05T11:07:25Z</time>
      </trkpt>
      <trkpt lat="43.12032" lon="2.48303">
        <ele>371.86953735352</ele>
        <time>2011-06-05T11:07:30Z</time>
      </trkpt>
      <trkpt lat="43.1204" lon="2.48312">
        <ele>373.19662475586</ele>
        <time>2011-06-05T11:07:34Z</time>
      </trkpt>
      <trkpt lat="43.12051" lon="2.48334">
        <ele>375.92370605469</ele>
        <time>2011-06-05T11:07:41Z</time>
      </trkpt>
      <trkpt lat="43.12057" lon="2.4835">
        <ele>378.83572387695</ele>
        <time>2011-06-05T11:07:47Z</time>
      </trkpt>
      <trkpt lat="43.12061" lon="2.48362">
        <ele>380.8176574707</ele>
        <time>2011-06-05T11:07:53Z</time>
      </trkpt>
      <trkpt lat="43.12061" lon="2.48365">
        <ele>381.26452636719</ele>
        <time>2011-06-05T11:07:55Z</time>
      </trkpt>
      <trkpt lat="43.12056" lon="2.48374">
        <ele>381.86926269531</ele>
        <time>2011-06-05T11:08:02Z</time>
      </trkpt>
      <trkpt lat="43.12055" lon="2.48375">
        <ele>381.92227172852</ele>
        <time>2011-06-05T11:08:03Z</time>
      </trkpt>
      <trkpt lat="43.12048" lon="2.48384">
        <ele>382.23205566406</ele>
        <time>2011-06-05T11:08:12Z</time>
      </trkpt>
      <trkpt lat="43.12041" lon="2.48397">
        <ele>382.94564819336</ele>
        <time>2011-06-05T11:08:20Z</time>
      </trkpt>
      <trkpt lat="43.12037" lon="2.48405">
        <ele>383.22036743164</ele>
        <time>2011-06-05T11:08:25Z</time>
      </trkpt>
      <trkpt lat="43.12031" lon="2.48412">
        <ele>383.23959350586</ele>
        <time>2011-06-05T11:08:30Z</time>
      </trkpt>
      <trkpt lat="43.1202" lon="2.48429">
        <ele>383.22775268555</ele>
        <time>2011-06-05T11:08:38Z</time>
      </trkpt>
      <trkpt lat="43.12012" lon="2.48438">
        <ele>382.69216918945</ele>
        <time>2011-06-05T11:08:43Z</time>
      </trkpt>
      <trkpt lat="43.12006" lon="2.48453">
        <ele>383.06838989258</ele>
        <time>2011-06-05T11:08:49Z</time>
      </trkpt>
      <trkpt lat="43.12007" lon="2.48461">
        <ele>383.8655090332</ele>
        <time>2011-06-05T11:08:53Z</time>
      </trkpt>
      <trkpt lat="43.12015" lon="2.48469">
        <ele>385.98764038086</ele>
        <time>2011-06-05T11:08:59Z</time>
      </trkpt>
      <trkpt lat="43.12028" lon="2.48481">
        <ele>389.29336547852</ele>
        <time>2011-06-05T11:09:08Z</time>
      </trkpt>
      <trkpt lat="43.12034" lon="2.48484">
        <ele>390.69613647461</ele>
        <time>2011-06-05T11:09:13Z</time>
      </trkpt>
      <trkpt lat="43.12036" lon="2.48491">
        <ele>391.62509155273</ele>
        <time>2011-06-05T11:09:17Z</time>
      </trkpt>
      <trkpt lat="43.12042" lon="2.48498">
        <ele>393.37026977539</ele>
        <time>2011-06-05T11:09:25Z</time>
      </trkpt>
      <trkpt lat="43.12043" lon="2.48499">
        <ele>393.62396240234</ele>
        <time>2011-06-05T11:09:26Z</time>
      </trkpt>
      <trkpt lat="43.12046" lon="2.485">
        <ele>394.29638671875</ele>
        <time>2011-06-05T11:09:28Z</time>
      </trkpt>
      <trkpt lat="43.1205" lon="2.48513">
        <ele>395.34692382812</ele>
        <time>2011-06-05T11:09:35Z</time>
      </trkpt>
      <trkpt lat="43.12057" lon="2.48532">
        <ele>397.11962890625</ele>
        <time>2011-06-05T11:09:44Z</time>
      </trkpt>
      <trkpt lat="43.12066" lon="2.48555">
        <ele>399.25338745117</ele>
        <time>2011-06-05T11:09:54Z</time>
      </trkpt>
      <trkpt lat="43.12068" lon="2.48561">
        <ele>399.65963745117</ele>
        <time>2011-06-05T11:09:59Z</time>
      </trkpt>
      <trkpt lat="43.12069" lon="2.48563">
        <ele>399.92114257812</ele>
        <time>2011-06-05T11:10:03Z</time>
      </trkpt>
      <trkpt lat="43.1207" lon="2.48571">
        <ele>400.38748168945</ele>
        <time>2011-06-05T11:10:10Z</time>
      </trkpt>
      <trkpt lat="43.1207" lon="2.48572">
        <ele>400.41436767578</ele>
        <time>2011-06-05T11:10:11Z</time>
      </trkpt>
      <trkpt lat="43.12074" lon="2.48578">
        <ele>401.10733032227</ele>
        <time>2011-06-05T11:10:17Z</time>
      </trkpt>
      <trkpt lat="43.12075" lon="2.48588">
        <ele>401.38439941406</ele>
        <time>2011-06-05T11:10:23Z</time>
      </trkpt>
      <trkpt lat="43.12078" lon="2.486">
        <ele>401.52926635742</ele>
        <time>2011-06-05T11:10:29Z</time>
      </trkpt>
      <trkpt lat="43.12082" lon="2.48614">
        <ele>401.74258422852</ele>
        <time>2011-06-05T11:10:36Z</time>
      </trkpt>
      <trkpt lat="43.12084" lon="2.48628">
        <ele>401.52215576172</ele>
        <time>2011-06-05T11:10:42Z</time>
      </trkpt>
      <trkpt lat="43.12086" lon="2.48633">
        <ele>401.63290405273</ele>
        <time>2011-06-05T11:10:45Z</time>
      </trkpt>
      <trkpt lat="43.1209" lon="2.48646">
        <ele>401.63128662109</ele>
        <time>2011-06-05T11:10:50Z</time>
      </trkpt>
      <trkpt lat="43.1209" lon="2.48667">
        <ele>401.02072143555</ele>
        <time>2011-06-05T11:10:57Z</time>
      </trkpt>
      <trkpt lat="43.12093" lon="2.48689">
        <ele>401.26150512695</ele>
        <time>2011-06-05T11:11:05Z</time>
      </trkpt>
      <trkpt lat="43.12098" lon="2.48707">
        <ele>401.71133422852</ele>
        <time>2011-06-05T11:11:11Z</time>
      </trkpt>
      <trkpt lat="43.12108" lon="2.4873">
        <ele>402.90148925781</ele>
        <time>2011-06-05T11:11:19Z</time>
      </trkpt>
      <trkpt lat="43.12115" lon="2.48741">
        <ele>403.66128540039</ele>
        <time>2011-06-05T11:11:23Z</time>
      </trkpt>
      <trkpt lat="43.1213" lon="2.4876">
        <ele>405.46087646484</ele>
        <time>2011-06-05T11:11:30Z</time>
      </trkpt>
      <trkpt lat="43.12146" lon="2.48775">
        <ele>407.06805419922</ele>
        <time>2011-06-05T11:11:37Z</time>
      </trkpt>
      <trkpt lat="43.12161" lon="2.48783">
        <ele>408.72601318359</ele>
        <time>2011-06-05T11:11:43Z</time>
      </trkpt>
      <trkpt lat="43.12183" lon="2.48795">
        <ele>408.65151977539</ele>
        <time>2011-06-05T11:11:51Z</time>
      </trkpt>
      <trkpt lat="43.12201" lon="2.4881">
        <ele>408.66821289062</ele>
        <time>2011-06-05T11:11:57Z</time>
      </trkpt>
      <trkpt lat="43.12204" lon="2.48814">
        <ele>408.80093383789</ele>
        <time>2011-06-05T11:11:58Z</time>
      </trkpt>
      <trkpt lat="43.12213" lon="2.48832">
        <ele>409.71002197266</ele>
        <time>2011-06-05T11:12:02Z</time>
      </trkpt>
      <trkpt lat="43.12225" lon="2.48848">
        <ele>410.72329711914</ele>
        <time>2011-06-05T11:12:06Z</time>
      </trkpt>
      <trkpt lat="43.12239" lon="2.4886">
        <ele>411.68081665039</ele>
        <time>2011-06-05T11:12:10Z</time>
      </trkpt>
      <trkpt lat="43.12267" lon="2.48906">
        <ele>413.02294921875</ele>
        <time>2011-06-05T11:12:19Z</time>
      </trkpt>
      <trkpt lat="43.12284" lon="2.48935">
        <ele>414.02886962891</ele>
        <time>2011-06-05T11:12:26Z</time>
      </trkpt>
      <trkpt lat="43.12289" lon="2.48944">
        <ele>414.31344604492</ele>
        <time>2011-06-05T11:12:28Z</time>
      </trkpt>
      <trkpt lat="43.12307" lon="2.48961">
        <ele>414.72039794922</ele>
        <time>2011-06-05T11:12:32Z</time>
      </trkpt>
      <trkpt lat="43.12328" lon="2.48965">
        <ele>414.61862182617</ele>
        <time>2011-06-05T11:12:36Z</time>
      </trkpt>
      <trkpt lat="43.12334" lon="2.48978">
        <ele>414.85842895508</ele>
        <time>2011-06-05T11:12:39Z</time>
      </trkpt>
      <trkpt lat="43.12333" lon="2.48988">
        <ele>414.85305786133</ele>
        <time>2011-06-05T11:12:41Z</time>
      </trkpt>
      <trkpt lat="43.12329" lon="2.49031">
        <ele>416.1985168457</ele>
        <time>2011-06-05T11:12:49Z</time>
      </trkpt>
      <trkpt lat="43.12324" lon="2.49085">
        <ele>418.14370727539</ele>
        <time>2011-06-05T11:12:59Z</time>
      </trkpt>
      <trkpt lat="43.1232" lon="2.49129">
        <ele>419.16885375977</ele>
        <time>2011-06-05T11:13:08Z</time>
      </trkpt>
      <trkpt lat="43.12317" lon="2.49171">
        <ele>420.1455078125</ele>
        <time>2011-06-05T11:13:17Z</time>
      </trkpt>
      <trkpt lat="43.12313" lon="2.49211">
        <ele>421.58489990234</ele>
        <time>2011-06-05T11:13:26Z</time>
      </trkpt>
      <trkpt lat="43.12315" lon="2.4925">
        <ele>422.98220825195</ele>
        <time>2011-06-05T11:13:34Z</time>
      </trkpt>
      <trkpt lat="43.12323" lon="2.49295">
        <ele>424.15234375</ele>
        <time>2011-06-05T11:13:43Z</time>
      </trkpt>
      <trkpt lat="43.12333" lon="2.49346">
        <ele>425.61114501953</ele>
        <time>2011-06-05T11:13:53Z</time>
      </trkpt>
      <trkpt lat="43.12339" lon="2.49392">
        <ele>428.47164916992</ele>
        <time>2011-06-05T11:14:02Z</time>
      </trkpt>
      <trkpt lat="43.12339" lon="2.49437">
        <ele>429.23553466797</ele>
        <time>2011-06-05T11:14:11Z</time>
      </trkpt>
      <trkpt lat="43.12334" lon="2.49478">
        <ele>428.34579467773</ele>
        <time>2011-06-05T11:14:18Z</time>
      </trkpt>
      <trkpt lat="43.12339" lon="2.49484">
        <ele>428.60369873047</ele>
        <time>2011-06-05T11:14:22Z</time>
      </trkpt>
      <trkpt lat="43.12342" lon="2.49482">
        <ele>428.88473510742</ele>
        <time>2011-06-05T11:14:26Z</time>
      </trkpt>
      <trkpt lat="43.12342" lon="2.49482">
        <ele>428.88336181641</ele>
        <time>2011-06-05T11:14:27Z</time>
      </trkpt>
      <trkpt lat="43.12342" lon="2.49479">
        <ele>428.89999389648</ele>
        <time>2011-06-05T11:14:39Z</time>
      </trkpt>
      <trkpt lat="43.12342" lon="2.49479">
        <ele>428.93112182617</ele>
        <time>2011-06-05T11:14:40Z</time>
      </trkpt>
      <trkpt lat="43.12342" lon="2.49479">
        <ele>428.93249511719</ele>
        <time>2011-06-05T11:14:42Z</time>
      </trkpt>
      <trkpt lat="43.12333" lon="2.49478">
        <ele>428.33099365234</ele>
        <time>2011-06-05T11:22:47Z</time>
      </trkpt>
      <trkpt lat="43.12331" lon="2.49473">
        <ele>428.69219970703</ele>
        <time>2011-06-05T11:22:51Z</time>
      </trkpt>
      <trkpt lat="43.12333" lon="2.49468">
        <ele>428.49954223633</ele>
        <time>2011-06-05T11:22:54Z</time>
      </trkpt>
      <trkpt lat="43.1233" lon="2.49468">
        <ele>428.84506225586</ele>
        <time>2011-06-05T11:22:58Z</time>
      </trkpt>
      <trkpt lat="43.12331" lon="2.49476">
        <ele>428.72634887695</ele>
        <time>2011-06-05T11:23:04Z</time>
      </trkpt>
      <trkpt lat="43.12333" lon="2.49479">
        <ele>428.38812255859</ele>
        <time>2011-06-05T11:23:08Z</time>
      </trkpt>
      <trkpt lat="43.12336" lon="2.49478">
        <ele>428.49652099609</ele>
        <time>2011-06-05T11:23:14Z</time>
      </trkpt>
      <trkpt lat="43.12345" lon="2.49479">
        <ele>429.14849853516</ele>
        <time>2011-06-05T11:23:20Z</time>
      </trkpt>
      <trkpt lat="43.12354" lon="2.49475">
        <ele>429.93759155273</ele>
        <time>2011-06-05T11:23:25Z</time>
      </trkpt>
      <trkpt lat="43.12363" lon="2.49472">
        <ele>430.68103027344</ele>
        <time>2011-06-05T11:23:29Z</time>
      </trkpt>
      <trkpt lat="43.12371" lon="2.4947">
        <ele>431.40045166016</ele>
        <time>2011-06-05T11:23:33Z</time>
      </trkpt>
      <trkpt lat="43.12379" lon="2.49473">
        <ele>432.00827026367</ele>
        <time>2011-06-05T11:23:37Z</time>
      </trkpt>
      <trkpt lat="43.12389" lon="2.49481">
        <ele>432.56121826172</ele>
        <time>2011-06-05T11:23:42Z</time>
      </trkpt>
      <trkpt lat="43.12395" lon="2.49487">
        <ele>432.87530517578</ele>
        <time>2011-06-05T11:23:45Z</time>
      </trkpt>
      <trkpt lat="43.12411" lon="2.49498">
        <ele>433.71060180664</ele>
        <time>2011-06-05T11:23:53Z</time>
      </trkpt>
      <trkpt lat="43.12423" lon="2.49502">
        <ele>434.22280883789</ele>
        <time>2011-06-05T11:24:00Z</time>
      </trkpt>
      <trkpt lat="43.12429" lon="2.49503">
        <ele>434.7907409668</ele>
        <time>2011-06-05T11:24:04Z</time>
      </trkpt>
      <trkpt lat="43.12434" lon="2.49505">
        <ele>434.87118530273</ele>
        <time>2011-06-05T11:24:08Z</time>
      </trkpt>
      <trkpt lat="43.1244" lon="2.49506">
        <ele>435.23086547852</ele>
        <time>2011-06-05T11:24:12Z</time>
      </trkpt>
      <trkpt lat="43.12445" lon="2.49506">
        <ele>435.66519165039</ele>
        <time>2011-06-05T11:24:16Z</time>
      </trkpt>
      <trkpt lat="43.12456" lon="2.49507">
        <ele>436.54223632812</ele>
        <time>2011-06-05T11:24:25Z</time>
      </trkpt>
      <trkpt lat="43.12457" lon="2.49506">
        <ele>436.75192260742</ele>
        <time>2011-06-05T11:24:26Z</time>
      </trkpt>
      <trkpt lat="43.12463" lon="2.49493">
        <ele>438.76031494141</ele>
        <time>2011-06-05T11:24:35Z</time>
      </trkpt>
      <trkpt lat="43.12463" lon="2.4949">
        <ele>438.9836730957</ele>
        <time>2011-06-05T11:24:37Z</time>
      </trkpt>
      <trkpt lat="43.12467" lon="2.49483">
        <ele>439.69482421875</ele>
        <time>2011-06-05T11:24:44Z</time>
      </trkpt>
      <trkpt lat="43.12471" lon="2.4948">
        <ele>440.236328125</ele>
        <time>2011-06-05T11:24:49Z</time>
      </trkpt>
      <trkpt lat="43.12477" lon="2.49475">
        <ele>441.14291381836</ele>
        <time>2011-06-05T11:24:56Z</time>
      </trkpt>
      <trkpt lat="43.12482" lon="2.4947">
        <ele>441.95883178711</ele>
        <time>2011-06-05T11:25:03Z</time>
      </trkpt>
      <trkpt lat="43.12486" lon="2.49465">
        <ele>442.59671020508</ele>
        <time>2011-06-05T11:25:07Z</time>
      </trkpt>
      <trkpt lat="43.12487" lon="2.49464">
        <ele>442.74591064453</ele>
        <time>2011-06-05T11:25:08Z</time>
      </trkpt>
      <trkpt lat="43.12492" lon="2.49458">
        <ele>443.68276977539</ele>
        <time>2011-06-05T11:25:14Z</time>
      </trkpt>
      <trkpt lat="43.12499" lon="2.49447">
        <ele>445.07159423828</ele>
        <time>2011-06-05T11:25:20Z</time>
      </trkpt>
      <trkpt lat="43.12506" lon="2.49428">
        <ele>445.09915161133</ele>
        <time>2011-06-05T11:25:27Z</time>
      </trkpt>
      <trkpt lat="43.12511" lon="2.49398">
        <ele>445.6171875</ele>
        <time>2011-06-05T11:25:34Z</time>
      </trkpt>
      <trkpt lat="43.12521" lon="2.49372">
        <ele>445.18402099609</ele>
        <time>2011-06-05T11:25:40Z</time>
      </trkpt>
      <trkpt lat="43.1253" lon="2.49333">
        <ele>446.12445068359</ele>
        <time>2011-06-05T11:25:49Z</time>
      </trkpt>
      <trkpt lat="43.12539" lon="2.49301">
        <ele>446.47769165039</ele>
        <time>2011-06-05T11:25:55Z</time>
      </trkpt>
      <trkpt lat="43.12555" lon="2.49272">
        <ele>447.57244873047</ele>
        <time>2011-06-05T11:26:02Z</time>
      </trkpt>
      <trkpt lat="43.12572" lon="2.49242">
        <ele>449.41970825195</ele>
        <time>2011-06-05T11:26:10Z</time>
      </trkpt>
      <trkpt lat="43.12581" lon="2.49204">
        <ele>449.29327392578</ele>
        <time>2011-06-05T11:26:17Z</time>
      </trkpt>
      <trkpt lat="43.1259" lon="2.49188">
        <ele>449.22961425781</ele>
        <time>2011-06-05T11:26:21Z</time>
      </trkpt>
      <trkpt lat="43.126" lon="2.49176">
        <ele>449.41442871094</ele>
        <time>2011-06-05T11:26:26Z</time>
      </trkpt>
      <trkpt lat="43.12604" lon="2.49165">
        <ele>449.76141357422</ele>
        <time>2011-06-05T11:26:29Z</time>
      </trkpt>
      <trkpt lat="43.12611" lon="2.49152">
        <ele>450.15469360352</ele>
        <time>2011-06-05T11:26:33Z</time>
      </trkpt>
      <trkpt lat="43.12624" lon="2.49133">
        <ele>451.26873779297</ele>
        <time>2011-06-05T11:26:40Z</time>
      </trkpt>
      <trkpt lat="43.12635" lon="2.49115">
        <ele>452.51919555664</ele>
        <time>2011-06-05T11:26:46Z</time>
      </trkpt>
      <trkpt lat="43.12642" lon="2.49094">
        <ele>453.94030761719</ele>
        <time>2011-06-05T11:26:52Z</time>
      </trkpt>
      <trkpt lat="43.12652" lon="2.4906">
        <ele>455.57369995117</ele>
        <time>2011-06-05T11:27:01Z</time>
      </trkpt>
      <trkpt lat="43.12659" lon="2.49027">
        <ele>456.66763305664</ele>
        <time>2011-06-05T11:27:09Z</time>
      </trkpt>
      <trkpt lat="43.12669" lon="2.48996">
        <ele>457.86767578125</ele>
        <time>2011-06-05T11:27:17Z</time>
      </trkpt>
      <trkpt lat="43.12677" lon="2.48974">
        <ele>457.81591796875</ele>
        <time>2011-06-05T11:27:24Z</time>
      </trkpt>
      <trkpt lat="43.1269" lon="2.48945">
        <ele>458.53182983398</ele>
        <time>2011-06-05T11:27:33Z</time>
      </trkpt>
      <trkpt lat="43.127" lon="2.48921">
        <ele>459.91329956055</ele>
        <time>2011-06-05T11:27:42Z</time>
      </trkpt>
      <trkpt lat="43.12706" lon="2.48905">
        <ele>460.44998168945</ele>
        <time>2011-06-05T11:27:48Z</time>
      </trkpt>
      <trkpt lat="43.12714" lon="2.4887">
        <ele>461.14428710938</ele>
        <time>2011-06-05T11:27:59Z</time>
      </trkpt>
      <trkpt lat="43.12719" lon="2.48843">
        <ele>461.89273071289</ele>
        <time>2011-06-05T11:28:07Z</time>
      </trkpt>
      <trkpt lat="43.12718" lon="2.48833">
        <ele>461.94186401367</ele>
        <time>2011-06-05T11:28:09Z</time>
      </trkpt>
      <trkpt lat="43.12722" lon="2.48802">
        <ele>462.0280456543</ele>
        <time>2011-06-05T11:28:14Z</time>
      </trkpt>
      <trkpt lat="43.12734" lon="2.48784">
        <ele>462.96868896484</ele>
        <time>2011-06-05T11:28:18Z</time>
      </trkpt>
      <trkpt lat="43.12741" lon="2.48773">
        <ele>463.53128051758</ele>
        <time>2011-06-05T11:28:20Z</time>
      </trkpt>
      <trkpt lat="43.12757" lon="2.48751">
        <ele>464.5110168457</ele>
        <time>2011-06-05T11:28:24Z</time>
      </trkpt>
      <trkpt lat="43.12771" lon="2.48739">
        <ele>465.74020385742</ele>
        <time>2011-06-05T11:28:29Z</time>
      </trkpt>
      <trkpt lat="43.12782" lon="2.48717">
        <ele>467.1376953125</ele>
        <time>2011-06-05T11:28:35Z</time>
      </trkpt>
      <trkpt lat="43.12794" lon="2.48696">
        <ele>468.81704711914</ele>
        <time>2011-06-05T11:28:42Z</time>
      </trkpt>
      <trkpt lat="43.12806" lon="2.48678">
        <ele>470.58898925781</ele>
        <time>2011-06-05T11:28:49Z</time>
      </trkpt>
      <trkpt lat="43.12813" lon="2.4867">
        <ele>471.671875</ele>
        <time>2011-06-05T11:28:53Z</time>
      </trkpt>
      <trkpt lat="43.12825" lon="2.48653">
        <ele>473.25689697266</ele>
        <time>2011-06-05T11:29:01Z</time>
      </trkpt>
      <trkpt lat="43.12833" lon="2.48635">
        <ele>474.34808349609</ele>
        <time>2011-06-05T11:29:09Z</time>
      </trkpt>
      <trkpt lat="43.12845" lon="2.48616">
        <ele>474.52990722656</ele>
        <time>2011-06-05T11:29:17Z</time>
      </trkpt>
      <trkpt lat="43.12851" lon="2.48595">
        <ele>475.20602416992</ele>
        <time>2011-06-05T11:29:24Z</time>
      </trkpt>
      <trkpt lat="43.12857" lon="2.48569">
        <ele>476.08636474609</ele>
        <time>2011-06-05T11:29:33Z</time>
      </trkpt>
      <trkpt lat="43.1287" lon="2.48552">
        <ele>476.85403442383</ele>
        <time>2011-06-05T11:29:40Z</time>
      </trkpt>
      <trkpt lat="43.1288" lon="2.48546">
        <ele>477.39227294922</ele>
        <time>2011-06-05T11:29:45Z</time>
      </trkpt>
      <trkpt lat="43.12888" lon="2.48533">
        <ele>477.99252319336</ele>
        <time>2011-06-05T11:29:50Z</time>
      </trkpt>
      <trkpt lat="43.12899" lon="2.48518">
        <ele>478.77496337891</ele>
        <time>2011-06-05T11:29:56Z</time>
      </trkpt>
      <trkpt lat="43.12915" lon="2.48505">
        <ele>479.77322387695</ele>
        <time>2011-06-05T11:30:04Z</time>
      </trkpt>
      <trkpt lat="43.12922" lon="2.48493">
        <ele>479.21859741211</ele>
        <time>2011-06-05T11:30:10Z</time>
      </trkpt>
      <trkpt lat="43.12928" lon="2.48486">
        <ele>478.42575073242</ele>
        <time>2011-06-05T11:30:16Z</time>
      </trkpt>
      <trkpt lat="43.12936" lon="2.48471">
        <ele>477.56317138672</ele>
        <time>2011-06-05T11:30:23Z</time>
      </trkpt>
      <trkpt lat="43.12943" lon="2.48452">
        <ele>477.12115478516</ele>
        <time>2011-06-05T11:30:29Z</time>
      </trkpt>
      <trkpt lat="43.12951" lon="2.48419">
        <ele>477.09228515625</ele>
        <time>2011-06-05T11:30:38Z</time>
      </trkpt>
      <trkpt lat="43.12957" lon="2.48393">
        <ele>476.02990722656</ele>
        <time>2011-06-05T11:30:45Z</time>
      </trkpt>
      <trkpt lat="43.12964" lon="2.48354">
        <ele>474.61505126953</ele>
        <time>2011-06-05T11:30:54Z</time>
      </trkpt>
      <trkpt lat="43.12967" lon="2.48314">
        <ele>473.48721313477</ele>
        <time>2011-06-05T11:31:02Z</time>
      </trkpt>
      <trkpt lat="43.12968" lon="2.48284">
        <ele>472.65042114258</ele>
        <time>2011-06-05T11:31:08Z</time>
      </trkpt>
      <trkpt lat="43.12967" lon="2.48259">
        <ele>472.04678344727</ele>
        <time>2011-06-05T11:31:12Z</time>
      </trkpt>
      <trkpt lat="43.12974" lon="2.48214">
        <ele>470.92919921875</ele>
        <time>2011-06-05T11:31:20Z</time>
      </trkpt>
      <trkpt lat="43.12975" lon="2.48208">
        <ele>470.79806518555</ele>
        <time>2011-06-05T11:31:21Z</time>
      </trkpt>
      <trkpt lat="43.12978" lon="2.48159">
        <ele>469.69668579102</ele>
        <time>2011-06-05T11:31:30Z</time>
      </trkpt>
      <trkpt lat="43.12976" lon="2.48128">
        <ele>468.40029907227</ele>
        <time>2011-06-05T11:31:35Z</time>
      </trkpt>
      <trkpt lat="43.12979" lon="2.48101">
        <ele>467.42263793945</ele>
        <time>2011-06-05T11:31:39Z</time>
      </trkpt>
      <trkpt lat="43.12982" lon="2.48096">
        <ele>467.41174316406</ele>
        <time>2011-06-05T11:31:42Z</time>
      </trkpt>
      <trkpt lat="43.12985" lon="2.4811">
        <ele>468.01791381836</ele>
        <time>2011-06-05T11:31:47Z</time>
      </trkpt>
      <trkpt lat="43.12988" lon="2.48125">
        <ele>468.62255859375</ele>
        <time>2011-06-05T11:31:50Z</time>
      </trkpt>
      <trkpt lat="43.12992" lon="2.48144">
        <ele>469.31811523438</ele>
        <time>2011-06-05T11:31:53Z</time>
      </trkpt>
      <trkpt lat="43.12996" lon="2.48188">
        <ele>470.28625488281</ele>
        <time>2011-06-05T11:32:00Z</time>
      </trkpt>
      <trkpt lat="43.13001" lon="2.48216">
        <ele>470.3942565918</ele>
        <time>2011-06-05T11:32:05Z</time>
      </trkpt>
      <trkpt lat="43.13003" lon="2.48234">
        <ele>470.19546508789</ele>
        <time>2011-06-05T11:32:08Z</time>
      </trkpt>
      <trkpt lat="43.12999" lon="2.4828">
        <ele>471.38659667969</ele>
        <time>2011-06-05T11:32:16Z</time>
      </trkpt>
      <trkpt lat="43.12999" lon="2.48299">
        <ele>471.63995361328</ele>
        <time>2011-06-05T11:32:19Z</time>
      </trkpt>
      <trkpt lat="43.13004" lon="2.48322">
        <ele>471.25033569336</ele>
        <time>2011-06-05T11:32:23Z</time>
      </trkpt>
      <trkpt lat="43.1301" lon="2.48339">
        <ele>470.31381225586</ele>
        <time>2011-06-05T11:32:27Z</time>
      </trkpt>
      <trkpt lat="43.1302" lon="2.4835">
        <ele>468.8518371582</ele>
        <time>2011-06-05T11:32:30Z</time>
      </trkpt>
      <trkpt lat="43.13043" lon="2.48376">
        <ele>465.31045532227</ele>
        <time>2011-06-05T11:32:35Z</time>
      </trkpt>
      <trkpt lat="43.13065" lon="2.48375">
        <ele>461.58856201172</ele>
        <time>2011-06-05T11:32:38Z</time>
      </trkpt>
      <trkpt lat="43.13091" lon="2.4838">
        <ele>458.39352416992</ele>
        <time>2011-06-05T11:32:42Z</time>
      </trkpt>
      <trkpt lat="43.13101" lon="2.48373">
        <ele>458.02963256836</ele>
        <time>2011-06-05T11:32:44Z</time>
      </trkpt>
      <trkpt lat="43.13118" lon="2.48369">
        <ele>457.49331665039</ele>
        <time>2011-06-05T11:32:49Z</time>
      </trkpt>
      <trkpt lat="43.13128" lon="2.48368">
        <ele>457.14071655273</ele>
        <time>2011-06-05T11:32:52Z</time>
      </trkpt>
      <trkpt lat="43.13147" lon="2.48363">
        <ele>456.36737060547</ele>
        <time>2011-06-05T11:32:57Z</time>
      </trkpt>
      <trkpt lat="43.13178" lon="2.48366">
        <ele>456.38906860352</ele>
        <time>2011-06-05T11:33:02Z</time>
      </trkpt>
      <trkpt lat="43.13194" lon="2.48355">
        <ele>456.18923950195</ele>
        <time>2011-06-05T11:33:06Z</time>
      </trkpt>
      <trkpt lat="43.13206" lon="2.48339">
        <ele>455.4084777832</ele>
        <time>2011-06-05T11:33:11Z</time>
      </trkpt>
      <trkpt lat="43.13221" lon="2.48324">
        <ele>454.43130493164</ele>
        <time>2011-06-05T11:33:16Z</time>
      </trkpt>
      <trkpt lat="43.13228" lon="2.4832">
        <ele>454.21017456055</ele>
        <time>2011-06-05T11:33:18Z</time>
      </trkpt>
      <trkpt lat="43.13242" lon="2.48312">
        <ele>453.94494628906</ele>
        <time>2011-06-05T11:33:22Z</time>
      </trkpt>
      <trkpt lat="43.13261" lon="2.4831">
        <ele>454.92721557617</ele>
        <time>2011-06-05T11:33:26Z</time>
      </trkpt>
      <trkpt lat="43.13281" lon="2.48307">
        <ele>456.47174072266</ele>
        <time>2011-06-05T11:33:31Z</time>
      </trkpt>
      <trkpt lat="43.13285" lon="2.48305">
        <ele>456.67016601562</ele>
        <time>2011-06-05T11:33:32Z</time>
      </trkpt>
      <trkpt lat="43.13302" lon="2.483">
        <ele>457.92889404297</ele>
        <time>2011-06-05T11:33:38Z</time>
      </trkpt>
      <trkpt lat="43.13312" lon="2.48306">
        <ele>459.10470581055</ele>
        <time>2011-06-05T11:33:43Z</time>
      </trkpt>
      <trkpt lat="43.13324" lon="2.48306">
        <ele>460.21505737305</ele>
        <time>2011-06-05T11:33:48Z</time>
      </trkpt>
      <trkpt lat="43.13337" lon="2.48303">
        <ele>460.97885131836</ele>
        <time>2011-06-05T11:33:53Z</time>
      </trkpt>
      <trkpt lat="43.13345" lon="2.48291">
        <ele>460.61532592773</ele>
        <time>2011-06-05T11:33:58Z</time>
      </trkpt>
      <trkpt lat="43.13353" lon="2.48282">
        <ele>460.26162719727</ele>
        <time>2011-06-05T11:34:04Z</time>
      </trkpt>
      <trkpt lat="43.13355" lon="2.4828">
        <ele>460.19375610352</ele>
        <time>2011-06-05T11:34:05Z</time>
      </trkpt>
      <trkpt lat="43.13365" lon="2.48268">
        <ele>459.61721801758</ele>
        <time>2011-06-05T11:34:12Z</time>
      </trkpt>
      <trkpt lat="43.13382" lon="2.48266">
        <ele>459.44204711914</ele>
        <time>2011-06-05T11:34:18Z</time>
      </trkpt>
      <trkpt lat="43.13384" lon="2.48263">
        <ele>459.25250244141</ele>
        <time>2011-06-05T11:34:19Z</time>
      </trkpt>
      <trkpt lat="43.13393" lon="2.48245">
        <ele>458.0817565918</ele>
        <time>2011-06-05T11:34:24Z</time>
      </trkpt>
      <trkpt lat="43.13393" lon="2.48224">
        <ele>457.21408081055</ele>
        <time>2011-06-05T11:34:29Z</time>
      </trkpt>
      <trkpt lat="43.13391" lon="2.48215">
        <ele>456.87582397461</ele>
        <time>2011-06-05T11:34:31Z</time>
      </trkpt>
      <trkpt lat="43.13393" lon="2.48195">
        <ele>456.01574707031</ele>
        <time>2011-06-05T11:34:35Z</time>
      </trkpt>
      <trkpt lat="43.13393" lon="2.48164">
        <ele>454.63714599609</ele>
        <time>2011-06-05T11:34:40Z</time>
      </trkpt>
      <trkpt lat="43.13393" lon="2.48152">
        <ele>453.70135498047</ele>
        <time>2011-06-05T11:34:42Z</time>
      </trkpt>
      <trkpt lat="43.13406" lon="2.48122">
        <ele>450.65979003906</ele>
        <time>2011-06-05T11:34:47Z</time>
      </trkpt>
      <trkpt lat="43.13412" lon="2.48112">
        <ele>449.5927734375</ele>
        <time>2011-06-05T11:34:50Z</time>
      </trkpt>
      <trkpt lat="43.13418" lon="2.48102">
        <ele>448.43063354492</ele>
        <time>2011-06-05T11:34:53Z</time>
      </trkpt>
      <trkpt lat="43.13445" lon="2.48094">
        <ele>445.28338623047</ele>
        <time>2011-06-05T11:35:00Z</time>
      </trkpt>
      <trkpt lat="43.13466" lon="2.48082">
        <ele>442.88018798828</ele>
        <time>2011-06-05T11:35:06Z</time>
      </trkpt>
      <trkpt lat="43.13484" lon="2.48071">
        <ele>441.62145996094</ele>
        <time>2011-06-05T11:35:10Z</time>
      </trkpt>
      <trkpt lat="43.13497" lon="2.48056">
        <ele>441.15985107422</ele>
        <time>2011-06-05T11:35:14Z</time>
      </trkpt>
      <trkpt lat="43.13517" lon="2.48031">
        <ele>438.61380004883</ele>
        <time>2011-06-05T11:35:21Z</time>
      </trkpt>
      <trkpt lat="43.13527" lon="2.48018">
        <ele>437.74026489258</ele>
        <time>2011-06-05T11:35:25Z</time>
      </trkpt>
      <trkpt lat="43.13539" lon="2.47998">
        <ele>437.40884399414</ele>
        <time>2011-06-05T11:35:31Z</time>
      </trkpt>
      <trkpt lat="43.13548" lon="2.47973">
        <ele>436.94610595703</ele>
        <time>2011-06-05T11:35:38Z</time>
      </trkpt>
      <trkpt lat="43.13559" lon="2.47948">
        <ele>437.07431030273</ele>
        <time>2011-06-05T11:35:45Z</time>
      </trkpt>
      <trkpt lat="43.13564" lon="2.47924">
        <ele>438.07376098633</ele>
        <time>2011-06-05T11:35:51Z</time>
      </trkpt>
      <trkpt lat="43.13567" lon="2.47903">
        <ele>437.83416748047</ele>
        <time>2011-06-05T11:35:56Z</time>
      </trkpt>
      <trkpt lat="43.13573" lon="2.4789">
        <ele>437.45617675781</ele>
        <time>2011-06-05T11:36:02Z</time>
      </trkpt>
      <trkpt lat="43.13574" lon="2.47889">
        <ele>437.43023681641</ele>
        <time>2011-06-05T11:36:03Z</time>
      </trkpt>
      <trkpt lat="43.13577" lon="2.47884">
        <ele>437.38906860352</ele>
        <time>2011-06-05T11:36:07Z</time>
      </trkpt>
      <trkpt lat="43.13584" lon="2.47875">
        <ele>437.4934387207</ele>
        <time>2011-06-05T11:36:12Z</time>
      </trkpt>
      <trkpt lat="43.13595" lon="2.4787">
        <ele>437.23037719727</ele>
        <time>2011-06-05T11:36:20Z</time>
      </trkpt>
      <trkpt lat="43.13603" lon="2.47865">
        <ele>437.13885498047</ele>
        <time>2011-06-05T11:36:26Z</time>
      </trkpt>
      <trkpt lat="43.13612" lon="2.47859">
        <ele>437.1569519043</ele>
        <time>2011-06-05T11:36:33Z</time>
      </trkpt>
      <trkpt lat="43.13623" lon="2.47846">
        <ele>437.51251220703</ele>
        <time>2011-06-05T11:36:40Z</time>
      </trkpt>
      <trkpt lat="43.13631" lon="2.47835">
        <ele>438.04840087891</ele>
        <time>2011-06-05T11:36:44Z</time>
      </trkpt>
      <trkpt lat="43.13638" lon="2.47821">
        <ele>438.72607421875</ele>
        <time>2011-06-05T11:36:49Z</time>
      </trkpt>
      <trkpt lat="43.13641" lon="2.47811">
        <ele>439.26010131836</ele>
        <time>2011-06-05T11:36:53Z</time>
      </trkpt>
      <trkpt lat="43.13642" lon="2.47793">
        <ele>440.05209350586</ele>
        <time>2011-06-05T11:36:59Z</time>
      </trkpt>
      <trkpt lat="43.1365" lon="2.47785">
        <ele>441.24652099609</ele>
        <time>2011-06-05T11:37:06Z</time>
      </trkpt>
      <trkpt lat="43.13651" lon="2.47784">
        <ele>441.39556884766</ele>
        <time>2011-06-05T11:37:07Z</time>
      </trkpt>
      <trkpt lat="43.13656" lon="2.47773">
        <ele>442.67465209961</ele>
        <time>2011-06-05T11:37:14Z</time>
      </trkpt>
      <trkpt lat="43.1366" lon="2.47764">
        <ele>443.90518188477</ele>
        <time>2011-06-05T11:37:19Z</time>
      </trkpt>
      <trkpt lat="43.13666" lon="2.47744">
        <ele>445.98721313477</ele>
        <time>2011-06-05T11:37:26Z</time>
      </trkpt>
      <trkpt lat="43.13668" lon="2.47739">
        <ele>445.86196899414</ele>
        <time>2011-06-05T11:37:27Z</time>
      </trkpt>
      <trkpt lat="43.13676" lon="2.47724">
        <ele>444.17379760742</ele>
        <time>2011-06-05T11:37:31Z</time>
      </trkpt>
      <trkpt lat="43.1368" lon="2.47706">
        <ele>443.9987487793</ele>
        <time>2011-06-05T11:37:35Z</time>
      </trkpt>
      <trkpt lat="43.13681" lon="2.47701">
        <ele>443.99176025391</ele>
        <time>2011-06-05T11:37:36Z</time>
      </trkpt>
      <trkpt lat="43.13684" lon="2.47689">
        <ele>444.14862060547</ele>
        <time>2011-06-05T11:37:39Z</time>
      </trkpt>
      <trkpt lat="43.13687" lon="2.4768">
        <ele>444.31161499023</ele>
        <time>2011-06-05T11:37:42Z</time>
      </trkpt>
      <trkpt lat="43.13683" lon="2.47663">
        <ele>445.62368774414</ele>
        <time>2011-06-05T11:37:47Z</time>
      </trkpt>
      <trkpt lat="43.13684" lon="2.47645">
        <ele>446.56213378906</ele>
        <time>2011-06-05T11:37:52Z</time>
      </trkpt>
      <trkpt lat="43.13682" lon="2.47632">
        <ele>447.51324462891</ele>
        <time>2011-06-05T11:37:57Z</time>
      </trkpt>
      <trkpt lat="43.13678" lon="2.47611">
        <ele>448.99526977539</ele>
        <time>2011-06-05T11:38:03Z</time>
      </trkpt>
      <trkpt lat="43.13677" lon="2.47593">
        <ele>449.95428466797</ele>
        <time>2011-06-05T11:38:07Z</time>
      </trkpt>
      <trkpt lat="43.13685" lon="2.47581">
        <ele>450.12387084961</ele>
        <time>2011-06-05T11:38:12Z</time>
      </trkpt>
      <trkpt lat="43.13692" lon="2.47563">
        <ele>449.8473815918</ele>
        <time>2011-06-05T11:38:18Z</time>
      </trkpt>
      <trkpt lat="43.13699" lon="2.47541">
        <ele>449.72250366211</ele>
        <time>2011-06-05T11:38:26Z</time>
      </trkpt>
      <trkpt lat="43.13702" lon="2.47528">
        <ele>449.7624206543</ele>
        <time>2011-06-05T11:38:31Z</time>
      </trkpt>
      <trkpt lat="43.13707" lon="2.47512">
        <ele>449.86380004883</ele>
        <time>2011-06-05T11:38:35Z</time>
      </trkpt>
      <trkpt lat="43.13708" lon="2.47505">
        <ele>449.93472290039</ele>
        <time>2011-06-05T11:38:36Z</time>
      </trkpt>
      <trkpt lat="43.13712" lon="2.47475">
        <ele>450.66165161133</ele>
        <time>2011-06-05T11:38:41Z</time>
      </trkpt>
      <trkpt lat="43.13712" lon="2.47466">
        <ele>450.90744018555</ele>
        <time>2011-06-05T11:38:44Z</time>
      </trkpt>
      <trkpt lat="43.1371" lon="2.47453">
        <ele>451.20965576172</ele>
        <time>2011-06-05T11:38:49Z</time>
      </trkpt>
      <trkpt lat="43.13706" lon="2.47436">
        <ele>451.39529418945</ele>
        <time>2011-06-05T11:38:55Z</time>
      </trkpt>
      <trkpt lat="43.13705" lon="2.47431">
        <ele>451.46322631836</ele>
        <time>2011-06-05T11:39:00Z</time>
      </trkpt>
      <trkpt lat="43.13705" lon="2.47427">
        <ele>451.51947021484</ele>
        <time>2011-06-05T11:39:04Z</time>
      </trkpt>
      <trkpt lat="43.13704" lon="2.47418">
        <ele>451.67199707031</ele>
        <time>2011-06-05T11:39:08Z</time>
      </trkpt>
      <trkpt lat="43.13705" lon="2.47402">
        <ele>451.64279174805</ele>
        <time>2011-06-05T11:39:12Z</time>
      </trkpt>
      <trkpt lat="43.13706" lon="2.47387">
        <ele>451.62426757812</ele>
        <time>2011-06-05T11:39:17Z</time>
      </trkpt>
      <trkpt lat="43.1371" lon="2.4737">
        <ele>451.85949707031</ele>
        <time>2011-06-05T11:39:21Z</time>
      </trkpt>
      <trkpt lat="43.13716" lon="2.47351">
        <ele>452.48980712891</ele>
        <time>2011-06-05T11:39:25Z</time>
      </trkpt>
      <trkpt lat="43.13723" lon="2.47323">
        <ele>452.48358154297</ele>
        <time>2011-06-05T11:39:30Z</time>
      </trkpt>
      <trkpt lat="43.1373" lon="2.47308">
        <ele>452.05554199219</ele>
        <time>2011-06-05T11:39:36Z</time>
      </trkpt>
      <trkpt lat="43.13734" lon="2.47293">
        <ele>451.20779418945</ele>
        <time>2011-06-05T11:39:40Z</time>
      </trkpt>
      <trkpt lat="43.13736" lon="2.47285">
        <ele>450.67562866211</ele>
        <time>2011-06-05T11:39:42Z</time>
      </trkpt>
      <trkpt lat="43.1375" lon="2.47273">
        <ele>451.20199584961</ele>
        <time>2011-06-05T11:39:47Z</time>
      </trkpt>
      <trkpt lat="43.13758" lon="2.47261">
        <ele>449.86920166016</ele>
        <time>2011-06-05T11:39:52Z</time>
      </trkpt>
      <trkpt lat="43.13767" lon="2.47253">
        <ele>449.33380126953</ele>
        <time>2011-06-05T11:39:56Z</time>
      </trkpt>
      <trkpt lat="43.13776" lon="2.47237">
        <ele>449.1591796875</ele>
        <time>2011-06-05T11:40:01Z</time>
      </trkpt>
      <trkpt lat="43.13778" lon="2.47217">
        <ele>449.07641601562</ele>
        <time>2011-06-05T11:40:05Z</time>
      </trkpt>
      <trkpt lat="43.13779" lon="2.47211">
        <ele>449.13357543945</ele>
        <time>2011-06-05T11:40:06Z</time>
      </trkpt>
      <trkpt lat="43.13783" lon="2.47183">
        <ele>449.35092163086</ele>
        <time>2011-06-05T11:40:11Z</time>
      </trkpt>
      <trkpt lat="43.13781" lon="2.47153">
        <ele>449.08874511719</ele>
        <time>2011-06-05T11:40:15Z</time>
      </trkpt>
      <trkpt lat="43.13782" lon="2.47141">
        <ele>449.23980712891</ele>
        <time>2011-06-05T11:40:18Z</time>
      </trkpt>
      <trkpt lat="43.13775" lon="2.47123">
        <ele>448.33343505859</ele>
        <time>2011-06-05T11:40:22Z</time>
      </trkpt>
      <trkpt lat="43.13772" lon="2.47118">
        <ele>447.93060302734</ele>
        <time>2011-06-05T11:40:23Z</time>
      </trkpt>
      <trkpt lat="43.13765" lon="2.47102">
        <ele>447.02423095703</ele>
        <time>2011-06-05T11:40:26Z</time>
      </trkpt>
      <trkpt lat="43.13749" lon="2.47091">
        <ele>444.92660522461</ele>
        <time>2011-06-05T11:40:30Z</time>
      </trkpt>
      <trkpt lat="43.13741" lon="2.47086">
        <ele>444.06390380859</ele>
        <time>2011-06-05T11:40:33Z</time>
      </trkpt>
      <trkpt lat="43.13737" lon="2.47073">
        <ele>444.083984375</ele>
        <time>2011-06-05T11:40:38Z</time>
      </trkpt>
      <trkpt lat="43.13744" lon="2.4706">
        <ele>445.48617553711</ele>
        <time>2011-06-05T11:40:41Z</time>
      </trkpt>
      <trkpt lat="43.13755" lon="2.47041">
        <ele>447.46496582031</ele>
        <time>2011-06-05T11:40:45Z</time>
      </trkpt>
      <trkpt lat="43.13763" lon="2.47028">
        <ele>448.68304443359</ele>
        <time>2011-06-05T11:40:48Z</time>
      </trkpt>
      <trkpt lat="43.13773" lon="2.47012">
        <ele>449.78607177734</ele>
        <time>2011-06-05T11:40:51Z</time>
      </trkpt>
      <trkpt lat="43.13774" lon="2.46991">
        <ele>449.80422973633</ele>
        <time>2011-06-05T11:40:55Z</time>
      </trkpt>
      <trkpt lat="43.13758" lon="2.46991">
        <ele>449.18826293945</ele>
        <time>2011-06-05T11:40:58Z</time>
      </trkpt>
      <trkpt lat="43.13751" lon="2.46985">
        <ele>448.85110473633</ele>
        <time>2011-06-05T11:41:02Z</time>
      </trkpt>
      <trkpt lat="43.13741" lon="2.46962">
        <ele>447.71862792969</ele>
        <time>2011-06-05T11:41:08Z</time>
      </trkpt>
      <trkpt lat="43.13733" lon="2.46928">
        <ele>447.12628173828</ele>
        <time>2011-06-05T11:41:13Z</time>
      </trkpt>
      <trkpt lat="43.13721" lon="2.469">
        <ele>447.54919433594</ele>
        <time>2011-06-05T11:41:18Z</time>
      </trkpt>
      <trkpt lat="43.13707" lon="2.46867">
        <ele>450.27105712891</ele>
        <time>2011-06-05T11:41:25Z</time>
      </trkpt>
      <trkpt lat="43.13699" lon="2.46847">
        <ele>452.96127319336</ele>
        <time>2011-06-05T11:41:30Z</time>
      </trkpt>
      <trkpt lat="43.13693" lon="2.46832">
        <ele>455.26522827148</ele>
        <time>2011-06-05T11:41:35Z</time>
      </trkpt>
      <trkpt lat="43.13691" lon="2.46827">
        <ele>455.94879150391</ele>
        <time>2011-06-05T11:41:39Z</time>
      </trkpt>
      <trkpt lat="43.13691" lon="2.46825">
        <ele>456.19842529297</ele>
        <time>2011-06-05T11:41:47Z</time>
      </trkpt>
      <trkpt lat="43.13689" lon="2.46819">
        <ele>456.86193847656</ele>
        <time>2011-06-05T11:41:52Z</time>
      </trkpt>
      <trkpt lat="43.13686" lon="2.46811">
        <ele>458.25393676758</ele>
        <time>2011-06-05T11:41:59Z</time>
      </trkpt>
      <trkpt lat="43.13685" lon="2.46809">
        <ele>458.67440795898</ele>
        <time>2011-06-05T11:42:02Z</time>
      </trkpt>
      <trkpt lat="43.13682" lon="2.46804">
        <ele>459.83633422852</ele>
        <time>2011-06-05T11:42:18Z</time>
      </trkpt>
      <trkpt lat="43.13682" lon="2.46803">
        <ele>459.99142456055</ele>
        <time>2011-06-05T11:42:19Z</time>
      </trkpt>
      <trkpt lat="43.13681" lon="2.46803">
        <ele>460.35858154297</ele>
        <time>2011-06-05T11:42:21Z</time>
      </trkpt>
      <trkpt lat="43.13677" lon="2.46799">
        <ele>461.61239624023</ele>
        <time>2011-06-05T11:42:38Z</time>
      </trkpt>
      <trkpt lat="43.13677" lon="2.46799">
        <ele>461.63836669922</ele>
        <time>2011-06-05T11:42:39Z</time>
      </trkpt>
      <trkpt lat="43.13669" lon="2.46787">
        <ele>465.48715209961</ele>
        <time>2011-06-05T11:43:28Z</time>
      </trkpt>
      <trkpt lat="43.13669" lon="2.46786">
        <ele>465.74981689453</ele>
        <time>2011-06-05T11:43:29Z</time>
      </trkpt>
      <trkpt lat="43.13668" lon="2.46785">
        <ele>466.10223388672</ele>
        <time>2011-06-05T11:43:30Z</time>
      </trkpt>
      <trkpt lat="43.13667" lon="2.46783">
        <ele>466.60922241211</ele>
        <time>2011-06-05T11:43:33Z</time>
      </trkpt>
      <trkpt lat="43.13664" lon="2.46773">
        <ele>468.91656494141</ele>
        <time>2011-06-05T11:43:53Z</time>
      </trkpt>
      <trkpt lat="43.13664" lon="2.46772">
        <ele>468.9948425293</ele>
        <time>2011-06-05T11:43:54Z</time>
      </trkpt>
      <trkpt lat="43.13664" lon="2.46772">
        <ele>469.16009521484</ele>
        <time>2011-06-05T11:43:56Z</time>
      </trkpt>
      <trkpt lat="43.13662" lon="2.46764">
        <ele>470.82931518555</ele>
        <time>2011-06-05T11:44:13Z</time>
      </trkpt>
      <trkpt lat="43.13661" lon="2.46763">
        <ele>471.05880737305</ele>
        <time>2011-06-05T11:44:14Z</time>
      </trkpt>
      <trkpt lat="43.13658" lon="2.46756">
        <ele>472.77124023438</ele>
        <time>2011-06-05T11:44:23Z</time>
      </trkpt>
      <trkpt lat="43.13656" lon="2.46747">
        <ele>474.01223754883</ele>
        <time>2011-06-05T11:44:31Z</time>
      </trkpt>
      <trkpt lat="43.13656" lon="2.46745">
        <ele>474.0920715332</ele>
        <time>2011-06-05T11:44:33Z</time>
      </trkpt>
      <trkpt lat="43.13653" lon="2.46734">
        <ele>474.65063476562</ele>
        <time>2011-06-05T11:44:42Z</time>
      </trkpt>
      <trkpt lat="43.13651" lon="2.4673">
        <ele>475.19506835938</ele>
        <time>2011-06-05T11:44:49Z</time>
      </trkpt>
      <trkpt lat="43.1365" lon="2.4673">
        <ele>475.27200317383</ele>
        <time>2011-06-05T11:44:50Z</time>
      </trkpt>
      <trkpt lat="43.13651" lon="2.46725">
        <ele>475.14324951172</ele>
        <time>2011-06-05T11:45:44Z</time>
      </trkpt>
      <trkpt lat="43.13648" lon="2.46724">
        <ele>475.68121337891</ele>
        <time>2011-06-05T11:45:48Z</time>
      </trkpt>
      <trkpt lat="43.13645" lon="2.46724">
        <ele>476.28665161133</ele>
        <time>2011-06-05T11:45:53Z</time>
      </trkpt>
      <trkpt lat="43.13643" lon="2.46724">
        <ele>476.74786376953</ele>
        <time>2011-06-05T11:45:56Z</time>
      </trkpt>
      <trkpt lat="43.13639" lon="2.46721">
        <ele>477.45678710938</ele>
        <time>2011-06-05T11:46:02Z</time>
      </trkpt>
      <trkpt lat="43.13636" lon="2.46717">
        <ele>478.1760559082</ele>
        <time>2011-06-05T11:46:11Z</time>
      </trkpt>
      <trkpt lat="43.13635" lon="2.46715">
        <ele>478.42041015625</ele>
        <time>2011-06-05T11:46:12Z</time>
      </trkpt>
      <trkpt lat="43.13633" lon="2.46711">
        <ele>478.77178955078</ele>
        <time>2011-06-05T11:46:15Z</time>
      </trkpt>
      <trkpt lat="43.13632" lon="2.46706">
        <ele>479.05786132812</ele>
        <time>2011-06-05T11:46:18Z</time>
      </trkpt>
      <trkpt lat="43.13629" lon="2.46703">
        <ele>479.70883178711</ele>
        <time>2011-06-05T11:46:21Z</time>
      </trkpt>
      <trkpt lat="43.13625" lon="2.46698">
        <ele>480.71737670898</ele>
        <time>2011-06-05T11:46:25Z</time>
      </trkpt>
      <trkpt lat="43.13613" lon="2.4669">
        <ele>483.27966308594</ele>
        <time>2011-06-05T11:46:32Z</time>
      </trkpt>
      <trkpt lat="43.13606" lon="2.46681">
        <ele>484.87719726562</ele>
        <time>2011-06-05T11:46:37Z</time>
      </trkpt>
      <trkpt lat="43.13604" lon="2.46672">
        <ele>485.52014160156</ele>
        <time>2011-06-05T11:46:40Z</time>
      </trkpt>
      <trkpt lat="43.13599" lon="2.46655">
        <ele>486.49209594727</ele>
        <time>2011-06-05T11:46:46Z</time>
      </trkpt>
      <trkpt lat="43.13603" lon="2.46637">
        <ele>485.57672119141</ele>
        <time>2011-06-05T11:46:51Z</time>
      </trkpt>
      <trkpt lat="43.13603" lon="2.46608">
        <ele>485.30603027344</ele>
        <time>2011-06-05T11:47:00Z</time>
      </trkpt>
      <trkpt lat="43.13612" lon="2.46591">
        <ele>483.81134033203</ele>
        <time>2011-06-05T11:47:06Z</time>
      </trkpt>
      <trkpt lat="43.13617" lon="2.46575">
        <ele>483.49029541016</ele>
        <time>2011-06-05T11:47:11Z</time>
      </trkpt>
      <trkpt lat="43.13621" lon="2.4656">
        <ele>483.7575378418</ele>
        <time>2011-06-05T11:47:16Z</time>
      </trkpt>
      <trkpt lat="43.13624" lon="2.46546">
        <ele>484.10821533203</ele>
        <time>2011-06-05T11:47:20Z</time>
      </trkpt>
      <trkpt lat="43.13625" lon="2.46543">
        <ele>484.16915893555</ele>
        <time>2011-06-05T11:47:21Z</time>
      </trkpt>
      <trkpt lat="43.13632" lon="2.46529">
        <ele>484.44515991211</ele>
        <time>2011-06-05T11:47:25Z</time>
      </trkpt>
      <trkpt lat="43.13633" lon="2.46515">
        <ele>485.26147460938</ele>
        <time>2011-06-05T11:47:30Z</time>
      </trkpt>
      <trkpt lat="43.13634" lon="2.46512">
        <ele>485.35589599609</ele>
        <time>2011-06-05T11:47:31Z</time>
      </trkpt>
      <trkpt lat="43.13643" lon="2.46493">
        <ele>486.25985717773</ele>
        <time>2011-06-05T11:47:38Z</time>
      </trkpt>
      <trkpt lat="43.1365" lon="2.46482">
        <ele>486.62606811523</ele>
        <time>2011-06-05T11:47:43Z</time>
      </trkpt>
      <trkpt lat="43.13659" lon="2.46466">
        <ele>487.26919555664</ele>
        <time>2011-06-05T11:47:49Z</time>
      </trkpt>
      <trkpt lat="43.13661" lon="2.46464">
        <ele>487.33392333984</ele>
        <time>2011-06-05T11:47:50Z</time>
      </trkpt>
      <trkpt lat="43.13666" lon="2.46452">
        <ele>487.90649414062</ele>
        <time>2011-06-05T11:47:55Z</time>
      </trkpt>
      <trkpt lat="43.13672" lon="2.46434">
        <ele>487.35556030273</ele>
        <time>2011-06-05T11:48:00Z</time>
      </trkpt>
      <trkpt lat="43.13683" lon="2.46421">
        <ele>485.34265136719</ele>
        <time>2011-06-05T11:48:04Z</time>
      </trkpt>
      <trkpt lat="43.13695" lon="2.46397">
        <ele>481.62188720703</ele>
        <time>2011-06-05T11:48:10Z</time>
      </trkpt>
      <trkpt lat="43.13699" lon="2.46378">
        <ele>480.19567871094</ele>
        <time>2011-06-05T11:48:15Z</time>
      </trkpt>
      <trkpt lat="43.13702" lon="2.46363">
        <ele>479.03842163086</ele>
        <time>2011-06-05T11:48:19Z</time>
      </trkpt>
      <trkpt lat="43.13703" lon="2.46351">
        <ele>478.64178466797</ele>
        <time>2011-06-05T11:48:24Z</time>
      </trkpt>
      <trkpt lat="43.13705" lon="2.46337">
        <ele>478.00350952148</ele>
        <time>2011-06-05T11:48:28Z</time>
      </trkpt>
      <trkpt lat="43.1371" lon="2.46329">
        <ele>476.93756103516</ele>
        <time>2011-06-05T11:48:30Z</time>
      </trkpt>
      <trkpt lat="43.13716" lon="2.46316">
        <ele>474.79583740234</ele>
        <time>2011-06-05T11:48:32Z</time>
      </trkpt>
      <trkpt lat="43.13715" lon="2.46282">
        <ele>472.02548217773</ele>
        <time>2011-06-05T11:48:36Z</time>
      </trkpt>
      <trkpt lat="43.13713" lon="2.46272">
        <ele>471.47595214844</ele>
        <time>2011-06-05T11:48:37Z</time>
      </trkpt>
      <trkpt lat="43.13708" lon="2.46243">
        <ele>469.81484985352</ele>
        <time>2011-06-05T11:48:41Z</time>
      </trkpt>
      <trkpt lat="43.13704" lon="2.46227">
        <ele>469.65438842773</ele>
        <time>2011-06-05T11:48:44Z</time>
      </trkpt>
      <trkpt lat="43.13702" lon="2.46202">
        <ele>469.11672973633</ele>
        <time>2011-06-05T11:48:48Z</time>
      </trkpt>
      <trkpt lat="43.13701" lon="2.46189">
        <ele>468.74295043945</ele>
        <time>2011-06-05T11:48:50Z</time>
      </trkpt>
      <trkpt lat="43.13699" lon="2.46169">
        <ele>468.4697265625</ele>
        <time>2011-06-05T11:48:53Z</time>
      </trkpt>
      <trkpt lat="43.13699" lon="2.46143">
        <ele>469.15661621094</ele>
        <time>2011-06-05T11:48:57Z</time>
      </trkpt>
      <trkpt lat="43.13704" lon="2.46113">
        <ele>469.65127563477</ele>
        <time>2011-06-05T11:49:03Z</time>
      </trkpt>
      <trkpt lat="43.13708" lon="2.46103">
        <ele>469.67807006836</ele>
        <time>2011-06-05T11:49:05Z</time>
      </trkpt>
      <trkpt lat="43.13715" lon="2.46086">
        <ele>469.96655273438</ele>
        <time>2011-06-05T11:49:08Z</time>
      </trkpt>
      <trkpt lat="43.13729" lon="2.46057">
        <ele>469.55313110352</ele>
        <time>2011-06-05T11:49:14Z</time>
      </trkpt>
      <trkpt lat="43.13742" lon="2.46035">
        <ele>469.77993774414</ele>
        <time>2011-06-05T11:49:20Z</time>
      </trkpt>
      <trkpt lat="43.13745" lon="2.46026">
        <ele>470.02029418945</ele>
        <time>2011-06-05T11:49:22Z</time>
      </trkpt>
      <trkpt lat="43.13745" lon="2.46022">
        <ele>470.16796875</ele>
        <time>2011-06-05T11:49:23Z</time>
      </trkpt>
      <trkpt lat="43.13745" lon="2.46011">
        <ele>470.50256347656</ele>
        <time>2011-06-05T11:49:26Z</time>
      </trkpt>
      <trkpt lat="43.13745" lon="2.46004">
        <ele>470.68475341797</ele>
        <time>2011-06-05T11:49:31Z</time>
      </trkpt>
      <trkpt lat="43.13746" lon="2.46005">
        <ele>470.69451904297</ele>
        <time>2011-06-05T11:50:04Z</time>
      </trkpt>
      <trkpt lat="43.13747" lon="2.46006">
        <ele>470.70205688477</ele>
        <time>2011-06-05T11:50:06Z</time>
      </trkpt>
      <trkpt lat="43.13745" lon="2.46006">
        <ele>470.63000488281</ele>
        <time>2011-06-05T11:50:16Z</time>
      </trkpt>
      <trkpt lat="43.13745" lon="2.46006">
        <ele>470.62713623047</ele>
        <time>2011-06-05T11:50:17Z</time>
      </trkpt>
      <trkpt lat="43.13743" lon="2.46">
        <ele>470.75543212891</ele>
        <time>2011-06-05T11:50:35Z</time>
      </trkpt>
      <trkpt lat="43.13741" lon="2.45984">
        <ele>470.31051635742</ele>
        <time>2011-06-05T11:50:39Z</time>
      </trkpt>
      <trkpt lat="43.13734" lon="2.45955">
        <ele>469.54501342773</ele>
        <time>2011-06-05T11:50:43Z</time>
      </trkpt>
      <trkpt lat="43.13733" lon="2.45946">
        <ele>469.34317016602</ele>
        <time>2011-06-05T11:50:44Z</time>
      </trkpt>
      <trkpt lat="43.13725" lon="2.45925">
        <ele>468.82824707031</ele>
        <time>2011-06-05T11:50:48Z</time>
      </trkpt>
      <trkpt lat="43.13723" lon="2.45921">
        <ele>468.7546081543</ele>
        <time>2011-06-05T11:50:49Z</time>
      </trkpt>
      <trkpt lat="43.13718" lon="2.45908">
        <ele>468.85931396484</ele>
        <time>2011-06-05T11:50:54Z</time>
      </trkpt>
      <trkpt lat="43.13716" lon="2.45901">
        <ele>468.99182128906</ele>
        <time>2011-06-05T11:50:57Z</time>
      </trkpt>
      <trkpt lat="43.13715" lon="2.45897">
        <ele>469.09051513672</ele>
        <time>2011-06-05T11:50:59Z</time>
      </trkpt>
      <trkpt lat="43.13714" lon="2.45893">
        <ele>469.17623901367</ele>
        <time>2011-06-05T11:51:00Z</time>
      </trkpt>
      <trkpt lat="43.13714" lon="2.45889">
        <ele>469.28649902344</ele>
        <time>2011-06-05T11:51:01Z</time>
      </trkpt>
      <trkpt lat="43.13715" lon="2.45881">
        <ele>469.51678466797</ele>
        <time>2011-06-05T11:51:03Z</time>
      </trkpt>
      <trkpt lat="43.13715" lon="2.45877">
        <ele>469.60269165039</ele>
        <time>2011-06-05T11:51:04Z</time>
      </trkpt>
      <trkpt lat="43.13717" lon="2.45868">
        <ele>469.89501953125</ele>
        <time>2011-06-05T11:51:07Z</time>
      </trkpt>
      <trkpt lat="43.13724" lon="2.45854">
        <ele>470.47903442383</ele>
        <time>2011-06-05T11:51:12Z</time>
      </trkpt>
      <trkpt lat="43.13729" lon="2.45847">
        <ele>470.8401184082</ele>
        <time>2011-06-05T11:51:14Z</time>
      </trkpt>
      <trkpt lat="43.13744" lon="2.45829">
        <ele>471.67468261719</ele>
        <time>2011-06-05T11:51:18Z</time>
      </trkpt>
      <trkpt lat="43.13755" lon="2.45823">
        <ele>470.10369873047</ele>
        <time>2011-06-05T11:51:24Z</time>
      </trkpt>
      <trkpt lat="43.13763" lon="2.45823">
        <ele>466.97720336914</ele>
        <time>2011-06-05T11:51:27Z</time>
      </trkpt>
      <trkpt lat="43.13769" lon="2.45815">
        <ele>465.12149047852</ele>
        <time>2011-06-05T11:51:31Z</time>
      </trkpt>
      <trkpt lat="43.1377" lon="2.45813">
        <ele>464.74661254883</ele>
        <time>2011-06-05T11:51:32Z</time>
      </trkpt>
      <trkpt lat="43.13778" lon="2.45801">
        <ele>462.13781738281</ele>
        <time>2011-06-05T11:51:35Z</time>
      </trkpt>
      <trkpt lat="43.13791" lon="2.4579">
        <ele>458.56307983398</ele>
        <time>2011-06-05T11:51:38Z</time>
      </trkpt>
      <trkpt lat="43.13801" lon="2.45775">
        <ele>456.38180541992</ele>
        <time>2011-06-05T11:51:44Z</time>
      </trkpt>
      <trkpt lat="43.13808" lon="2.45774">
        <ele>454.52081298828</ele>
        <time>2011-06-05T11:51:47Z</time>
      </trkpt>
      <trkpt lat="43.13824" lon="2.45763">
        <ele>450.96990966797</ele>
        <time>2011-06-05T11:51:53Z</time>
      </trkpt>
      <trkpt lat="43.13831" lon="2.45754">
        <ele>450.28134155273</ele>
        <time>2011-06-05T11:51:56Z</time>
      </trkpt>
      <trkpt lat="43.13842" lon="2.45744">
        <ele>448.54449462891</ele>
        <time>2011-06-05T11:52:00Z</time>
      </trkpt>
      <trkpt lat="43.13853" lon="2.4573">
        <ele>446.66351318359</ele>
        <time>2011-06-05T11:52:04Z</time>
      </trkpt>
      <trkpt lat="43.13866" lon="2.45718">
        <ele>445.09921264648</ele>
        <time>2011-06-05T11:52:06Z</time>
      </trkpt>
      <trkpt lat="43.13876" lon="2.45707">
        <ele>444.171875</ele>
        <time>2011-06-05T11:52:09Z</time>
      </trkpt>
      <trkpt lat="43.13881" lon="2.45704">
        <ele>443.78915405273</ele>
        <time>2011-06-05T11:52:12Z</time>
      </trkpt>
      <trkpt lat="43.13899" lon="2.45672">
        <ele>443.55401611328</ele>
        <time>2011-06-05T11:52:18Z</time>
      </trkpt>
      <trkpt lat="43.13902" lon="2.45665">
        <ele>443.51443481445</ele>
        <time>2011-06-05T11:52:19Z</time>
      </trkpt>
      <trkpt lat="43.13908" lon="2.45651">
        <ele>441.61358642578</ele>
        <time>2011-06-05T11:52:21Z</time>
      </trkpt>
      <trkpt lat="43.13916" lon="2.45635">
        <ele>439.60818481445</ele>
        <time>2011-06-05T11:52:23Z</time>
      </trkpt>
      <trkpt lat="43.13925" lon="2.45591">
        <ele>433.23718261719</ele>
        <time>2011-06-05T11:52:28Z</time>
      </trkpt>
      <trkpt lat="43.13926" lon="2.45584">
        <ele>432.25012207031</ele>
        <time>2011-06-05T11:52:29Z</time>
      </trkpt>
      <trkpt lat="43.13927" lon="2.45576">
        <ele>431.49179077148</ele>
        <time>2011-06-05T11:52:30Z</time>
      </trkpt>
      <trkpt lat="43.13929" lon="2.45547">
        <ele>429.0143737793</ele>
        <time>2011-06-05T11:52:34Z</time>
      </trkpt>
      <trkpt lat="43.13934" lon="2.4551">
        <ele>425.15045166016</ele>
        <time>2011-06-05T11:52:39Z</time>
      </trkpt>
      <trkpt lat="43.13938" lon="2.4547">
        <ele>422.71713256836</ele>
        <time>2011-06-05T11:52:43Z</time>
      </trkpt>
      <trkpt lat="43.1393" lon="2.45431">
        <ele>423.27670288086</ele>
        <time>2011-06-05T11:52:47Z</time>
      </trkpt>
      <trkpt lat="43.13934" lon="2.45411">
        <ele>422.11236572266</ele>
        <time>2011-06-05T11:52:50Z</time>
      </trkpt>
      <trkpt lat="43.13948" lon="2.45372">
        <ele>420.48919677734</ele>
        <time>2011-06-05T11:52:58Z</time>
      </trkpt>
      <trkpt lat="43.13953" lon="2.4534">
        <ele>420.99957275391</ele>
        <time>2011-06-05T11:53:05Z</time>
      </trkpt>
      <trkpt lat="43.13953" lon="2.45325">
        <ele>421.63128662109</ele>
        <time>2011-06-05T11:53:09Z</time>
      </trkpt>
      <trkpt lat="43.13957" lon="2.45309">
        <ele>421.93374633789</ele>
        <time>2011-06-05T11:53:14Z</time>
      </trkpt>
      <trkpt lat="43.1396" lon="2.45297">
        <ele>422.40643310547</ele>
        <time>2011-06-05T11:53:18Z</time>
      </trkpt>
      <trkpt lat="43.13963" lon="2.45288">
        <ele>422.72113037109</ele>
        <time>2011-06-05T11:53:21Z</time>
      </trkpt>
      <trkpt lat="43.13964" lon="2.45285">
        <ele>422.86517333984</ele>
        <time>2011-06-05T11:53:22Z</time>
      </trkpt>
      <trkpt lat="43.13975" lon="2.45276">
        <ele>423.37170410156</ele>
        <time>2011-06-05T11:53:26Z</time>
      </trkpt>
      <trkpt lat="43.13985" lon="2.45265">
        <ele>424.52767944336</ele>
        <time>2011-06-05T11:53:31Z</time>
      </trkpt>
      <trkpt lat="43.13985" lon="2.45244">
        <ele>426.45608520508</ele>
        <time>2011-06-05T11:53:36Z</time>
      </trkpt>
      <trkpt lat="43.13984" lon="2.45238">
        <ele>426.57272338867</ele>
        <time>2011-06-05T11:53:37Z</time>
      </trkpt>
      <trkpt lat="43.13985" lon="2.4522">
        <ele>427.21936035156</ele>
        <time>2011-06-05T11:53:40Z</time>
      </trkpt>
      <trkpt lat="43.13993" lon="2.45187">
        <ele>429.18884277344</ele>
        <time>2011-06-05T11:53:45Z</time>
      </trkpt>
      <trkpt lat="43.14004" lon="2.45143">
        <ele>431.28173828125</ele>
        <time>2011-06-05T11:53:53Z</time>
      </trkpt>
      <trkpt lat="43.14007" lon="2.45132">
        <ele>431.09912109375</ele>
        <time>2011-06-05T11:53:57Z</time>
      </trkpt>
      <trkpt lat="43.14007" lon="2.45126">
        <ele>431.45724487305</ele>
        <time>2011-06-05T11:53:59Z</time>
      </trkpt>
      <trkpt lat="43.14011" lon="2.45118">
        <ele>430.91696166992</ele>
        <time>2011-06-05T11:54:04Z</time>
      </trkpt>
      <trkpt lat="43.14012" lon="2.45112">
        <ele>430.88635253906</ele>
        <time>2011-06-05T11:54:09Z</time>
      </trkpt>
      <trkpt lat="43.14013" lon="2.4511">
        <ele>430.76727294922</ele>
        <time>2011-06-05T11:54:10Z</time>
      </trkpt>
      <trkpt lat="43.14014" lon="2.45105">
        <ele>430.80773925781</ele>
        <time>2011-06-05T11:54:13Z</time>
      </trkpt>
      <trkpt lat="43.14012" lon="2.45093">
        <ele>432.21603393555</ele>
        <time>2011-06-05T11:54:18Z</time>
      </trkpt>
      <trkpt lat="43.1401" lon="2.45086">
        <ele>433.20361328125</ele>
        <time>2011-06-05T11:54:20Z</time>
      </trkpt>
      <trkpt lat="43.1401" lon="2.45053">
        <ele>433.16464233398</ele>
        <time>2011-06-05T11:54:28Z</time>
      </trkpt>
      <trkpt lat="43.14011" lon="2.45049">
        <ele>432.9338684082</ele>
        <time>2011-06-05T11:54:29Z</time>
      </trkpt>
      <trkpt lat="43.14001" lon="2.45023">
        <ele>435.68569946289</ele>
        <time>2011-06-05T11:54:34Z</time>
      </trkpt>
      <trkpt lat="43.13991" lon="2.44997">
        <ele>434.76629638672</ele>
        <time>2011-06-05T11:54:38Z</time>
      </trkpt>
      <trkpt lat="43.13992" lon="2.44977">
        <ele>433.39041137695</ele>
        <time>2011-06-05T11:54:41Z</time>
      </trkpt>
      <trkpt lat="43.13998" lon="2.44956">
        <ele>432.17095947266</ele>
        <time>2011-06-05T11:54:45Z</time>
      </trkpt>
      <trkpt lat="43.14" lon="2.44949">
        <ele>431.58877563477</ele>
        <time>2011-06-05T11:54:46Z</time>
      </trkpt>
      <trkpt lat="43.13998" lon="2.44909">
        <ele>428.5823059082</ele>
        <time>2011-06-05T11:54:51Z</time>
      </trkpt>
      <trkpt lat="43.13994" lon="2.449">
        <ele>428.11206054688</ele>
        <time>2011-06-05T11:54:52Z</time>
      </trkpt>
      <trkpt lat="43.13986" lon="2.4488">
        <ele>427.11477661133</ele>
        <time>2011-06-05T11:54:54Z</time>
      </trkpt>
      <trkpt lat="43.1398" lon="2.44844">
        <ele>425.66409301758</ele>
        <time>2011-06-05T11:54:58Z</time>
      </trkpt>
      <trkpt lat="43.13983" lon="2.44837">
        <ele>425.36791992188</ele>
        <time>2011-06-05T11:54:59Z</time>
      </trkpt>
      <trkpt lat="43.13991" lon="2.44816">
        <ele>425.06317138672</ele>
        <time>2011-06-05T11:55:03Z</time>
      </trkpt>
      <trkpt lat="43.13991" lon="2.44798">
        <ele>425.01663208008</ele>
        <time>2011-06-05T11:55:07Z</time>
      </trkpt>
      <trkpt lat="43.14001" lon="2.44764">
        <ele>424.73486328125</ele>
        <time>2011-06-05T11:55:13Z</time>
      </trkpt>
      <trkpt lat="43.14005" lon="2.44743">
        <ele>422.90426635742</ele>
        <time>2011-06-05T11:55:16Z</time>
      </trkpt>
      <trkpt lat="43.14011" lon="2.44714">
        <ele>419.46984863281</ele>
        <time>2011-06-05T11:55:20Z</time>
      </trkpt>
      <trkpt lat="43.14012" lon="2.44705">
        <ele>418.77383422852</ele>
        <time>2011-06-05T11:55:21Z</time>
      </trkpt>
      <trkpt lat="43.14025" lon="2.44667">
        <ele>414.36517333984</ele>
        <time>2011-06-05T11:55:26Z</time>
      </trkpt>
      <trkpt lat="43.14033" lon="2.44656">
        <ele>412.85494995117</ele>
        <time>2011-06-05T11:55:28Z</time>
      </trkpt>
      <trkpt lat="43.14046" lon="2.44629">
        <ele>412.25390625</ele>
        <time>2011-06-05T11:55:32Z</time>
      </trkpt>
      <trkpt lat="43.14054" lon="2.44623">
        <ele>411.73596191406</ele>
        <time>2011-06-05T11:55:34Z</time>
      </trkpt>
      <trkpt lat="43.14059" lon="2.44613">
        <ele>412.17282104492</ele>
        <time>2011-06-05T11:55:36Z</time>
      </trkpt>
      <trkpt lat="43.14071" lon="2.44593">
        <ele>413.79675292969</ele>
        <time>2011-06-05T11:55:40Z</time>
      </trkpt>
      <trkpt lat="43.1409" lon="2.44575">
        <ele>413.20977783203</ele>
        <time>2011-06-05T11:55:45Z</time>
      </trkpt>
      <trkpt lat="43.14095" lon="2.44554">
        <ele>412.04553222656</ele>
        <time>2011-06-05T11:55:49Z</time>
      </trkpt>
      <trkpt lat="43.14107" lon="2.44522">
        <ele>410.31228637695</ele>
        <time>2011-06-05T11:55:54Z</time>
      </trkpt>
      <trkpt lat="43.14124" lon="2.44511">
        <ele>409.029296875</ele>
        <time>2011-06-05T11:55:58Z</time>
      </trkpt>
      <trkpt lat="43.14136" lon="2.44497">
        <ele>408.7160949707</ele>
        <time>2011-06-05T11:56:01Z</time>
      </trkpt>
      <trkpt lat="43.14138" lon="2.44492">
        <ele>408.44668579102</ele>
        <time>2011-06-05T11:56:02Z</time>
      </trkpt>
      <trkpt lat="43.14147" lon="2.44486">
        <ele>407.90658569336</ele>
        <time>2011-06-05T11:56:05Z</time>
      </trkpt>
      <trkpt lat="43.14151" lon="2.4448">
        <ele>407.68353271484</ele>
        <time>2011-06-05T11:56:07Z</time>
      </trkpt>
      <trkpt lat="43.14163" lon="2.44467">
        <ele>407.42276000977</ele>
        <time>2011-06-05T11:56:12Z</time>
      </trkpt>
      <trkpt lat="43.14172" lon="2.44456">
        <ele>406.62341308594</ele>
        <time>2011-06-05T11:56:17Z</time>
      </trkpt>
      <trkpt lat="43.14179" lon="2.44449">
        <ele>405.49633789062</ele>
        <time>2011-06-05T11:56:22Z</time>
      </trkpt>
      <trkpt lat="43.14189" lon="2.44439">
        <ele>404.11352539062</ele>
        <time>2011-06-05T11:56:30Z</time>
      </trkpt>
      <trkpt lat="43.14196" lon="2.44424">
        <ele>403.80325317383</ele>
        <time>2011-06-05T11:56:36Z</time>
      </trkpt>
      <trkpt lat="43.14202" lon="2.44419">
        <ele>403.20855712891</ele>
        <time>2011-06-05T11:56:39Z</time>
      </trkpt>
      <trkpt lat="43.1421" lon="2.44408">
        <ele>402.08367919922</ele>
        <time>2011-06-05T11:56:42Z</time>
      </trkpt>
      <trkpt lat="43.14215" lon="2.44398">
        <ele>401.28524780273</ele>
        <time>2011-06-05T11:56:47Z</time>
      </trkpt>
      <trkpt lat="43.14215" lon="2.44398">
        <ele>401.28524780273</ele>
        <time>2011-06-05T11:56:48Z</time>
      </trkpt>
      <trkpt lat="43.14216" lon="2.44396">
        <ele>401.10290527344</ele>
        <time>2011-06-05T11:57:01Z</time>
      </trkpt>
      <trkpt lat="43.14217" lon="2.44396">
        <ele>401.0185546875</ele>
        <time>2011-06-05T11:57:03Z</time>
      </trkpt>
      <trkpt lat="43.14222" lon="2.44392">
        <ele>400.49514770508</ele>
        <time>2011-06-05T11:57:10Z</time>
      </trkpt>
      <trkpt lat="43.14222" lon="2.44392">
        <ele>400.494140625</ele>
        <time>2011-06-05T11:57:11Z</time>
      </trkpt>
      <trkpt lat="43.14225" lon="2.44379">
        <ele>400.13726806641</ele>
        <time>2011-06-05T11:57:20Z</time>
      </trkpt>
      <trkpt lat="43.1423" lon="2.44365">
        <ele>399.84579467773</ele>
        <time>2011-06-05T11:57:23Z</time>
      </trkpt>
      <trkpt lat="43.14229" lon="2.44352">
        <ele>399.94262695312</ele>
        <time>2011-06-05T11:57:25Z</time>
      </trkpt>
      <trkpt lat="43.14229" lon="2.44338">
        <ele>399.98663330078</ele>
        <time>2011-06-05T11:57:27Z</time>
      </trkpt>
      <trkpt lat="43.14229" lon="2.4433">
        <ele>399.87750244141</ele>
        <time>2011-06-05T11:57:28Z</time>
      </trkpt>
      <trkpt lat="43.14235" lon="2.44305">
        <ele>398.91604614258</ele>
        <time>2011-06-05T11:57:32Z</time>
      </trkpt>
      <trkpt lat="43.1424" lon="2.4429">
        <ele>398.36712646484</ele>
        <time>2011-06-05T11:57:36Z</time>
      </trkpt>
      <trkpt lat="43.14246" lon="2.44277">
        <ele>397.93637084961</ele>
        <time>2011-06-05T11:57:40Z</time>
      </trkpt>
      <trkpt lat="43.14257" lon="2.44269">
        <ele>395.68908691406</ele>
        <time>2011-06-05T11:57:45Z</time>
      </trkpt>
      <trkpt lat="43.14262" lon="2.44255">
        <ele>394.0944519043</ele>
        <time>2011-06-05T11:57:50Z</time>
      </trkpt>
      <trkpt lat="43.14265" lon="2.44242">
        <ele>393.01376342773</ele>
        <time>2011-06-05T11:57:54Z</time>
      </trkpt>
      <trkpt lat="43.14257" lon="2.44225">
        <ele>394.57595825195</ele>
        <time>2011-06-05T11:57:58Z</time>
      </trkpt>
      <trkpt lat="43.14245" lon="2.44209">
        <ele>395.40490722656</ele>
        <time>2011-06-05T11:58:03Z</time>
      </trkpt>
      <trkpt lat="43.14242" lon="2.44198">
        <ele>394.92095947266</ele>
        <time>2011-06-05T11:58:06Z</time>
      </trkpt>
      <trkpt lat="43.1424" lon="2.44181">
        <ele>394.21734619141</ele>
        <time>2011-06-05T11:58:09Z</time>
      </trkpt>
      <trkpt lat="43.14241" lon="2.44156">
        <ele>392.79156494141</ele>
        <time>2011-06-05T11:58:14Z</time>
      </trkpt>
      <trkpt lat="43.14241" lon="2.4414">
        <ele>391.451171875</ele>
        <time>2011-06-05T11:58:17Z</time>
      </trkpt>
      <trkpt lat="43.14249" lon="2.44122">
        <ele>390.21948242188</ele>
        <time>2011-06-05T11:58:21Z</time>
      </trkpt>
      <trkpt lat="43.14251" lon="2.44097">
        <ele>388.0260925293</ele>
        <time>2011-06-05T11:58:25Z</time>
      </trkpt>
      <trkpt lat="43.14252" lon="2.44079">
        <ele>386.84323120117</ele>
        <time>2011-06-05T11:58:28Z</time>
      </trkpt>
      <trkpt lat="43.14253" lon="2.44075">
        <ele>386.78604125977</ele>
        <time>2011-06-05T11:58:29Z</time>
      </trkpt>
      <trkpt lat="43.14257" lon="2.44065">
        <ele>386.51098632812</ele>
        <time>2011-06-05T11:58:32Z</time>
      </trkpt>
      <trkpt lat="43.1426" lon="2.4405">
        <ele>386.18353271484</ele>
        <time>2011-06-05T11:58:36Z</time>
      </trkpt>
      <trkpt lat="43.14264" lon="2.44028">
        <ele>385.60653686523</ele>
        <time>2011-06-05T11:58:42Z</time>
      </trkpt>
      <trkpt lat="43.1427" lon="2.44012">
        <ele>384.73547363281</ele>
        <time>2011-06-05T11:58:48Z</time>
      </trkpt>
      <trkpt lat="43.14272" lon="2.44004">
        <ele>384.47344970703</ele>
        <time>2011-06-05T11:58:52Z</time>
      </trkpt>
      <trkpt lat="43.14271" lon="2.44004">
        <ele>384.51525878906</ele>
        <time>2011-06-05T11:58:53Z</time>
      </trkpt>
      <trkpt lat="43.14267" lon="2.43995">
        <ele>385.23065185547</ele>
        <time>2011-06-05T12:01:45Z</time>
      </trkpt>
      <trkpt lat="43.1426" lon="2.43979">
        <ele>387.02783203125</ele>
        <time>2011-06-05T12:01:51Z</time>
      </trkpt>
      <trkpt lat="43.14256" lon="2.43962">
        <ele>388.62243652344</ele>
        <time>2011-06-05T12:01:57Z</time>
      </trkpt>
      <trkpt lat="43.14248" lon="2.43952">
        <ele>389.73364257812</ele>
        <time>2011-06-05T12:02:01Z</time>
      </trkpt>
      <trkpt lat="43.14236" lon="2.43944">
        <ele>389.61361694336</ele>
        <time>2011-06-05T12:02:06Z</time>
      </trkpt>
      <trkpt lat="43.14228" lon="2.43938">
        <ele>389.49118041992</ele>
        <time>2011-06-05T12:02:09Z</time>
      </trkpt>
      <trkpt lat="43.14224" lon="2.43936">
        <ele>389.42715454102</ele>
        <time>2011-06-05T12:02:12Z</time>
      </trkpt>
      <trkpt lat="43.14216" lon="2.43933">
        <ele>389.21966552734</ele>
        <time>2011-06-05T12:02:18Z</time>
      </trkpt>
      <trkpt lat="43.14205" lon="2.43922">
        <ele>389.45468139648</ele>
        <time>2011-06-05T12:02:26Z</time>
      </trkpt>
      <trkpt lat="43.14195" lon="2.43911">
        <ele>390.09625244141</ele>
        <time>2011-06-05T12:02:32Z</time>
      </trkpt>
      <trkpt lat="43.14194" lon="2.43891">
        <ele>392.71957397461</ele>
        <time>2011-06-05T12:02:39Z</time>
      </trkpt>
      <trkpt lat="43.14192" lon="2.43873">
        <ele>394.92224121094</ele>
        <time>2011-06-05T12:02:45Z</time>
      </trkpt>
      <trkpt lat="43.14188" lon="2.43854">
        <ele>397.08108520508</ele>
        <time>2011-06-05T12:02:52Z</time>
      </trkpt>
      <trkpt lat="43.14185" lon="2.43844">
        <ele>398.2346496582</ele>
        <time>2011-06-05T12:02:56Z</time>
      </trkpt>
      <trkpt lat="43.14177" lon="2.43824">
        <ele>399.09088134766</ele>
        <time>2011-06-05T12:03:03Z</time>
      </trkpt>
      <trkpt lat="43.14173" lon="2.43809">
        <ele>398.92526245117</ele>
        <time>2011-06-05T12:03:08Z</time>
      </trkpt>
      <trkpt lat="43.1417" lon="2.43794">
        <ele>398.87423706055</ele>
        <time>2011-06-05T12:03:12Z</time>
      </trkpt>
      <trkpt lat="43.1417" lon="2.43783">
        <ele>399.04278564453</ele>
        <time>2011-06-05T12:03:15Z</time>
      </trkpt>
      <trkpt lat="43.14172" lon="2.43767">
        <ele>399.59414672852</ele>
        <time>2011-06-05T12:03:19Z</time>
      </trkpt>
      <trkpt lat="43.14178" lon="2.43748">
        <ele>400.66879272461</ele>
        <time>2011-06-05T12:03:25Z</time>
      </trkpt>
      <trkpt lat="43.1418" lon="2.4374">
        <ele>400.74237060547</ele>
        <time>2011-06-05T12:03:27Z</time>
      </trkpt>
      <trkpt lat="43.14188" lon="2.43709">
        <ele>401.35906982422</ele>
        <time>2011-06-05T12:03:35Z</time>
      </trkpt>
      <trkpt lat="43.14198" lon="2.43692">
        <ele>402.75958251953</ele>
        <time>2011-06-05T12:03:40Z</time>
      </trkpt>
      <trkpt lat="43.14211" lon="2.43671">
        <ele>404.99591064453</ele>
        <time>2011-06-05T12:03:47Z</time>
      </trkpt>
      <trkpt lat="43.14217" lon="2.43645">
        <ele>406.96090698242</ele>
        <time>2011-06-05T12:03:54Z</time>
      </trkpt>
      <trkpt lat="43.14219" lon="2.43617">
        <ele>407.98516845703</ele>
        <time>2011-06-05T12:04:01Z</time>
      </trkpt>
      <trkpt lat="43.14212" lon="2.43594">
        <ele>407.68338012695</ele>
        <time>2011-06-05T12:04:07Z</time>
      </trkpt>
      <trkpt lat="43.14212" lon="2.43575">
        <ele>408.94424438477</ele>
        <time>2011-06-05T12:04:12Z</time>
      </trkpt>
      <trkpt lat="43.14219" lon="2.43547">
        <ele>412.7737121582</ele>
        <time>2011-06-05T12:04:19Z</time>
      </trkpt>
      <trkpt lat="43.14225" lon="2.43519">
        <ele>415.8616027832</ele>
        <time>2011-06-05T12:04:27Z</time>
      </trkpt>
      <trkpt lat="43.14229" lon="2.43504">
        <ele>417.38388061523</ele>
        <time>2011-06-05T12:04:32Z</time>
      </trkpt>
      <trkpt lat="43.14236" lon="2.43485">
        <ele>418.09930419922</ele>
        <time>2011-06-05T12:04:39Z</time>
      </trkpt>
      <trkpt lat="43.14243" lon="2.43476">
        <ele>418.27813720703</ele>
        <time>2011-06-05T12:04:43Z</time>
      </trkpt>
      <trkpt lat="43.14253" lon="2.43452">
        <ele>418.6787109375</ele>
        <time>2011-06-05T12:04:51Z</time>
      </trkpt>
      <trkpt lat="43.1426" lon="2.43424">
        <ele>419.07656860352</ele>
        <time>2011-06-05T12:04:58Z</time>
      </trkpt>
      <trkpt lat="43.14275" lon="2.43393">
        <ele>417.48510742188</ele>
        <time>2011-06-05T12:05:03Z</time>
      </trkpt>
      <trkpt lat="43.14304" lon="2.43359">
        <ele>413.99566650391</ele>
        <time>2011-06-05T12:05:08Z</time>
      </trkpt>
      <trkpt lat="43.14311" lon="2.43352">
        <ele>412.99603271484</ele>
        <time>2011-06-05T12:05:09Z</time>
      </trkpt>
      <trkpt lat="43.14325" lon="2.43339">
        <ele>411.10986328125</ele>
        <time>2011-06-05T12:05:11Z</time>
      </trkpt>
      <trkpt lat="43.14336" lon="2.4332">
        <ele>408.65673828125</ele>
        <time>2011-06-05T12:05:14Z</time>
      </trkpt>
      <trkpt lat="43.14341" lon="2.43307">
        <ele>407.65829467773</ele>
        <time>2011-06-05T12:05:16Z</time>
      </trkpt>
      <trkpt lat="43.14354" lon="2.43278">
        <ele>406.13394165039</ele>
        <time>2011-06-05T12:05:22Z</time>
      </trkpt>
      <trkpt lat="43.14368" lon="2.4325">
        <ele>405.55361938477</ele>
        <time>2011-06-05T12:05:29Z</time>
      </trkpt>
      <trkpt lat="43.14376" lon="2.43233">
        <ele>405.36807250977</ele>
        <time>2011-06-05T12:05:35Z</time>
      </trkpt>
      <trkpt lat="43.14385" lon="2.43214">
        <ele>405.0576171875</ele>
        <time>2011-06-05T12:05:41Z</time>
      </trkpt>
      <trkpt lat="43.14405" lon="2.43175">
        <ele>404.85861206055</ele>
        <time>2011-06-05T12:05:50Z</time>
      </trkpt>
      <trkpt lat="43.14418" lon="2.4315">
        <ele>404.92044067383</ele>
        <time>2011-06-05T12:05:56Z</time>
      </trkpt>
      <trkpt lat="43.14421" lon="2.43146">
        <ele>405.0793762207</ele>
        <time>2011-06-05T12:05:57Z</time>
      </trkpt>
      <trkpt lat="43.14439" lon="2.43108">
        <ele>405.77911376953</ele>
        <time>2011-06-05T12:06:04Z</time>
      </trkpt>
      <trkpt lat="43.14448" lon="2.43091">
        <ele>406.64352416992</ele>
        <time>2011-06-05T12:06:07Z</time>
      </trkpt>
      <trkpt lat="43.14464" lon="2.43056">
        <ele>409.26803588867</ele>
        <time>2011-06-05T12:06:14Z</time>
      </trkpt>
      <trkpt lat="43.14476" lon="2.43033">
        <ele>410.91244506836</ele>
        <time>2011-06-05T12:06:20Z</time>
      </trkpt>
      <trkpt lat="43.14486" lon="2.43009">
        <ele>411.98947143555</ele>
        <time>2011-06-05T12:06:26Z</time>
      </trkpt>
      <trkpt lat="43.1449" lon="2.4299">
        <ele>412.21249389648</ele>
        <time>2011-06-05T12:06:30Z</time>
      </trkpt>
      <trkpt lat="43.14493" lon="2.42971">
        <ele>412.2705078125</ele>
        <time>2011-06-05T12:06:34Z</time>
      </trkpt>
      <trkpt lat="43.14488" lon="2.42952">
        <ele>411.20281982422</ele>
        <time>2011-06-05T12:06:38Z</time>
      </trkpt>
      <trkpt lat="43.14473" lon="2.42942">
        <ele>409.01519775391</ele>
        <time>2011-06-05T12:06:42Z</time>
      </trkpt>
      <trkpt lat="43.14457" lon="2.42934">
        <ele>406.97610473633</ele>
        <time>2011-06-05T12:06:46Z</time>
      </trkpt>
      <trkpt lat="43.14455" lon="2.42917">
        <ele>406.55911254883</ele>
        <time>2011-06-05T12:06:50Z</time>
      </trkpt>
      <trkpt lat="43.14457" lon="2.42913">
        <ele>406.80529785156</ele>
        <time>2011-06-05T12:06:51Z</time>
      </trkpt>
      <trkpt lat="43.14467" lon="2.42892">
        <ele>407.96646118164</ele>
        <time>2011-06-05T12:06:55Z</time>
      </trkpt>
      <trkpt lat="43.14489" lon="2.42837">
        <ele>411.25482177734</ele>
        <time>2011-06-05T12:07:05Z</time>
      </trkpt>
      <trkpt lat="43.14495" lon="2.42813">
        <ele>413.25180053711</ele>
        <time>2011-06-05T12:07:10Z</time>
      </trkpt>
      <trkpt lat="43.14497" lon="2.42807">
        <ele>413.69610595703</ele>
        <time>2011-06-05T12:07:11Z</time>
      </trkpt>
      <trkpt lat="43.14497" lon="2.4277">
        <ele>415.57348632812</ele>
        <time>2011-06-05T12:07:17Z</time>
      </trkpt>
      <trkpt lat="43.14488" lon="2.42753">
        <ele>414.68148803711</ele>
        <time>2011-06-05T12:07:21Z</time>
      </trkpt>
      <trkpt lat="43.14479" lon="2.42749">
        <ele>413.20635986328</ele>
        <time>2011-06-05T12:07:23Z</time>
      </trkpt>
      <trkpt lat="43.14459" lon="2.42728">
        <ele>409.13189697266</ele>
        <time>2011-06-05T12:07:28Z</time>
      </trkpt>
      <trkpt lat="43.14455" lon="2.42706">
        <ele>407.81307983398</ele>
        <time>2011-06-05T12:07:31Z</time>
      </trkpt>
      <trkpt lat="43.14455" lon="2.42683">
        <ele>407.16540527344</ele>
        <time>2011-06-05T12:07:34Z</time>
      </trkpt>
      <trkpt lat="43.14457" lon="2.42665">
        <ele>407.23318481445</ele>
        <time>2011-06-05T12:07:37Z</time>
      </trkpt>
      <trkpt lat="43.14466" lon="2.42639">
        <ele>407.85232543945</ele>
        <time>2011-06-05T12:07:41Z</time>
      </trkpt>
      <trkpt lat="43.14473" lon="2.4262">
        <ele>408.23455810547</ele>
        <time>2011-06-05T12:07:44Z</time>
      </trkpt>
      <trkpt lat="43.14487" lon="2.42598">
        <ele>410.00839233398</ele>
        <time>2011-06-05T12:07:48Z</time>
      </trkpt>
      <trkpt lat="43.14492" lon="2.42594">
        <ele>410.79916381836</ele>
        <time>2011-06-05T12:07:49Z</time>
      </trkpt>
      <trkpt lat="43.145" lon="2.42568">
        <ele>412.10888671875</ele>
        <time>2011-06-05T12:07:53Z</time>
      </trkpt>
      <trkpt lat="43.14498" lon="2.42563">
        <ele>411.77862548828</ele>
        <time>2011-06-05T12:07:54Z</time>
      </trkpt>
      <trkpt lat="43.14491" lon="2.42531">
        <ele>410.62448120117</ele>
        <time>2011-06-05T12:08:00Z</time>
      </trkpt>
      <trkpt lat="43.14499" lon="2.42475">
        <ele>413.00836181641</ele>
        <time>2011-06-05T12:08:10Z</time>
      </trkpt>
      <trkpt lat="43.14498" lon="2.42452">
        <ele>413.24978637695</ele>
        <time>2011-06-05T12:08:14Z</time>
      </trkpt>
      <trkpt lat="43.14497" lon="2.42401">
        <ele>413.80187988281</ele>
        <time>2011-06-05T12:08:22Z</time>
      </trkpt>
      <trkpt lat="43.14499" lon="2.42378">
        <ele>414.23901367188</ele>
        <time>2011-06-05T12:08:26Z</time>
      </trkpt>
      <trkpt lat="43.14494" lon="2.42355">
        <ele>413.87658691406</ele>
        <time>2011-06-05T12:08:31Z</time>
      </trkpt>
      <trkpt lat="43.14494" lon="2.4235">
        <ele>413.81192016602</ele>
        <time>2011-06-05T12:08:32Z</time>
      </trkpt>
      <trkpt lat="43.1448" lon="2.42328">
        <ele>411.81475830078</ele>
        <time>2011-06-05T12:08:38Z</time>
      </trkpt>
      <trkpt lat="43.14479" lon="2.42325">
        <ele>411.68826293945</ele>
        <time>2011-06-05T12:08:39Z</time>
      </trkpt>
      <trkpt lat="43.14474" lon="2.42312">
        <ele>410.98745727539</ele>
        <time>2011-06-05T12:08:45Z</time>
      </trkpt>
      <trkpt lat="43.1447" lon="2.42306">
        <ele>410.50561523438</ele>
        <time>2011-06-05T12:08:47Z</time>
      </trkpt>
      <trkpt lat="43.14455" lon="2.42287">
        <ele>409.36233520508</ele>
        <time>2011-06-05T12:08:53Z</time>
      </trkpt>
      <trkpt lat="43.14455" lon="2.42263">
        <ele>409.98068237305</ele>
        <time>2011-06-05T12:08:57Z</time>
      </trkpt>
      <trkpt lat="43.14447" lon="2.42236">
        <ele>410.12185668945</ele>
        <time>2011-06-05T12:09:02Z</time>
      </trkpt>
      <trkpt lat="43.14443" lon="2.42232">
        <ele>410.14855957031</ele>
        <time>2011-06-05T12:09:03Z</time>
      </trkpt>
      <trkpt lat="43.14415" lon="2.42202">
        <ele>412.43054199219</ele>
        <time>2011-06-05T12:09:11Z</time>
      </trkpt>
      <trkpt lat="43.14398" lon="2.42172">
        <ele>414.97192382812</ele>
        <time>2011-06-05T12:09:19Z</time>
      </trkpt>
      <trkpt lat="43.14393" lon="2.42157">
        <ele>415.97784423828</ele>
        <time>2011-06-05T12:09:23Z</time>
      </trkpt>
      <trkpt lat="43.14392" lon="2.42139">
        <ele>416.7639465332</ele>
        <time>2011-06-05T12:09:26Z</time>
      </trkpt>
      <trkpt lat="43.14392" lon="2.42132">
        <ele>417.00393676758</ele>
        <time>2011-06-05T12:09:27Z</time>
      </trkpt>
      <trkpt lat="43.14402" lon="2.42069">
        <ele>417.99234008789</ele>
        <time>2011-06-05T12:09:35Z</time>
      </trkpt>
      <trkpt lat="43.14407" lon="2.4204">
        <ele>417.16934204102</ele>
        <time>2011-06-05T12:09:38Z</time>
      </trkpt>
      <trkpt lat="43.14423" lon="2.41981">
        <ele>414.63073730469</ele>
        <time>2011-06-05T12:09:45Z</time>
      </trkpt>
      <trkpt lat="43.14439" lon="2.41936">
        <ele>412.58779907227</ele>
        <time>2011-06-05T12:09:52Z</time>
      </trkpt>
      <trkpt lat="43.14447" lon="2.41904">
        <ele>412.90026855469</ele>
        <time>2011-06-05T12:09:58Z</time>
      </trkpt>
      <trkpt lat="43.14458" lon="2.4188">
        <ele>413.85409545898</ele>
        <time>2011-06-05T12:10:04Z</time>
      </trkpt>
      <trkpt lat="43.14473" lon="2.41856">
        <ele>415.71389770508</ele>
        <time>2011-06-05T12:10:11Z</time>
      </trkpt>
      <trkpt lat="43.14482" lon="2.41833">
        <ele>418.34841918945</ele>
        <time>2011-06-05T12:10:18Z</time>
      </trkpt>
      <trkpt lat="43.14494" lon="2.41813">
        <ele>419.69534301758</ele>
        <time>2011-06-05T12:10:23Z</time>
      </trkpt>
      <trkpt lat="43.14519" lon="2.41773">
        <ele>418.06115722656</ele>
        <time>2011-06-05T12:10:31Z</time>
      </trkpt>
      <trkpt lat="43.14543" lon="2.41745">
        <ele>416.31811523438</ele>
        <time>2011-06-05T12:10:37Z</time>
      </trkpt>
      <trkpt lat="43.14562" lon="2.41729">
        <ele>414.3830871582</ele>
        <time>2011-06-05T12:10:42Z</time>
      </trkpt>
      <trkpt lat="43.14566" lon="2.41726">
        <ele>414.14538574219</ele>
        <time>2011-06-05T12:10:43Z</time>
      </trkpt>
      <trkpt lat="43.14577" lon="2.41708">
        <ele>414.47082519531</ele>
        <time>2011-06-05T12:10:47Z</time>
      </trkpt>
      <trkpt lat="43.1459" lon="2.41656">
        <ele>416.54391479492</ele>
        <time>2011-06-05T12:10:55Z</time>
      </trkpt>
      <trkpt lat="43.14592" lon="2.4165">
        <ele>416.35284423828</ele>
        <time>2011-06-05T12:10:56Z</time>
      </trkpt>
      <trkpt lat="43.14604" lon="2.4161">
        <ele>415.55111694336</ele>
        <time>2011-06-05T12:11:04Z</time>
      </trkpt>
      <trkpt lat="43.14614" lon="2.41564">
        <ele>415.19290161133</ele>
        <time>2011-06-05T12:11:11Z</time>
      </trkpt>
      <trkpt lat="43.1463" lon="2.41503">
        <ele>412.67672729492</ele>
        <time>2011-06-05T12:11:19Z</time>
      </trkpt>
      <trkpt lat="43.1464" lon="2.41453">
        <ele>412.14096069336</ele>
        <time>2011-06-05T12:11:26Z</time>
      </trkpt>
      <trkpt lat="43.14649" lon="2.41387">
        <ele>412.33514404297</ele>
        <time>2011-06-05T12:11:35Z</time>
      </trkpt>
      <trkpt lat="43.14652" lon="2.41334">
        <ele>413.16094970703</ele>
        <time>2011-06-05T12:11:42Z</time>
      </trkpt>
      <trkpt lat="43.14652" lon="2.41306">
        <ele>414.06918334961</ele>
        <time>2011-06-05T12:11:45Z</time>
      </trkpt>
      <trkpt lat="43.14658" lon="2.41262">
        <ele>415.17602539062</ele>
        <time>2011-06-05T12:11:50Z</time>
      </trkpt>
      <trkpt lat="43.14664" lon="2.4122">
        <ele>418.14251708984</ele>
        <time>2011-06-05T12:11:57Z</time>
      </trkpt>
      <trkpt lat="43.14662" lon="2.41197">
        <ele>420.5432434082</ele>
        <time>2011-06-05T12:12:02Z</time>
      </trkpt>
      <trkpt lat="43.14661" lon="2.41195">
        <ele>420.89468383789</ele>
        <time>2011-06-05T12:12:03Z</time>
      </trkpt>
      <trkpt lat="43.14651" lon="2.41188">
        <ele>422.77261352539</ele>
        <time>2011-06-05T12:12:10Z</time>
      </trkpt>
      <trkpt lat="43.14639" lon="2.41188">
        <ele>424.08462524414</ele>
        <time>2011-06-05T12:12:16Z</time>
      </trkpt>
      <trkpt lat="43.14631" lon="2.4119">
        <ele>424.81552124023</ele>
        <time>2011-06-05T12:12:21Z</time>
      </trkpt>
      <trkpt lat="43.14617" lon="2.41194">
        <ele>425.75723266602</ele>
        <time>2011-06-05T12:12:28Z</time>
      </trkpt>
      <trkpt lat="43.14609" lon="2.41196">
        <ele>426.36224365234</ele>
        <time>2011-06-05T12:12:32Z</time>
      </trkpt>
      <trkpt lat="43.14601" lon="2.41191">
        <ele>428.01068115234</ele>
        <time>2011-06-05T12:12:37Z</time>
      </trkpt>
      <trkpt lat="43.14598" lon="2.41187">
        <ele>428.86645507812</ele>
        <time>2011-06-05T12:12:39Z</time>
      </trkpt>
      <trkpt lat="43.14598" lon="2.41171">
        <ele>431.39907836914</ele>
        <time>2011-06-05T12:12:46Z</time>
      </trkpt>
      <trkpt lat="43.14601" lon="2.41158">
        <ele>432.63592529297</ele>
        <time>2011-06-05T12:12:53Z</time>
      </trkpt>
      <trkpt lat="43.14605" lon="2.41146">
        <ele>433.33590698242</ele>
        <time>2011-06-05T12:12:59Z</time>
      </trkpt>
      <trkpt lat="43.1461" lon="2.41131">
        <ele>434.35067749023</ele>
        <time>2011-06-05T12:13:06Z</time>
      </trkpt>
      <trkpt lat="43.14618" lon="2.41113">
        <ele>435.10983276367</ele>
        <time>2011-06-05T12:13:14Z</time>
      </trkpt>
      <trkpt lat="43.14622" lon="2.41097">
        <ele>436.10330200195</ele>
        <time>2011-06-05T12:13:21Z</time>
      </trkpt>
      <trkpt lat="43.14622" lon="2.41094">
        <ele>436.27981567383</ele>
        <time>2011-06-05T12:13:22Z</time>
      </trkpt>
      <trkpt lat="43.14626" lon="2.41077">
        <ele>436.72225952148</ele>
        <time>2011-06-05T12:13:30Z</time>
      </trkpt>
      <trkpt lat="43.14629" lon="2.41067">
        <ele>436.26647949219</ele>
        <time>2011-06-05T12:13:37Z</time>
      </trkpt>
      <trkpt lat="43.14632" lon="2.41056">
        <ele>435.87850952148</ele>
        <time>2011-06-05T12:13:44Z</time>
      </trkpt>
      <trkpt lat="43.14633" lon="2.41043">
        <ele>435.8078918457</ele>
        <time>2011-06-05T12:13:49Z</time>
      </trkpt>
      <trkpt lat="43.14634" lon="2.41037">
        <ele>435.74993896484</ele>
        <time>2011-06-05T12:13:54Z</time>
      </trkpt>
      <trkpt lat="43.14636" lon="2.41035">
        <ele>435.65063476562</ele>
        <time>2011-06-05T12:14:40Z</time>
      </trkpt>
      <trkpt lat="43.14639" lon="2.41014">
        <ele>435.7834777832</ele>
        <time>2011-06-05T12:14:45Z</time>
      </trkpt>
      <trkpt lat="43.1464" lon="2.41005">
        <ele>435.90850830078</ele>
        <time>2011-06-05T12:14:47Z</time>
      </trkpt>
      <trkpt lat="43.14642" lon="2.41002">
        <ele>435.94674682617</ele>
        <time>2011-06-05T12:14:50Z</time>
      </trkpt>
      <trkpt lat="43.14649" lon="2.40968">
        <ele>433.12890625</ele>
        <time>2011-06-05T12:15:07Z</time>
      </trkpt>
      <trkpt lat="43.14657" lon="2.40936">
        <ele>431.09194946289</ele>
        <time>2011-06-05T12:15:13Z</time>
      </trkpt>
      <trkpt lat="43.14662" lon="2.40894">
        <ele>428.47180175781</ele>
        <time>2011-06-05T12:15:18Z</time>
      </trkpt>
      <trkpt lat="43.14664" lon="2.40853">
        <ele>425.28695678711</ele>
        <time>2011-06-05T12:15:22Z</time>
      </trkpt>
      <trkpt lat="43.1467" lon="2.40825">
        <ele>423.28247070312</ele>
        <time>2011-06-05T12:15:26Z</time>
      </trkpt>
      <trkpt lat="43.14672" lon="2.40796">
        <ele>421.89315795898</ele>
        <time>2011-06-05T12:15:30Z</time>
      </trkpt>
      <trkpt lat="43.1468" lon="2.40766">
        <ele>419.81747436523</ele>
        <time>2011-06-05T12:15:36Z</time>
      </trkpt>
      <trkpt lat="43.14686" lon="2.40742">
        <ele>418.15377807617</ele>
        <time>2011-06-05T12:15:42Z</time>
      </trkpt>
      <trkpt lat="43.14687" lon="2.40737">
        <ele>417.74426269531</ele>
        <time>2011-06-05T12:15:43Z</time>
      </trkpt>
      <trkpt lat="43.14693" lon="2.40699">
        <ele>415.41583251953</ele>
        <time>2011-06-05T12:15:49Z</time>
      </trkpt>
      <trkpt lat="43.14699" lon="2.40663">
        <ele>413.07025146484</ele>
        <time>2011-06-05T12:15:54Z</time>
      </trkpt>
      <trkpt lat="43.147" lon="2.40645">
        <ele>411.92150878906</ele>
        <time>2011-06-05T12:15:56Z</time>
      </trkpt>
      <trkpt lat="43.14699" lon="2.40627">
        <ele>410.87173461914</ele>
        <time>2011-06-05T12:15:58Z</time>
      </trkpt>
      <trkpt lat="43.14704" lon="2.40591">
        <ele>407.9983215332</ele>
        <time>2011-06-05T12:16:03Z</time>
      </trkpt>
      <trkpt lat="43.14709" lon="2.40563">
        <ele>406.10406494141</ele>
        <time>2011-06-05T12:16:07Z</time>
      </trkpt>
      <trkpt lat="43.14715" lon="2.40523">
        <ele>404.07504272461</ele>
        <time>2011-06-05T12:16:13Z</time>
      </trkpt>
      <trkpt lat="43.14717" lon="2.40508">
        <ele>403.45303344727</ele>
        <time>2011-06-05T12:16:16Z</time>
      </trkpt>
      <trkpt lat="43.14722" lon="2.40476">
        <ele>402.70742797852</ele>
        <time>2011-06-05T12:16:21Z</time>
      </trkpt>
      <trkpt lat="43.14731" lon="2.40436">
        <ele>402.65423583984</ele>
        <time>2011-06-05T12:16:28Z</time>
      </trkpt>
      <trkpt lat="43.14737" lon="2.40413">
        <ele>403.2314453125</ele>
        <time>2011-06-05T12:16:33Z</time>
      </trkpt>
      <trkpt lat="43.14744" lon="2.40392">
        <ele>404.9924621582</ele>
        <time>2011-06-05T12:16:38Z</time>
      </trkpt>
      <trkpt lat="43.14753" lon="2.40366">
        <ele>406.71856689453</ele>
        <time>2011-06-05T12:16:44Z</time>
      </trkpt>
      <trkpt lat="43.14759" lon="2.4035">
        <ele>405.5129699707</ele>
        <time>2011-06-05T12:16:49Z</time>
      </trkpt>
      <trkpt lat="43.14768" lon="2.40322">
        <ele>403.83093261719</ele>
        <time>2011-06-05T12:16:55Z</time>
      </trkpt>
      <trkpt lat="43.14769" lon="2.40317">
        <ele>403.31869506836</ele>
        <time>2011-06-05T12:16:56Z</time>
      </trkpt>
      <trkpt lat="43.14778" lon="2.40287">
        <ele>401.40884399414</ele>
        <time>2011-06-05T12:17:01Z</time>
      </trkpt>
      <trkpt lat="43.14788" lon="2.40262">
        <ele>400.66766357422</ele>
        <time>2011-06-05T12:17:06Z</time>
      </trkpt>
      <trkpt lat="43.14798" lon="2.40217">
        <ele>399.61755371094</ele>
        <time>2011-06-05T12:17:14Z</time>
      </trkpt>
      <trkpt lat="43.14802" lon="2.40202">
        <ele>399.30270385742</ele>
        <time>2011-06-05T12:17:17Z</time>
      </trkpt>
      <trkpt lat="43.14807" lon="2.40178">
        <ele>399.23184204102</ele>
        <time>2011-06-05T12:17:22Z</time>
      </trkpt>
      <trkpt lat="43.14815" lon="2.40157">
        <ele>399.52062988281</ele>
        <time>2011-06-05T12:17:26Z</time>
      </trkpt>
      <trkpt lat="43.1482" lon="2.4014">
        <ele>399.32083129883</ele>
        <time>2011-06-05T12:17:29Z</time>
      </trkpt>
      <trkpt lat="43.14824" lon="2.40121">
        <ele>398.97274780273</ele>
        <time>2011-06-05T12:17:32Z</time>
      </trkpt>
      <trkpt lat="43.14827" lon="2.40094">
        <ele>398.29470825195</ele>
        <time>2011-06-05T12:17:35Z</time>
      </trkpt>
      <trkpt lat="43.1483" lon="2.4007">
        <ele>398.22256469727</ele>
        <time>2011-06-05T12:17:38Z</time>
      </trkpt>
      <trkpt lat="43.14839" lon="2.40057">
        <ele>397.15979003906</ele>
        <time>2011-06-05T12:17:41Z</time>
      </trkpt>
      <trkpt lat="43.14849" lon="2.40049">
        <ele>394.59643554688</ele>
        <time>2011-06-05T12:17:44Z</time>
      </trkpt>
      <trkpt lat="43.14864" lon="2.40022">
        <ele>391.33309936523</ele>
        <time>2011-06-05T12:17:50Z</time>
      </trkpt>
      <trkpt lat="43.14873" lon="2.39998">
        <ele>390.02471923828</ele>
        <time>2011-06-05T12:17:55Z</time>
      </trkpt>
      <trkpt lat="43.14873" lon="2.39973">
        <ele>390.96975708008</ele>
        <time>2011-06-05T12:18:00Z</time>
      </trkpt>
      <trkpt lat="43.14878" lon="2.39951">
        <ele>391.00012207031</ele>
        <time>2011-06-05T12:18:04Z</time>
      </trkpt>
      <trkpt lat="43.14888" lon="2.39942">
        <ele>390.09936523438</ele>
        <time>2011-06-05T12:18:08Z</time>
      </trkpt>
      <trkpt lat="43.14888" lon="2.39938">
        <ele>390.22116088867</ele>
        <time>2011-06-05T12:18:09Z</time>
      </trkpt>
      <trkpt lat="43.14894" lon="2.39905">
        <ele>390.90008544922</ele>
        <time>2011-06-05T12:18:16Z</time>
      </trkpt>
      <trkpt lat="43.14898" lon="2.39892">
        <ele>390.77758789062</ele>
        <time>2011-06-05T12:18:19Z</time>
      </trkpt>
      <trkpt lat="43.14903" lon="2.3986">
        <ele>390.98291015625</ele>
        <time>2011-06-05T12:18:24Z</time>
      </trkpt>
      <trkpt lat="43.14906" lon="2.39831">
        <ele>391.53854370117</ele>
        <time>2011-06-05T12:18:29Z</time>
      </trkpt>
      <trkpt lat="43.14908" lon="2.39827">
        <ele>391.55572509766</ele>
        <time>2011-06-05T12:18:30Z</time>
      </trkpt>
      <trkpt lat="43.14911" lon="2.39804">
        <ele>391.89038085938</ele>
        <time>2011-06-05T12:18:34Z</time>
      </trkpt>
      <trkpt lat="43.1492" lon="2.39787">
        <ele>390.99795532227</ele>
        <time>2011-06-05T12:18:38Z</time>
      </trkpt>
      <trkpt lat="43.14923" lon="2.39784">
        <ele>390.10055541992</ele>
        <time>2011-06-05T12:18:39Z</time>
      </trkpt>
      <trkpt lat="43.14931" lon="2.39772">
        <ele>387.92489624023</ele>
        <time>2011-06-05T12:18:42Z</time>
      </trkpt>
      <trkpt lat="43.14942" lon="2.39757">
        <ele>385.0612487793</ele>
        <time>2011-06-05T12:18:45Z</time>
      </trkpt>
      <trkpt lat="43.14955" lon="2.39736">
        <ele>383.587890625</ele>
        <time>2011-06-05T12:18:49Z</time>
      </trkpt>
      <trkpt lat="43.14958" lon="2.39721">
        <ele>384.74984741211</ele>
        <time>2011-06-05T12:18:52Z</time>
      </trkpt>
      <trkpt lat="43.14959" lon="2.39708">
        <ele>386.27075195312</ele>
        <time>2011-06-05T12:18:55Z</time>
      </trkpt>
      <trkpt lat="43.14967" lon="2.39695">
        <ele>386.12985229492</ele>
        <time>2011-06-05T12:18:59Z</time>
      </trkpt>
      <trkpt lat="43.14978" lon="2.39689">
        <ele>384.32061767578</ele>
        <time>2011-06-05T12:19:02Z</time>
      </trkpt>
      <trkpt lat="43.14989" lon="2.39696">
        <ele>380.53652954102</ele>
        <time>2011-06-05T12:19:06Z</time>
      </trkpt>
      <trkpt lat="43.14998" lon="2.39698">
        <ele>377.88705444336</ele>
        <time>2011-06-05T12:19:08Z</time>
      </trkpt>
      <trkpt lat="43.15014" lon="2.397">
        <ele>374.11819458008</ele>
        <time>2011-06-05T12:19:12Z</time>
      </trkpt>
      <trkpt lat="43.15027" lon="2.39697">
        <ele>371.87649536133</ele>
        <time>2011-06-05T12:19:15Z</time>
      </trkpt>
      <trkpt lat="43.15032" lon="2.39695">
        <ele>371.02868652344</ele>
        <time>2011-06-05T12:19:16Z</time>
      </trkpt>
      <trkpt lat="43.15067" lon="2.3968">
        <ele>365.37573242188</ele>
        <time>2011-06-05T12:19:22Z</time>
      </trkpt>
      <trkpt lat="43.15072" lon="2.39679">
        <ele>364.28573608398</ele>
        <time>2011-06-05T12:19:23Z</time>
      </trkpt>
      <trkpt lat="43.1508" lon="2.39678">
        <ele>362.54971313477</ele>
        <time>2011-06-05T12:19:25Z</time>
      </trkpt>
      <trkpt lat="43.15096" lon="2.39664">
        <ele>361.61868286133</ele>
        <time>2011-06-05T12:19:29Z</time>
      </trkpt>
      <trkpt lat="43.15107" lon="2.39647">
        <ele>361.6457824707</ele>
        <time>2011-06-05T12:19:33Z</time>
      </trkpt>
      <trkpt lat="43.15129" lon="2.39646">
        <ele>358.67852783203</ele>
        <time>2011-06-05T12:19:39Z</time>
      </trkpt>
      <trkpt lat="43.15131" lon="2.39639">
        <ele>358.86352539062</ele>
        <time>2011-06-05T12:19:41Z</time>
      </trkpt>
      <trkpt lat="43.15137" lon="2.39627">
        <ele>359.05575561523</ele>
        <time>2011-06-05T12:19:44Z</time>
      </trkpt>
      <trkpt lat="43.15141" lon="2.39624">
        <ele>358.5617980957</ele>
        <time>2011-06-05T12:19:45Z</time>
      </trkpt>
      <trkpt lat="43.15162" lon="2.39613">
        <ele>355.91070556641</ele>
        <time>2011-06-05T12:19:51Z</time>
      </trkpt>
      <trkpt lat="43.15165" lon="2.39614">
        <ele>355.40118408203</ele>
        <time>2011-06-05T12:19:52Z</time>
      </trkpt>
      <trkpt lat="43.15173" lon="2.39617">
        <ele>355.48849487305</ele>
        <time>2011-06-05T12:19:54Z</time>
      </trkpt>
      <trkpt lat="43.1519" lon="2.39623">
        <ele>356.55758666992</ele>
        <time>2011-06-05T12:19:58Z</time>
      </trkpt>
      <trkpt lat="43.15221" lon="2.39637">
        <ele>358.9133605957</ele>
        <time>2011-06-05T12:20:06Z</time>
      </trkpt>
      <trkpt lat="43.15231" lon="2.39638">
        <ele>359.80670166016</ele>
        <time>2011-06-05T12:20:09Z</time>
      </trkpt>
      <trkpt lat="43.15233" lon="2.39636">
        <ele>360.02774047852</ele>
        <time>2011-06-05T12:20:10Z</time>
      </trkpt>
      <trkpt lat="43.15237" lon="2.39622">
        <ele>360.40914916992</ele>
        <time>2011-06-05T12:20:15Z</time>
      </trkpt>
      <trkpt lat="43.1524" lon="2.39602">
        <ele>360.61419677734</ele>
        <time>2011-06-05T12:20:21Z</time>
      </trkpt>
      <trkpt lat="43.1524" lon="2.39599">
        <ele>360.60284423828</ele>
        <time>2011-06-05T12:20:24Z</time>
      </trkpt>
      <trkpt lat="43.1524" lon="2.39593">
        <ele>360.53704833984</ele>
        <time>2011-06-05T12:20:38Z</time>
      </trkpt>
      <trkpt lat="43.1524" lon="2.39591">
        <ele>360.52993774414</ele>
        <time>2011-06-05T12:20:41Z</time>
      </trkpt>
      <trkpt lat="43.15238" lon="2.39588">
        <ele>360.44149780273</ele>
        <time>2011-06-05T12:22:59Z</time>
      </trkpt>
      <trkpt lat="43.1524" lon="2.39579">
        <ele>360.15756225586</ele>
        <time>2011-06-05T12:23:05Z</time>
      </trkpt>
      <trkpt lat="43.15249" lon="2.3957">
        <ele>359.66848754883</ele>
        <time>2011-06-05T12:23:13Z</time>
      </trkpt>
      <trkpt lat="43.15254" lon="2.39565">
        <ele>359.66998291016</ele>
        <time>2011-06-05T12:23:17Z</time>
      </trkpt>
      <trkpt lat="43.15257" lon="2.39563">
        <ele>359.83334350586</ele>
        <time>2011-06-05T12:23:20Z</time>
      </trkpt>
      <trkpt lat="43.15259" lon="2.39562">
        <ele>359.91912841797</ele>
        <time>2011-06-05T12:23:22Z</time>
      </trkpt>
      <trkpt lat="43.15261" lon="2.39561">
        <ele>359.99255371094</ele>
        <time>2011-06-05T12:23:24Z</time>
      </trkpt>
      <trkpt lat="43.1527" lon="2.39558">
        <ele>360.69183349609</ele>
        <time>2011-06-05T12:23:31Z</time>
      </trkpt>
      <trkpt lat="43.15272" lon="2.3956">
        <ele>361.15127563477</ele>
        <time>2011-06-05T12:23:34Z</time>
      </trkpt>
      <trkpt lat="43.15274" lon="2.39563">
        <ele>361.56768798828</ele>
        <time>2011-06-05T12:23:36Z</time>
      </trkpt>
      <trkpt lat="43.15277" lon="2.39563">
        <ele>361.99572753906</ele>
        <time>2011-06-05T12:23:40Z</time>
      </trkpt>
      <trkpt lat="43.1528" lon="2.39548">
        <ele>360.63592529297</ele>
        <time>2011-06-05T12:23:58Z</time>
      </trkpt>
      <trkpt lat="43.1528" lon="2.39537">
        <ele>359.38717651367</ele>
        <time>2011-06-05T12:24:00Z</time>
      </trkpt>
      <trkpt lat="43.15287" lon="2.39522">
        <ele>358.24685668945</ele>
        <time>2011-06-05T12:24:03Z</time>
      </trkpt>
      <trkpt lat="43.15297" lon="2.39514">
        <ele>358.06585693359</ele>
        <time>2011-06-05T12:24:07Z</time>
      </trkpt>
      <trkpt lat="43.15306" lon="2.39496">
        <ele>356.29476928711</ele>
        <time>2011-06-05T12:24:11Z</time>
      </trkpt>
      <trkpt lat="43.1531" lon="2.39475">
        <ele>352.96328735352</ele>
        <time>2011-06-05T12:24:16Z</time>
      </trkpt>
      <trkpt lat="43.15308" lon="2.39463">
        <ele>350.73739624023</ele>
        <time>2011-06-05T12:24:19Z</time>
      </trkpt>
      <trkpt lat="43.15308" lon="2.39456">
        <ele>349.3779296875</ele>
        <time>2011-06-05T12:24:21Z</time>
      </trkpt>
      <trkpt lat="43.15315" lon="2.39438">
        <ele>346.90670776367</ele>
        <time>2011-06-05T12:24:25Z</time>
      </trkpt>
      <trkpt lat="43.15317" lon="2.39431">
        <ele>345.93798828125</ele>
        <time>2011-06-05T12:24:26Z</time>
      </trkpt>
      <trkpt lat="43.15323" lon="2.39413">
        <ele>343.66363525391</ele>
        <time>2011-06-05T12:24:29Z</time>
      </trkpt>
      <trkpt lat="43.15327" lon="2.39409">
        <ele>343.66317749023</ele>
        <time>2011-06-05T12:24:32Z</time>
      </trkpt>
      <trkpt lat="43.15332" lon="2.39404">
        <ele>343.71264648438</ele>
        <time>2011-06-05T12:24:34Z</time>
      </trkpt>
      <trkpt lat="43.1534" lon="2.39396">
        <ele>342.97052001953</ele>
        <time>2011-06-05T12:24:36Z</time>
      </trkpt>
      <trkpt lat="43.15358" lon="2.39373">
        <ele>342.28524780273</ele>
        <time>2011-06-05T12:24:42Z</time>
      </trkpt>
      <trkpt lat="43.15363" lon="2.39366">
        <ele>342.57229614258</ele>
        <time>2011-06-05T12:24:44Z</time>
      </trkpt>
      <trkpt lat="43.15372" lon="2.39352">
        <ele>343.61825561523</ele>
        <time>2011-06-05T12:24:49Z</time>
      </trkpt>
      <trkpt lat="43.15377" lon="2.39345">
        <ele>344.43115234375</ele>
        <time>2011-06-05T12:24:53Z</time>
      </trkpt>
      <trkpt lat="43.15382" lon="2.39333">
        <ele>345.83169555664</ele>
        <time>2011-06-05T12:25:00Z</time>
      </trkpt>
      <trkpt lat="43.15388" lon="2.39322">
        <ele>347.07662963867</ele>
        <time>2011-06-05T12:25:06Z</time>
      </trkpt>
      <trkpt lat="43.1539" lon="2.39315">
        <ele>347.76330566406</ele>
        <time>2011-06-05T12:25:12Z</time>
      </trkpt>
      <trkpt lat="43.15393" lon="2.39306">
        <ele>348.60983276367</ele>
        <time>2011-06-05T12:25:18Z</time>
      </trkpt>
      <trkpt lat="43.15396" lon="2.39296">
        <ele>349.7587890625</ele>
        <time>2011-06-05T12:25:26Z</time>
      </trkpt>
      <trkpt lat="43.15396" lon="2.39296">
        <ele>349.67520141602</ele>
        <time>2011-06-05T12:25:27Z</time>
      </trkpt>
      <trkpt lat="43.15397" lon="2.39294">
        <ele>350.14685058594</ele>
        <time>2011-06-05T12:25:32Z</time>
      </trkpt>
      <trkpt lat="43.15398" lon="2.39293">
        <ele>350.35345458984</ele>
        <time>2011-06-05T12:25:33Z</time>
      </trkpt>
      <trkpt lat="43.15403" lon="2.3929">
        <ele>351.83364868164</ele>
        <time>2011-06-05T12:25:41Z</time>
      </trkpt>
      <trkpt lat="43.15409" lon="2.39288">
        <ele>353.25982666016</ele>
        <time>2011-06-05T12:25:49Z</time>
      </trkpt>
      <trkpt lat="43.15413" lon="2.39286">
        <ele>354.53964233398</ele>
        <time>2011-06-05T12:25:57Z</time>
      </trkpt>
      <trkpt lat="43.15414" lon="2.39285">
        <ele>354.8786315918</ele>
        <time>2011-06-05T12:25:59Z</time>
      </trkpt>
      <trkpt lat="43.15417" lon="2.39285">
        <ele>355.45745849609</ele>
        <time>2011-06-05T12:26:02Z</time>
      </trkpt>
      <trkpt lat="43.15426" lon="2.39285">
        <ele>355.36468505859</ele>
        <time>2011-06-05T12:26:13Z</time>
      </trkpt>
      <trkpt lat="43.15435" lon="2.39282">
        <ele>355.40844726562</ele>
        <time>2011-06-05T12:26:22Z</time>
      </trkpt>
      <trkpt lat="43.15441" lon="2.39281">
        <ele>355.45440673828</ele>
        <time>2011-06-05T12:26:30Z</time>
      </trkpt>
      <trkpt lat="43.15447" lon="2.39279">
        <ele>355.53851318359</ele>
        <time>2011-06-05T12:26:54Z</time>
      </trkpt>
      <trkpt lat="43.15456" lon="2.39273">
        <ele>355.93997192383</ele>
        <time>2011-06-05T12:27:00Z</time>
      </trkpt>
      <trkpt lat="43.1546" lon="2.3927">
        <ele>356.19616699219</ele>
        <time>2011-06-05T12:27:02Z</time>
      </trkpt>
      <trkpt lat="43.15462" lon="2.39268">
        <ele>356.34252929688</ele>
        <time>2011-06-05T12:27:03Z</time>
      </trkpt>
      <trkpt lat="43.15467" lon="2.39265">
        <ele>356.6123046875</ele>
        <time>2011-06-05T12:27:05Z</time>
      </trkpt>
      <trkpt lat="43.15493" lon="2.39254">
        <ele>357.58966064453</ele>
        <time>2011-06-05T12:27:15Z</time>
      </trkpt>
      <trkpt lat="43.15517" lon="2.39243">
        <ele>354.27136230469</ele>
        <time>2011-06-05T12:27:24Z</time>
      </trkpt>
      <trkpt lat="43.15534" lon="2.39236">
        <ele>351.142578125</ele>
        <time>2011-06-05T12:27:30Z</time>
      </trkpt>
      <trkpt lat="43.1554" lon="2.39227">
        <ele>349.63006591797</ele>
        <time>2011-06-05T12:27:35Z</time>
      </trkpt>
      <trkpt lat="43.15541" lon="2.39224">
        <ele>349.17626953125</ele>
        <time>2011-06-05T12:27:36Z</time>
      </trkpt>
      <trkpt lat="43.15551" lon="2.39209">
        <ele>347.00274658203</ele>
        <time>2011-06-05T12:27:41Z</time>
      </trkpt>
      <trkpt lat="43.15555" lon="2.39199">
        <ele>346.06973266602</ele>
        <time>2011-06-05T12:27:45Z</time>
      </trkpt>
      <trkpt lat="43.15564" lon="2.39177">
        <ele>344.33340454102</ele>
        <time>2011-06-05T12:27:48Z</time>
      </trkpt>
      <trkpt lat="43.15582" lon="2.39146">
        <ele>340.97549438477</ele>
        <time>2011-06-05T12:27:52Z</time>
      </trkpt>
      <trkpt lat="43.15594" lon="2.39136">
        <ele>339.00457763672</ele>
        <time>2011-06-05T12:27:56Z</time>
      </trkpt>
      <trkpt lat="43.15612" lon="2.39117">
        <ele>337.25131225586</ele>
        <time>2011-06-05T12:28:02Z</time>
      </trkpt>
      <trkpt lat="43.15623" lon="2.391">
        <ele>337.38323974609</ele>
        <time>2011-06-05T12:28:07Z</time>
      </trkpt>
      <trkpt lat="43.15633" lon="2.39082">
        <ele>338.5517578125</ele>
        <time>2011-06-05T12:28:12Z</time>
      </trkpt>
      <trkpt lat="43.15638" lon="2.39073">
        <ele>338.53686523438</ele>
        <time>2011-06-05T12:28:15Z</time>
      </trkpt>
      <trkpt lat="43.15643" lon="2.39065">
        <ele>338.76916503906</ele>
        <time>2011-06-05T12:28:19Z</time>
      </trkpt>
      <trkpt lat="43.15645" lon="2.3906">
        <ele>338.99279785156</ele>
        <time>2011-06-05T12:28:22Z</time>
      </trkpt>
      <trkpt lat="43.15652" lon="2.39051">
        <ele>339.95172119141</ele>
        <time>2011-06-05T12:28:27Z</time>
      </trkpt>
      <trkpt lat="43.15657" lon="2.39046">
        <ele>340.65551757812</ele>
        <time>2011-06-05T12:28:30Z</time>
      </trkpt>
      <trkpt lat="43.1566" lon="2.39041">
        <ele>341.26397705078</ele>
        <time>2011-06-05T12:28:35Z</time>
      </trkpt>
      <trkpt lat="43.15664" lon="2.39039">
        <ele>342.16079711914</ele>
        <time>2011-06-05T12:30:38Z</time>
      </trkpt>
      <trkpt lat="43.15673" lon="2.39028">
        <ele>342.4619140625</ele>
        <time>2011-06-05T12:30:42Z</time>
      </trkpt>
      <trkpt lat="43.1568" lon="2.39018">
        <ele>342.52252197266</ele>
        <time>2011-06-05T12:30:44Z</time>
      </trkpt>
      <trkpt lat="43.15696" lon="2.38992">
        <ele>342.9973449707</ele>
        <time>2011-06-05T12:30:48Z</time>
      </trkpt>
      <trkpt lat="43.15712" lon="2.38963">
        <ele>343.33676147461</ele>
        <time>2011-06-05T12:30:52Z</time>
      </trkpt>
      <trkpt lat="43.15727" lon="2.3894">
        <ele>345.77215576172</ele>
        <time>2011-06-05T12:30:57Z</time>
      </trkpt>
      <trkpt lat="43.15732" lon="2.38933">
        <ele>346.97393798828</ele>
        <time>2011-06-05T12:31:00Z</time>
      </trkpt>
      <trkpt lat="43.15735" lon="2.38926">
        <ele>348.06689453125</ele>
        <time>2011-06-05T12:31:03Z</time>
      </trkpt>
      <trkpt lat="43.15738" lon="2.38922">
        <ele>348.87478637695</ele>
        <time>2011-06-05T12:31:05Z</time>
      </trkpt>
      <trkpt lat="43.1574" lon="2.38917">
        <ele>349.73526000977</ele>
        <time>2011-06-05T12:31:07Z</time>
      </trkpt>
      <trkpt lat="43.15744" lon="2.38915">
        <ele>350.56231689453</ele>
        <time>2011-06-05T12:31:10Z</time>
      </trkpt>
      <trkpt lat="43.15744" lon="2.38915">
        <ele>350.64266967773</ele>
        <time>2011-06-05T12:31:11Z</time>
      </trkpt>
      <trkpt lat="43.15747" lon="2.38911">
        <ele>351.13012695312</ele>
        <time>2011-06-05T12:31:16Z</time>
      </trkpt>
      <trkpt lat="43.15748" lon="2.3891">
        <ele>351.42596435547</ele>
        <time>2011-06-05T12:31:19Z</time>
      </trkpt>
      <trkpt lat="43.15751" lon="2.38909">
        <ele>351.46203613281</ele>
        <time>2011-06-05T12:31:25Z</time>
      </trkpt>
      <trkpt lat="43.15752" lon="2.38908">
        <ele>351.25109863281</ele>
        <time>2011-06-05T12:31:26Z</time>
      </trkpt>
      <trkpt lat="43.15756" lon="2.38898">
        <ele>349.91165161133</ele>
        <time>2011-06-05T12:31:34Z</time>
      </trkpt>
      <trkpt lat="43.15758" lon="2.38888">
        <ele>349.23864746094</ele>
        <time>2011-06-05T12:31:44Z</time>
      </trkpt>
      <trkpt lat="43.15757" lon="2.38886">
        <ele>349.49893188477</ele>
        <time>2011-06-05T12:31:58Z</time>
      </trkpt>
      <trkpt lat="43.15757" lon="2.38881">
        <ele>349.3030090332</ele>
        <time>2011-06-05T12:39:43Z</time>
      </trkpt>
      <trkpt lat="43.15753" lon="2.38863">
        <ele>350.05163574219</ele>
        <time>2011-06-05T12:39:49Z</time>
      </trkpt>
      <trkpt lat="43.15751" lon="2.3886">
        <ele>350.34457397461</ele>
        <time>2011-06-05T12:39:50Z</time>
      </trkpt>
      <trkpt lat="43.15746" lon="2.38849">
        <ele>349.14767456055</ele>
        <time>2011-06-05T12:39:54Z</time>
      </trkpt>
      <trkpt lat="43.15749" lon="2.38842">
        <ele>349.89575195312</ele>
        <time>2011-06-05T12:39:56Z</time>
      </trkpt>
      <trkpt lat="43.15758" lon="2.38823">
        <ele>346.25042724609</ele>
        <time>2011-06-05T12:40:00Z</time>
      </trkpt>
      <trkpt lat="43.15775" lon="2.38804">
        <ele>340.43441772461</ele>
        <time>2011-06-05T12:40:04Z</time>
      </trkpt>
      <trkpt lat="43.15782" lon="2.38791">
        <ele>337.81094360352</ele>
        <time>2011-06-05T12:40:06Z</time>
      </trkpt>
      <trkpt lat="43.15799" lon="2.38758">
        <ele>333.12741088867</ele>
        <time>2011-06-05T12:40:11Z</time>
      </trkpt>
      <trkpt lat="43.15801" lon="2.38751">
        <ele>332.44732666016</ele>
        <time>2011-06-05T12:40:12Z</time>
      </trkpt>
      <trkpt lat="43.15812" lon="2.38726">
        <ele>329.90466308594</ele>
        <time>2011-06-05T12:40:17Z</time>
      </trkpt>
      <trkpt lat="43.15815" lon="2.38722">
        <ele>329.61215209961</ele>
        <time>2011-06-05T12:40:18Z</time>
      </trkpt>
      <trkpt lat="43.15823" lon="2.38698">
        <ele>328.34811401367</ele>
        <time>2011-06-05T12:40:22Z</time>
      </trkpt>
      <trkpt lat="43.1583" lon="2.38682">
        <ele>328.16998291016</ele>
        <time>2011-06-05T12:40:25Z</time>
      </trkpt>
      <trkpt lat="43.15836" lon="2.38674">
        <ele>327.60678100586</ele>
        <time>2011-06-05T12:40:27Z</time>
      </trkpt>
      <trkpt lat="43.15849" lon="2.38654">
        <ele>322.24810791016</ele>
        <time>2011-06-05T12:40:33Z</time>
      </trkpt>
      <trkpt lat="43.15849" lon="2.3863">
        <ele>319.32678222656</ele>
        <time>2011-06-05T12:40:38Z</time>
      </trkpt>
      <trkpt lat="43.15844" lon="2.38612">
        <ele>318.20452880859</ele>
        <time>2011-06-05T12:40:42Z</time>
      </trkpt>
      <trkpt lat="43.15843" lon="2.38588">
        <ele>315.5632019043</ele>
        <time>2011-06-05T12:40:45Z</time>
      </trkpt>
      <trkpt lat="43.15845" lon="2.38551">
        <ele>312.22708129883</ele>
        <time>2011-06-05T12:40:50Z</time>
      </trkpt>
      <trkpt lat="43.15845" lon="2.38509">
        <ele>309.05020141602</ele>
        <time>2011-06-05T12:40:56Z</time>
      </trkpt>
      <trkpt lat="43.15844" lon="2.385">
        <ele>308.5373840332</ele>
        <time>2011-06-05T12:40:57Z</time>
      </trkpt>
      <trkpt lat="43.15841" lon="2.38469">
        <ele>306.12185668945</ele>
        <time>2011-06-05T12:41:00Z</time>
      </trkpt>
      <trkpt lat="43.15841" lon="2.38439">
        <ele>303.20596313477</ele>
        <time>2011-06-05T12:41:04Z</time>
      </trkpt>
      <trkpt lat="43.15841" lon="2.38433">
        <ele>302.533203125</ele>
        <time>2011-06-05T12:41:05Z</time>
      </trkpt>
      <trkpt lat="43.15842" lon="2.38408">
        <ele>299.21252441406</ele>
        <time>2011-06-05T12:41:10Z</time>
      </trkpt>
      <trkpt lat="43.15844" lon="2.38382">
        <ele>294.49154663086</ele>
        <time>2011-06-05T12:41:15Z</time>
      </trkpt>
      <trkpt lat="43.15845" lon="2.38376">
        <ele>293.28369140625</ele>
        <time>2011-06-05T12:41:16Z</time>
      </trkpt>
      <trkpt lat="43.15847" lon="2.38361">
        <ele>290.5361328125</ele>
        <time>2011-06-05T12:41:18Z</time>
      </trkpt>
      <trkpt lat="43.1585" lon="2.38334">
        <ele>285.95022583008</ele>
        <time>2011-06-05T12:41:22Z</time>
      </trkpt>
      <trkpt lat="43.1586" lon="2.3831">
        <ele>281.59997558594</ele>
        <time>2011-06-05T12:41:26Z</time>
      </trkpt>
      <trkpt lat="43.15867" lon="2.38294">
        <ele>279.07769775391</ele>
        <time>2011-06-05T12:41:30Z</time>
      </trkpt>
      <trkpt lat="43.1587" lon="2.38285">
        <ele>277.78646850586</ele>
        <time>2011-06-05T12:41:32Z</time>
      </trkpt>
      <trkpt lat="43.15863" lon="2.38281">
        <ele>276.67288208008</ele>
        <time>2011-06-05T12:41:36Z</time>
      </trkpt>
      <trkpt lat="43.15853" lon="2.38288">
        <ele>277.57098388672</ele>
        <time>2011-06-05T12:41:40Z</time>
      </trkpt>
      <trkpt lat="43.15836" lon="2.38292">
        <ele>277.63238525391</ele>
        <time>2011-06-05T12:41:44Z</time>
      </trkpt>
      <trkpt lat="43.15832" lon="2.38293">
        <ele>277.4372253418</ele>
        <time>2011-06-05T12:41:45Z</time>
      </trkpt>
      <trkpt lat="43.15819" lon="2.38301">
        <ele>274.79534912109</ele>
        <time>2011-06-05T12:41:49Z</time>
      </trkpt>
      <trkpt lat="43.15807" lon="2.38301">
        <ele>270.78771972656</ele>
        <time>2011-06-05T12:41:55Z</time>
      </trkpt>
      <trkpt lat="43.15799" lon="2.38304">
        <ele>268.85205078125</ele>
        <time>2011-06-05T12:41:59Z</time>
      </trkpt>
      <trkpt lat="43.15789" lon="2.38302">
        <ele>265.59475708008</ele>
        <time>2011-06-05T12:42:02Z</time>
      </trkpt>
      <trkpt lat="43.15771" lon="2.38297">
        <ele>259.0075378418</ele>
        <time>2011-06-05T12:42:07Z</time>
      </trkpt>
      <trkpt lat="43.15765" lon="2.38292">
        <ele>256.19741821289</ele>
        <time>2011-06-05T12:42:09Z</time>
      </trkpt>
      <trkpt lat="43.15767" lon="2.38269">
        <ele>253.353515625</ele>
        <time>2011-06-05T12:42:13Z</time>
      </trkpt>
      <trkpt lat="43.15773" lon="2.38239">
        <ele>250.93920898438</ele>
        <time>2011-06-05T12:42:18Z</time>
      </trkpt>
      <trkpt lat="43.15772" lon="2.38236">
        <ele>250.35415649414</ele>
        <time>2011-06-05T12:42:19Z</time>
      </trkpt>
      <trkpt lat="43.15776" lon="2.3821">
        <ele>247.99847412109</ele>
        <time>2011-06-05T12:42:24Z</time>
      </trkpt>
      <trkpt lat="43.15783" lon="2.38196">
        <ele>247.29748535156</ele>
        <time>2011-06-05T12:42:26Z</time>
      </trkpt>
      <trkpt lat="43.15803" lon="2.38172">
        <ele>246.05851745606</ele>
        <time>2011-06-05T12:42:32Z</time>
      </trkpt>
      <trkpt lat="43.15828" lon="2.38149">
        <ele>245.8694152832</ele>
        <time>2011-06-05T12:42:37Z</time>
      </trkpt>
      <trkpt lat="43.15839" lon="2.38136">
        <ele>245.16242980957</ele>
        <time>2011-06-05T12:42:40Z</time>
      </trkpt>
      <trkpt lat="43.1585" lon="2.38127">
        <ele>244.22792053223</ele>
        <time>2011-06-05T12:42:42Z</time>
      </trkpt>
      <trkpt lat="43.1587" lon="2.3811">
        <ele>241.82333374023</ele>
        <time>2011-06-05T12:42:46Z</time>
      </trkpt>
      <trkpt lat="43.15875" lon="2.38101">
        <ele>240.27647399902</ele>
        <time>2011-06-05T12:42:50Z</time>
      </trkpt>
      <trkpt lat="43.15874" lon="2.38088">
        <ele>238.32203674316</ele>
        <time>2011-06-05T12:42:53Z</time>
      </trkpt>
      <trkpt lat="43.15878" lon="2.38082">
        <ele>237.64489746094</ele>
        <time>2011-06-05T12:42:57Z</time>
      </trkpt>
      <trkpt lat="43.15889" lon="2.38077">
        <ele>237.8046875</ele>
        <time>2011-06-05T12:43:01Z</time>
      </trkpt>
      <trkpt lat="43.15893" lon="2.38076">
        <ele>237.85270690918</ele>
        <time>2011-06-05T12:43:06Z</time>
      </trkpt>
      <trkpt lat="43.15893" lon="2.38075">
        <ele>237.94866943359</ele>
        <time>2011-06-05T12:43:08Z</time>
      </trkpt>
      <trkpt lat="43.15894" lon="2.38077">
        <ele>237.59176635742</ele>
        <time>2011-06-05T12:45:11Z</time>
      </trkpt>
      <trkpt lat="43.15895" lon="2.38077">
        <ele>237.49031066894</ele>
        <time>2011-06-05T12:45:12Z</time>
      </trkpt>
      <trkpt lat="43.159" lon="2.38076">
        <ele>237.28637695312</ele>
        <time>2011-06-05T12:45:14Z</time>
      </trkpt>
      <trkpt lat="43.15913" lon="2.38078">
        <ele>236.14392089844</ele>
        <time>2011-06-05T12:45:19Z</time>
      </trkpt>
      <trkpt lat="43.15928" lon="2.38075">
        <ele>235.89051818848</ele>
        <time>2011-06-05T12:45:24Z</time>
      </trkpt>
      <trkpt lat="43.15938" lon="2.38082">
        <ele>234.40481567383</ele>
        <time>2011-06-05T12:45:27Z</time>
      </trkpt>
      <trkpt lat="43.15944" lon="2.38087">
        <ele>234.5779876709</ele>
        <time>2011-06-05T12:45:30Z</time>
      </trkpt>
      <trkpt lat="43.15951" lon="2.38088">
        <ele>234.37026977539</ele>
        <time>2011-06-05T12:45:35Z</time>
      </trkpt>
      <trkpt lat="43.15952" lon="2.38087">
        <ele>234.29145812988</ele>
        <time>2011-06-05T12:45:36Z</time>
      </trkpt>
      <trkpt lat="43.15964" lon="2.38088">
        <ele>233.80558776856</ele>
        <time>2011-06-05T12:45:41Z</time>
      </trkpt>
      <trkpt lat="43.1598" lon="2.3809">
        <ele>233.29225158691</ele>
        <time>2011-06-05T12:45:46Z</time>
      </trkpt>
      <trkpt lat="43.1599" lon="2.38097">
        <ele>233.27587890625</ele>
        <time>2011-06-05T12:45:51Z</time>
      </trkpt>
      <trkpt lat="43.15998" lon="2.38113">
        <ele>233.58129882812</ele>
        <time>2011-06-05T12:45:56Z</time>
      </trkpt>
      <trkpt lat="43.16" lon="2.38118">
        <ele>233.66584777832</ele>
        <time>2011-06-05T12:45:57Z</time>
      </trkpt>
      <trkpt lat="43.1601" lon="2.38144">
        <ele>234.7159576416</ele>
        <time>2011-06-05T12:46:03Z</time>
      </trkpt>
      <trkpt lat="43.1602" lon="2.38156">
        <ele>234.54685974121</ele>
        <time>2011-06-05T12:46:08Z</time>
      </trkpt>
      <trkpt lat="43.16022" lon="2.38158">
        <ele>234.41331481934</ele>
        <time>2011-06-05T12:46:09Z</time>
      </trkpt>
      <trkpt lat="43.16035" lon="2.38175">
        <ele>234.28353881836</ele>
        <time>2011-06-05T12:46:14Z</time>
      </trkpt>
      <trkpt lat="43.16037" lon="2.38178">
        <ele>234.34992980957</ele>
        <time>2011-06-05T12:46:15Z</time>
      </trkpt>
      <trkpt lat="43.16055" lon="2.38185">
        <ele>232.90713500977</ele>
        <time>2011-06-05T12:46:21Z</time>
      </trkpt>
      <trkpt lat="43.16059" lon="2.38184">
        <ele>232.41047668457</ele>
        <time>2011-06-05T12:46:24Z</time>
      </trkpt>
      <trkpt lat="43.16059" lon="2.38184">
        <ele>232.29801940918</ele>
        <time>2011-06-05T12:46:26Z</time>
      </trkpt>
      <trkpt lat="43.16065" lon="2.38186">
        <ele>231.68968200684</ele>
        <time>2011-06-05T12:46:29Z</time>
      </trkpt>
      <trkpt lat="43.16076" lon="2.38201">
        <ele>230.27687072754</ele>
        <time>2011-06-05T12:46:34Z</time>
      </trkpt>
      <trkpt lat="43.16084" lon="2.38206">
        <ele>229.04426574707</ele>
        <time>2011-06-05T12:46:37Z</time>
      </trkpt>
      <trkpt lat="43.16094" lon="2.38208">
        <ele>228.88583374023</ele>
        <time>2011-06-05T12:46:40Z</time>
      </trkpt>
      <trkpt lat="43.16105" lon="2.38209">
        <ele>228.72346496582</ele>
        <time>2011-06-05T12:46:43Z</time>
      </trkpt>
      <trkpt lat="43.16125" lon="2.38212">
        <ele>228.21327209473</ele>
        <time>2011-06-05T12:46:49Z</time>
      </trkpt>
      <trkpt lat="43.1614" lon="2.38217">
        <ele>227.54684448242</ele>
        <time>2011-06-05T12:46:55Z</time>
      </trkpt>
      <trkpt lat="43.16154" lon="2.38219">
        <ele>227.02537536621</ele>
        <time>2011-06-05T12:47:00Z</time>
      </trkpt>
      <trkpt lat="43.16168" lon="2.38206">
        <ele>228.06033325195</ele>
        <time>2011-06-05T12:47:05Z</time>
      </trkpt>
      <trkpt lat="43.1618" lon="2.38191">
        <ele>228.34147644043</ele>
        <time>2011-06-05T12:47:09Z</time>
      </trkpt>
      <trkpt lat="43.16187" lon="2.38175">
        <ele>228.97106933594</ele>
        <time>2011-06-05T12:47:13Z</time>
      </trkpt>
      <trkpt lat="43.16194" lon="2.38165">
        <ele>228.78314208984</ele>
        <time>2011-06-05T12:47:17Z</time>
      </trkpt>
      <trkpt lat="43.16209" lon="2.38153">
        <ele>226.89498901367</ele>
        <time>2011-06-05T12:47:20Z</time>
      </trkpt>
      <trkpt lat="43.16235" lon="2.38136">
        <ele>223.05364990234</ele>
        <time>2011-06-05T12:47:25Z</time>
      </trkpt>
      <trkpt lat="43.16253" lon="2.38128">
        <ele>220.13507080078</ele>
        <time>2011-06-05T12:47:29Z</time>
      </trkpt>
      <trkpt lat="43.16268" lon="2.38107">
        <ele>218.13148498535</ele>
        <time>2011-06-05T12:47:34Z</time>
      </trkpt>
      <trkpt lat="43.1627" lon="2.38102">
        <ele>217.91716003418</ele>
        <time>2011-06-05T12:47:35Z</time>
      </trkpt>
      <trkpt lat="43.16273" lon="2.38074">
        <ele>218.01612854004</ele>
        <time>2011-06-05T12:47:40Z</time>
      </trkpt>
      <trkpt lat="43.16285" lon="2.38065">
        <ele>217.07952880859</ele>
        <time>2011-06-05T12:47:43Z</time>
      </trkpt>
      <trkpt lat="43.16288" lon="2.3806">
        <ele>216.97113037109</ele>
        <time>2011-06-05T12:47:44Z</time>
      </trkpt>
      <trkpt lat="43.163" lon="2.38055">
        <ele>216.01121520996</ele>
        <time>2011-06-05T12:47:47Z</time>
      </trkpt>
      <trkpt lat="43.16314" lon="2.38057">
        <ele>214.22602844238</ele>
        <time>2011-06-05T12:47:50Z</time>
      </trkpt>
      <trkpt lat="43.16326" lon="2.38067">
        <ele>211.38818359375</ele>
        <time>2011-06-05T12:47:54Z</time>
      </trkpt>
      <trkpt lat="43.16328" lon="2.38065">
        <ele>211.3938293457</ele>
        <time>2011-06-05T12:47:55Z</time>
      </trkpt>
      <trkpt lat="43.16334" lon="2.38054">
        <ele>212.21557617188</ele>
        <time>2011-06-05T12:47:59Z</time>
      </trkpt>
      <trkpt lat="43.16342" lon="2.38032">
        <ele>214.56481933594</ele>
        <time>2011-06-05T12:48:04Z</time>
      </trkpt>
      <trkpt lat="43.16354" lon="2.38018">
        <ele>215.0403137207</ele>
        <time>2011-06-05T12:48:09Z</time>
      </trkpt>
      <trkpt lat="43.16358" lon="2.38018">
        <ele>214.60682678223</ele>
        <time>2011-06-05T12:48:10Z</time>
      </trkpt>
      <trkpt lat="43.16374" lon="2.38024">
        <ele>212.02873229981</ele>
        <time>2011-06-05T12:48:14Z</time>
      </trkpt>
      <trkpt lat="43.16395" lon="2.38034">
        <ele>208.79209899902</ele>
        <time>2011-06-05T12:48:20Z</time>
      </trkpt>
      <trkpt lat="43.16399" lon="2.38037">
        <ele>208.08515930176</ele>
        <time>2011-06-05T12:48:22Z</time>
      </trkpt>
      <trkpt lat="43.1641" lon="2.38045">
        <ele>206.3895111084</ele>
        <time>2011-06-05T12:48:27Z</time>
      </trkpt>
      <trkpt lat="43.16412" lon="2.38047">
        <ele>205.99545288086</ele>
        <time>2011-06-05T12:48:28Z</time>
      </trkpt>
      <trkpt lat="43.1642" lon="2.38061">
        <ele>204.63096618652</ele>
        <time>2011-06-05T12:48:32Z</time>
      </trkpt>
      <trkpt lat="43.16432" lon="2.38064">
        <ele>204.55776977539</ele>
        <time>2011-06-05T12:48:36Z</time>
      </trkpt>
      <trkpt lat="43.16441" lon="2.38054">
        <ele>204.9386138916</ele>
        <time>2011-06-05T12:48:39Z</time>
      </trkpt>
      <trkpt lat="43.16444" lon="2.38047">
        <ele>205.0740814209</ele>
        <time>2011-06-05T12:48:40Z</time>
      </trkpt>
      <trkpt lat="43.16457" lon="2.38019">
        <ele>204.68565368652</ele>
        <time>2011-06-05T12:48:46Z</time>
      </trkpt>
      <trkpt lat="43.16459" lon="2.38012">
        <ele>204.55619812012</ele>
        <time>2011-06-05T12:48:48Z</time>
      </trkpt>
      <trkpt lat="43.16463" lon="2.37996">
        <ele>204.2733001709</ele>
        <time>2011-06-05T12:48:52Z</time>
      </trkpt>
      <trkpt lat="43.16469" lon="2.37967">
        <ele>205.50720214844</ele>
        <time>2011-06-05T12:48:57Z</time>
      </trkpt>
      <trkpt lat="43.1648" lon="2.37949">
        <ele>204.70335388184</ele>
        <time>2011-06-05T12:49:01Z</time>
      </trkpt>
      <trkpt lat="43.16486" lon="2.37931">
        <ele>204.33268737793</ele>
        <time>2011-06-05T12:49:06Z</time>
      </trkpt>
      <trkpt lat="43.16492" lon="2.37913">
        <ele>204.05462646484</ele>
        <time>2011-06-05T12:49:11Z</time>
      </trkpt>
      <trkpt lat="43.16502" lon="2.37896">
        <ele>204.29063415527</ele>
        <time>2011-06-05T12:49:16Z</time>
      </trkpt>
      <trkpt lat="43.16504" lon="2.37894">
        <ele>204.33424377441</ele>
        <time>2011-06-05T12:49:18Z</time>
      </trkpt>
      <trkpt lat="43.16513" lon="2.37901">
        <ele>202.81616210938</ele>
        <time>2011-06-05T12:49:21Z</time>
      </trkpt>
      <trkpt lat="43.16521" lon="2.37911">
        <ele>201.0711517334</ele>
        <time>2011-06-05T12:49:25Z</time>
      </trkpt>
      <trkpt lat="43.16534" lon="2.3791">
        <ele>200.27857971191</ele>
        <time>2011-06-05T12:49:28Z</time>
      </trkpt>
      <trkpt lat="43.16544" lon="2.37911">
        <ele>199.44670104981</ele>
        <time>2011-06-05T12:49:31Z</time>
      </trkpt>
      <trkpt lat="43.16552" lon="2.3791">
        <ele>198.9757232666</ele>
        <time>2011-06-05T12:49:34Z</time>
      </trkpt>
      <trkpt lat="43.16555" lon="2.37904">
        <ele>199.28704833984</ele>
        <time>2011-06-05T12:49:37Z</time>
      </trkpt>
      <trkpt lat="43.16563" lon="2.37904">
        <ele>198.57833862305</ele>
        <time>2011-06-05T12:49:41Z</time>
      </trkpt>
      <trkpt lat="43.16565" lon="2.37912">
        <ele>197.71719360352</ele>
        <time>2011-06-05T12:49:44Z</time>
      </trkpt>
      <trkpt lat="43.16568" lon="2.37931">
        <ele>197.35348510742</ele>
        <time>2011-06-05T12:49:48Z</time>
      </trkpt>
      <trkpt lat="43.16573" lon="2.37947">
        <ele>197.31292724609</ele>
        <time>2011-06-05T12:49:52Z</time>
      </trkpt>
      <trkpt lat="43.16586" lon="2.37946">
        <ele>196.54280090332</ele>
        <time>2011-06-05T12:49:56Z</time>
      </trkpt>
      <trkpt lat="43.16589" lon="2.37946">
        <ele>196.32893371582</ele>
        <time>2011-06-05T12:49:57Z</time>
      </trkpt>
      <trkpt lat="43.16615" lon="2.37945">
        <ele>194.79220581055</ele>
        <time>2011-06-05T12:50:04Z</time>
      </trkpt>
      <trkpt lat="43.1664" lon="2.37946">
        <ele>193.20405578613</ele>
        <time>2011-06-05T12:50:11Z</time>
      </trkpt>
      <trkpt lat="43.16664" lon="2.37946">
        <ele>191.77638244629</ele>
        <time>2011-06-05T12:50:18Z</time>
      </trkpt>
      <trkpt lat="43.1669" lon="2.37945">
        <ele>192.35954284668</ele>
        <time>2011-06-05T12:50:26Z</time>
      </trkpt>
      <trkpt lat="43.16706" lon="2.37942">
        <ele>193.04879760742</ele>
        <time>2011-06-05T12:50:31Z</time>
      </trkpt>
      <trkpt lat="43.16717" lon="2.37941">
        <ele>193.47755432129</ele>
        <time>2011-06-05T12:50:35Z</time>
      </trkpt>
      <trkpt lat="43.16723" lon="2.37954">
        <ele>192.92401123047</ele>
        <time>2011-06-05T12:50:39Z</time>
      </trkpt>
      <trkpt lat="43.16727" lon="2.37973">
        <ele>192.00872802734</ele>
        <time>2011-06-05T12:50:42Z</time>
      </trkpt>
      <trkpt lat="43.1674" lon="2.3801">
        <ele>190.39172363281</ele>
        <time>2011-06-05T12:50:47Z</time>
      </trkpt>
      <trkpt lat="43.16753" lon="2.38065">
        <ele>187.96054077148</ele>
        <time>2011-06-05T12:50:53Z</time>
      </trkpt>
      <trkpt lat="43.1676" lon="2.38104">
        <ele>187.24533081055</ele>
        <time>2011-06-05T12:50:57Z</time>
      </trkpt>
      <trkpt lat="43.16764" lon="2.38123">
        <ele>187.17916870117</ele>
        <time>2011-06-05T12:50:59Z</time>
      </trkpt>
      <trkpt lat="43.16769" lon="2.38149">
        <ele>186.96006774902</ele>
        <time>2011-06-05T12:51:02Z</time>
      </trkpt>
      <trkpt lat="43.16774" lon="2.38172">
        <ele>186.65637207031</ele>
        <time>2011-06-05T12:51:06Z</time>
      </trkpt>
      <trkpt lat="43.16776" lon="2.38176">
        <ele>186.58770751953</ele>
        <time>2011-06-05T12:51:10Z</time>
      </trkpt>
      <trkpt lat="43.16778" lon="2.38167">
        <ele>186.65866088867</ele>
        <time>2011-06-05T12:51:25Z</time>
      </trkpt>
      <trkpt lat="43.16777" lon="2.38165">
        <ele>186.70301818848</ele>
        <time>2011-06-05T12:51:28Z</time>
      </trkpt>
      <trkpt lat="43.1678" lon="2.3818">
        <ele>186.47441101074</ele>
        <time>2011-06-05T12:51:41Z</time>
      </trkpt>
      <trkpt lat="43.16781" lon="2.38183">
        <ele>186.43264770508</ele>
        <time>2011-06-05T12:51:42Z</time>
      </trkpt>
      <trkpt lat="43.1679" lon="2.38209">
        <ele>186.00978088379</ele>
        <time>2011-06-05T12:51:49Z</time>
      </trkpt>
      <trkpt lat="43.16793" lon="2.38216">
        <ele>185.89219665527</ele>
        <time>2011-06-05T12:51:53Z</time>
      </trkpt>
      <trkpt lat="43.16794" lon="2.3822">
        <ele>185.83297729492</ele>
        <time>2011-06-05T12:51:58Z</time>
      </trkpt>
      <trkpt lat="43.16795" lon="2.38224">
        <ele>185.76287841797</ele>
        <time>2011-06-05T12:52:02Z</time>
      </trkpt>
      <trkpt lat="43.16798" lon="2.38232">
        <ele>185.63270568848</ele>
        <time>2011-06-05T12:52:04Z</time>
      </trkpt>
      <trkpt lat="43.16814" lon="2.38267">
        <ele>184.84895324707</ele>
        <time>2011-06-05T12:52:11Z</time>
      </trkpt>
      <trkpt lat="43.16835" lon="2.38308">
        <ele>182.89973449707</ele>
        <time>2011-06-05T12:52:19Z</time>
      </trkpt>
      <trkpt lat="43.1685" lon="2.38335">
        <ele>181.74397277832</ele>
        <time>2011-06-05T12:52:26Z</time>
      </trkpt>
      <trkpt lat="43.16862" lon="2.38346">
        <ele>181.25848388672</ele>
        <time>2011-06-05T12:52:30Z</time>
      </trkpt>
      <trkpt lat="43.16883" lon="2.38356">
        <ele>180.53465270996</ele>
        <time>2011-06-05T12:52:36Z</time>
      </trkpt>
      <trkpt lat="43.16915" lon="2.38363">
        <ele>179.59599304199</ele>
        <time>2011-06-05T12:52:44Z</time>
      </trkpt>
      <trkpt lat="43.16943" lon="2.38371">
        <ele>179.16841125488</ele>
        <time>2011-06-05T12:52:51Z</time>
      </trkpt>
      <trkpt lat="43.16986" lon="2.38381">
        <ele>178.69805908203</ele>
        <time>2011-06-05T12:53:01Z</time>
      </trkpt>
      <trkpt lat="43.17016" lon="2.38389">
        <ele>177.42469787598</ele>
        <time>2011-06-05T12:53:08Z</time>
      </trkpt>
      <trkpt lat="43.17042" lon="2.38395">
        <ele>175.74214172363</ele>
        <time>2011-06-05T12:53:13Z</time>
      </trkpt>
      <trkpt lat="43.17065" lon="2.38405">
        <ele>174.20819091797</ele>
        <time>2011-06-05T12:53:17Z</time>
      </trkpt>
      <trkpt lat="43.17078" lon="2.38424">
        <ele>173.17613220215</ele>
        <time>2011-06-05T12:53:20Z</time>
      </trkpt>
      <trkpt lat="43.17078" lon="2.38432">
        <ele>173.04891967773</ele>
        <time>2011-06-05T12:53:21Z</time>
      </trkpt>
      <trkpt lat="43.17079" lon="2.38465">
        <ele>172.56089782715</ele>
        <time>2011-06-05T12:53:25Z</time>
      </trkpt>
      <trkpt lat="43.17086" lon="2.38524">
        <ele>172.33268737793</ele>
        <time>2011-06-05T12:53:32Z</time>
      </trkpt>
      <trkpt lat="43.17088" lon="2.3853">
        <ele>172.44985961914</ele>
        <time>2011-06-05T12:53:33Z</time>
      </trkpt>
      <trkpt lat="43.17089" lon="2.38558">
        <ele>172.86106872559</ele>
        <time>2011-06-05T12:53:38Z</time>
      </trkpt>
      <trkpt lat="43.17088" lon="2.38566">
        <ele>172.93209838867</ele>
        <time>2011-06-05T12:53:40Z</time>
      </trkpt>
      <trkpt lat="43.1708" lon="2.38566">
        <ele>172.84684753418</ele>
        <time>2011-06-05T12:53:44Z</time>
      </trkpt>
      <trkpt lat="43.17051" lon="2.3856">
        <ele>173.21186828613</ele>
        <time>2011-06-05T12:53:50Z</time>
      </trkpt>
      <trkpt lat="43.17021" lon="2.38558">
        <ele>173.67514038086</ele>
        <time>2011-06-05T12:53:56Z</time>
      </trkpt>
      <trkpt lat="43.17002" lon="2.3856">
        <ele>173.96774291992</ele>
        <time>2011-06-05T12:54:00Z</time>
      </trkpt>
      <trkpt lat="43.16978" lon="2.38572">
        <ele>174.45938110352</ele>
        <time>2011-06-05T12:54:06Z</time>
      </trkpt>
      <trkpt lat="43.16959" lon="2.38582">
        <ele>174.95581054688</ele>
        <time>2011-06-05T12:54:11Z</time>
      </trkpt>
      <trkpt lat="43.16941" lon="2.38593">
        <ele>175.63500976562</ele>
        <time>2011-06-05T12:54:16Z</time>
      </trkpt>
      <trkpt lat="43.16924" lon="2.38599">
        <ele>176.21865844727</ele>
        <time>2011-06-05T12:54:21Z</time>
      </trkpt>
      <trkpt lat="43.16919" lon="2.386">
        <ele>176.36399841309</ele>
        <time>2011-06-05T12:54:23Z</time>
      </trkpt>
      <trkpt lat="43.16914" lon="2.38612">
        <ele>176.82037353516</ele>
        <time>2011-06-05T12:54:28Z</time>
      </trkpt>
      <trkpt lat="43.16914" lon="2.38629">
        <ele>177.2262878418</ele>
        <time>2011-06-05T12:54:33Z</time>
      </trkpt>
      <trkpt lat="43.16916" lon="2.38664">
        <ele>177.98916625977</ele>
        <time>2011-06-05T12:54:41Z</time>
      </trkpt>
      <trkpt lat="43.16921" lon="2.38693">
        <ele>178.53379821777</ele>
        <time>2011-06-05T12:54:48Z</time>
      </trkpt>
      <trkpt lat="43.16932" lon="2.38709">
        <ele>178.64823913574</ele>
        <time>2011-06-05T12:54:54Z</time>
      </trkpt>
      <trkpt lat="43.16949" lon="2.38722">
        <ele>178.54809570312</ele>
        <time>2011-06-05T12:55:00Z</time>
      </trkpt>
      <trkpt lat="43.16964" lon="2.38723">
        <ele>178.22595214844</ele>
        <time>2011-06-05T12:55:05Z</time>
      </trkpt>
      <trkpt lat="43.16977" lon="2.38722">
        <ele>177.88148498535</ele>
        <time>2011-06-05T12:55:10Z</time>
      </trkpt>
      <trkpt lat="43.16981" lon="2.38721">
        <ele>177.7664642334</ele>
        <time>2011-06-05T12:55:12Z</time>
      </trkpt>
      <trkpt lat="43.16991" lon="2.38719">
        <ele>177.48493957519</ele>
        <time>2011-06-05T12:55:17Z</time>
      </trkpt>
      <trkpt lat="43.16994" lon="2.38723">
        <ele>177.49638366699</ele>
        <time>2011-06-05T12:55:23Z</time>
      </trkpt>
      <trkpt lat="43.1699" lon="2.38723">
        <ele>177.59480285644</ele>
        <time>2011-06-05T12:55:30Z</time>
      </trkpt>
      <trkpt lat="43.1699" lon="2.38723">
        <ele>177.59423828125</ele>
        <time>2011-06-05T12:55:31Z</time>
      </trkpt>
    </trkseg>
  </trk>
</gpx>